<?xml version="1.0" encoding="UTF-8" standalone="no" ?>
<gpx xmlns="http://www.topografix.com/GPX/1/1" xmlns:xsi="http://www.w3.org/2001/XMLSchema-instance" xsi:schemaLocation="http://www.topografix.com/GPX/1/1 http://www.topografix.com/GPX/1/1/gpx.xsd" version="1.1" creator="VisuGPX - https://www.visugpx.com">
  <metadata>
    <name>Boucle 28 km en forêt de Fontainebleau </name>
    <desc><![CDATA[Sortie menée par Gérard le 9 février
Magnifique parcours et météo au top]]></desc>
  </metadata>
  <trk>
    <name><![CDATA[SityTrail - Boucle 28 km en forêt de Fontainebleau ]]></name>
    <desc><![CDATA[Sortie menée par Gérard le 9 février
Magnifique parcours et météo au top]]></desc>
    <trkseg>
      <trkpt lat="48.39206" lon="2.7037">
        <ele>93</ele>
        <time>2022-02-09T08:23:57.767Z</time>
      </trkpt>
      <trkpt lat="48.39202" lon="2.70372">
        <ele>93</ele>
        <time>2022-02-09T08:34:40.774Z</time>
      </trkpt>
      <trkpt lat="48.39202" lon="2.70372">
        <ele>93</ele>
        <time>2022-02-09T08:34:45.765Z</time>
      </trkpt>
      <trkpt lat="48.39199" lon="2.70372">
        <ele>93</ele>
        <time>2022-02-09T08:34:49.769Z</time>
      </trkpt>
      <trkpt lat="48.39195" lon="2.70374">
        <ele>93</ele>
        <time>2022-02-09T08:34:53.763Z</time>
      </trkpt>
      <trkpt lat="48.3919" lon="2.70376">
        <ele>95</ele>
        <time>2022-02-09T08:34:58.770Z</time>
      </trkpt>
      <trkpt lat="48.39185" lon="2.70379">
        <ele>95</ele>
        <time>2022-02-09T08:35:03.768Z</time>
      </trkpt>
      <trkpt lat="48.39179" lon="2.70378">
        <ele>94</ele>
        <time>2022-02-09T08:35:08.770Z</time>
      </trkpt>
      <trkpt lat="48.39173" lon="2.70377">
        <ele>94</ele>
        <time>2022-02-09T08:35:12.767Z</time>
      </trkpt>
      <trkpt lat="48.39167" lon="2.70373">
        <ele>94</ele>
        <time>2022-02-09T08:35:17.771Z</time>
      </trkpt>
      <trkpt lat="48.39161" lon="2.70367">
        <ele>94</ele>
        <time>2022-02-09T08:35:22.767Z</time>
      </trkpt>
      <trkpt lat="48.39158" lon="2.70359">
        <ele>94</ele>
        <time>2022-02-09T08:35:27.771Z</time>
      </trkpt>
      <trkpt lat="48.39154" lon="2.70354">
        <ele>94</ele>
        <time>2022-02-09T08:35:32.772Z</time>
      </trkpt>
      <trkpt lat="48.39151" lon="2.70348">
        <ele>93</ele>
        <time>2022-02-09T08:35:37.768Z</time>
      </trkpt>
      <trkpt lat="48.39146" lon="2.7034">
        <ele>93</ele>
        <time>2022-02-09T08:35:42.771Z</time>
      </trkpt>
      <trkpt lat="48.39143" lon="2.70334">
        <ele>93</ele>
        <time>2022-02-09T08:35:46.773Z</time>
      </trkpt>
      <trkpt lat="48.3914" lon="2.70328">
        <ele>93</ele>
        <time>2022-02-09T08:35:50.763Z</time>
      </trkpt>
      <trkpt lat="48.39135" lon="2.70321">
        <ele>93</ele>
        <time>2022-02-09T08:35:55.771Z</time>
      </trkpt>
      <trkpt lat="48.3913" lon="2.70315">
        <ele>93</ele>
        <time>2022-02-09T08:36:00.781Z</time>
      </trkpt>
      <trkpt lat="48.39126" lon="2.7031">
        <ele>93</ele>
        <time>2022-02-09T08:36:05.760Z</time>
      </trkpt>
      <trkpt lat="48.39122" lon="2.70304">
        <ele>94</ele>
        <time>2022-02-09T08:36:09.771Z</time>
      </trkpt>
      <trkpt lat="48.39117" lon="2.70296">
        <ele>94</ele>
        <time>2022-02-09T08:36:14.770Z</time>
      </trkpt>
      <trkpt lat="48.39112" lon="2.70289">
        <ele>93</ele>
        <time>2022-02-09T08:36:19.766Z</time>
      </trkpt>
      <trkpt lat="48.39107" lon="2.70281">
        <ele>93</ele>
        <time>2022-02-09T08:36:24.764Z</time>
      </trkpt>
      <trkpt lat="48.39102" lon="2.70271">
        <ele>93</ele>
        <time>2022-02-09T08:36:29.769Z</time>
      </trkpt>
      <trkpt lat="48.39098" lon="2.70264">
        <ele>93</ele>
        <time>2022-02-09T08:36:34.766Z</time>
      </trkpt>
      <trkpt lat="48.39094" lon="2.7026">
        <ele>92</ele>
        <time>2022-02-09T08:36:38.764Z</time>
      </trkpt>
      <trkpt lat="48.39088" lon="2.70254">
        <ele>92</ele>
        <time>2022-02-09T08:36:43.769Z</time>
      </trkpt>
      <trkpt lat="48.39084" lon="2.70248">
        <ele>92</ele>
        <time>2022-02-09T08:36:47.773Z</time>
      </trkpt>
      <trkpt lat="48.39081" lon="2.70242">
        <ele>92</ele>
        <time>2022-02-09T08:36:52.764Z</time>
      </trkpt>
      <trkpt lat="48.39076" lon="2.70237">
        <ele>92</ele>
        <time>2022-02-09T08:36:57.767Z</time>
      </trkpt>
      <trkpt lat="48.39072" lon="2.70231">
        <ele>90</ele>
        <time>2022-02-09T08:37:02.765Z</time>
      </trkpt>
      <trkpt lat="48.39067" lon="2.70223">
        <ele>91</ele>
        <time>2022-02-09T08:37:07.758Z</time>
      </trkpt>
      <trkpt lat="48.39063" lon="2.70216">
        <ele>91</ele>
        <time>2022-02-09T08:37:11.769Z</time>
      </trkpt>
      <trkpt lat="48.39059" lon="2.70209">
        <ele>91</ele>
        <time>2022-02-09T08:37:16.765Z</time>
      </trkpt>
      <trkpt lat="48.39055" lon="2.70204">
        <ele>90</ele>
        <time>2022-02-09T08:37:20.765Z</time>
      </trkpt>
      <trkpt lat="48.39051" lon="2.70197">
        <ele>90</ele>
        <time>2022-02-09T08:37:25.764Z</time>
      </trkpt>
      <trkpt lat="48.39046" lon="2.70192">
        <ele>90</ele>
        <time>2022-02-09T08:37:29.765Z</time>
      </trkpt>
      <trkpt lat="48.39041" lon="2.70185">
        <ele>93</ele>
        <time>2022-02-09T08:37:34.770Z</time>
      </trkpt>
      <trkpt lat="48.39036" lon="2.70176">
        <ele>93</ele>
        <time>2022-02-09T08:37:39.760Z</time>
      </trkpt>
      <trkpt lat="48.39031" lon="2.70168">
        <ele>93</ele>
        <time>2022-02-09T08:37:44.758Z</time>
      </trkpt>
      <trkpt lat="48.39026" lon="2.70161">
        <ele>93</ele>
        <time>2022-02-09T08:37:48.767Z</time>
      </trkpt>
      <trkpt lat="48.39022" lon="2.70155">
        <ele>93</ele>
        <time>2022-02-09T08:37:52.769Z</time>
      </trkpt>
      <trkpt lat="48.39017" lon="2.70148">
        <ele>91</ele>
        <time>2022-02-09T08:37:57.769Z</time>
      </trkpt>
      <trkpt lat="48.39011" lon="2.70141">
        <ele>92</ele>
        <time>2022-02-09T08:38:02.757Z</time>
      </trkpt>
      <trkpt lat="48.39007" lon="2.70136">
        <ele>92</ele>
        <time>2022-02-09T08:38:06.757Z</time>
      </trkpt>
      <trkpt lat="48.39003" lon="2.70129">
        <ele>92</ele>
        <time>2022-02-09T08:38:10.774Z</time>
      </trkpt>
      <trkpt lat="48.38997" lon="2.70122">
        <ele>90</ele>
        <time>2022-02-09T08:38:15.764Z</time>
      </trkpt>
      <trkpt lat="48.38995" lon="2.70114">
        <ele>90</ele>
        <time>2022-02-09T08:38:20.763Z</time>
      </trkpt>
      <trkpt lat="48.38992" lon="2.70107">
        <ele>90</ele>
        <time>2022-02-09T08:38:24.764Z</time>
      </trkpt>
      <trkpt lat="48.38989" lon="2.70101">
        <ele>90</ele>
        <time>2022-02-09T08:38:28.784Z</time>
      </trkpt>
      <trkpt lat="48.38985" lon="2.70094">
        <ele>90</ele>
        <time>2022-02-09T08:38:33.768Z</time>
      </trkpt>
      <trkpt lat="48.38982" lon="2.70088">
        <ele>90</ele>
        <time>2022-02-09T08:38:37.764Z</time>
      </trkpt>
      <trkpt lat="48.38978" lon="2.7008">
        <ele>90</ele>
        <time>2022-02-09T08:38:42.783Z</time>
      </trkpt>
      <trkpt lat="48.38974" lon="2.70072">
        <ele>90</ele>
        <time>2022-02-09T08:38:47.759Z</time>
      </trkpt>
      <trkpt lat="48.38967" lon="2.70067">
        <ele>89</ele>
        <time>2022-02-09T08:38:52.763Z</time>
      </trkpt>
      <trkpt lat="48.38961" lon="2.70061">
        <ele>89</ele>
        <time>2022-02-09T08:38:56.764Z</time>
      </trkpt>
      <trkpt lat="48.38953" lon="2.70055">
        <ele>91</ele>
        <time>2022-02-09T08:39:01.763Z</time>
      </trkpt>
      <trkpt lat="48.38947" lon="2.70051">
        <ele>91</ele>
        <time>2022-02-09T08:39:06.763Z</time>
      </trkpt>
      <trkpt lat="48.38941" lon="2.70048">
        <ele>91</ele>
        <time>2022-02-09T08:39:11.766Z</time>
      </trkpt>
      <trkpt lat="48.38934" lon="2.70044">
        <ele>91</ele>
        <time>2022-02-09T08:39:16.762Z</time>
      </trkpt>
      <trkpt lat="48.38928" lon="2.70039">
        <ele>93</ele>
        <time>2022-02-09T08:39:21.767Z</time>
      </trkpt>
      <trkpt lat="48.38923" lon="2.70035">
        <ele>93</ele>
        <time>2022-02-09T08:39:26.757Z</time>
      </trkpt>
      <trkpt lat="48.38917" lon="2.70031">
        <ele>93</ele>
        <time>2022-02-09T08:39:31.765Z</time>
      </trkpt>
      <trkpt lat="48.3891" lon="2.70027">
        <ele>93</ele>
        <time>2022-02-09T08:39:36.759Z</time>
      </trkpt>
      <trkpt lat="48.38905" lon="2.70022">
        <ele>93</ele>
        <time>2022-02-09T08:39:41.761Z</time>
      </trkpt>
      <trkpt lat="48.38898" lon="2.70018">
        <ele>95</ele>
        <time>2022-02-09T08:39:46.770Z</time>
      </trkpt>
      <trkpt lat="48.38892" lon="2.70012">
        <ele>93</ele>
        <time>2022-02-09T08:39:51.763Z</time>
      </trkpt>
      <trkpt lat="48.38886" lon="2.70008">
        <ele>93</ele>
        <time>2022-02-09T08:39:56.767Z</time>
      </trkpt>
      <trkpt lat="48.38882" lon="2.70004">
        <ele>93</ele>
        <time>2022-02-09T08:40:00.767Z</time>
      </trkpt>
      <trkpt lat="48.38876" lon="2.70002">
        <ele>93</ele>
        <time>2022-02-09T08:40:05.762Z</time>
      </trkpt>
      <trkpt lat="48.3887" lon="2.70001">
        <ele>95</ele>
        <time>2022-02-09T08:40:10.765Z</time>
      </trkpt>
      <trkpt lat="48.38866" lon="2.70002">
        <ele>95</ele>
        <time>2022-02-09T08:40:14.765Z</time>
      </trkpt>
      <trkpt lat="48.38861" lon="2.70005">
        <ele>95</ele>
        <time>2022-02-09T08:40:18.775Z</time>
      </trkpt>
      <trkpt lat="48.3886" lon="2.70006">
        <ele>95</ele>
        <time>2022-02-09T08:40:36.773Z</time>
      </trkpt>
      <trkpt lat="48.3886" lon="2.70006">
        <ele>95</ele>
        <time>2022-02-09T08:40:41.763Z</time>
      </trkpt>
      <trkpt lat="48.38859" lon="2.70006">
        <ele>95</ele>
        <time>2022-02-09T08:40:46.770Z</time>
      </trkpt>
      <trkpt lat="48.38854" lon="2.70006">
        <ele>95</ele>
        <time>2022-02-09T08:40:51.769Z</time>
      </trkpt>
      <trkpt lat="48.38847" lon="2.70008">
        <ele>97</ele>
        <time>2022-02-09T08:40:56.772Z</time>
      </trkpt>
      <trkpt lat="48.38836" lon="2.70007">
        <ele>97</ele>
        <time>2022-02-09T08:42:11.771Z</time>
      </trkpt>
      <trkpt lat="48.38836" lon="2.70007">
        <ele>97</ele>
        <time>2022-02-09T08:42:16.770Z</time>
      </trkpt>
      <trkpt lat="48.38836" lon="2.70007">
        <ele>97</ele>
        <time>2022-02-09T08:42:21.765Z</time>
      </trkpt>
      <trkpt lat="48.38834" lon="2.70007">
        <ele>97</ele>
        <time>2022-02-09T08:42:25.773Z</time>
      </trkpt>
      <trkpt lat="48.3883" lon="2.70005">
        <ele>97</ele>
        <time>2022-02-09T08:42:29.765Z</time>
      </trkpt>
      <trkpt lat="48.38826" lon="2.70002">
        <ele>97</ele>
        <time>2022-02-09T08:42:33.774Z</time>
      </trkpt>
      <trkpt lat="48.38821" lon="2.69999">
        <ele>97</ele>
        <time>2022-02-09T08:42:38.768Z</time>
      </trkpt>
      <trkpt lat="48.38817" lon="2.69995">
        <ele>98</ele>
        <time>2022-02-09T08:42:42.769Z</time>
      </trkpt>
      <trkpt lat="48.38813" lon="2.69992">
        <ele>98</ele>
        <time>2022-02-09T08:42:47.766Z</time>
      </trkpt>
      <trkpt lat="48.38806" lon="2.69991">
        <ele>98</ele>
        <time>2022-02-09T08:42:52.765Z</time>
      </trkpt>
      <trkpt lat="48.38802" lon="2.69989">
        <ele>98</ele>
        <time>2022-02-09T08:42:56.766Z</time>
      </trkpt>
      <trkpt lat="48.38796" lon="2.69988">
        <ele>98</ele>
        <time>2022-02-09T08:43:01.764Z</time>
      </trkpt>
      <trkpt lat="48.3879" lon="2.69985">
        <ele>95</ele>
        <time>2022-02-09T08:43:06.767Z</time>
      </trkpt>
      <trkpt lat="48.38784" lon="2.69985">
        <ele>95</ele>
        <time>2022-02-09T08:43:11.757Z</time>
      </trkpt>
      <trkpt lat="48.38776" lon="2.69986">
        <ele>98</ele>
        <time>2022-02-09T08:43:16.762Z</time>
      </trkpt>
      <trkpt lat="48.38769" lon="2.69986">
        <ele>98</ele>
        <time>2022-02-09T08:43:20.767Z</time>
      </trkpt>
      <trkpt lat="48.38764" lon="2.69983">
        <ele>95</ele>
        <time>2022-02-09T08:43:24.773Z</time>
      </trkpt>
      <trkpt lat="48.38759" lon="2.69979">
        <ele>95</ele>
        <time>2022-02-09T08:43:29.765Z</time>
      </trkpt>
      <trkpt lat="48.38753" lon="2.69975">
        <ele>95</ele>
        <time>2022-02-09T08:43:34.767Z</time>
      </trkpt>
      <trkpt lat="48.38747" lon="2.69973">
        <ele>95</ele>
        <time>2022-02-09T08:43:38.765Z</time>
      </trkpt>
      <trkpt lat="48.3874" lon="2.69972">
        <ele>95</ele>
        <time>2022-02-09T08:43:42.766Z</time>
      </trkpt>
      <trkpt lat="48.38733" lon="2.69969">
        <ele>95</ele>
        <time>2022-02-09T08:43:47.761Z</time>
      </trkpt>
      <trkpt lat="48.38727" lon="2.69967">
        <ele>95</ele>
        <time>2022-02-09T08:43:52.757Z</time>
      </trkpt>
      <trkpt lat="48.38722" lon="2.69966">
        <ele>95</ele>
        <time>2022-02-09T08:43:57.769Z</time>
      </trkpt>
      <trkpt lat="48.38717" lon="2.69964">
        <ele>95</ele>
        <time>2022-02-09T08:44:01.773Z</time>
      </trkpt>
      <trkpt lat="48.3871" lon="2.69961">
        <ele>95</ele>
        <time>2022-02-09T08:44:06.767Z</time>
      </trkpt>
      <trkpt lat="48.38704" lon="2.69958">
        <ele>94</ele>
        <time>2022-02-09T08:44:11.762Z</time>
      </trkpt>
      <trkpt lat="48.387" lon="2.69955">
        <ele>94</ele>
        <time>2022-02-09T08:44:15.766Z</time>
      </trkpt>
      <trkpt lat="48.38695" lon="2.69951">
        <ele>94</ele>
        <time>2022-02-09T08:44:19.776Z</time>
      </trkpt>
      <trkpt lat="48.3869" lon="2.69945">
        <ele>94</ele>
        <time>2022-02-09T08:44:24.769Z</time>
      </trkpt>
      <trkpt lat="48.38684" lon="2.69941">
        <ele>94</ele>
        <time>2022-02-09T08:44:29.759Z</time>
      </trkpt>
      <trkpt lat="48.38674" lon="2.69939">
        <ele>96</ele>
        <time>2022-02-09T08:44:34.775Z</time>
      </trkpt>
      <trkpt lat="48.38668" lon="2.69933">
        <ele>96</ele>
        <time>2022-02-09T08:44:39.764Z</time>
      </trkpt>
      <trkpt lat="48.38663" lon="2.69928">
        <ele>94</ele>
        <time>2022-02-09T08:44:43.764Z</time>
      </trkpt>
      <trkpt lat="48.3866" lon="2.69921">
        <ele>94</ele>
        <time>2022-02-09T08:44:48.771Z</time>
      </trkpt>
      <trkpt lat="48.38658" lon="2.69911">
        <ele>94</ele>
        <time>2022-02-09T08:44:53.764Z</time>
      </trkpt>
      <trkpt lat="48.38657" lon="2.69901">
        <ele>93</ele>
        <time>2022-02-09T08:44:57.761Z</time>
      </trkpt>
      <trkpt lat="48.38654" lon="2.69893">
        <ele>93</ele>
        <time>2022-02-09T08:45:01.763Z</time>
      </trkpt>
      <trkpt lat="48.3865" lon="2.69883">
        <ele>92</ele>
        <time>2022-02-09T08:45:06.768Z</time>
      </trkpt>
      <trkpt lat="48.38646" lon="2.69875">
        <ele>92</ele>
        <time>2022-02-09T08:45:11.768Z</time>
      </trkpt>
      <trkpt lat="48.38641" lon="2.69869">
        <ele>90</ele>
        <time>2022-02-09T08:45:16.766Z</time>
      </trkpt>
      <trkpt lat="48.38636" lon="2.69866">
        <ele>90</ele>
        <time>2022-02-09T08:45:21.767Z</time>
      </trkpt>
      <trkpt lat="48.3863" lon="2.69863">
        <ele>90</ele>
        <time>2022-02-09T08:45:26.766Z</time>
      </trkpt>
      <trkpt lat="48.38623" lon="2.6986">
        <ele>90</ele>
        <time>2022-02-09T08:45:31.768Z</time>
      </trkpt>
      <trkpt lat="48.38618" lon="2.69858">
        <ele>90</ele>
        <time>2022-02-09T08:45:35.774Z</time>
      </trkpt>
      <trkpt lat="48.38612" lon="2.69858">
        <ele>90</ele>
        <time>2022-02-09T08:45:40.768Z</time>
      </trkpt>
      <trkpt lat="48.38606" lon="2.69857">
        <ele>90</ele>
        <time>2022-02-09T08:45:45.759Z</time>
      </trkpt>
      <trkpt lat="48.38602" lon="2.69857">
        <ele>90</ele>
        <time>2022-02-09T08:45:49.763Z</time>
      </trkpt>
      <trkpt lat="48.38596" lon="2.69857">
        <ele>95</ele>
        <time>2022-02-09T08:45:54.759Z</time>
      </trkpt>
      <trkpt lat="48.3859" lon="2.69855">
        <ele>95</ele>
        <time>2022-02-09T08:45:58.767Z</time>
      </trkpt>
      <trkpt lat="48.38586" lon="2.69855">
        <ele>95</ele>
        <time>2022-02-09T08:46:02.767Z</time>
      </trkpt>
      <trkpt lat="48.38581" lon="2.69851">
        <ele>95</ele>
        <time>2022-02-09T08:46:07.761Z</time>
      </trkpt>
      <trkpt lat="48.38576" lon="2.69849">
        <ele>95</ele>
        <time>2022-02-09T08:46:11.770Z</time>
      </trkpt>
      <trkpt lat="48.3857" lon="2.69849">
        <ele>95</ele>
        <time>2022-02-09T08:46:16.764Z</time>
      </trkpt>
      <trkpt lat="48.38564" lon="2.69846">
        <ele>100</ele>
        <time>2022-02-09T08:46:21.775Z</time>
      </trkpt>
      <trkpt lat="48.38558" lon="2.69846">
        <ele>100</ele>
        <time>2022-02-09T08:46:26.765Z</time>
      </trkpt>
      <trkpt lat="48.38554" lon="2.69845">
        <ele>100</ele>
        <time>2022-02-09T08:46:31.770Z</time>
      </trkpt>
      <trkpt lat="48.3855" lon="2.69846">
        <ele>100</ele>
        <time>2022-02-09T08:46:36.777Z</time>
      </trkpt>
      <trkpt lat="48.38547" lon="2.69844">
        <ele>100</ele>
        <time>2022-02-09T08:46:41.767Z</time>
      </trkpt>
      <trkpt lat="48.38544" lon="2.69841">
        <ele>100</ele>
        <time>2022-02-09T08:46:45.770Z</time>
      </trkpt>
      <trkpt lat="48.3854" lon="2.69841">
        <ele>110</ele>
        <time>2022-02-09T08:46:50.765Z</time>
      </trkpt>
      <trkpt lat="48.38538" lon="2.69841">
        <ele>110</ele>
        <time>2022-02-09T08:46:54.765Z</time>
      </trkpt>
      <trkpt lat="48.38535" lon="2.69841">
        <ele>110</ele>
        <time>2022-02-09T08:46:59.765Z</time>
      </trkpt>
      <trkpt lat="48.38532" lon="2.69842">
        <ele>110</ele>
        <time>2022-02-09T08:47:04.759Z</time>
      </trkpt>
      <trkpt lat="48.38529" lon="2.69843">
        <ele>110</ele>
        <time>2022-02-09T08:47:08.769Z</time>
      </trkpt>
      <trkpt lat="48.38525" lon="2.69842">
        <ele>110</ele>
        <time>2022-02-09T08:47:13.766Z</time>
      </trkpt>
      <trkpt lat="48.38522" lon="2.69844">
        <ele>110</ele>
        <time>2022-02-09T08:47:18.767Z</time>
      </trkpt>
      <trkpt lat="48.38519" lon="2.69843">
        <ele>110</ele>
        <time>2022-02-09T08:47:22.770Z</time>
      </trkpt>
      <trkpt lat="48.38516" lon="2.69839">
        <ele>110</ele>
        <time>2022-02-09T08:47:27.769Z</time>
      </trkpt>
      <trkpt lat="48.38513" lon="2.69841">
        <ele>116</ele>
        <time>2022-02-09T08:47:40.767Z</time>
      </trkpt>
      <trkpt lat="48.3851" lon="2.69841">
        <ele>116</ele>
        <time>2022-02-09T08:47:45.771Z</time>
      </trkpt>
      <trkpt lat="48.38509" lon="2.6984">
        <ele>116</ele>
        <time>2022-02-09T08:47:49.773Z</time>
      </trkpt>
      <trkpt lat="48.38507" lon="2.69837">
        <ele>116</ele>
        <time>2022-02-09T08:47:54.769Z</time>
      </trkpt>
      <trkpt lat="48.38504" lon="2.69835">
        <ele>116</ele>
        <time>2022-02-09T08:47:58.770Z</time>
      </trkpt>
      <trkpt lat="48.38503" lon="2.6983">
        <ele>116</ele>
        <time>2022-02-09T08:48:03.768Z</time>
      </trkpt>
      <trkpt lat="48.38503" lon="2.69827">
        <ele>116</ele>
        <time>2022-02-09T08:48:07.778Z</time>
      </trkpt>
      <trkpt lat="48.38502" lon="2.69817">
        <ele>115</ele>
        <time>2022-02-09T08:48:12.767Z</time>
      </trkpt>
      <trkpt lat="48.38501" lon="2.69813">
        <ele>115</ele>
        <time>2022-02-09T08:48:16.767Z</time>
      </trkpt>
      <trkpt lat="48.38498" lon="2.69811">
        <ele>115</ele>
        <time>2022-02-09T08:48:21.765Z</time>
      </trkpt>
      <trkpt lat="48.38496" lon="2.69817">
        <ele>115</ele>
        <time>2022-02-09T08:48:26.768Z</time>
      </trkpt>
      <trkpt lat="48.38492" lon="2.69822">
        <ele>116</ele>
        <time>2022-02-09T08:48:31.765Z</time>
      </trkpt>
      <trkpt lat="48.38487" lon="2.69828">
        <ele>116</ele>
        <time>2022-02-09T08:48:36.769Z</time>
      </trkpt>
      <trkpt lat="48.38481" lon="2.69836">
        <ele>117</ele>
        <time>2022-02-09T08:48:41.769Z</time>
      </trkpt>
      <trkpt lat="48.38477" lon="2.69837">
        <ele>117</ele>
        <time>2022-02-09T08:48:46.774Z</time>
      </trkpt>
      <trkpt lat="48.38472" lon="2.69839">
        <ele>117</ele>
        <time>2022-02-09T08:48:51.767Z</time>
      </trkpt>
      <trkpt lat="48.38468" lon="2.69844">
        <ele>117</ele>
        <time>2022-02-09T08:48:56.761Z</time>
      </trkpt>
      <trkpt lat="48.38463" lon="2.69845">
        <ele>117</ele>
        <time>2022-02-09T08:49:01.768Z</time>
      </trkpt>
      <trkpt lat="48.38461" lon="2.69844">
        <ele>117</ele>
        <time>2022-02-09T08:49:06.765Z</time>
      </trkpt>
      <trkpt lat="48.3846" lon="2.69842">
        <ele>117</ele>
        <time>2022-02-09T08:49:10.770Z</time>
      </trkpt>
      <trkpt lat="48.38457" lon="2.69836">
        <ele>114</ele>
        <time>2022-02-09T08:49:15.764Z</time>
      </trkpt>
      <trkpt lat="48.38458" lon="2.69832">
        <ele>114</ele>
        <time>2022-02-09T08:49:19.767Z</time>
      </trkpt>
      <trkpt lat="48.38455" lon="2.69827">
        <ele>114</ele>
        <time>2022-02-09T08:49:24.763Z</time>
      </trkpt>
      <trkpt lat="48.38454" lon="2.6982">
        <ele>114</ele>
        <time>2022-02-09T08:49:29.765Z</time>
      </trkpt>
      <trkpt lat="48.38449" lon="2.69819">
        <ele>112</ele>
        <time>2022-02-09T08:49:33.768Z</time>
      </trkpt>
      <trkpt lat="48.38445" lon="2.69815">
        <ele>112</ele>
        <time>2022-02-09T08:49:38.767Z</time>
      </trkpt>
      <trkpt lat="48.38442" lon="2.69814">
        <ele>112</ele>
        <time>2022-02-09T08:49:43.766Z</time>
      </trkpt>
      <trkpt lat="48.3844" lon="2.69808">
        <ele>112</ele>
        <time>2022-02-09T08:49:48.763Z</time>
      </trkpt>
      <trkpt lat="48.38439" lon="2.69802">
        <ele>112</ele>
        <time>2022-02-09T08:49:52.766Z</time>
      </trkpt>
      <trkpt lat="48.38434" lon="2.69796">
        <ele>112</ele>
        <time>2022-02-09T08:49:57.767Z</time>
      </trkpt>
      <trkpt lat="48.3842" lon="2.69791">
        <ele>107</ele>
        <time>2022-02-09T08:50:25.763Z</time>
      </trkpt>
      <trkpt lat="48.3842" lon="2.6979">
        <ele>107</ele>
        <time>2022-02-09T08:50:30.761Z</time>
      </trkpt>
      <trkpt lat="48.3842" lon="2.6979">
        <ele>107</ele>
        <time>2022-02-09T08:50:35.763Z</time>
      </trkpt>
      <trkpt lat="48.38419" lon="2.6979">
        <ele>107</ele>
        <time>2022-02-09T08:50:40.760Z</time>
      </trkpt>
      <trkpt lat="48.38419" lon="2.69789">
        <ele>107</ele>
        <time>2022-02-09T08:50:44.759Z</time>
      </trkpt>
      <trkpt lat="48.38417" lon="2.69787">
        <ele>107</ele>
        <time>2022-02-09T08:51:52.762Z</time>
      </trkpt>
      <trkpt lat="48.38415" lon="2.69785">
        <ele>107</ele>
        <time>2022-02-09T08:51:57.764Z</time>
      </trkpt>
      <trkpt lat="48.38414" lon="2.69783">
        <ele>107</ele>
        <time>2022-02-09T08:52:01.770Z</time>
      </trkpt>
      <trkpt lat="48.38412" lon="2.69786">
        <ele>107</ele>
        <time>2022-02-09T08:52:06.777Z</time>
      </trkpt>
      <trkpt lat="48.38409" lon="2.69784">
        <ele>107</ele>
        <time>2022-02-09T08:52:11.765Z</time>
      </trkpt>
      <trkpt lat="48.38408" lon="2.69779">
        <ele>107</ele>
        <time>2022-02-09T08:52:15.784Z</time>
      </trkpt>
      <trkpt lat="48.38405" lon="2.69774">
        <ele>107</ele>
        <time>2022-02-09T08:52:20.765Z</time>
      </trkpt>
      <trkpt lat="48.38404" lon="2.69769">
        <ele>107</ele>
        <time>2022-02-09T08:52:24.770Z</time>
      </trkpt>
      <trkpt lat="48.38399" lon="2.69767">
        <ele>101</ele>
        <time>2022-02-09T08:52:29.764Z</time>
      </trkpt>
      <trkpt lat="48.38394" lon="2.69771">
        <ele>101</ele>
        <time>2022-02-09T08:52:34.767Z</time>
      </trkpt>
      <trkpt lat="48.38389" lon="2.6977">
        <ele>101</ele>
        <time>2022-02-09T08:52:39.767Z</time>
      </trkpt>
      <trkpt lat="48.38384" lon="2.6977">
        <ele>101</ele>
        <time>2022-02-09T08:52:44.760Z</time>
      </trkpt>
      <trkpt lat="48.3838" lon="2.69767">
        <ele>101</ele>
        <time>2022-02-09T08:52:49.770Z</time>
      </trkpt>
      <trkpt lat="48.38376" lon="2.69769">
        <ele>101</ele>
        <time>2022-02-09T08:52:53.768Z</time>
      </trkpt>
      <trkpt lat="48.38369" lon="2.69773">
        <ele>97</ele>
        <time>2022-02-09T08:52:58.766Z</time>
      </trkpt>
      <trkpt lat="48.38367" lon="2.69776">
        <ele>97</ele>
        <time>2022-02-09T08:53:03.760Z</time>
      </trkpt>
      <trkpt lat="48.38362" lon="2.69779">
        <ele>97</ele>
        <time>2022-02-09T08:53:07.763Z</time>
      </trkpt>
      <trkpt lat="48.38354" lon="2.69785">
        <ele>97</ele>
        <time>2022-02-09T08:53:12.765Z</time>
      </trkpt>
      <trkpt lat="48.38346" lon="2.69789">
        <ele>98</ele>
        <time>2022-02-09T08:53:17.778Z</time>
      </trkpt>
      <trkpt lat="48.38338" lon="2.69789">
        <ele>98</ele>
        <time>2022-02-09T08:53:22.771Z</time>
      </trkpt>
      <trkpt lat="48.3833" lon="2.69789">
        <ele>98</ele>
        <time>2022-02-09T08:53:27.769Z</time>
      </trkpt>
      <trkpt lat="48.38322" lon="2.69792">
        <ele>98</ele>
        <time>2022-02-09T08:53:32.769Z</time>
      </trkpt>
      <trkpt lat="48.38317" lon="2.69797">
        <ele>101</ele>
        <time>2022-02-09T08:53:37.773Z</time>
      </trkpt>
      <trkpt lat="48.38312" lon="2.69801">
        <ele>101</ele>
        <time>2022-02-09T08:53:42.763Z</time>
      </trkpt>
      <trkpt lat="48.38306" lon="2.69801">
        <ele>101</ele>
        <time>2022-02-09T08:53:47.764Z</time>
      </trkpt>
      <trkpt lat="48.38303" lon="2.69804">
        <ele>101</ele>
        <time>2022-02-09T08:53:51.760Z</time>
      </trkpt>
      <trkpt lat="48.38299" lon="2.69806">
        <ele>101</ele>
        <time>2022-02-09T08:53:56.763Z</time>
      </trkpt>
      <trkpt lat="48.38295" lon="2.69809">
        <ele>101</ele>
        <time>2022-02-09T08:54:01.761Z</time>
      </trkpt>
      <trkpt lat="48.38291" lon="2.69812">
        <ele>104</ele>
        <time>2022-02-09T08:54:06.766Z</time>
      </trkpt>
      <trkpt lat="48.38285" lon="2.69816">
        <ele>104</ele>
        <time>2022-02-09T08:54:11.762Z</time>
      </trkpt>
      <trkpt lat="48.38281" lon="2.69818">
        <ele>104</ele>
        <time>2022-02-09T08:54:15.769Z</time>
      </trkpt>
      <trkpt lat="48.38275" lon="2.69821">
        <ele>105</ele>
        <time>2022-02-09T08:54:20.766Z</time>
      </trkpt>
      <trkpt lat="48.38269" lon="2.69824">
        <ele>105</ele>
        <time>2022-02-09T08:54:25.769Z</time>
      </trkpt>
      <trkpt lat="48.38264" lon="2.69828">
        <ele>108</ele>
        <time>2022-02-09T08:54:30.758Z</time>
      </trkpt>
      <trkpt lat="48.38259" lon="2.69831">
        <ele>108</ele>
        <time>2022-02-09T08:54:34.764Z</time>
      </trkpt>
      <trkpt lat="48.38253" lon="2.69834">
        <ele>108</ele>
        <time>2022-02-09T08:54:39.767Z</time>
      </trkpt>
      <trkpt lat="48.38248" lon="2.69837">
        <ele>108</ele>
        <time>2022-02-09T08:54:44.766Z</time>
      </trkpt>
      <trkpt lat="48.38243" lon="2.6984">
        <ele>108</ele>
        <time>2022-02-09T08:54:48.769Z</time>
      </trkpt>
      <trkpt lat="48.38237" lon="2.69843">
        <ele>108</ele>
        <time>2022-02-09T08:54:53.768Z</time>
      </trkpt>
      <trkpt lat="48.38232" lon="2.69845">
        <ele>113</ele>
        <time>2022-02-09T08:54:57.767Z</time>
      </trkpt>
      <trkpt lat="48.38226" lon="2.69848">
        <ele>114</ele>
        <time>2022-02-09T08:55:02.768Z</time>
      </trkpt>
      <trkpt lat="48.38221" lon="2.6985">
        <ele>114</ele>
        <time>2022-02-09T08:55:07.768Z</time>
      </trkpt>
      <trkpt lat="48.38217" lon="2.69854">
        <ele>114</ele>
        <time>2022-02-09T08:55:11.773Z</time>
      </trkpt>
      <trkpt lat="48.38213" lon="2.69857">
        <ele>114</ele>
        <time>2022-02-09T08:55:15.778Z</time>
      </trkpt>
      <trkpt lat="48.38208" lon="2.69859">
        <ele>118</ele>
        <time>2022-02-09T08:55:20.760Z</time>
      </trkpt>
      <trkpt lat="48.38203" lon="2.69862">
        <ele>118</ele>
        <time>2022-02-09T08:55:25.767Z</time>
      </trkpt>
      <trkpt lat="48.38199" lon="2.69864">
        <ele>118</ele>
        <time>2022-02-09T08:55:29.772Z</time>
      </trkpt>
      <trkpt lat="48.38195" lon="2.69867">
        <ele>118</ele>
        <time>2022-02-09T08:55:34.762Z</time>
      </trkpt>
      <trkpt lat="48.38192" lon="2.69869">
        <ele>118</ele>
        <time>2022-02-09T08:55:38.760Z</time>
      </trkpt>
      <trkpt lat="48.38189" lon="2.6987">
        <ele>118</ele>
        <time>2022-02-09T08:55:42.779Z</time>
      </trkpt>
      <trkpt lat="48.38184" lon="2.69873">
        <ele>118</ele>
        <time>2022-02-09T08:55:47.769Z</time>
      </trkpt>
      <trkpt lat="48.3818" lon="2.69876">
        <ele>123</ele>
        <time>2022-02-09T08:55:52.765Z</time>
      </trkpt>
      <trkpt lat="48.38176" lon="2.69878">
        <ele>123</ele>
        <time>2022-02-09T08:55:57.779Z</time>
      </trkpt>
      <trkpt lat="48.38172" lon="2.6988">
        <ele>123</ele>
        <time>2022-02-09T08:56:02.760Z</time>
      </trkpt>
      <trkpt lat="48.38168" lon="2.69881">
        <ele>123</ele>
        <time>2022-02-09T08:56:07.776Z</time>
      </trkpt>
      <trkpt lat="48.38164" lon="2.69884">
        <ele>123</ele>
        <time>2022-02-09T08:56:11.770Z</time>
      </trkpt>
      <trkpt lat="48.38159" lon="2.69887">
        <ele>123</ele>
        <time>2022-02-09T08:56:16.770Z</time>
      </trkpt>
      <trkpt lat="48.38156" lon="2.69888">
        <ele>123</ele>
        <time>2022-02-09T08:56:20.774Z</time>
      </trkpt>
      <trkpt lat="48.38152" lon="2.69891">
        <ele>127</ele>
        <time>2022-02-09T08:56:24.779Z</time>
      </trkpt>
      <trkpt lat="48.38146" lon="2.69894">
        <ele>127</ele>
        <time>2022-02-09T08:56:29.767Z</time>
      </trkpt>
      <trkpt lat="48.38141" lon="2.69897">
        <ele>127</ele>
        <time>2022-02-09T08:56:33.775Z</time>
      </trkpt>
      <trkpt lat="48.38135" lon="2.699">
        <ele>127</ele>
        <time>2022-02-09T08:56:38.771Z</time>
      </trkpt>
      <trkpt lat="48.38131" lon="2.69903">
        <ele>127</ele>
        <time>2022-02-09T08:56:42.770Z</time>
      </trkpt>
      <trkpt lat="48.38125" lon="2.69908">
        <ele>127</ele>
        <time>2022-02-09T08:56:47.764Z</time>
      </trkpt>
      <trkpt lat="48.38121" lon="2.6991">
        <ele>127</ele>
        <time>2022-02-09T08:56:51.773Z</time>
      </trkpt>
      <trkpt lat="48.38116" lon="2.69912">
        <ele>127</ele>
        <time>2022-02-09T08:56:55.771Z</time>
      </trkpt>
      <trkpt lat="48.3811" lon="2.69915">
        <ele>127</ele>
        <time>2022-02-09T08:57:00.769Z</time>
      </trkpt>
      <trkpt lat="48.38104" lon="2.69919">
        <ele>127</ele>
        <time>2022-02-09T08:57:05.771Z</time>
      </trkpt>
      <trkpt lat="48.38099" lon="2.69922">
        <ele>127</ele>
        <time>2022-02-09T08:57:09.783Z</time>
      </trkpt>
      <trkpt lat="48.38093" lon="2.69927">
        <ele>128</ele>
        <time>2022-02-09T08:57:14.764Z</time>
      </trkpt>
      <trkpt lat="48.38087" lon="2.69931">
        <ele>128</ele>
        <time>2022-02-09T08:57:19.766Z</time>
      </trkpt>
      <trkpt lat="48.38081" lon="2.69935">
        <ele>128</ele>
        <time>2022-02-09T08:57:23.771Z</time>
      </trkpt>
      <trkpt lat="48.38076" lon="2.69939">
        <ele>128</ele>
        <time>2022-02-09T08:57:27.776Z</time>
      </trkpt>
      <trkpt lat="48.38069" lon="2.69944">
        <ele>128</ele>
        <time>2022-02-09T08:57:32.772Z</time>
      </trkpt>
      <trkpt lat="48.38064" lon="2.69947">
        <ele>129</ele>
        <time>2022-02-09T08:57:37.766Z</time>
      </trkpt>
      <trkpt lat="48.38059" lon="2.6995">
        <ele>129</ele>
        <time>2022-02-09T08:57:41.767Z</time>
      </trkpt>
      <trkpt lat="48.38053" lon="2.69956">
        <ele>129</ele>
        <time>2022-02-09T08:57:46.766Z</time>
      </trkpt>
      <trkpt lat="48.38047" lon="2.6996">
        <ele>129</ele>
        <time>2022-02-09T08:57:51.775Z</time>
      </trkpt>
      <trkpt lat="48.38042" lon="2.69964">
        <ele>129</ele>
        <time>2022-02-09T08:57:56.770Z</time>
      </trkpt>
      <trkpt lat="48.38036" lon="2.69969">
        <ele>131</ele>
        <time>2022-02-09T08:58:01.768Z</time>
      </trkpt>
      <trkpt lat="48.3803" lon="2.69973">
        <ele>131</ele>
        <time>2022-02-09T08:58:06.770Z</time>
      </trkpt>
      <trkpt lat="48.38025" lon="2.69977">
        <ele>131</ele>
        <time>2022-02-09T08:58:10.774Z</time>
      </trkpt>
      <trkpt lat="48.38019" lon="2.69982">
        <ele>131</ele>
        <time>2022-02-09T08:58:15.772Z</time>
      </trkpt>
      <trkpt lat="48.38013" lon="2.69986">
        <ele>132</ele>
        <time>2022-02-09T08:58:20.772Z</time>
      </trkpt>
      <trkpt lat="48.38007" lon="2.69989">
        <ele>132</ele>
        <time>2022-02-09T08:58:24.777Z</time>
      </trkpt>
      <trkpt lat="48.38002" lon="2.69994">
        <ele>132</ele>
        <time>2022-02-09T08:58:29.760Z</time>
      </trkpt>
      <trkpt lat="48.37996" lon="2.69997">
        <ele>132</ele>
        <time>2022-02-09T08:58:33.776Z</time>
      </trkpt>
      <trkpt lat="48.3799" lon="2.70003">
        <ele>132</ele>
        <time>2022-02-09T08:58:38.776Z</time>
      </trkpt>
      <trkpt lat="48.37985" lon="2.70007">
        <ele>131</ele>
        <time>2022-02-09T08:58:42.771Z</time>
      </trkpt>
      <trkpt lat="48.3798" lon="2.70011">
        <ele>131</ele>
        <time>2022-02-09T08:58:47.762Z</time>
      </trkpt>
      <trkpt lat="48.37975" lon="2.70015">
        <ele>131</ele>
        <time>2022-02-09T08:58:51.769Z</time>
      </trkpt>
      <trkpt lat="48.3797" lon="2.70018">
        <ele>131</ele>
        <time>2022-02-09T08:58:55.772Z</time>
      </trkpt>
      <trkpt lat="48.37964" lon="2.70023">
        <ele>131</ele>
        <time>2022-02-09T08:59:00.775Z</time>
      </trkpt>
      <trkpt lat="48.37957" lon="2.70027">
        <ele>131</ele>
        <time>2022-02-09T08:59:14.759Z</time>
      </trkpt>
      <trkpt lat="48.37956" lon="2.70028">
        <ele>131</ele>
        <time>2022-02-09T08:59:18.766Z</time>
      </trkpt>
      <trkpt lat="48.37955" lon="2.70029">
        <ele>131</ele>
        <time>2022-02-09T08:59:22.766Z</time>
      </trkpt>
      <trkpt lat="48.3795" lon="2.70029">
        <ele>131</ele>
        <time>2022-02-09T08:59:26.769Z</time>
      </trkpt>
      <trkpt lat="48.37946" lon="2.70027">
        <ele>131</ele>
        <time>2022-02-09T08:59:30.772Z</time>
      </trkpt>
      <trkpt lat="48.37942" lon="2.70023">
        <ele>131</ele>
        <time>2022-02-09T08:59:34.780Z</time>
      </trkpt>
      <trkpt lat="48.37938" lon="2.70019">
        <ele>131</ele>
        <time>2022-02-09T08:59:39.767Z</time>
      </trkpt>
      <trkpt lat="48.37935" lon="2.70015">
        <ele>131</ele>
        <time>2022-02-09T08:59:43.776Z</time>
      </trkpt>
      <trkpt lat="48.37931" lon="2.70012">
        <ele>131</ele>
        <time>2022-02-09T08:59:47.777Z</time>
      </trkpt>
      <trkpt lat="48.37927" lon="2.70008">
        <ele>132</ele>
        <time>2022-02-09T08:59:52.775Z</time>
      </trkpt>
      <trkpt lat="48.37923" lon="2.70003">
        <ele>132</ele>
        <time>2022-02-09T08:59:57.772Z</time>
      </trkpt>
      <trkpt lat="48.3792" lon="2.69998">
        <ele>132</ele>
        <time>2022-02-09T09:00:02.768Z</time>
      </trkpt>
      <trkpt lat="48.37916" lon="2.69993">
        <ele>132</ele>
        <time>2022-02-09T09:00:06.768Z</time>
      </trkpt>
      <trkpt lat="48.37911" lon="2.69986">
        <ele>132</ele>
        <time>2022-02-09T09:00:11.774Z</time>
      </trkpt>
      <trkpt lat="48.37906" lon="2.69979">
        <ele>131</ele>
        <time>2022-02-09T09:00:16.769Z</time>
      </trkpt>
      <trkpt lat="48.379" lon="2.69973">
        <ele>130</ele>
        <time>2022-02-09T09:00:21.776Z</time>
      </trkpt>
      <trkpt lat="48.37894" lon="2.69969">
        <ele>130</ele>
        <time>2022-02-09T09:00:26.775Z</time>
      </trkpt>
      <trkpt lat="48.37889" lon="2.69963">
        <ele>130</ele>
        <time>2022-02-09T09:00:31.765Z</time>
      </trkpt>
      <trkpt lat="48.37884" lon="2.69958">
        <ele>129</ele>
        <time>2022-02-09T09:00:36.774Z</time>
      </trkpt>
      <trkpt lat="48.37879" lon="2.69953">
        <ele>129</ele>
        <time>2022-02-09T09:00:40.781Z</time>
      </trkpt>
      <trkpt lat="48.37875" lon="2.69947">
        <ele>127</ele>
        <time>2022-02-09T09:00:45.770Z</time>
      </trkpt>
      <trkpt lat="48.37871" lon="2.69943">
        <ele>127</ele>
        <time>2022-02-09T09:00:49.777Z</time>
      </trkpt>
      <trkpt lat="48.37866" lon="2.69936">
        <ele>127</ele>
        <time>2022-02-09T09:00:54.770Z</time>
      </trkpt>
      <trkpt lat="48.3786" lon="2.6993">
        <ele>126</ele>
        <time>2022-02-09T09:00:59.772Z</time>
      </trkpt>
      <trkpt lat="48.37854" lon="2.69926">
        <ele>126</ele>
        <time>2022-02-09T09:01:04.769Z</time>
      </trkpt>
      <trkpt lat="48.3785" lon="2.69923">
        <ele>126</ele>
        <time>2022-02-09T09:01:08.780Z</time>
      </trkpt>
      <trkpt lat="48.37846" lon="2.69917">
        <ele>125</ele>
        <time>2022-02-09T09:01:13.767Z</time>
      </trkpt>
      <trkpt lat="48.37841" lon="2.69914">
        <ele>125</ele>
        <time>2022-02-09T09:01:17.774Z</time>
      </trkpt>
      <trkpt lat="48.37837" lon="2.69909">
        <ele>125</ele>
        <time>2022-02-09T09:01:22.770Z</time>
      </trkpt>
      <trkpt lat="48.37833" lon="2.69903">
        <ele>125</ele>
        <time>2022-02-09T09:01:27.761Z</time>
      </trkpt>
      <trkpt lat="48.37828" lon="2.69898">
        <ele>123</ele>
        <time>2022-02-09T09:01:32.763Z</time>
      </trkpt>
      <trkpt lat="48.37825" lon="2.69893">
        <ele>123</ele>
        <time>2022-02-09T09:01:36.759Z</time>
      </trkpt>
      <trkpt lat="48.37821" lon="2.69887">
        <ele>123</ele>
        <time>2022-02-09T09:01:41.764Z</time>
      </trkpt>
      <trkpt lat="48.37816" lon="2.69884">
        <ele>123</ele>
        <time>2022-02-09T09:01:45.782Z</time>
      </trkpt>
      <trkpt lat="48.37811" lon="2.69881">
        <ele>123</ele>
        <time>2022-02-09T09:01:50.769Z</time>
      </trkpt>
      <trkpt lat="48.37806" lon="2.69877">
        <ele>123</ele>
        <time>2022-02-09T09:01:55.768Z</time>
      </trkpt>
      <trkpt lat="48.37801" lon="2.69872">
        <ele>121</ele>
        <time>2022-02-09T09:02:00.771Z</time>
      </trkpt>
      <trkpt lat="48.37797" lon="2.69867">
        <ele>121</ele>
        <time>2022-02-09T09:02:05.769Z</time>
      </trkpt>
      <trkpt lat="48.37793" lon="2.69861">
        <ele>121</ele>
        <time>2022-02-09T09:02:10.768Z</time>
      </trkpt>
      <trkpt lat="48.37787" lon="2.69856">
        <ele>123</ele>
        <time>2022-02-09T09:02:15.773Z</time>
      </trkpt>
      <trkpt lat="48.37782" lon="2.6985">
        <ele>123</ele>
        <time>2022-02-09T09:02:20.768Z</time>
      </trkpt>
      <trkpt lat="48.37777" lon="2.69845">
        <ele>122</ele>
        <time>2022-02-09T09:02:25.775Z</time>
      </trkpt>
      <trkpt lat="48.37771" lon="2.69841">
        <ele>122</ele>
        <time>2022-02-09T09:02:30.764Z</time>
      </trkpt>
      <trkpt lat="48.37764" lon="2.6984">
        <ele>122</ele>
        <time>2022-02-09T09:02:35.764Z</time>
      </trkpt>
      <trkpt lat="48.37759" lon="2.6984">
        <ele>125</ele>
        <time>2022-02-09T09:02:40.766Z</time>
      </trkpt>
      <trkpt lat="48.37756" lon="2.6984">
        <ele>125</ele>
        <time>2022-02-09T09:02:44.774Z</time>
      </trkpt>
      <trkpt lat="48.37751" lon="2.6984">
        <ele>125</ele>
        <time>2022-02-09T09:02:49.779Z</time>
      </trkpt>
      <trkpt lat="48.37747" lon="2.69839">
        <ele>125</ele>
        <time>2022-02-09T09:02:54.783Z</time>
      </trkpt>
      <trkpt lat="48.37741" lon="2.69839">
        <ele>125</ele>
        <time>2022-02-09T09:02:59.762Z</time>
      </trkpt>
      <trkpt lat="48.37737" lon="2.69839">
        <ele>125</ele>
        <time>2022-02-09T09:03:03.772Z</time>
      </trkpt>
      <trkpt lat="48.37732" lon="2.69841">
        <ele>127</ele>
        <time>2022-02-09T09:03:08.766Z</time>
      </trkpt>
      <trkpt lat="48.37727" lon="2.69843">
        <ele>127</ele>
        <time>2022-02-09T09:03:12.772Z</time>
      </trkpt>
      <trkpt lat="48.37722" lon="2.69847">
        <ele>126</ele>
        <time>2022-02-09T09:03:17.772Z</time>
      </trkpt>
      <trkpt lat="48.37718" lon="2.6985">
        <ele>126</ele>
        <time>2022-02-09T09:03:21.776Z</time>
      </trkpt>
      <trkpt lat="48.37715" lon="2.69854">
        <ele>126</ele>
        <time>2022-02-09T09:03:26.770Z</time>
      </trkpt>
      <trkpt lat="48.37712" lon="2.69857">
        <ele>126</ele>
        <time>2022-02-09T09:03:30.776Z</time>
      </trkpt>
      <trkpt lat="48.37707" lon="2.69862">
        <ele>129</ele>
        <time>2022-02-09T09:03:35.775Z</time>
      </trkpt>
      <trkpt lat="48.37702" lon="2.69865">
        <ele>129</ele>
        <time>2022-02-09T09:03:40.767Z</time>
      </trkpt>
      <trkpt lat="48.37696" lon="2.69868">
        <ele>129</ele>
        <time>2022-02-09T09:03:44.761Z</time>
      </trkpt>
      <trkpt lat="48.37691" lon="2.69872">
        <ele>129</ele>
        <time>2022-02-09T09:03:49.762Z</time>
      </trkpt>
      <trkpt lat="48.37685" lon="2.6988">
        <ele>128</ele>
        <time>2022-02-09T09:03:54.760Z</time>
      </trkpt>
      <trkpt lat="48.37683" lon="2.69884">
        <ele>128</ele>
        <time>2022-02-09T09:03:58.768Z</time>
      </trkpt>
      <trkpt lat="48.37681" lon="2.69888">
        <ele>128</ele>
        <time>2022-02-09T09:04:03.759Z</time>
      </trkpt>
      <trkpt lat="48.37679" lon="2.69893">
        <ele>131</ele>
        <time>2022-02-09T09:04:07.763Z</time>
      </trkpt>
      <trkpt lat="48.37677" lon="2.69899">
        <ele>131</ele>
        <time>2022-02-09T09:04:11.766Z</time>
      </trkpt>
      <trkpt lat="48.37675" lon="2.69908">
        <ele>130</ele>
        <time>2022-02-09T09:04:16.767Z</time>
      </trkpt>
      <trkpt lat="48.37673" lon="2.69915">
        <ele>130</ele>
        <time>2022-02-09T09:04:20.768Z</time>
      </trkpt>
      <trkpt lat="48.37672" lon="2.69923">
        <ele>130</ele>
        <time>2022-02-09T09:04:25.770Z</time>
      </trkpt>
      <trkpt lat="48.3767" lon="2.69931">
        <ele>129</ele>
        <time>2022-02-09T09:04:30.766Z</time>
      </trkpt>
      <trkpt lat="48.37669" lon="2.69937">
        <ele>129</ele>
        <time>2022-02-09T09:04:34.773Z</time>
      </trkpt>
      <trkpt lat="48.37666" lon="2.69945">
        <ele>129</ele>
        <time>2022-02-09T09:04:39.766Z</time>
      </trkpt>
      <trkpt lat="48.37663" lon="2.69954">
        <ele>129</ele>
        <time>2022-02-09T09:04:44.762Z</time>
      </trkpt>
      <trkpt lat="48.37663" lon="2.69962">
        <ele>129</ele>
        <time>2022-02-09T09:04:49.763Z</time>
      </trkpt>
      <trkpt lat="48.37663" lon="2.69968">
        <ele>129</ele>
        <time>2022-02-09T09:04:53.780Z</time>
      </trkpt>
      <trkpt lat="48.37659" lon="2.69976">
        <ele>129</ele>
        <time>2022-02-09T09:04:58.765Z</time>
      </trkpt>
      <trkpt lat="48.37655" lon="2.6998">
        <ele>129</ele>
        <time>2022-02-09T09:05:02.768Z</time>
      </trkpt>
      <trkpt lat="48.37649" lon="2.69984">
        <ele>128</ele>
        <time>2022-02-09T09:05:07.777Z</time>
      </trkpt>
      <trkpt lat="48.37643" lon="2.69987">
        <ele>128</ele>
        <time>2022-02-09T09:05:12.765Z</time>
      </trkpt>
      <trkpt lat="48.37636" lon="2.69991">
        <ele>128</ele>
        <time>2022-02-09T09:05:17.762Z</time>
      </trkpt>
      <trkpt lat="48.37632" lon="2.69996">
        <ele>128</ele>
        <time>2022-02-09T09:05:22.777Z</time>
      </trkpt>
      <trkpt lat="48.37632" lon="2.69997">
        <ele>128</ele>
        <time>2022-02-09T09:05:26.761Z</time>
      </trkpt>
      <trkpt lat="48.37629" lon="2.69995">
        <ele>128</ele>
        <time>2022-02-09T09:05:31.767Z</time>
      </trkpt>
      <trkpt lat="48.37626" lon="2.69988">
        <ele>128</ele>
        <time>2022-02-09T09:05:36.763Z</time>
      </trkpt>
      <trkpt lat="48.37625" lon="2.69981">
        <ele>128</ele>
        <time>2022-02-09T09:05:40.772Z</time>
      </trkpt>
      <trkpt lat="48.37623" lon="2.69972">
        <ele>128</ele>
        <time>2022-02-09T09:05:45.763Z</time>
      </trkpt>
      <trkpt lat="48.37621" lon="2.69963">
        <ele>128</ele>
        <time>2022-02-09T09:05:50.779Z</time>
      </trkpt>
      <trkpt lat="48.37615" lon="2.6996">
        <ele>128</ele>
        <time>2022-02-09T09:05:55.762Z</time>
      </trkpt>
      <trkpt lat="48.37611" lon="2.69962">
        <ele>128</ele>
        <time>2022-02-09T09:05:59.772Z</time>
      </trkpt>
      <trkpt lat="48.37607" lon="2.69968">
        <ele>128</ele>
        <time>2022-02-09T09:06:04.770Z</time>
      </trkpt>
      <trkpt lat="48.37603" lon="2.69975">
        <ele>128</ele>
        <time>2022-02-09T09:06:09.764Z</time>
      </trkpt>
      <trkpt lat="48.37598" lon="2.69982">
        <ele>128</ele>
        <time>2022-02-09T09:06:14.774Z</time>
      </trkpt>
      <trkpt lat="48.37594" lon="2.69989">
        <ele>126</ele>
        <time>2022-02-09T09:06:19.777Z</time>
      </trkpt>
      <trkpt lat="48.3759" lon="2.69993">
        <ele>126</ele>
        <time>2022-02-09T09:06:24.768Z</time>
      </trkpt>
      <trkpt lat="48.37586" lon="2.70001">
        <ele>126</ele>
        <time>2022-02-09T09:06:28.768Z</time>
      </trkpt>
      <trkpt lat="48.37582" lon="2.70007">
        <ele>126</ele>
        <time>2022-02-09T09:06:33.775Z</time>
      </trkpt>
      <trkpt lat="48.37577" lon="2.70011">
        <ele>126</ele>
        <time>2022-02-09T09:06:38.771Z</time>
      </trkpt>
      <trkpt lat="48.37573" lon="2.7001">
        <ele>126</ele>
        <time>2022-02-09T09:06:43.776Z</time>
      </trkpt>
      <trkpt lat="48.37571" lon="2.70006">
        <ele>126</ele>
        <time>2022-02-09T09:07:47.761Z</time>
      </trkpt>
      <trkpt lat="48.37566" lon="2.70007">
        <ele>124</ele>
        <time>2022-02-09T09:07:52.761Z</time>
      </trkpt>
      <trkpt lat="48.37563" lon="2.7001">
        <ele>124</ele>
        <time>2022-02-09T09:07:56.766Z</time>
      </trkpt>
      <trkpt lat="48.37559" lon="2.70015">
        <ele>125</ele>
        <time>2022-02-09T09:08:01.762Z</time>
      </trkpt>
      <trkpt lat="48.37555" lon="2.70017">
        <ele>125</ele>
        <time>2022-02-09T09:08:05.763Z</time>
      </trkpt>
      <trkpt lat="48.37551" lon="2.70017">
        <ele>125</ele>
        <time>2022-02-09T09:08:09.763Z</time>
      </trkpt>
      <trkpt lat="48.37545" lon="2.70016">
        <ele>125</ele>
        <time>2022-02-09T09:08:14.767Z</time>
      </trkpt>
      <trkpt lat="48.37541" lon="2.70013">
        <ele>124</ele>
        <time>2022-02-09T09:08:18.761Z</time>
      </trkpt>
      <trkpt lat="48.37535" lon="2.70011">
        <ele>124</ele>
        <time>2022-02-09T09:08:23.768Z</time>
      </trkpt>
      <trkpt lat="48.37529" lon="2.70007">
        <ele>124</ele>
        <time>2022-02-09T09:08:28.762Z</time>
      </trkpt>
      <trkpt lat="48.37525" lon="2.70006">
        <ele>124</ele>
        <time>2022-02-09T09:08:32.771Z</time>
      </trkpt>
      <trkpt lat="48.37517" lon="2.70007">
        <ele>124</ele>
        <time>2022-02-09T09:08:37.766Z</time>
      </trkpt>
      <trkpt lat="48.37509" lon="2.70004">
        <ele>126</ele>
        <time>2022-02-09T09:08:42.761Z</time>
      </trkpt>
      <trkpt lat="48.37501" lon="2.70004">
        <ele>126</ele>
        <time>2022-02-09T09:08:47.761Z</time>
      </trkpt>
      <trkpt lat="48.37496" lon="2.70012">
        <ele>126</ele>
        <time>2022-02-09T09:08:52.774Z</time>
      </trkpt>
      <trkpt lat="48.37493" lon="2.70018">
        <ele>126</ele>
        <time>2022-02-09T09:08:56.762Z</time>
      </trkpt>
      <trkpt lat="48.37489" lon="2.70025">
        <ele>126</ele>
        <time>2022-02-09T09:09:01.766Z</time>
      </trkpt>
      <trkpt lat="48.37486" lon="2.70034">
        <ele>127</ele>
        <time>2022-02-09T09:09:06.773Z</time>
      </trkpt>
      <trkpt lat="48.37482" lon="2.70043">
        <ele>127</ele>
        <time>2022-02-09T09:09:11.763Z</time>
      </trkpt>
      <trkpt lat="48.3748" lon="2.70051">
        <ele>127</ele>
        <time>2022-02-09T09:09:16.760Z</time>
      </trkpt>
      <trkpt lat="48.37479" lon="2.70058">
        <ele>127</ele>
        <time>2022-02-09T09:09:20.772Z</time>
      </trkpt>
      <trkpt lat="48.37476" lon="2.70069">
        <ele>127</ele>
        <time>2022-02-09T09:09:25.763Z</time>
      </trkpt>
      <trkpt lat="48.37473" lon="2.70077">
        <ele>126</ele>
        <time>2022-02-09T09:09:30.774Z</time>
      </trkpt>
      <trkpt lat="48.3747" lon="2.70084">
        <ele>126</ele>
        <time>2022-02-09T09:09:35.770Z</time>
      </trkpt>
      <trkpt lat="48.37467" lon="2.70093">
        <ele>126</ele>
        <time>2022-02-09T09:09:40.765Z</time>
      </trkpt>
      <trkpt lat="48.37463" lon="2.701">
        <ele>124</ele>
        <time>2022-02-09T09:09:45.759Z</time>
      </trkpt>
      <trkpt lat="48.37457" lon="2.70102">
        <ele>126</ele>
        <time>2022-02-09T09:09:49.765Z</time>
      </trkpt>
      <trkpt lat="48.37451" lon="2.70103">
        <ele>126</ele>
        <time>2022-02-09T09:09:54.766Z</time>
      </trkpt>
      <trkpt lat="48.37445" lon="2.70105">
        <ele>126</ele>
        <time>2022-02-09T09:09:59.764Z</time>
      </trkpt>
      <trkpt lat="48.37441" lon="2.70104">
        <ele>126</ele>
        <time>2022-02-09T09:10:03.764Z</time>
      </trkpt>
      <trkpt lat="48.37436" lon="2.70104">
        <ele>126</ele>
        <time>2022-02-09T09:10:07.764Z</time>
      </trkpt>
      <trkpt lat="48.37431" lon="2.70104">
        <ele>126</ele>
        <time>2022-02-09T09:10:12.777Z</time>
      </trkpt>
      <trkpt lat="48.37425" lon="2.70105">
        <ele>128</ele>
        <time>2022-02-09T09:10:17.771Z</time>
      </trkpt>
      <trkpt lat="48.3742" lon="2.70106">
        <ele>128</ele>
        <time>2022-02-09T09:10:22.782Z</time>
      </trkpt>
      <trkpt lat="48.37414" lon="2.70107">
        <ele>128</ele>
        <time>2022-02-09T09:10:27.771Z</time>
      </trkpt>
      <trkpt lat="48.3741" lon="2.70106">
        <ele>128</ele>
        <time>2022-02-09T09:10:31.776Z</time>
      </trkpt>
      <trkpt lat="48.37406" lon="2.70106">
        <ele>128</ele>
        <time>2022-02-09T09:10:36.768Z</time>
      </trkpt>
      <trkpt lat="48.37401" lon="2.70106">
        <ele>129</ele>
        <time>2022-02-09T09:10:40.767Z</time>
      </trkpt>
      <trkpt lat="48.37396" lon="2.70105">
        <ele>129</ele>
        <time>2022-02-09T09:10:44.773Z</time>
      </trkpt>
      <trkpt lat="48.37391" lon="2.70105">
        <ele>129</ele>
        <time>2022-02-09T09:10:48.771Z</time>
      </trkpt>
      <trkpt lat="48.37385" lon="2.70105">
        <ele>129</ele>
        <time>2022-02-09T09:10:53.769Z</time>
      </trkpt>
      <trkpt lat="48.3738" lon="2.70105">
        <ele>129</ele>
        <time>2022-02-09T09:10:57.769Z</time>
      </trkpt>
      <trkpt lat="48.37375" lon="2.70106">
        <ele>130</ele>
        <time>2022-02-09T09:11:01.776Z</time>
      </trkpt>
      <trkpt lat="48.37369" lon="2.70106">
        <ele>130</ele>
        <time>2022-02-09T09:11:06.762Z</time>
      </trkpt>
      <trkpt lat="48.37362" lon="2.70106">
        <ele>130</ele>
        <time>2022-02-09T09:11:11.773Z</time>
      </trkpt>
      <trkpt lat="48.37356" lon="2.70106">
        <ele>130</ele>
        <time>2022-02-09T09:11:15.776Z</time>
      </trkpt>
      <trkpt lat="48.37349" lon="2.70106">
        <ele>130</ele>
        <time>2022-02-09T09:11:20.771Z</time>
      </trkpt>
      <trkpt lat="48.37343" lon="2.70107">
        <ele>130</ele>
        <time>2022-02-09T09:11:25.775Z</time>
      </trkpt>
      <trkpt lat="48.37337" lon="2.70107">
        <ele>130</ele>
        <time>2022-02-09T09:11:30.765Z</time>
      </trkpt>
      <trkpt lat="48.37332" lon="2.70107">
        <ele>130</ele>
        <time>2022-02-09T09:11:34.767Z</time>
      </trkpt>
      <trkpt lat="48.37325" lon="2.70107">
        <ele>130</ele>
        <time>2022-02-09T09:11:39.764Z</time>
      </trkpt>
      <trkpt lat="48.37318" lon="2.70107">
        <ele>130</ele>
        <time>2022-02-09T09:11:44.768Z</time>
      </trkpt>
      <trkpt lat="48.37312" lon="2.70108">
        <ele>130</ele>
        <time>2022-02-09T09:11:49.770Z</time>
      </trkpt>
      <trkpt lat="48.37305" lon="2.7011">
        <ele>130</ele>
        <time>2022-02-09T09:11:53.783Z</time>
      </trkpt>
      <trkpt lat="48.37299" lon="2.70114">
        <ele>130</ele>
        <time>2022-02-09T09:11:58.780Z</time>
      </trkpt>
      <trkpt lat="48.37294" lon="2.70121">
        <ele>130</ele>
        <time>2022-02-09T09:12:03.777Z</time>
      </trkpt>
      <trkpt lat="48.3729" lon="2.7013">
        <ele>132</ele>
        <time>2022-02-09T09:12:08.777Z</time>
      </trkpt>
      <trkpt lat="48.37288" lon="2.70139">
        <ele>132</ele>
        <time>2022-02-09T09:12:13.769Z</time>
      </trkpt>
      <trkpt lat="48.37287" lon="2.70147">
        <ele>132</ele>
        <time>2022-02-09T09:12:17.777Z</time>
      </trkpt>
      <trkpt lat="48.37286" lon="2.70157">
        <ele>133</ele>
        <time>2022-02-09T09:12:22.759Z</time>
      </trkpt>
      <trkpt lat="48.37285" lon="2.70166">
        <ele>133</ele>
        <time>2022-02-09T09:12:27.763Z</time>
      </trkpt>
      <trkpt lat="48.37285" lon="2.70176">
        <ele>133</ele>
        <time>2022-02-09T09:12:32.779Z</time>
      </trkpt>
      <trkpt lat="48.37284" lon="2.70186">
        <ele>134</ele>
        <time>2022-02-09T09:12:37.770Z</time>
      </trkpt>
      <trkpt lat="48.37283" lon="2.70196">
        <ele>134</ele>
        <time>2022-02-09T09:12:42.775Z</time>
      </trkpt>
      <trkpt lat="48.37283" lon="2.70205">
        <ele>134</ele>
        <time>2022-02-09T09:12:47.779Z</time>
      </trkpt>
      <trkpt lat="48.37283" lon="2.70215">
        <ele>133</ele>
        <time>2022-02-09T09:12:52.782Z</time>
      </trkpt>
      <trkpt lat="48.37282" lon="2.70226">
        <ele>133</ele>
        <time>2022-02-09T09:12:57.776Z</time>
      </trkpt>
      <trkpt lat="48.37283" lon="2.70236">
        <ele>133</ele>
        <time>2022-02-09T09:13:02.772Z</time>
      </trkpt>
      <trkpt lat="48.37282" lon="2.70244">
        <ele>133</ele>
        <time>2022-02-09T09:13:06.775Z</time>
      </trkpt>
      <trkpt lat="48.37282" lon="2.70254">
        <ele>133</ele>
        <time>2022-02-09T09:13:11.773Z</time>
      </trkpt>
      <trkpt lat="48.37282" lon="2.70264">
        <ele>132</ele>
        <time>2022-02-09T09:13:16.772Z</time>
      </trkpt>
      <trkpt lat="48.3728" lon="2.70273">
        <ele>132</ele>
        <time>2022-02-09T09:13:21.765Z</time>
      </trkpt>
      <trkpt lat="48.3728" lon="2.70281">
        <ele>132</ele>
        <time>2022-02-09T09:13:25.770Z</time>
      </trkpt>
      <trkpt lat="48.37278" lon="2.7029">
        <ele>132</ele>
        <time>2022-02-09T09:13:29.771Z</time>
      </trkpt>
      <trkpt lat="48.37278" lon="2.70298">
        <ele>132</ele>
        <time>2022-02-09T09:13:34.767Z</time>
      </trkpt>
      <trkpt lat="48.37278" lon="2.70308">
        <ele>132</ele>
        <time>2022-02-09T09:13:39.773Z</time>
      </trkpt>
      <trkpt lat="48.37277" lon="2.70316">
        <ele>132</ele>
        <time>2022-02-09T09:13:43.781Z</time>
      </trkpt>
      <trkpt lat="48.37277" lon="2.70324">
        <ele>133</ele>
        <time>2022-02-09T09:13:47.775Z</time>
      </trkpt>
      <trkpt lat="48.37276" lon="2.70334">
        <ele>133</ele>
        <time>2022-02-09T09:13:52.773Z</time>
      </trkpt>
      <trkpt lat="48.37276" lon="2.70345">
        <ele>133</ele>
        <time>2022-02-09T09:13:57.764Z</time>
      </trkpt>
      <trkpt lat="48.37274" lon="2.70353">
        <ele>133</ele>
        <time>2022-02-09T09:14:01.770Z</time>
      </trkpt>
      <trkpt lat="48.37274" lon="2.70364">
        <ele>133</ele>
        <time>2022-02-09T09:14:06.769Z</time>
      </trkpt>
      <trkpt lat="48.37273" lon="2.70371">
        <ele>133</ele>
        <time>2022-02-09T09:14:10.766Z</time>
      </trkpt>
      <trkpt lat="48.37273" lon="2.70381">
        <ele>133</ele>
        <time>2022-02-09T09:14:15.774Z</time>
      </trkpt>
      <trkpt lat="48.37272" lon="2.70389">
        <ele>133</ele>
        <time>2022-02-09T09:14:19.782Z</time>
      </trkpt>
      <trkpt lat="48.37272" lon="2.70399">
        <ele>133</ele>
        <time>2022-02-09T09:14:24.771Z</time>
      </trkpt>
      <trkpt lat="48.37271" lon="2.70409">
        <ele>133</ele>
        <time>2022-02-09T09:14:29.771Z</time>
      </trkpt>
      <trkpt lat="48.3727" lon="2.70419">
        <ele>133</ele>
        <time>2022-02-09T09:14:34.767Z</time>
      </trkpt>
      <trkpt lat="48.37269" lon="2.70429">
        <ele>133</ele>
        <time>2022-02-09T09:14:39.771Z</time>
      </trkpt>
      <trkpt lat="48.37269" lon="2.70437">
        <ele>134</ele>
        <time>2022-02-09T09:14:43.775Z</time>
      </trkpt>
      <trkpt lat="48.37268" lon="2.70448">
        <ele>134</ele>
        <time>2022-02-09T09:14:48.767Z</time>
      </trkpt>
      <trkpt lat="48.37268" lon="2.70458">
        <ele>134</ele>
        <time>2022-02-09T09:14:53.769Z</time>
      </trkpt>
      <trkpt lat="48.37267" lon="2.70467">
        <ele>134</ele>
        <time>2022-02-09T09:14:57.773Z</time>
      </trkpt>
      <trkpt lat="48.37267" lon="2.70476">
        <ele>134</ele>
        <time>2022-02-09T09:15:01.776Z</time>
      </trkpt>
      <trkpt lat="48.37267" lon="2.70486">
        <ele>134</ele>
        <time>2022-02-09T09:15:06.771Z</time>
      </trkpt>
      <trkpt lat="48.37266" lon="2.70497">
        <ele>135</ele>
        <time>2022-02-09T09:15:11.769Z</time>
      </trkpt>
      <trkpt lat="48.37266" lon="2.70506">
        <ele>135</ele>
        <time>2022-02-09T09:15:16.771Z</time>
      </trkpt>
      <trkpt lat="48.37266" lon="2.70514">
        <ele>135</ele>
        <time>2022-02-09T09:15:20.776Z</time>
      </trkpt>
      <trkpt lat="48.37266" lon="2.70524">
        <ele>135</ele>
        <time>2022-02-09T09:15:25.779Z</time>
      </trkpt>
      <trkpt lat="48.37265" lon="2.70534">
        <ele>135</ele>
        <time>2022-02-09T09:15:30.774Z</time>
      </trkpt>
      <trkpt lat="48.37264" lon="2.70544">
        <ele>135</ele>
        <time>2022-02-09T09:15:35.777Z</time>
      </trkpt>
      <trkpt lat="48.37264" lon="2.70554">
        <ele>134</ele>
        <time>2022-02-09T09:15:40.775Z</time>
      </trkpt>
      <trkpt lat="48.37264" lon="2.70562">
        <ele>134</ele>
        <time>2022-02-09T09:15:44.779Z</time>
      </trkpt>
      <trkpt lat="48.37263" lon="2.70572">
        <ele>134</ele>
        <time>2022-02-09T09:15:49.773Z</time>
      </trkpt>
      <trkpt lat="48.37262" lon="2.70581">
        <ele>134</ele>
        <time>2022-02-09T09:15:53.778Z</time>
      </trkpt>
      <trkpt lat="48.37261" lon="2.70589">
        <ele>134</ele>
        <time>2022-02-09T09:15:57.781Z</time>
      </trkpt>
      <trkpt lat="48.37261" lon="2.70599">
        <ele>134</ele>
        <time>2022-02-09T09:16:02.784Z</time>
      </trkpt>
      <trkpt lat="48.3726" lon="2.70608">
        <ele>134</ele>
        <time>2022-02-09T09:16:07.768Z</time>
      </trkpt>
      <trkpt lat="48.37259" lon="2.70617">
        <ele>134</ele>
        <time>2022-02-09T09:16:12.773Z</time>
      </trkpt>
      <trkpt lat="48.3726" lon="2.70623">
        <ele>134</ele>
        <time>2022-02-09T09:16:16.778Z</time>
      </trkpt>
      <trkpt lat="48.3726" lon="2.70633">
        <ele>134</ele>
        <time>2022-02-09T09:16:21.767Z</time>
      </trkpt>
      <trkpt lat="48.37259" lon="2.70643">
        <ele>134</ele>
        <time>2022-02-09T09:16:26.772Z</time>
      </trkpt>
      <trkpt lat="48.37259" lon="2.7065">
        <ele>134</ele>
        <time>2022-02-09T09:16:30.807Z</time>
      </trkpt>
      <trkpt lat="48.37259" lon="2.70662">
        <ele>135</ele>
        <time>2022-02-09T09:16:35.766Z</time>
      </trkpt>
      <trkpt lat="48.37258" lon="2.70672">
        <ele>135</ele>
        <time>2022-02-09T09:16:40.768Z</time>
      </trkpt>
      <trkpt lat="48.37257" lon="2.70681">
        <ele>136</ele>
        <time>2022-02-09T09:16:45.766Z</time>
      </trkpt>
      <trkpt lat="48.37257" lon="2.70689">
        <ele>136</ele>
        <time>2022-02-09T09:16:49.769Z</time>
      </trkpt>
      <trkpt lat="48.37255" lon="2.707">
        <ele>136</ele>
        <time>2022-02-09T09:16:54.776Z</time>
      </trkpt>
      <trkpt lat="48.37254" lon="2.70708">
        <ele>136</ele>
        <time>2022-02-09T09:16:58.779Z</time>
      </trkpt>
      <trkpt lat="48.37254" lon="2.70718">
        <ele>136</ele>
        <time>2022-02-09T09:17:03.779Z</time>
      </trkpt>
      <trkpt lat="48.37254" lon="2.70728">
        <ele>136</ele>
        <time>2022-02-09T09:17:08.764Z</time>
      </trkpt>
      <trkpt lat="48.37254" lon="2.70737">
        <ele>136</ele>
        <time>2022-02-09T09:17:13.775Z</time>
      </trkpt>
      <trkpt lat="48.37253" lon="2.70745">
        <ele>136</ele>
        <time>2022-02-09T09:17:17.780Z</time>
      </trkpt>
      <trkpt lat="48.37253" lon="2.70755">
        <ele>136</ele>
        <time>2022-02-09T09:17:22.769Z</time>
      </trkpt>
      <trkpt lat="48.37252" lon="2.70765">
        <ele>136</ele>
        <time>2022-02-09T09:17:27.779Z</time>
      </trkpt>
      <trkpt lat="48.37251" lon="2.70775">
        <ele>136</ele>
        <time>2022-02-09T09:17:32.768Z</time>
      </trkpt>
      <trkpt lat="48.3725" lon="2.70785">
        <ele>136</ele>
        <time>2022-02-09T09:17:37.774Z</time>
      </trkpt>
      <trkpt lat="48.37251" lon="2.70794">
        <ele>137</ele>
        <time>2022-02-09T09:17:42.775Z</time>
      </trkpt>
      <trkpt lat="48.3725" lon="2.70803">
        <ele>137</ele>
        <time>2022-02-09T09:17:47.775Z</time>
      </trkpt>
      <trkpt lat="48.37249" lon="2.70813">
        <ele>137</ele>
        <time>2022-02-09T09:17:52.773Z</time>
      </trkpt>
      <trkpt lat="48.37249" lon="2.70822">
        <ele>137</ele>
        <time>2022-02-09T09:17:57.778Z</time>
      </trkpt>
      <trkpt lat="48.37248" lon="2.70834">
        <ele>137</ele>
        <time>2022-02-09T09:18:02.775Z</time>
      </trkpt>
      <trkpt lat="48.37247" lon="2.70845">
        <ele>137</ele>
        <time>2022-02-09T09:18:07.770Z</time>
      </trkpt>
      <trkpt lat="48.37247" lon="2.70853">
        <ele>137</ele>
        <time>2022-02-09T09:18:11.776Z</time>
      </trkpt>
      <trkpt lat="48.37246" lon="2.70863">
        <ele>137</ele>
        <time>2022-02-09T09:18:16.776Z</time>
      </trkpt>
      <trkpt lat="48.37246" lon="2.70873">
        <ele>137</ele>
        <time>2022-02-09T09:18:21.768Z</time>
      </trkpt>
      <trkpt lat="48.37246" lon="2.7088">
        <ele>137</ele>
        <time>2022-02-09T09:18:25.774Z</time>
      </trkpt>
      <trkpt lat="48.37245" lon="2.7089">
        <ele>137</ele>
        <time>2022-02-09T09:18:30.775Z</time>
      </trkpt>
      <trkpt lat="48.37245" lon="2.709">
        <ele>137</ele>
        <time>2022-02-09T09:18:35.767Z</time>
      </trkpt>
      <trkpt lat="48.37244" lon="2.70908">
        <ele>137</ele>
        <time>2022-02-09T09:18:39.766Z</time>
      </trkpt>
      <trkpt lat="48.37244" lon="2.70917">
        <ele>137</ele>
        <time>2022-02-09T09:18:44.776Z</time>
      </trkpt>
      <trkpt lat="48.37243" lon="2.70927">
        <ele>137</ele>
        <time>2022-02-09T09:18:49.768Z</time>
      </trkpt>
      <trkpt lat="48.37243" lon="2.70934">
        <ele>138</ele>
        <time>2022-02-09T09:18:53.770Z</time>
      </trkpt>
      <trkpt lat="48.37242" lon="2.70943">
        <ele>138</ele>
        <time>2022-02-09T09:18:58.775Z</time>
      </trkpt>
      <trkpt lat="48.37241" lon="2.70952">
        <ele>138</ele>
        <time>2022-02-09T09:19:03.771Z</time>
      </trkpt>
      <trkpt lat="48.37241" lon="2.70962">
        <ele>139</ele>
        <time>2022-02-09T09:19:08.774Z</time>
      </trkpt>
      <trkpt lat="48.37241" lon="2.7097">
        <ele>139</ele>
        <time>2022-02-09T09:19:12.775Z</time>
      </trkpt>
      <trkpt lat="48.3724" lon="2.7098">
        <ele>139</ele>
        <time>2022-02-09T09:19:17.768Z</time>
      </trkpt>
      <trkpt lat="48.37239" lon="2.70989">
        <ele>139</ele>
        <time>2022-02-09T09:19:22.775Z</time>
      </trkpt>
      <trkpt lat="48.37239" lon="2.70996">
        <ele>139</ele>
        <time>2022-02-09T09:19:26.772Z</time>
      </trkpt>
      <trkpt lat="48.37239" lon="2.71007">
        <ele>139</ele>
        <time>2022-02-09T09:19:31.776Z</time>
      </trkpt>
      <trkpt lat="48.37238" lon="2.71015">
        <ele>139</ele>
        <time>2022-02-09T09:19:35.777Z</time>
      </trkpt>
      <trkpt lat="48.37237" lon="2.71027">
        <ele>139</ele>
        <time>2022-02-09T09:19:40.773Z</time>
      </trkpt>
      <trkpt lat="48.37236" lon="2.71035">
        <ele>138</ele>
        <time>2022-02-09T09:19:44.772Z</time>
      </trkpt>
      <trkpt lat="48.37236" lon="2.71044">
        <ele>138</ele>
        <time>2022-02-09T09:19:48.791Z</time>
      </trkpt>
      <trkpt lat="48.37236" lon="2.71053">
        <ele>138</ele>
        <time>2022-02-09T09:19:53.795Z</time>
      </trkpt>
      <trkpt lat="48.37236" lon="2.71063">
        <ele>138</ele>
        <time>2022-02-09T09:19:58.804Z</time>
      </trkpt>
      <trkpt lat="48.37235" lon="2.71072">
        <ele>139</ele>
        <time>2022-02-09T09:20:03.791Z</time>
      </trkpt>
      <trkpt lat="48.37233" lon="2.71082">
        <ele>139</ele>
        <time>2022-02-09T09:20:08.796Z</time>
      </trkpt>
      <trkpt lat="48.37232" lon="2.71092">
        <ele>139</ele>
        <time>2022-02-09T09:20:13.788Z</time>
      </trkpt>
      <trkpt lat="48.37232" lon="2.71102">
        <ele>138</ele>
        <time>2022-02-09T09:20:18.788Z</time>
      </trkpt>
      <trkpt lat="48.37232" lon="2.71112">
        <ele>138</ele>
        <time>2022-02-09T09:20:23.786Z</time>
      </trkpt>
      <trkpt lat="48.37232" lon="2.7112">
        <ele>138</ele>
        <time>2022-02-09T09:20:27.798Z</time>
      </trkpt>
      <trkpt lat="48.37232" lon="2.71129">
        <ele>137</ele>
        <time>2022-02-09T09:20:31.800Z</time>
      </trkpt>
      <trkpt lat="48.37231" lon="2.71139">
        <ele>137</ele>
        <time>2022-02-09T09:20:36.795Z</time>
      </trkpt>
      <trkpt lat="48.37231" lon="2.71148">
        <ele>137</ele>
        <time>2022-02-09T09:20:41.794Z</time>
      </trkpt>
      <trkpt lat="48.37231" lon="2.71158">
        <ele>136</ele>
        <time>2022-02-09T09:20:46.793Z</time>
      </trkpt>
      <trkpt lat="48.37231" lon="2.71168">
        <ele>136</ele>
        <time>2022-02-09T09:20:51.793Z</time>
      </trkpt>
      <trkpt lat="48.37231" lon="2.71176">
        <ele>136</ele>
        <time>2022-02-09T09:20:55.799Z</time>
      </trkpt>
      <trkpt lat="48.37231" lon="2.71186">
        <ele>134</ele>
        <time>2022-02-09T09:21:00.791Z</time>
      </trkpt>
      <trkpt lat="48.37231" lon="2.71194">
        <ele>134</ele>
        <time>2022-02-09T09:21:04.800Z</time>
      </trkpt>
      <trkpt lat="48.3723" lon="2.71204">
        <ele>134</ele>
        <time>2022-02-09T09:21:09.786Z</time>
      </trkpt>
      <trkpt lat="48.37229" lon="2.71212">
        <ele>133</ele>
        <time>2022-02-09T09:21:13.800Z</time>
      </trkpt>
      <trkpt lat="48.37228" lon="2.71221">
        <ele>133</ele>
        <time>2022-02-09T09:21:17.804Z</time>
      </trkpt>
      <trkpt lat="48.37227" lon="2.71232">
        <ele>133</ele>
        <time>2022-02-09T09:21:22.776Z</time>
      </trkpt>
      <trkpt lat="48.37227" lon="2.7124">
        <ele>132</ele>
        <time>2022-02-09T09:21:26.782Z</time>
      </trkpt>
      <trkpt lat="48.37226" lon="2.71251">
        <ele>132</ele>
        <time>2022-02-09T09:21:31.780Z</time>
      </trkpt>
      <trkpt lat="48.37226" lon="2.71261">
        <ele>132</ele>
        <time>2022-02-09T09:21:36.778Z</time>
      </trkpt>
      <trkpt lat="48.37226" lon="2.7127">
        <ele>131</ele>
        <time>2022-02-09T09:21:41.784Z</time>
      </trkpt>
      <trkpt lat="48.37225" lon="2.71279">
        <ele>131</ele>
        <time>2022-02-09T09:21:46.781Z</time>
      </trkpt>
      <trkpt lat="48.37225" lon="2.71289">
        <ele>131</ele>
        <time>2022-02-09T09:21:51.787Z</time>
      </trkpt>
      <trkpt lat="48.37224" lon="2.71297">
        <ele>130</ele>
        <time>2022-02-09T09:21:55.786Z</time>
      </trkpt>
      <trkpt lat="48.37223" lon="2.71306">
        <ele>130</ele>
        <time>2022-02-09T09:22:00.784Z</time>
      </trkpt>
      <trkpt lat="48.37222" lon="2.71316">
        <ele>130</ele>
        <time>2022-02-09T09:22:05.792Z</time>
      </trkpt>
      <trkpt lat="48.37222" lon="2.71325">
        <ele>130</ele>
        <time>2022-02-09T09:22:10.779Z</time>
      </trkpt>
      <trkpt lat="48.37222" lon="2.71333">
        <ele>130</ele>
        <time>2022-02-09T09:22:14.781Z</time>
      </trkpt>
      <trkpt lat="48.37221" lon="2.71341">
        <ele>130</ele>
        <time>2022-02-09T09:22:18.784Z</time>
      </trkpt>
      <trkpt lat="48.37221" lon="2.71351">
        <ele>130</ele>
        <time>2022-02-09T09:22:23.785Z</time>
      </trkpt>
      <trkpt lat="48.3722" lon="2.71361">
        <ele>130</ele>
        <time>2022-02-09T09:22:28.782Z</time>
      </trkpt>
      <trkpt lat="48.37219" lon="2.71371">
        <ele>130</ele>
        <time>2022-02-09T09:22:33.785Z</time>
      </trkpt>
      <trkpt lat="48.37219" lon="2.7138">
        <ele>130</ele>
        <time>2022-02-09T09:22:37.786Z</time>
      </trkpt>
      <trkpt lat="48.37218" lon="2.7139">
        <ele>130</ele>
        <time>2022-02-09T09:22:42.788Z</time>
      </trkpt>
      <trkpt lat="48.37217" lon="2.714">
        <ele>130</ele>
        <time>2022-02-09T09:22:47.787Z</time>
      </trkpt>
      <trkpt lat="48.37216" lon="2.71409">
        <ele>130</ele>
        <time>2022-02-09T09:22:52.790Z</time>
      </trkpt>
      <trkpt lat="48.37215" lon="2.71419">
        <ele>130</ele>
        <time>2022-02-09T09:22:57.787Z</time>
      </trkpt>
      <trkpt lat="48.37215" lon="2.71428">
        <ele>130</ele>
        <time>2022-02-09T09:23:01.788Z</time>
      </trkpt>
      <trkpt lat="48.37215" lon="2.71438">
        <ele>129</ele>
        <time>2022-02-09T09:23:06.788Z</time>
      </trkpt>
      <trkpt lat="48.37214" lon="2.71445">
        <ele>129</ele>
        <time>2022-02-09T09:23:10.788Z</time>
      </trkpt>
      <trkpt lat="48.37214" lon="2.71456">
        <ele>129</ele>
        <time>2022-02-09T09:23:15.789Z</time>
      </trkpt>
      <trkpt lat="48.37213" lon="2.71465">
        <ele>129</ele>
        <time>2022-02-09T09:23:19.787Z</time>
      </trkpt>
      <trkpt lat="48.37213" lon="2.71478">
        <ele>129</ele>
        <time>2022-02-09T09:23:24.791Z</time>
      </trkpt>
      <trkpt lat="48.37212" lon="2.71491">
        <ele>129</ele>
        <time>2022-02-09T09:23:29.786Z</time>
      </trkpt>
      <trkpt lat="48.37211" lon="2.715">
        <ele>129</ele>
        <time>2022-02-09T09:23:34.778Z</time>
      </trkpt>
      <trkpt lat="48.37211" lon="2.71508">
        <ele>129</ele>
        <time>2022-02-09T09:23:39.780Z</time>
      </trkpt>
      <trkpt lat="48.3721" lon="2.71516">
        <ele>130</ele>
        <time>2022-02-09T09:23:44.782Z</time>
      </trkpt>
      <trkpt lat="48.3721" lon="2.71525">
        <ele>130</ele>
        <time>2022-02-09T09:23:48.784Z</time>
      </trkpt>
      <trkpt lat="48.37209" lon="2.71534">
        <ele>130</ele>
        <time>2022-02-09T09:23:53.791Z</time>
      </trkpt>
      <trkpt lat="48.37208" lon="2.71543">
        <ele>129</ele>
        <time>2022-02-09T09:23:58.782Z</time>
      </trkpt>
      <trkpt lat="48.37208" lon="2.71552">
        <ele>129</ele>
        <time>2022-02-09T09:24:03.774Z</time>
      </trkpt>
      <trkpt lat="48.37207" lon="2.71559">
        <ele>129</ele>
        <time>2022-02-09T09:24:07.785Z</time>
      </trkpt>
      <trkpt lat="48.37206" lon="2.71569">
        <ele>129</ele>
        <time>2022-02-09T09:24:12.775Z</time>
      </trkpt>
      <trkpt lat="48.37206" lon="2.71577">
        <ele>128</ele>
        <time>2022-02-09T09:24:16.784Z</time>
      </trkpt>
      <trkpt lat="48.37206" lon="2.71587">
        <ele>128</ele>
        <time>2022-02-09T09:24:21.788Z</time>
      </trkpt>
      <trkpt lat="48.37206" lon="2.71595">
        <ele>128</ele>
        <time>2022-02-09T09:24:25.781Z</time>
      </trkpt>
      <trkpt lat="48.37205" lon="2.71606">
        <ele>127</ele>
        <time>2022-02-09T09:24:30.785Z</time>
      </trkpt>
      <trkpt lat="48.37205" lon="2.71613">
        <ele>127</ele>
        <time>2022-02-09T09:24:35.791Z</time>
      </trkpt>
      <trkpt lat="48.37205" lon="2.71624">
        <ele>127</ele>
        <time>2022-02-09T09:24:40.779Z</time>
      </trkpt>
      <trkpt lat="48.37205" lon="2.71631">
        <ele>127</ele>
        <time>2022-02-09T09:24:44.788Z</time>
      </trkpt>
      <trkpt lat="48.37205" lon="2.71641">
        <ele>127</ele>
        <time>2022-02-09T09:24:49.784Z</time>
      </trkpt>
      <trkpt lat="48.37204" lon="2.71653">
        <ele>127</ele>
        <time>2022-02-09T09:24:54.777Z</time>
      </trkpt>
      <trkpt lat="48.37204" lon="2.71664">
        <ele>127</ele>
        <time>2022-02-09T09:24:59.777Z</time>
      </trkpt>
      <trkpt lat="48.37204" lon="2.71674">
        <ele>127</ele>
        <time>2022-02-09T09:25:04.782Z</time>
      </trkpt>
      <trkpt lat="48.37203" lon="2.71682">
        <ele>126</ele>
        <time>2022-02-09T09:25:08.776Z</time>
      </trkpt>
      <trkpt lat="48.37203" lon="2.71692">
        <ele>126</ele>
        <time>2022-02-09T09:25:13.789Z</time>
      </trkpt>
      <trkpt lat="48.37203" lon="2.71705">
        <ele>126</ele>
        <time>2022-02-09T09:25:18.778Z</time>
      </trkpt>
      <trkpt lat="48.37204" lon="2.71716">
        <ele>123</ele>
        <time>2022-02-09T09:25:22.782Z</time>
      </trkpt>
      <trkpt lat="48.37205" lon="2.71728">
        <ele>123</ele>
        <time>2022-02-09T09:25:27.776Z</time>
      </trkpt>
      <trkpt lat="48.37205" lon="2.71729">
        <ele>123</ele>
        <time>2022-02-09T09:25:31.778Z</time>
      </trkpt>
      <trkpt lat="48.37204" lon="2.71731">
        <ele>123</ele>
        <time>2022-02-09T09:25:36.787Z</time>
      </trkpt>
      <trkpt lat="48.37197" lon="2.71732">
        <ele>123</ele>
        <time>2022-02-09T09:29:22.785Z</time>
      </trkpt>
      <trkpt lat="48.37197" lon="2.71731">
        <ele>123</ele>
        <time>2022-02-09T09:29:27.782Z</time>
      </trkpt>
      <trkpt lat="48.37196" lon="2.71728">
        <ele>123</ele>
        <time>2022-02-09T09:29:32.782Z</time>
      </trkpt>
      <trkpt lat="48.37194" lon="2.71725">
        <ele>123</ele>
        <time>2022-02-09T09:29:36.784Z</time>
      </trkpt>
      <trkpt lat="48.37191" lon="2.71721">
        <ele>123</ele>
        <time>2022-02-09T09:29:41.784Z</time>
      </trkpt>
      <trkpt lat="48.37187" lon="2.71724">
        <ele>123</ele>
        <time>2022-02-09T09:29:45.785Z</time>
      </trkpt>
      <trkpt lat="48.37181" lon="2.71725">
        <ele>123</ele>
        <time>2022-02-09T09:29:50.778Z</time>
      </trkpt>
      <trkpt lat="48.37176" lon="2.71724">
        <ele>120</ele>
        <time>2022-02-09T09:29:54.783Z</time>
      </trkpt>
      <trkpt lat="48.37172" lon="2.7172">
        <ele>120</ele>
        <time>2022-02-09T09:29:59.777Z</time>
      </trkpt>
      <trkpt lat="48.37168" lon="2.71716">
        <ele>120</ele>
        <time>2022-02-09T09:30:03.784Z</time>
      </trkpt>
      <trkpt lat="48.37163" lon="2.71713">
        <ele>120</ele>
        <time>2022-02-09T09:30:08.780Z</time>
      </trkpt>
      <trkpt lat="48.3716" lon="2.71708">
        <ele>123</ele>
        <time>2022-02-09T09:30:13.784Z</time>
      </trkpt>
      <trkpt lat="48.37156" lon="2.71703">
        <ele>123</ele>
        <time>2022-02-09T09:30:17.779Z</time>
      </trkpt>
      <trkpt lat="48.37154" lon="2.71697">
        <ele>123</ele>
        <time>2022-02-09T09:30:21.791Z</time>
      </trkpt>
      <trkpt lat="48.37152" lon="2.7169">
        <ele>119</ele>
        <time>2022-02-09T09:30:25.792Z</time>
      </trkpt>
      <trkpt lat="48.37151" lon="2.71682">
        <ele>119</ele>
        <time>2022-02-09T09:30:30.784Z</time>
      </trkpt>
      <trkpt lat="48.3715" lon="2.71674">
        <ele>120</ele>
        <time>2022-02-09T09:30:35.783Z</time>
      </trkpt>
      <trkpt lat="48.37149" lon="2.71667">
        <ele>120</ele>
        <time>2022-02-09T09:30:39.789Z</time>
      </trkpt>
      <trkpt lat="48.37148" lon="2.71657">
        <ele>120</ele>
        <time>2022-02-09T09:30:44.782Z</time>
      </trkpt>
      <trkpt lat="48.37148" lon="2.71647">
        <ele>119</ele>
        <time>2022-02-09T09:30:49.775Z</time>
      </trkpt>
      <trkpt lat="48.37146" lon="2.71639">
        <ele>119</ele>
        <time>2022-02-09T09:30:53.782Z</time>
      </trkpt>
      <trkpt lat="48.37145" lon="2.71632">
        <ele>119</ele>
        <time>2022-02-09T09:30:57.774Z</time>
      </trkpt>
      <trkpt lat="48.37144" lon="2.71621">
        <ele>119</ele>
        <time>2022-02-09T09:31:02.781Z</time>
      </trkpt>
      <trkpt lat="48.37143" lon="2.7161">
        <ele>119</ele>
        <time>2022-02-09T09:31:07.773Z</time>
      </trkpt>
      <trkpt lat="48.37142" lon="2.71601">
        <ele>119</ele>
        <time>2022-02-09T09:31:11.786Z</time>
      </trkpt>
      <trkpt lat="48.3714" lon="2.7159">
        <ele>120</ele>
        <time>2022-02-09T09:31:16.785Z</time>
      </trkpt>
      <trkpt lat="48.37139" lon="2.71579">
        <ele>120</ele>
        <time>2022-02-09T09:31:21.783Z</time>
      </trkpt>
      <trkpt lat="48.37139" lon="2.71568">
        <ele>122</ele>
        <time>2022-02-09T09:31:26.778Z</time>
      </trkpt>
      <trkpt lat="48.37137" lon="2.71555">
        <ele>122</ele>
        <time>2022-02-09T09:31:31.779Z</time>
      </trkpt>
      <trkpt lat="48.37134" lon="2.71543">
        <ele>122</ele>
        <time>2022-02-09T09:31:36.773Z</time>
      </trkpt>
      <trkpt lat="48.37133" lon="2.71533">
        <ele>122</ele>
        <time>2022-02-09T09:31:41.781Z</time>
      </trkpt>
      <trkpt lat="48.37131" lon="2.71524">
        <ele>122</ele>
        <time>2022-02-09T09:31:45.784Z</time>
      </trkpt>
      <trkpt lat="48.3713" lon="2.71515">
        <ele>122</ele>
        <time>2022-02-09T09:31:49.786Z</time>
      </trkpt>
      <trkpt lat="48.37128" lon="2.71503">
        <ele>122</ele>
        <time>2022-02-09T09:31:54.789Z</time>
      </trkpt>
      <trkpt lat="48.37128" lon="2.71493">
        <ele>122</ele>
        <time>2022-02-09T09:31:59.784Z</time>
      </trkpt>
      <trkpt lat="48.37127" lon="2.71485">
        <ele>121</ele>
        <time>2022-02-09T09:32:03.784Z</time>
      </trkpt>
      <trkpt lat="48.37126" lon="2.71475">
        <ele>121</ele>
        <time>2022-02-09T09:32:08.784Z</time>
      </trkpt>
      <trkpt lat="48.37125" lon="2.71468">
        <ele>121</ele>
        <time>2022-02-09T09:32:12.793Z</time>
      </trkpt>
      <trkpt lat="48.37123" lon="2.71458">
        <ele>118</ele>
        <time>2022-02-09T09:32:17.783Z</time>
      </trkpt>
      <trkpt lat="48.3712" lon="2.71447">
        <ele>118</ele>
        <time>2022-02-09T09:32:22.782Z</time>
      </trkpt>
      <trkpt lat="48.37117" lon="2.71438">
        <ele>118</ele>
        <time>2022-02-09T09:32:26.783Z</time>
      </trkpt>
      <trkpt lat="48.37114" lon="2.71431">
        <ele>119</ele>
        <time>2022-02-09T09:32:30.785Z</time>
      </trkpt>
      <trkpt lat="48.3711" lon="2.71423">
        <ele>119</ele>
        <time>2022-02-09T09:32:35.783Z</time>
      </trkpt>
      <trkpt lat="48.37103" lon="2.71416">
        <ele>119</ele>
        <time>2022-02-09T09:32:40.782Z</time>
      </trkpt>
      <trkpt lat="48.37098" lon="2.71412">
        <ele>119</ele>
        <time>2022-02-09T09:32:44.785Z</time>
      </trkpt>
      <trkpt lat="48.37093" lon="2.71408">
        <ele>117</ele>
        <time>2022-02-09T09:32:48.783Z</time>
      </trkpt>
      <trkpt lat="48.37086" lon="2.71404">
        <ele>117</ele>
        <time>2022-02-09T09:32:53.787Z</time>
      </trkpt>
      <trkpt lat="48.37078" lon="2.71401">
        <ele>117</ele>
        <time>2022-02-09T09:32:58.786Z</time>
      </trkpt>
      <trkpt lat="48.37071" lon="2.71401">
        <ele>117</ele>
        <time>2022-02-09T09:33:02.787Z</time>
      </trkpt>
      <trkpt lat="48.37063" lon="2.71403">
        <ele>115</ele>
        <time>2022-02-09T09:33:07.780Z</time>
      </trkpt>
      <trkpt lat="48.37057" lon="2.71404">
        <ele>114</ele>
        <time>2022-02-09T09:33:12.782Z</time>
      </trkpt>
      <trkpt lat="48.37051" lon="2.71406">
        <ele>114</ele>
        <time>2022-02-09T09:33:16.782Z</time>
      </trkpt>
      <trkpt lat="48.37046" lon="2.71408">
        <ele>114</ele>
        <time>2022-02-09T09:33:20.788Z</time>
      </trkpt>
      <trkpt lat="48.3704" lon="2.71411">
        <ele>111</ele>
        <time>2022-02-09T09:33:25.786Z</time>
      </trkpt>
      <trkpt lat="48.37033" lon="2.71415">
        <ele>111</ele>
        <time>2022-02-09T09:33:30.779Z</time>
      </trkpt>
      <trkpt lat="48.37027" lon="2.7142">
        <ele>111</ele>
        <time>2022-02-09T09:33:35.783Z</time>
      </trkpt>
      <trkpt lat="48.3702" lon="2.71424">
        <ele>111</ele>
        <time>2022-02-09T09:33:40.784Z</time>
      </trkpt>
      <trkpt lat="48.37013" lon="2.71428">
        <ele>110</ele>
        <time>2022-02-09T09:33:45.778Z</time>
      </trkpt>
      <trkpt lat="48.37008" lon="2.7143">
        <ele>110</ele>
        <time>2022-02-09T09:33:49.779Z</time>
      </trkpt>
      <trkpt lat="48.37001" lon="2.71435">
        <ele>109</ele>
        <time>2022-02-09T09:33:54.775Z</time>
      </trkpt>
      <trkpt lat="48.36996" lon="2.71438">
        <ele>109</ele>
        <time>2022-02-09T09:33:58.785Z</time>
      </trkpt>
      <trkpt lat="48.3699" lon="2.71441">
        <ele>109</ele>
        <time>2022-02-09T09:34:03.781Z</time>
      </trkpt>
      <trkpt lat="48.36983" lon="2.71444">
        <ele>107</ele>
        <time>2022-02-09T09:34:08.786Z</time>
      </trkpt>
      <trkpt lat="48.36978" lon="2.71449">
        <ele>107</ele>
        <time>2022-02-09T09:34:13.780Z</time>
      </trkpt>
      <trkpt lat="48.36971" lon="2.71452">
        <ele>107</ele>
        <time>2022-02-09T09:34:18.787Z</time>
      </trkpt>
      <trkpt lat="48.36966" lon="2.71453">
        <ele>107</ele>
        <time>2022-02-09T09:34:22.786Z</time>
      </trkpt>
      <trkpt lat="48.36959" lon="2.71452">
        <ele>107</ele>
        <time>2022-02-09T09:34:27.777Z</time>
      </trkpt>
      <trkpt lat="48.36956" lon="2.71444">
        <ele>104</ele>
        <time>2022-02-09T09:34:32.783Z</time>
      </trkpt>
      <trkpt lat="48.36953" lon="2.71437">
        <ele>104</ele>
        <time>2022-02-09T09:34:37.777Z</time>
      </trkpt>
      <trkpt lat="48.3695" lon="2.7143">
        <ele>104</ele>
        <time>2022-02-09T09:34:41.783Z</time>
      </trkpt>
      <trkpt lat="48.36947" lon="2.71422">
        <ele>104</ele>
        <time>2022-02-09T09:34:45.784Z</time>
      </trkpt>
      <trkpt lat="48.36943" lon="2.71414">
        <ele>104</ele>
        <time>2022-02-09T09:34:50.783Z</time>
      </trkpt>
      <trkpt lat="48.36941" lon="2.71407">
        <ele>104</ele>
        <time>2022-02-09T09:34:54.788Z</time>
      </trkpt>
      <trkpt lat="48.36938" lon="2.71399">
        <ele>105</ele>
        <time>2022-02-09T09:34:59.778Z</time>
      </trkpt>
      <trkpt lat="48.36935" lon="2.7139">
        <ele>105</ele>
        <time>2022-02-09T09:35:04.785Z</time>
      </trkpt>
      <trkpt lat="48.36931" lon="2.71382">
        <ele>105</ele>
        <time>2022-02-09T09:35:09.779Z</time>
      </trkpt>
      <trkpt lat="48.36928" lon="2.71375">
        <ele>104</ele>
        <time>2022-02-09T09:35:13.782Z</time>
      </trkpt>
      <trkpt lat="48.36924" lon="2.71367">
        <ele>107</ele>
        <time>2022-02-09T09:35:18.775Z</time>
      </trkpt>
      <trkpt lat="48.36921" lon="2.7136">
        <ele>107</ele>
        <time>2022-02-09T09:35:22.778Z</time>
      </trkpt>
      <trkpt lat="48.36917" lon="2.71351">
        <ele>107</ele>
        <time>2022-02-09T09:35:27.779Z</time>
      </trkpt>
      <trkpt lat="48.36914" lon="2.71344">
        <ele>108</ele>
        <time>2022-02-09T09:35:31.787Z</time>
      </trkpt>
      <trkpt lat="48.3691" lon="2.71336">
        <ele>108</ele>
        <time>2022-02-09T09:35:36.786Z</time>
      </trkpt>
      <trkpt lat="48.36908" lon="2.7133">
        <ele>108</ele>
        <time>2022-02-09T09:35:40.783Z</time>
      </trkpt>
      <trkpt lat="48.36904" lon="2.71321">
        <ele>108</ele>
        <time>2022-02-09T09:35:45.786Z</time>
      </trkpt>
      <trkpt lat="48.36902" lon="2.71315">
        <ele>109</ele>
        <time>2022-02-09T09:35:49.783Z</time>
      </trkpt>
      <trkpt lat="48.36898" lon="2.71307">
        <ele>109</ele>
        <time>2022-02-09T09:35:54.785Z</time>
      </trkpt>
      <trkpt lat="48.36894" lon="2.71299">
        <ele>109</ele>
        <time>2022-02-09T09:35:59.784Z</time>
      </trkpt>
      <trkpt lat="48.36891" lon="2.7129">
        <ele>109</ele>
        <time>2022-02-09T09:36:04.785Z</time>
      </trkpt>
      <trkpt lat="48.36886" lon="2.7128">
        <ele>109</ele>
        <time>2022-02-09T09:36:09.785Z</time>
      </trkpt>
      <trkpt lat="48.36882" lon="2.71274">
        <ele>109</ele>
        <time>2022-02-09T09:36:14.785Z</time>
      </trkpt>
      <trkpt lat="48.36879" lon="2.71266">
        <ele>109</ele>
        <time>2022-02-09T09:36:19.784Z</time>
      </trkpt>
      <trkpt lat="48.36877" lon="2.7126">
        <ele>108</ele>
        <time>2022-02-09T09:36:23.782Z</time>
      </trkpt>
      <trkpt lat="48.36874" lon="2.71253">
        <ele>110</ele>
        <time>2022-02-09T09:36:28.787Z</time>
      </trkpt>
      <trkpt lat="48.36871" lon="2.71244">
        <ele>110</ele>
        <time>2022-02-09T09:36:33.782Z</time>
      </trkpt>
      <trkpt lat="48.3687" lon="2.71237">
        <ele>110</ele>
        <time>2022-02-09T09:36:37.784Z</time>
      </trkpt>
      <trkpt lat="48.36866" lon="2.71229">
        <ele>109</ele>
        <time>2022-02-09T09:36:42.779Z</time>
      </trkpt>
      <trkpt lat="48.36862" lon="2.71221">
        <ele>109</ele>
        <time>2022-02-09T09:36:47.786Z</time>
      </trkpt>
      <trkpt lat="48.36858" lon="2.71212">
        <ele>109</ele>
        <time>2022-02-09T09:36:52.784Z</time>
      </trkpt>
      <trkpt lat="48.36855" lon="2.71204">
        <ele>108</ele>
        <time>2022-02-09T09:36:56.785Z</time>
      </trkpt>
      <trkpt lat="48.36852" lon="2.71197">
        <ele>108</ele>
        <time>2022-02-09T09:37:01.785Z</time>
      </trkpt>
      <trkpt lat="48.36848" lon="2.71188">
        <ele>108</ele>
        <time>2022-02-09T09:37:06.778Z</time>
      </trkpt>
      <trkpt lat="48.36845" lon="2.71181">
        <ele>110</ele>
        <time>2022-02-09T09:37:10.782Z</time>
      </trkpt>
      <trkpt lat="48.36842" lon="2.71172">
        <ele>110</ele>
        <time>2022-02-09T09:37:15.778Z</time>
      </trkpt>
      <trkpt lat="48.36839" lon="2.71165">
        <ele>110</ele>
        <time>2022-02-09T09:37:19.784Z</time>
      </trkpt>
      <trkpt lat="48.36835" lon="2.71157">
        <ele>110</ele>
        <time>2022-02-09T09:37:24.787Z</time>
      </trkpt>
      <trkpt lat="48.36831" lon="2.7115">
        <ele>111</ele>
        <time>2022-02-09T09:37:29.778Z</time>
      </trkpt>
      <trkpt lat="48.36828" lon="2.71142">
        <ele>111</ele>
        <time>2022-02-09T09:37:34.777Z</time>
      </trkpt>
      <trkpt lat="48.36825" lon="2.71136">
        <ele>111</ele>
        <time>2022-02-09T09:37:38.817Z</time>
      </trkpt>
      <trkpt lat="48.36822" lon="2.71128">
        <ele>111</ele>
        <time>2022-02-09T09:37:43.823Z</time>
      </trkpt>
      <trkpt lat="48.36818" lon="2.71121">
        <ele>111</ele>
        <time>2022-02-09T09:37:48.799Z</time>
      </trkpt>
      <trkpt lat="48.36816" lon="2.71114">
        <ele>111</ele>
        <time>2022-02-09T09:37:52.823Z</time>
      </trkpt>
      <trkpt lat="48.36812" lon="2.71106">
        <ele>111</ele>
        <time>2022-02-09T09:37:57.783Z</time>
      </trkpt>
      <trkpt lat="48.36809" lon="2.71098">
        <ele>111</ele>
        <time>2022-02-09T09:38:01.789Z</time>
      </trkpt>
      <trkpt lat="48.36805" lon="2.7109">
        <ele>112</ele>
        <time>2022-02-09T09:38:06.785Z</time>
      </trkpt>
      <trkpt lat="48.36801" lon="2.71082">
        <ele>112</ele>
        <time>2022-02-09T09:38:11.775Z</time>
      </trkpt>
      <trkpt lat="48.36798" lon="2.71074">
        <ele>112</ele>
        <time>2022-02-09T09:38:16.774Z</time>
      </trkpt>
      <trkpt lat="48.36795" lon="2.71068">
        <ele>113</ele>
        <time>2022-02-09T09:38:20.792Z</time>
      </trkpt>
      <trkpt lat="48.36791" lon="2.7106">
        <ele>114</ele>
        <time>2022-02-09T09:38:25.784Z</time>
      </trkpt>
      <trkpt lat="48.36788" lon="2.71052">
        <ele>114</ele>
        <time>2022-02-09T09:38:30.782Z</time>
      </trkpt>
      <trkpt lat="48.36785" lon="2.71045">
        <ele>114</ele>
        <time>2022-02-09T09:38:34.776Z</time>
      </trkpt>
      <trkpt lat="48.36782" lon="2.71038">
        <ele>115</ele>
        <time>2022-02-09T09:38:38.781Z</time>
      </trkpt>
      <trkpt lat="48.36779" lon="2.7103">
        <ele>115</ele>
        <time>2022-02-09T09:38:43.792Z</time>
      </trkpt>
      <trkpt lat="48.36776" lon="2.71023">
        <ele>115</ele>
        <time>2022-02-09T09:38:47.795Z</time>
      </trkpt>
      <trkpt lat="48.36772" lon="2.71014">
        <ele>115</ele>
        <time>2022-02-09T09:38:52.777Z</time>
      </trkpt>
      <trkpt lat="48.3677" lon="2.71007">
        <ele>115</ele>
        <time>2022-02-09T09:38:56.778Z</time>
      </trkpt>
      <trkpt lat="48.36766" lon="2.71">
        <ele>115</ele>
        <time>2022-02-09T09:39:01.777Z</time>
      </trkpt>
      <trkpt lat="48.36763" lon="2.70994">
        <ele>116</ele>
        <time>2022-02-09T09:39:05.777Z</time>
      </trkpt>
      <trkpt lat="48.3676" lon="2.70986">
        <ele>116</ele>
        <time>2022-02-09T09:39:10.781Z</time>
      </trkpt>
      <trkpt lat="48.36756" lon="2.70977">
        <ele>116</ele>
        <time>2022-02-09T09:39:15.778Z</time>
      </trkpt>
      <trkpt lat="48.36755" lon="2.7097">
        <ele>116</ele>
        <time>2022-02-09T09:39:19.788Z</time>
      </trkpt>
      <trkpt lat="48.36755" lon="2.70961">
        <ele>116</ele>
        <time>2022-02-09T09:39:24.777Z</time>
      </trkpt>
      <trkpt lat="48.36755" lon="2.70954">
        <ele>115</ele>
        <time>2022-02-09T09:39:28.782Z</time>
      </trkpt>
      <trkpt lat="48.36756" lon="2.70945">
        <ele>115</ele>
        <time>2022-02-09T09:39:33.779Z</time>
      </trkpt>
      <trkpt lat="48.36754" lon="2.70935">
        <ele>115</ele>
        <time>2022-02-09T09:40:31.779Z</time>
      </trkpt>
      <trkpt lat="48.36754" lon="2.70935">
        <ele>115</ele>
        <time>2022-02-09T09:40:36.785Z</time>
      </trkpt>
      <trkpt lat="48.36754" lon="2.70941">
        <ele>115</ele>
        <time>2022-02-09T09:40:40.792Z</time>
      </trkpt>
      <trkpt lat="48.36751" lon="2.7095">
        <ele>115</ele>
        <time>2022-02-09T09:40:45.786Z</time>
      </trkpt>
      <trkpt lat="48.36747" lon="2.70955">
        <ele>115</ele>
        <time>2022-02-09T09:40:49.782Z</time>
      </trkpt>
      <trkpt lat="48.36741" lon="2.70958">
        <ele>115</ele>
        <time>2022-02-09T09:40:54.777Z</time>
      </trkpt>
      <trkpt lat="48.36734" lon="2.70959">
        <ele>116</ele>
        <time>2022-02-09T09:40:59.790Z</time>
      </trkpt>
      <trkpt lat="48.36727" lon="2.70959">
        <ele>116</ele>
        <time>2022-02-09T09:41:04.781Z</time>
      </trkpt>
      <trkpt lat="48.36721" lon="2.70959">
        <ele>116</ele>
        <time>2022-02-09T09:41:08.795Z</time>
      </trkpt>
      <trkpt lat="48.36715" lon="2.70958">
        <ele>117</ele>
        <time>2022-02-09T09:41:13.780Z</time>
      </trkpt>
      <trkpt lat="48.36708" lon="2.7096">
        <ele>116</ele>
        <time>2022-02-09T09:41:18.778Z</time>
      </trkpt>
      <trkpt lat="48.36703" lon="2.70958">
        <ele>116</ele>
        <time>2022-02-09T09:41:22.791Z</time>
      </trkpt>
      <trkpt lat="48.36695" lon="2.70957">
        <ele>118</ele>
        <time>2022-02-09T09:41:27.793Z</time>
      </trkpt>
      <trkpt lat="48.36688" lon="2.70958">
        <ele>118</ele>
        <time>2022-02-09T09:41:32.785Z</time>
      </trkpt>
      <trkpt lat="48.36681" lon="2.70958">
        <ele>118</ele>
        <time>2022-02-09T09:41:37.784Z</time>
      </trkpt>
      <trkpt lat="48.36675" lon="2.70959">
        <ele>120</ele>
        <time>2022-02-09T09:41:41.782Z</time>
      </trkpt>
      <trkpt lat="48.36668" lon="2.7096">
        <ele>120</ele>
        <time>2022-02-09T09:41:46.786Z</time>
      </trkpt>
      <trkpt lat="48.36662" lon="2.70963">
        <ele>120</ele>
        <time>2022-02-09T09:41:51.792Z</time>
      </trkpt>
      <trkpt lat="48.36654" lon="2.70962">
        <ele>120</ele>
        <time>2022-02-09T09:41:56.789Z</time>
      </trkpt>
      <trkpt lat="48.3665" lon="2.70961">
        <ele>124</ele>
        <time>2022-02-09T09:42:00.789Z</time>
      </trkpt>
      <trkpt lat="48.36644" lon="2.70961">
        <ele>124</ele>
        <time>2022-02-09T09:42:05.789Z</time>
      </trkpt>
      <trkpt lat="48.36638" lon="2.70962">
        <ele>124</ele>
        <time>2022-02-09T09:42:10.786Z</time>
      </trkpt>
      <trkpt lat="48.36633" lon="2.70963">
        <ele>124</ele>
        <time>2022-02-09T09:42:15.781Z</time>
      </trkpt>
      <trkpt lat="48.36629" lon="2.70963">
        <ele>124</ele>
        <time>2022-02-09T09:42:20.779Z</time>
      </trkpt>
      <trkpt lat="48.36624" lon="2.70963">
        <ele>125</ele>
        <time>2022-02-09T09:42:24.786Z</time>
      </trkpt>
      <trkpt lat="48.3662" lon="2.70962">
        <ele>125</ele>
        <time>2022-02-09T09:42:29.783Z</time>
      </trkpt>
      <trkpt lat="48.36616" lon="2.70962">
        <ele>125</ele>
        <time>2022-02-09T09:42:33.786Z</time>
      </trkpt>
      <trkpt lat="48.36611" lon="2.70962">
        <ele>125</ele>
        <time>2022-02-09T09:42:38.779Z</time>
      </trkpt>
      <trkpt lat="48.36607" lon="2.70962">
        <ele>125</ele>
        <time>2022-02-09T09:42:43.780Z</time>
      </trkpt>
      <trkpt lat="48.36602" lon="2.70961">
        <ele>125</ele>
        <time>2022-02-09T09:42:47.789Z</time>
      </trkpt>
      <trkpt lat="48.36599" lon="2.7096">
        <ele>125</ele>
        <time>2022-02-09T09:42:51.790Z</time>
      </trkpt>
      <trkpt lat="48.36594" lon="2.70961">
        <ele>125</ele>
        <time>2022-02-09T09:42:56.788Z</time>
      </trkpt>
      <trkpt lat="48.36591" lon="2.70962">
        <ele>125</ele>
        <time>2022-02-09T09:43:00.790Z</time>
      </trkpt>
      <trkpt lat="48.36585" lon="2.70963">
        <ele>125</ele>
        <time>2022-02-09T09:43:05.801Z</time>
      </trkpt>
      <trkpt lat="48.3658" lon="2.70963">
        <ele>125</ele>
        <time>2022-02-09T09:43:10.777Z</time>
      </trkpt>
      <trkpt lat="48.36577" lon="2.70961">
        <ele>125</ele>
        <time>2022-02-09T09:43:14.790Z</time>
      </trkpt>
      <trkpt lat="48.36575" lon="2.70961">
        <ele>125</ele>
        <time>2022-02-09T09:43:19.789Z</time>
      </trkpt>
      <trkpt lat="48.36571" lon="2.70963">
        <ele>125</ele>
        <time>2022-02-09T09:43:23.800Z</time>
      </trkpt>
      <trkpt lat="48.36567" lon="2.70961">
        <ele>126</ele>
        <time>2022-02-09T09:43:28.786Z</time>
      </trkpt>
      <trkpt lat="48.36563" lon="2.70961">
        <ele>126</ele>
        <time>2022-02-09T09:43:32.791Z</time>
      </trkpt>
      <trkpt lat="48.36557" lon="2.70963">
        <ele>126</ele>
        <time>2022-02-09T09:43:37.795Z</time>
      </trkpt>
      <trkpt lat="48.36552" lon="2.70964">
        <ele>126</ele>
        <time>2022-02-09T09:43:42.784Z</time>
      </trkpt>
      <trkpt lat="48.36547" lon="2.70964">
        <ele>126</ele>
        <time>2022-02-09T09:43:47.785Z</time>
      </trkpt>
      <trkpt lat="48.36542" lon="2.70963">
        <ele>126</ele>
        <time>2022-02-09T09:43:51.815Z</time>
      </trkpt>
      <trkpt lat="48.36537" lon="2.70962">
        <ele>128</ele>
        <time>2022-02-09T09:43:56.781Z</time>
      </trkpt>
      <trkpt lat="48.36533" lon="2.70962">
        <ele>128</ele>
        <time>2022-02-09T09:44:00.782Z</time>
      </trkpt>
      <trkpt lat="48.3653" lon="2.70962">
        <ele>128</ele>
        <time>2022-02-09T09:44:04.790Z</time>
      </trkpt>
      <trkpt lat="48.36527" lon="2.7096">
        <ele>128</ele>
        <time>2022-02-09T09:44:08.815Z</time>
      </trkpt>
      <trkpt lat="48.36522" lon="2.70961">
        <ele>128</ele>
        <time>2022-02-09T09:44:13.781Z</time>
      </trkpt>
      <trkpt lat="48.36518" lon="2.7096">
        <ele>128</ele>
        <time>2022-02-09T09:44:17.793Z</time>
      </trkpt>
      <trkpt lat="48.36514" lon="2.7096">
        <ele>131</ele>
        <time>2022-02-09T09:44:22.788Z</time>
      </trkpt>
      <trkpt lat="48.36508" lon="2.7096">
        <ele>131</ele>
        <time>2022-02-09T09:44:27.834Z</time>
      </trkpt>
      <trkpt lat="48.36501" lon="2.70959">
        <ele>131</ele>
        <time>2022-02-09T09:44:32.834Z</time>
      </trkpt>
      <trkpt lat="48.36496" lon="2.70959">
        <ele>131</ele>
        <time>2022-02-09T09:44:37.784Z</time>
      </trkpt>
      <trkpt lat="48.36492" lon="2.70958">
        <ele>133</ele>
        <time>2022-02-09T09:44:42.781Z</time>
      </trkpt>
      <trkpt lat="48.3649" lon="2.70957">
        <ele>133</ele>
        <time>2022-02-09T09:44:47.785Z</time>
      </trkpt>
      <trkpt lat="48.36489" lon="2.70957">
        <ele>133</ele>
        <time>2022-02-09T09:44:52.787Z</time>
      </trkpt>
      <trkpt lat="48.36487" lon="2.70954">
        <ele>133</ele>
        <time>2022-02-09T09:44:56.821Z</time>
      </trkpt>
      <trkpt lat="48.36484" lon="2.70954">
        <ele>132</ele>
        <time>2022-02-09T09:45:01.822Z</time>
      </trkpt>
      <trkpt lat="48.36484" lon="2.70953">
        <ele>132</ele>
        <time>2022-02-09T09:45:06.828Z</time>
      </trkpt>
      <trkpt lat="48.36481" lon="2.70952">
        <ele>132</ele>
        <time>2022-02-09T09:45:11.823Z</time>
      </trkpt>
      <trkpt lat="48.36476" lon="2.70951">
        <ele>132</ele>
        <time>2022-02-09T09:45:16.839Z</time>
      </trkpt>
      <trkpt lat="48.36471" lon="2.70946">
        <ele>132</ele>
        <time>2022-02-09T09:45:21.808Z</time>
      </trkpt>
      <trkpt lat="48.36464" lon="2.70939">
        <ele>132</ele>
        <time>2022-02-09T09:45:26.826Z</time>
      </trkpt>
      <trkpt lat="48.36459" lon="2.70934">
        <ele>132</ele>
        <time>2022-02-09T09:45:31.819Z</time>
      </trkpt>
      <trkpt lat="48.36455" lon="2.70929">
        <ele>129</ele>
        <time>2022-02-09T09:45:35.828Z</time>
      </trkpt>
      <trkpt lat="48.36449" lon="2.70922">
        <ele>129</ele>
        <time>2022-02-09T09:45:40.788Z</time>
      </trkpt>
      <trkpt lat="48.36451" lon="2.70917">
        <ele>129</ele>
        <time>2022-02-09T09:45:44.825Z</time>
      </trkpt>
      <trkpt lat="48.36442" lon="2.70914">
        <ele>129</ele>
        <time>2022-02-09T09:45:49.791Z</time>
      </trkpt>
      <trkpt lat="48.36437" lon="2.70915">
        <ele>129</ele>
        <time>2022-02-09T09:45:53.796Z</time>
      </trkpt>
      <trkpt lat="48.36433" lon="2.7092">
        <ele>129</ele>
        <time>2022-02-09T09:45:58.788Z</time>
      </trkpt>
      <trkpt lat="48.36428" lon="2.70924">
        <ele>126</ele>
        <time>2022-02-09T09:46:03.785Z</time>
      </trkpt>
      <trkpt lat="48.36424" lon="2.70929">
        <ele>126</ele>
        <time>2022-02-09T09:46:08.789Z</time>
      </trkpt>
      <trkpt lat="48.36421" lon="2.70934">
        <ele>124</ele>
        <time>2022-02-09T09:46:13.785Z</time>
      </trkpt>
      <trkpt lat="48.36418" lon="2.70938">
        <ele>124</ele>
        <time>2022-02-09T09:46:18.815Z</time>
      </trkpt>
      <trkpt lat="48.36415" lon="2.70941">
        <ele>124</ele>
        <time>2022-02-09T09:46:23.832Z</time>
      </trkpt>
      <trkpt lat="48.36411" lon="2.70944">
        <ele>124</ele>
        <time>2022-02-09T09:46:28.786Z</time>
      </trkpt>
      <trkpt lat="48.36409" lon="2.70946">
        <ele>124</ele>
        <time>2022-02-09T09:46:32.785Z</time>
      </trkpt>
      <trkpt lat="48.36406" lon="2.70951">
        <ele>124</ele>
        <time>2022-02-09T09:46:37.785Z</time>
      </trkpt>
      <trkpt lat="48.364" lon="2.70957">
        <ele>122</ele>
        <time>2022-02-09T09:46:46.781Z</time>
      </trkpt>
      <trkpt lat="48.36399" lon="2.70957">
        <ele>122</ele>
        <time>2022-02-09T09:46:51.784Z</time>
      </trkpt>
      <trkpt lat="48.36399" lon="2.70957">
        <ele>122</ele>
        <time>2022-02-09T09:46:55.783Z</time>
      </trkpt>
      <trkpt lat="48.36396" lon="2.70961">
        <ele>120</ele>
        <time>2022-02-09T09:47:00.783Z</time>
      </trkpt>
      <trkpt lat="48.36393" lon="2.70963">
        <ele>120</ele>
        <time>2022-02-09T09:47:05.787Z</time>
      </trkpt>
      <trkpt lat="48.3639" lon="2.70964">
        <ele>120</ele>
        <time>2022-02-09T09:47:09.788Z</time>
      </trkpt>
      <trkpt lat="48.36386" lon="2.70962">
        <ele>120</ele>
        <time>2022-02-09T09:47:14.789Z</time>
      </trkpt>
      <trkpt lat="48.36382" lon="2.70961">
        <ele>120</ele>
        <time>2022-02-09T09:47:18.786Z</time>
      </trkpt>
      <trkpt lat="48.36377" lon="2.70958">
        <ele>120</ele>
        <time>2022-02-09T09:47:23.782Z</time>
      </trkpt>
      <trkpt lat="48.36372" lon="2.70958">
        <ele>122</ele>
        <time>2022-02-09T09:47:28.787Z</time>
      </trkpt>
      <trkpt lat="48.36368" lon="2.70957">
        <ele>122</ele>
        <time>2022-02-09T09:47:32.789Z</time>
      </trkpt>
      <trkpt lat="48.36362" lon="2.70957">
        <ele>122</ele>
        <time>2022-02-09T09:47:37.784Z</time>
      </trkpt>
      <trkpt lat="48.36357" lon="2.70956">
        <ele>122</ele>
        <time>2022-02-09T09:47:42.789Z</time>
      </trkpt>
      <trkpt lat="48.36353" lon="2.70956">
        <ele>122</ele>
        <time>2022-02-09T09:47:46.793Z</time>
      </trkpt>
      <trkpt lat="48.3635" lon="2.70956">
        <ele>122</ele>
        <time>2022-02-09T09:47:51.788Z</time>
      </trkpt>
      <trkpt lat="48.36347" lon="2.70955">
        <ele>125</ele>
        <time>2022-02-09T09:47:55.791Z</time>
      </trkpt>
      <trkpt lat="48.36342" lon="2.70955">
        <ele>125</ele>
        <time>2022-02-09T09:48:00.793Z</time>
      </trkpt>
      <trkpt lat="48.36338" lon="2.70955">
        <ele>125</ele>
        <time>2022-02-09T09:48:05.786Z</time>
      </trkpt>
      <trkpt lat="48.36334" lon="2.70954">
        <ele>125</ele>
        <time>2022-02-09T09:48:10.782Z</time>
      </trkpt>
      <trkpt lat="48.36329" lon="2.70954">
        <ele>125</ele>
        <time>2022-02-09T09:48:14.793Z</time>
      </trkpt>
      <trkpt lat="48.36324" lon="2.70954">
        <ele>125</ele>
        <time>2022-02-09T09:48:19.789Z</time>
      </trkpt>
      <trkpt lat="48.36321" lon="2.70955">
        <ele>125</ele>
        <time>2022-02-09T09:48:24.788Z</time>
      </trkpt>
      <trkpt lat="48.36315" lon="2.70955">
        <ele>126</ele>
        <time>2022-02-09T09:48:29.790Z</time>
      </trkpt>
      <trkpt lat="48.3631" lon="2.70957">
        <ele>126</ele>
        <time>2022-02-09T09:48:34.780Z</time>
      </trkpt>
      <trkpt lat="48.36307" lon="2.70958">
        <ele>126</ele>
        <time>2022-02-09T09:48:38.782Z</time>
      </trkpt>
      <trkpt lat="48.36304" lon="2.70958">
        <ele>126</ele>
        <time>2022-02-09T09:48:43.789Z</time>
      </trkpt>
      <trkpt lat="48.363" lon="2.70959">
        <ele>122</ele>
        <time>2022-02-09T09:48:47.809Z</time>
      </trkpt>
      <trkpt lat="48.36296" lon="2.70956">
        <ele>126</ele>
        <time>2022-02-09T09:48:52.789Z</time>
      </trkpt>
      <trkpt lat="48.3629" lon="2.70956">
        <ele>124</ele>
        <time>2022-02-09T09:48:57.785Z</time>
      </trkpt>
      <trkpt lat="48.36283" lon="2.70958">
        <ele>122</ele>
        <time>2022-02-09T09:49:02.787Z</time>
      </trkpt>
      <trkpt lat="48.36278" lon="2.70957">
        <ele>124</ele>
        <time>2022-02-09T09:49:06.791Z</time>
      </trkpt>
      <trkpt lat="48.36272" lon="2.70958">
        <ele>124</ele>
        <time>2022-02-09T09:49:11.783Z</time>
      </trkpt>
      <trkpt lat="48.36267" lon="2.70958">
        <ele>124</ele>
        <time>2022-02-09T09:49:16.783Z</time>
      </trkpt>
      <trkpt lat="48.36262" lon="2.70958">
        <ele>120</ele>
        <time>2022-02-09T09:49:20.790Z</time>
      </trkpt>
      <trkpt lat="48.36257" lon="2.70958">
        <ele>120</ele>
        <time>2022-02-09T09:49:25.788Z</time>
      </trkpt>
      <trkpt lat="48.36253" lon="2.70959">
        <ele>118</ele>
        <time>2022-02-09T09:49:30.790Z</time>
      </trkpt>
      <trkpt lat="48.36249" lon="2.70959">
        <ele>118</ele>
        <time>2022-02-09T09:49:34.787Z</time>
      </trkpt>
      <trkpt lat="48.36245" lon="2.70958">
        <ele>118</ele>
        <time>2022-02-09T09:49:39.794Z</time>
      </trkpt>
      <trkpt lat="48.36241" lon="2.70958">
        <ele>120</ele>
        <time>2022-02-09T09:49:44.789Z</time>
      </trkpt>
      <trkpt lat="48.36238" lon="2.70957">
        <ele>120</ele>
        <time>2022-02-09T09:49:48.792Z</time>
      </trkpt>
      <trkpt lat="48.36238" lon="2.70963">
        <ele>118</ele>
        <time>2022-02-09T09:49:53.785Z</time>
      </trkpt>
      <trkpt lat="48.36235" lon="2.70969">
        <ele>114</ele>
        <time>2022-02-09T09:49:58.784Z</time>
      </trkpt>
      <trkpt lat="48.36231" lon="2.70969">
        <ele>114</ele>
        <time>2022-02-09T09:50:02.781Z</time>
      </trkpt>
      <trkpt lat="48.36226" lon="2.70965">
        <ele>114</ele>
        <time>2022-02-09T09:50:07.782Z</time>
      </trkpt>
      <trkpt lat="48.36221" lon="2.70965">
        <ele>114</ele>
        <time>2022-02-09T09:50:12.785Z</time>
      </trkpt>
      <trkpt lat="48.36215" lon="2.70963">
        <ele>114</ele>
        <time>2022-02-09T09:50:17.787Z</time>
      </trkpt>
      <trkpt lat="48.36211" lon="2.70956">
        <ele>115</ele>
        <time>2022-02-09T09:50:22.786Z</time>
      </trkpt>
      <trkpt lat="48.36205" lon="2.70954">
        <ele>112</ele>
        <time>2022-02-09T09:50:27.784Z</time>
      </trkpt>
      <trkpt lat="48.36201" lon="2.70952">
        <ele>112</ele>
        <time>2022-02-09T09:50:31.789Z</time>
      </trkpt>
      <trkpt lat="48.36195" lon="2.70952">
        <ele>112</ele>
        <time>2022-02-09T09:50:36.789Z</time>
      </trkpt>
      <trkpt lat="48.36189" lon="2.70951">
        <ele>112</ele>
        <time>2022-02-09T09:50:41.789Z</time>
      </trkpt>
      <trkpt lat="48.36183" lon="2.70951">
        <ele>112</ele>
        <time>2022-02-09T09:50:46.787Z</time>
      </trkpt>
      <trkpt lat="48.36178" lon="2.70952">
        <ele>110</ele>
        <time>2022-02-09T09:50:51.781Z</time>
      </trkpt>
      <trkpt lat="48.36172" lon="2.70953">
        <ele>110</ele>
        <time>2022-02-09T09:50:56.777Z</time>
      </trkpt>
      <trkpt lat="48.36166" lon="2.70953">
        <ele>110</ele>
        <time>2022-02-09T09:51:01.779Z</time>
      </trkpt>
      <trkpt lat="48.3616" lon="2.70952">
        <ele>110</ele>
        <time>2022-02-09T09:51:06.913Z</time>
      </trkpt>
      <trkpt lat="48.36153" lon="2.70951">
        <ele>109</ele>
        <time>2022-02-09T09:51:11.779Z</time>
      </trkpt>
      <trkpt lat="48.36145" lon="2.7095">
        <ele>109</ele>
        <time>2022-02-09T09:51:16.782Z</time>
      </trkpt>
      <trkpt lat="48.36139" lon="2.7095">
        <ele>109</ele>
        <time>2022-02-09T09:51:21.780Z</time>
      </trkpt>
      <trkpt lat="48.36135" lon="2.70951">
        <ele>109</ele>
        <time>2022-02-09T09:51:25.780Z</time>
      </trkpt>
      <trkpt lat="48.36129" lon="2.70951">
        <ele>109</ele>
        <time>2022-02-09T09:51:30.780Z</time>
      </trkpt>
      <trkpt lat="48.36123" lon="2.70951">
        <ele>108</ele>
        <time>2022-02-09T09:51:35.779Z</time>
      </trkpt>
      <trkpt lat="48.36117" lon="2.70951">
        <ele>108</ele>
        <time>2022-02-09T09:51:40.782Z</time>
      </trkpt>
      <trkpt lat="48.36111" lon="2.70951">
        <ele>108</ele>
        <time>2022-02-09T09:51:44.788Z</time>
      </trkpt>
      <trkpt lat="48.36105" lon="2.70953">
        <ele>108</ele>
        <time>2022-02-09T09:51:49.782Z</time>
      </trkpt>
      <trkpt lat="48.36098" lon="2.70953">
        <ele>108</ele>
        <time>2022-02-09T09:51:54.784Z</time>
      </trkpt>
      <trkpt lat="48.36091" lon="2.70955">
        <ele>108</ele>
        <time>2022-02-09T09:51:59.786Z</time>
      </trkpt>
      <trkpt lat="48.36086" lon="2.70957">
        <ele>108</ele>
        <time>2022-02-09T09:52:04.778Z</time>
      </trkpt>
      <trkpt lat="48.3608" lon="2.7096">
        <ele>107</ele>
        <time>2022-02-09T09:52:09.776Z</time>
      </trkpt>
      <trkpt lat="48.36076" lon="2.70962">
        <ele>107</ele>
        <time>2022-02-09T09:52:13.780Z</time>
      </trkpt>
      <trkpt lat="48.3607" lon="2.70965">
        <ele>107</ele>
        <time>2022-02-09T09:52:18.783Z</time>
      </trkpt>
      <trkpt lat="48.36066" lon="2.70968">
        <ele>110</ele>
        <time>2022-02-09T09:52:22.788Z</time>
      </trkpt>
      <trkpt lat="48.3606" lon="2.70973">
        <ele>110</ele>
        <time>2022-02-09T09:52:27.783Z</time>
      </trkpt>
      <trkpt lat="48.36054" lon="2.70977">
        <ele>110</ele>
        <time>2022-02-09T09:52:32.787Z</time>
      </trkpt>
      <trkpt lat="48.3605" lon="2.70985">
        <ele>110</ele>
        <time>2022-02-09T09:52:36.789Z</time>
      </trkpt>
      <trkpt lat="48.36046" lon="2.70988">
        <ele>109</ele>
        <time>2022-02-09T09:52:40.794Z</time>
      </trkpt>
      <trkpt lat="48.36041" lon="2.70992">
        <ele>113</ele>
        <time>2022-02-09T09:52:45.776Z</time>
      </trkpt>
      <trkpt lat="48.36037" lon="2.70996">
        <ele>113</ele>
        <time>2022-02-09T09:52:49.779Z</time>
      </trkpt>
      <trkpt lat="48.36033" lon="2.70999">
        <ele>113</ele>
        <time>2022-02-09T09:52:53.786Z</time>
      </trkpt>
      <trkpt lat="48.36027" lon="2.71003">
        <ele>113</ele>
        <time>2022-02-09T09:52:58.788Z</time>
      </trkpt>
      <trkpt lat="48.36022" lon="2.71004">
        <ele>113</ele>
        <time>2022-02-09T09:53:02.792Z</time>
      </trkpt>
      <trkpt lat="48.36017" lon="2.70999">
        <ele>113</ele>
        <time>2022-02-09T09:53:07.776Z</time>
      </trkpt>
      <trkpt lat="48.36015" lon="2.70996">
        <ele>113</ele>
        <time>2022-02-09T09:53:11.782Z</time>
      </trkpt>
      <trkpt lat="48.3601" lon="2.70995">
        <ele>119</ele>
        <time>2022-02-09T09:53:16.781Z</time>
      </trkpt>
      <trkpt lat="48.36008" lon="2.70996">
        <ele>119</ele>
        <time>2022-02-09T09:53:20.788Z</time>
      </trkpt>
      <trkpt lat="48.36004" lon="2.70998">
        <ele>119</ele>
        <time>2022-02-09T09:53:25.783Z</time>
      </trkpt>
      <trkpt lat="48.36" lon="2.70997">
        <ele>119</ele>
        <time>2022-02-09T09:53:30.783Z</time>
      </trkpt>
      <trkpt lat="48.35997" lon="2.70997">
        <ele>119</ele>
        <time>2022-02-09T09:53:35.783Z</time>
      </trkpt>
      <trkpt lat="48.35994" lon="2.70999">
        <ele>119</ele>
        <time>2022-02-09T09:53:40.789Z</time>
      </trkpt>
      <trkpt lat="48.35993" lon="2.70998">
        <ele>119</ele>
        <time>2022-02-09T09:53:45.786Z</time>
      </trkpt>
      <trkpt lat="48.3599" lon="2.70995">
        <ele>119</ele>
        <time>2022-02-09T09:53:50.779Z</time>
      </trkpt>
      <trkpt lat="48.35987" lon="2.70996">
        <ele>119</ele>
        <time>2022-02-09T09:53:54.784Z</time>
      </trkpt>
      <trkpt lat="48.35983" lon="2.70997">
        <ele>123</ele>
        <time>2022-02-09T09:53:59.781Z</time>
      </trkpt>
      <trkpt lat="48.35979" lon="2.70993">
        <ele>123</ele>
        <time>2022-02-09T09:54:04.781Z</time>
      </trkpt>
      <trkpt lat="48.35976" lon="2.7099">
        <ele>123</ele>
        <time>2022-02-09T09:54:08.788Z</time>
      </trkpt>
      <trkpt lat="48.35976" lon="2.70984">
        <ele>124</ele>
        <time>2022-02-09T09:54:13.786Z</time>
      </trkpt>
      <trkpt lat="48.35975" lon="2.70981">
        <ele>124</ele>
        <time>2022-02-09T09:54:17.784Z</time>
      </trkpt>
      <trkpt lat="48.35973" lon="2.70977">
        <ele>124</ele>
        <time>2022-02-09T09:54:22.786Z</time>
      </trkpt>
      <trkpt lat="48.35971" lon="2.70972">
        <ele>124</ele>
        <time>2022-02-09T09:54:27.788Z</time>
      </trkpt>
      <trkpt lat="48.35969" lon="2.70967">
        <ele>124</ele>
        <time>2022-02-09T09:54:32.787Z</time>
      </trkpt>
      <trkpt lat="48.35965" lon="2.70961">
        <ele>124</ele>
        <time>2022-02-09T09:54:37.791Z</time>
      </trkpt>
      <trkpt lat="48.35963" lon="2.70955">
        <ele>127</ele>
        <time>2022-02-09T09:54:42.788Z</time>
      </trkpt>
      <trkpt lat="48.35961" lon="2.70948">
        <ele>127</ele>
        <time>2022-02-09T09:54:47.793Z</time>
      </trkpt>
      <trkpt lat="48.35959" lon="2.70942">
        <ele>127</ele>
        <time>2022-02-09T09:54:52.781Z</time>
      </trkpt>
      <trkpt lat="48.35956" lon="2.70936">
        <ele>127</ele>
        <time>2022-02-09T09:54:57.778Z</time>
      </trkpt>
      <trkpt lat="48.35952" lon="2.7093">
        <ele>129</ele>
        <time>2022-02-09T09:55:02.791Z</time>
      </trkpt>
      <trkpt lat="48.35948" lon="2.70927">
        <ele>129</ele>
        <time>2022-02-09T09:55:07.780Z</time>
      </trkpt>
      <trkpt lat="48.35945" lon="2.70926">
        <ele>129</ele>
        <time>2022-02-09T09:55:11.795Z</time>
      </trkpt>
      <trkpt lat="48.35942" lon="2.70924">
        <ele>129</ele>
        <time>2022-02-09T09:55:15.800Z</time>
      </trkpt>
      <trkpt lat="48.35938" lon="2.70923">
        <ele>129</ele>
        <time>2022-02-09T09:55:19.805Z</time>
      </trkpt>
      <trkpt lat="48.35937" lon="2.7093">
        <ele>129</ele>
        <time>2022-02-09T09:55:24.778Z</time>
      </trkpt>
      <trkpt lat="48.35937" lon="2.70937">
        <ele>127</ele>
        <time>2022-02-09T09:55:29.777Z</time>
      </trkpt>
      <trkpt lat="48.35933" lon="2.70944">
        <ele>127</ele>
        <time>2022-02-09T09:55:38.776Z</time>
      </trkpt>
      <trkpt lat="48.3593" lon="2.7094">
        <ele>128</ele>
        <time>2022-02-09T09:55:43.778Z</time>
      </trkpt>
      <trkpt lat="48.3593" lon="2.7094">
        <ele>128</ele>
        <time>2022-02-09T09:55:47.786Z</time>
      </trkpt>
      <trkpt lat="48.35928" lon="2.70936">
        <ele>128</ele>
        <time>2022-02-09T09:55:51.797Z</time>
      </trkpt>
      <trkpt lat="48.35924" lon="2.70935">
        <ele>128</ele>
        <time>2022-02-09T09:55:56.796Z</time>
      </trkpt>
      <trkpt lat="48.35919" lon="2.70937">
        <ele>128</ele>
        <time>2022-02-09T09:56:01.798Z</time>
      </trkpt>
      <trkpt lat="48.35915" lon="2.70935">
        <ele>128</ele>
        <time>2022-02-09T09:56:06.789Z</time>
      </trkpt>
      <trkpt lat="48.35911" lon="2.7093">
        <ele>129</ele>
        <time>2022-02-09T09:56:11.777Z</time>
      </trkpt>
      <trkpt lat="48.35907" lon="2.70926">
        <ele>129</ele>
        <time>2022-02-09T09:56:15.791Z</time>
      </trkpt>
      <trkpt lat="48.359" lon="2.70929">
        <ele>130</ele>
        <time>2022-02-09T09:56:20.783Z</time>
      </trkpt>
      <trkpt lat="48.35895" lon="2.70932">
        <ele>129</ele>
        <time>2022-02-09T09:56:25.790Z</time>
      </trkpt>
      <trkpt lat="48.35889" lon="2.70935">
        <ele>129</ele>
        <time>2022-02-09T09:56:30.786Z</time>
      </trkpt>
      <trkpt lat="48.35886" lon="2.70938">
        <ele>129</ele>
        <time>2022-02-09T09:56:34.799Z</time>
      </trkpt>
      <trkpt lat="48.35875" lon="2.70939">
        <ele>131</ele>
        <time>2022-02-09T10:00:32.782Z</time>
      </trkpt>
      <trkpt lat="48.35873" lon="2.70939">
        <ele>131</ele>
        <time>2022-02-09T10:00:36.784Z</time>
      </trkpt>
      <trkpt lat="48.35869" lon="2.70939">
        <ele>131</ele>
        <time>2022-02-09T10:00:41.790Z</time>
      </trkpt>
      <trkpt lat="48.35863" lon="2.7094">
        <ele>131</ele>
        <time>2022-02-09T10:00:46.789Z</time>
      </trkpt>
      <trkpt lat="48.35859" lon="2.70942">
        <ele>131</ele>
        <time>2022-02-09T10:00:50.790Z</time>
      </trkpt>
      <trkpt lat="48.35855" lon="2.70944">
        <ele>131</ele>
        <time>2022-02-09T10:00:54.792Z</time>
      </trkpt>
      <trkpt lat="48.3585" lon="2.70944">
        <ele>131</ele>
        <time>2022-02-09T10:00:59.782Z</time>
      </trkpt>
      <trkpt lat="48.35845" lon="2.70945">
        <ele>132</ele>
        <time>2022-02-09T10:01:04.791Z</time>
      </trkpt>
      <trkpt lat="48.35841" lon="2.70945">
        <ele>132</ele>
        <time>2022-02-09T10:01:08.783Z</time>
      </trkpt>
      <trkpt lat="48.35836" lon="2.70945">
        <ele>132</ele>
        <time>2022-02-09T10:01:13.781Z</time>
      </trkpt>
      <trkpt lat="48.35832" lon="2.70945">
        <ele>132</ele>
        <time>2022-02-09T10:01:17.783Z</time>
      </trkpt>
      <trkpt lat="48.35826" lon="2.70945">
        <ele>132</ele>
        <time>2022-02-09T10:01:22.804Z</time>
      </trkpt>
      <trkpt lat="48.35819" lon="2.70944">
        <ele>132</ele>
        <time>2022-02-09T10:01:27.787Z</time>
      </trkpt>
      <trkpt lat="48.35813" lon="2.70945">
        <ele>134</ele>
        <time>2022-02-09T10:01:32.789Z</time>
      </trkpt>
      <trkpt lat="48.35808" lon="2.70945">
        <ele>134</ele>
        <time>2022-02-09T10:01:36.798Z</time>
      </trkpt>
      <trkpt lat="48.35802" lon="2.70948">
        <ele>134</ele>
        <time>2022-02-09T10:01:41.785Z</time>
      </trkpt>
      <trkpt lat="48.35798" lon="2.70954">
        <ele>134</ele>
        <time>2022-02-09T10:01:46.791Z</time>
      </trkpt>
      <trkpt lat="48.35797" lon="2.7096">
        <ele>133</ele>
        <time>2022-02-09T10:01:50.805Z</time>
      </trkpt>
      <trkpt lat="48.35796" lon="2.70968">
        <ele>133</ele>
        <time>2022-02-09T10:01:55.791Z</time>
      </trkpt>
      <trkpt lat="48.35795" lon="2.70976">
        <ele>133</ele>
        <time>2022-02-09T10:02:00.793Z</time>
      </trkpt>
      <trkpt lat="48.35797" lon="2.70985">
        <ele>133</ele>
        <time>2022-02-09T10:02:05.790Z</time>
      </trkpt>
      <trkpt lat="48.35796" lon="2.71002">
        <ele>132</ele>
        <time>2022-02-09T10:02:28.787Z</time>
      </trkpt>
      <trkpt lat="48.35794" lon="2.71009">
        <ele>132</ele>
        <time>2022-02-09T10:02:33.781Z</time>
      </trkpt>
      <trkpt lat="48.35793" lon="2.71016">
        <ele>131</ele>
        <time>2022-02-09T10:02:38.779Z</time>
      </trkpt>
      <trkpt lat="48.35794" lon="2.71021">
        <ele>131</ele>
        <time>2022-02-09T10:02:43.777Z</time>
      </trkpt>
      <trkpt lat="48.35794" lon="2.71033">
        <ele>131</ele>
        <time>2022-02-09T10:02:48.793Z</time>
      </trkpt>
      <trkpt lat="48.35794" lon="2.71047">
        <ele>132</ele>
        <time>2022-02-09T10:02:53.781Z</time>
      </trkpt>
      <trkpt lat="48.35793" lon="2.71057">
        <ele>132</ele>
        <time>2022-02-09T10:02:57.791Z</time>
      </trkpt>
      <trkpt lat="48.35793" lon="2.71065">
        <ele>132</ele>
        <time>2022-02-09T10:03:01.791Z</time>
      </trkpt>
      <trkpt lat="48.35794" lon="2.71077">
        <ele>132</ele>
        <time>2022-02-09T10:03:06.791Z</time>
      </trkpt>
      <trkpt lat="48.35794" lon="2.71085">
        <ele>132</ele>
        <time>2022-02-09T10:03:10.792Z</time>
      </trkpt>
      <trkpt lat="48.35791" lon="2.71092">
        <ele>135</ele>
        <time>2022-02-09T10:03:15.780Z</time>
      </trkpt>
      <trkpt lat="48.35789" lon="2.71101">
        <ele>135</ele>
        <time>2022-02-09T10:03:20.784Z</time>
      </trkpt>
      <trkpt lat="48.35787" lon="2.71107">
        <ele>135</ele>
        <time>2022-02-09T10:03:24.786Z</time>
      </trkpt>
      <trkpt lat="48.35784" lon="2.71116">
        <ele>135</ele>
        <time>2022-02-09T10:03:29.788Z</time>
      </trkpt>
      <trkpt lat="48.35781" lon="2.71125">
        <ele>133</ele>
        <time>2022-02-09T10:03:34.781Z</time>
      </trkpt>
      <trkpt lat="48.35778" lon="2.71135">
        <ele>133</ele>
        <time>2022-02-09T10:03:39.781Z</time>
      </trkpt>
      <trkpt lat="48.35775" lon="2.71143">
        <ele>133</ele>
        <time>2022-02-09T10:03:43.787Z</time>
      </trkpt>
      <trkpt lat="48.35773" lon="2.71155">
        <ele>133</ele>
        <time>2022-02-09T10:03:48.784Z</time>
      </trkpt>
      <trkpt lat="48.35772" lon="2.71169">
        <ele>133</ele>
        <time>2022-02-09T10:03:53.784Z</time>
      </trkpt>
      <trkpt lat="48.35771" lon="2.71178">
        <ele>133</ele>
        <time>2022-02-09T10:03:58.787Z</time>
      </trkpt>
      <trkpt lat="48.35771" lon="2.71189">
        <ele>132</ele>
        <time>2022-02-09T10:04:03.788Z</time>
      </trkpt>
      <trkpt lat="48.35772" lon="2.712">
        <ele>132</ele>
        <time>2022-02-09T10:04:08.784Z</time>
      </trkpt>
      <trkpt lat="48.35772" lon="2.71213">
        <ele>132</ele>
        <time>2022-02-09T10:04:13.790Z</time>
      </trkpt>
      <trkpt lat="48.35772" lon="2.71223">
        <ele>132</ele>
        <time>2022-02-09T10:04:18.784Z</time>
      </trkpt>
      <trkpt lat="48.3577" lon="2.71234">
        <ele>132</ele>
        <time>2022-02-09T10:04:23.788Z</time>
      </trkpt>
      <trkpt lat="48.35768" lon="2.71243">
        <ele>130</ele>
        <time>2022-02-09T10:04:28.782Z</time>
      </trkpt>
      <trkpt lat="48.35766" lon="2.71251">
        <ele>130</ele>
        <time>2022-02-09T10:04:32.789Z</time>
      </trkpt>
      <trkpt lat="48.35765" lon="2.71261">
        <ele>130</ele>
        <time>2022-02-09T10:04:37.789Z</time>
      </trkpt>
      <trkpt lat="48.35764" lon="2.7127">
        <ele>128</ele>
        <time>2022-02-09T10:04:42.780Z</time>
      </trkpt>
      <trkpt lat="48.35764" lon="2.7128">
        <ele>130</ele>
        <time>2022-02-09T10:04:47.805Z</time>
      </trkpt>
      <trkpt lat="48.35763" lon="2.71291">
        <ele>130</ele>
        <time>2022-02-09T10:04:52.780Z</time>
      </trkpt>
      <trkpt lat="48.35763" lon="2.71303">
        <ele>130</ele>
        <time>2022-02-09T10:04:57.784Z</time>
      </trkpt>
      <trkpt lat="48.35762" lon="2.71312">
        <ele>130</ele>
        <time>2022-02-09T10:05:02.784Z</time>
      </trkpt>
      <trkpt lat="48.35762" lon="2.71322">
        <ele>129</ele>
        <time>2022-02-09T10:05:07.778Z</time>
      </trkpt>
      <trkpt lat="48.35763" lon="2.71331">
        <ele>129</ele>
        <time>2022-02-09T10:05:12.824Z</time>
      </trkpt>
      <trkpt lat="48.35764" lon="2.71345">
        <ele>123</ele>
        <time>2022-02-09T10:05:17.790Z</time>
      </trkpt>
      <trkpt lat="48.35764" lon="2.71355">
        <ele>127</ele>
        <time>2022-02-09T10:05:22.781Z</time>
      </trkpt>
      <trkpt lat="48.35764" lon="2.71368">
        <ele>127</ele>
        <time>2022-02-09T10:05:27.778Z</time>
      </trkpt>
      <trkpt lat="48.35763" lon="2.71379">
        <ele>125</ele>
        <time>2022-02-09T10:05:32.779Z</time>
      </trkpt>
      <trkpt lat="48.35762" lon="2.71389">
        <ele>125</ele>
        <time>2022-02-09T10:05:37.787Z</time>
      </trkpt>
      <trkpt lat="48.3576" lon="2.71398">
        <ele>125</ele>
        <time>2022-02-09T10:05:42.779Z</time>
      </trkpt>
      <trkpt lat="48.3576" lon="2.71407">
        <ele>124</ele>
        <time>2022-02-09T10:05:47.779Z</time>
      </trkpt>
      <trkpt lat="48.35759" lon="2.71416">
        <ele>124</ele>
        <time>2022-02-09T10:05:52.787Z</time>
      </trkpt>
      <trkpt lat="48.35757" lon="2.71426">
        <ele>124</ele>
        <time>2022-02-09T10:05:57.784Z</time>
      </trkpt>
      <trkpt lat="48.35754" lon="2.71437">
        <ele>121</ele>
        <time>2022-02-09T10:06:02.783Z</time>
      </trkpt>
      <trkpt lat="48.35751" lon="2.71446">
        <ele>121</ele>
        <time>2022-02-09T10:06:07.791Z</time>
      </trkpt>
      <trkpt lat="48.35748" lon="2.71454">
        <ele>121</ele>
        <time>2022-02-09T10:06:12.782Z</time>
      </trkpt>
      <trkpt lat="48.35745" lon="2.71464">
        <ele>119</ele>
        <time>2022-02-09T10:06:17.790Z</time>
      </trkpt>
      <trkpt lat="48.35742" lon="2.71474">
        <ele>119</ele>
        <time>2022-02-09T10:06:22.797Z</time>
      </trkpt>
      <trkpt lat="48.35739" lon="2.71486">
        <ele>118</ele>
        <time>2022-02-09T10:06:27.787Z</time>
      </trkpt>
      <trkpt lat="48.35736" lon="2.71494">
        <ele>120</ele>
        <time>2022-02-09T10:06:31.794Z</time>
      </trkpt>
      <trkpt lat="48.35733" lon="2.71505">
        <ele>120</ele>
        <time>2022-02-09T10:06:36.789Z</time>
      </trkpt>
      <trkpt lat="48.35729" lon="2.71514">
        <ele>117</ele>
        <time>2022-02-09T10:06:41.793Z</time>
      </trkpt>
      <trkpt lat="48.35727" lon="2.7152">
        <ele>117</ele>
        <time>2022-02-09T10:06:45.791Z</time>
      </trkpt>
      <trkpt lat="48.35724" lon="2.71529">
        <ele>117</ele>
        <time>2022-02-09T10:06:50.792Z</time>
      </trkpt>
      <trkpt lat="48.35721" lon="2.71538">
        <ele>117</ele>
        <time>2022-02-09T10:06:55.791Z</time>
      </trkpt>
      <trkpt lat="48.35719" lon="2.71548">
        <ele>115</ele>
        <time>2022-02-09T10:07:00.794Z</time>
      </trkpt>
      <trkpt lat="48.35716" lon="2.71557">
        <ele>115</ele>
        <time>2022-02-09T10:07:05.792Z</time>
      </trkpt>
      <trkpt lat="48.35713" lon="2.71565">
        <ele>115</ele>
        <time>2022-02-09T10:07:09.790Z</time>
      </trkpt>
      <trkpt lat="48.3571" lon="2.71573">
        <ele>113</ele>
        <time>2022-02-09T10:07:14.789Z</time>
      </trkpt>
      <trkpt lat="48.35707" lon="2.71584">
        <ele>114</ele>
        <time>2022-02-09T10:07:19.796Z</time>
      </trkpt>
      <trkpt lat="48.35704" lon="2.71594">
        <ele>114</ele>
        <time>2022-02-09T10:07:24.783Z</time>
      </trkpt>
      <trkpt lat="48.35701" lon="2.71602">
        <ele>111</ele>
        <time>2022-02-09T10:07:28.787Z</time>
      </trkpt>
      <trkpt lat="48.35699" lon="2.7161">
        <ele>111</ele>
        <time>2022-02-09T10:07:32.788Z</time>
      </trkpt>
      <trkpt lat="48.35695" lon="2.7162">
        <ele>111</ele>
        <time>2022-02-09T10:07:37.790Z</time>
      </trkpt>
      <trkpt lat="48.35691" lon="2.71628">
        <ele>108</ele>
        <time>2022-02-09T10:07:42.797Z</time>
      </trkpt>
      <trkpt lat="48.35687" lon="2.71635">
        <ele>108</ele>
        <time>2022-02-09T10:07:47.795Z</time>
      </trkpt>
      <trkpt lat="48.35683" lon="2.71641">
        <ele>108</ele>
        <time>2022-02-09T10:07:51.792Z</time>
      </trkpt>
      <trkpt lat="48.35679" lon="2.71651">
        <ele>109</ele>
        <time>2022-02-09T10:07:56.788Z</time>
      </trkpt>
      <trkpt lat="48.35676" lon="2.71658">
        <ele>107</ele>
        <time>2022-02-09T10:08:00.788Z</time>
      </trkpt>
      <trkpt lat="48.35671" lon="2.71666">
        <ele>107</ele>
        <time>2022-02-09T10:08:05.792Z</time>
      </trkpt>
      <trkpt lat="48.35666" lon="2.71673">
        <ele>107</ele>
        <time>2022-02-09T10:08:10.792Z</time>
      </trkpt>
      <trkpt lat="48.35661" lon="2.71681">
        <ele>105</ele>
        <time>2022-02-09T10:08:15.789Z</time>
      </trkpt>
      <trkpt lat="48.35656" lon="2.71688">
        <ele>105</ele>
        <time>2022-02-09T10:08:19.792Z</time>
      </trkpt>
      <trkpt lat="48.35651" lon="2.71694">
        <ele>108</ele>
        <time>2022-02-09T10:08:23.803Z</time>
      </trkpt>
      <trkpt lat="48.35645" lon="2.71701">
        <ele>108</ele>
        <time>2022-02-09T10:08:28.791Z</time>
      </trkpt>
      <trkpt lat="48.35639" lon="2.71707">
        <ele>108</ele>
        <time>2022-02-09T10:08:33.792Z</time>
      </trkpt>
      <trkpt lat="48.35633" lon="2.71712">
        <ele>105</ele>
        <time>2022-02-09T10:08:37.798Z</time>
      </trkpt>
      <trkpt lat="48.35627" lon="2.71716">
        <ele>105</ele>
        <time>2022-02-09T10:08:42.786Z</time>
      </trkpt>
      <trkpt lat="48.3562" lon="2.7172">
        <ele>104</ele>
        <time>2022-02-09T10:08:47.784Z</time>
      </trkpt>
      <trkpt lat="48.35615" lon="2.71724">
        <ele>104</ele>
        <time>2022-02-09T10:08:51.791Z</time>
      </trkpt>
      <trkpt lat="48.35608" lon="2.71729">
        <ele>104</ele>
        <time>2022-02-09T10:08:56.788Z</time>
      </trkpt>
      <trkpt lat="48.35601" lon="2.71733">
        <ele>104</ele>
        <time>2022-02-09T10:09:01.789Z</time>
      </trkpt>
      <trkpt lat="48.35593" lon="2.71738">
        <ele>100</ele>
        <time>2022-02-09T10:09:06.779Z</time>
      </trkpt>
      <trkpt lat="48.35588" lon="2.71741">
        <ele>100</ele>
        <time>2022-02-09T10:09:10.793Z</time>
      </trkpt>
      <trkpt lat="48.3558" lon="2.71744">
        <ele>100</ele>
        <time>2022-02-09T10:09:15.784Z</time>
      </trkpt>
      <trkpt lat="48.35573" lon="2.71747">
        <ele>100</ele>
        <time>2022-02-09T10:09:20.781Z</time>
      </trkpt>
      <trkpt lat="48.35566" lon="2.71748">
        <ele>100</ele>
        <time>2022-02-09T10:09:25.781Z</time>
      </trkpt>
      <trkpt lat="48.35559" lon="2.7175">
        <ele>100</ele>
        <time>2022-02-09T10:09:30.784Z</time>
      </trkpt>
      <trkpt lat="48.35552" lon="2.71751">
        <ele>100</ele>
        <time>2022-02-09T10:09:35.786Z</time>
      </trkpt>
      <trkpt lat="48.35546" lon="2.71753">
        <ele>100</ele>
        <time>2022-02-09T10:09:40.792Z</time>
      </trkpt>
      <trkpt lat="48.3554" lon="2.71757">
        <ele>102</ele>
        <time>2022-02-09T10:09:44.799Z</time>
      </trkpt>
      <trkpt lat="48.35533" lon="2.7176">
        <ele>102</ele>
        <time>2022-02-09T10:09:49.792Z</time>
      </trkpt>
      <trkpt lat="48.35527" lon="2.71763">
        <ele>102</ele>
        <time>2022-02-09T10:09:54.786Z</time>
      </trkpt>
      <trkpt lat="48.35521" lon="2.71765">
        <ele>98</ele>
        <time>2022-02-09T10:09:58.785Z</time>
      </trkpt>
      <trkpt lat="48.35516" lon="2.71767">
        <ele>98</ele>
        <time>2022-02-09T10:10:02.794Z</time>
      </trkpt>
      <trkpt lat="48.35509" lon="2.71772">
        <ele>100</ele>
        <time>2022-02-09T10:10:07.786Z</time>
      </trkpt>
      <trkpt lat="48.35503" lon="2.71776">
        <ele>100</ele>
        <time>2022-02-09T10:10:12.788Z</time>
      </trkpt>
      <trkpt lat="48.35496" lon="2.71779">
        <ele>100</ele>
        <time>2022-02-09T10:10:17.787Z</time>
      </trkpt>
      <trkpt lat="48.35489" lon="2.71785">
        <ele>100</ele>
        <time>2022-02-09T10:10:22.792Z</time>
      </trkpt>
      <trkpt lat="48.35484" lon="2.71789">
        <ele>99</ele>
        <time>2022-02-09T10:10:26.812Z</time>
      </trkpt>
      <trkpt lat="48.35476" lon="2.71791">
        <ele>99</ele>
        <time>2022-02-09T10:10:31.786Z</time>
      </trkpt>
      <trkpt lat="48.3547" lon="2.71795">
        <ele>98</ele>
        <time>2022-02-09T10:10:36.789Z</time>
      </trkpt>
      <trkpt lat="48.35464" lon="2.71798">
        <ele>98</ele>
        <time>2022-02-09T10:10:40.791Z</time>
      </trkpt>
      <trkpt lat="48.35458" lon="2.71799">
        <ele>96</ele>
        <time>2022-02-09T10:10:45.788Z</time>
      </trkpt>
      <trkpt lat="48.35452" lon="2.71804">
        <ele>96</ele>
        <time>2022-02-09T10:10:50.785Z</time>
      </trkpt>
      <trkpt lat="48.35446" lon="2.71809">
        <ele>96</ele>
        <time>2022-02-09T10:10:55.794Z</time>
      </trkpt>
      <trkpt lat="48.35442" lon="2.71816">
        <ele>96</ele>
        <time>2022-02-09T10:11:00.779Z</time>
      </trkpt>
      <trkpt lat="48.35438" lon="2.7182">
        <ele>97</ele>
        <time>2022-02-09T10:11:04.780Z</time>
      </trkpt>
      <trkpt lat="48.35435" lon="2.71825">
        <ele>97</ele>
        <time>2022-02-09T10:11:08.780Z</time>
      </trkpt>
      <trkpt lat="48.35432" lon="2.71831">
        <ele>97</ele>
        <time>2022-02-09T10:11:13.791Z</time>
      </trkpt>
      <trkpt lat="48.3543" lon="2.71834">
        <ele>95</ele>
        <time>2022-02-09T10:11:18.791Z</time>
      </trkpt>
      <trkpt lat="48.35427" lon="2.7184">
        <ele>95</ele>
        <time>2022-02-09T10:11:23.793Z</time>
      </trkpt>
      <trkpt lat="48.35424" lon="2.71844">
        <ele>95</ele>
        <time>2022-02-09T10:11:28.791Z</time>
      </trkpt>
      <trkpt lat="48.35421" lon="2.71847">
        <ele>95</ele>
        <time>2022-02-09T10:11:32.793Z</time>
      </trkpt>
      <trkpt lat="48.35417" lon="2.71851">
        <ele>96</ele>
        <time>2022-02-09T10:11:37.785Z</time>
      </trkpt>
      <trkpt lat="48.35413" lon="2.71855">
        <ele>96</ele>
        <time>2022-02-09T10:11:42.785Z</time>
      </trkpt>
      <trkpt lat="48.35408" lon="2.71856">
        <ele>96</ele>
        <time>2022-02-09T10:11:47.788Z</time>
      </trkpt>
      <trkpt lat="48.35403" lon="2.71855">
        <ele>94</ele>
        <time>2022-02-09T10:11:52.792Z</time>
      </trkpt>
      <trkpt lat="48.35397" lon="2.71857">
        <ele>94</ele>
        <time>2022-02-09T10:11:57.794Z</time>
      </trkpt>
      <trkpt lat="48.35392" lon="2.71859">
        <ele>94</ele>
        <time>2022-02-09T10:12:02.795Z</time>
      </trkpt>
      <trkpt lat="48.35387" lon="2.71859">
        <ele>94</ele>
        <time>2022-02-09T10:12:07.793Z</time>
      </trkpt>
      <trkpt lat="48.3538" lon="2.71858">
        <ele>94</ele>
        <time>2022-02-09T10:12:12.787Z</time>
      </trkpt>
      <trkpt lat="48.35376" lon="2.7186">
        <ele>94</ele>
        <time>2022-02-09T10:12:16.790Z</time>
      </trkpt>
      <trkpt lat="48.35371" lon="2.71864">
        <ele>92</ele>
        <time>2022-02-09T10:12:21.794Z</time>
      </trkpt>
      <trkpt lat="48.35366" lon="2.7187">
        <ele>92</ele>
        <time>2022-02-09T10:12:26.787Z</time>
      </trkpt>
      <trkpt lat="48.35362" lon="2.71873">
        <ele>92</ele>
        <time>2022-02-09T10:12:30.792Z</time>
      </trkpt>
      <trkpt lat="48.35357" lon="2.71876">
        <ele>93</ele>
        <time>2022-02-09T10:12:35.787Z</time>
      </trkpt>
      <trkpt lat="48.35352" lon="2.71881">
        <ele>93</ele>
        <time>2022-02-09T10:12:40.785Z</time>
      </trkpt>
      <trkpt lat="48.35348" lon="2.71885">
        <ele>93</ele>
        <time>2022-02-09T10:12:44.799Z</time>
      </trkpt>
      <trkpt lat="48.35343" lon="2.71892">
        <ele>92</ele>
        <time>2022-02-09T10:12:49.789Z</time>
      </trkpt>
      <trkpt lat="48.3534" lon="2.71898">
        <ele>92</ele>
        <time>2022-02-09T10:12:53.799Z</time>
      </trkpt>
      <trkpt lat="48.35335" lon="2.71905">
        <ele>95</ele>
        <time>2022-02-09T10:12:58.793Z</time>
      </trkpt>
      <trkpt lat="48.35331" lon="2.71912">
        <ele>95</ele>
        <time>2022-02-09T10:13:03.786Z</time>
      </trkpt>
      <trkpt lat="48.35329" lon="2.71919">
        <ele>95</ele>
        <time>2022-02-09T10:13:07.795Z</time>
      </trkpt>
      <trkpt lat="48.35326" lon="2.71926">
        <ele>95</ele>
        <time>2022-02-09T10:13:12.790Z</time>
      </trkpt>
      <trkpt lat="48.35324" lon="2.71936">
        <ele>98</ele>
        <time>2022-02-09T10:13:17.780Z</time>
      </trkpt>
      <trkpt lat="48.35324" lon="2.71945">
        <ele>98</ele>
        <time>2022-02-09T10:13:22.782Z</time>
      </trkpt>
      <trkpt lat="48.35323" lon="2.71951">
        <ele>98</ele>
        <time>2022-02-09T10:13:27.778Z</time>
      </trkpt>
      <trkpt lat="48.35319" lon="2.71959">
        <ele>97</ele>
        <time>2022-02-09T10:13:32.779Z</time>
      </trkpt>
      <trkpt lat="48.35318" lon="2.71965">
        <ele>97</ele>
        <time>2022-02-09T10:13:36.795Z</time>
      </trkpt>
      <trkpt lat="48.35315" lon="2.71973">
        <ele>97</ele>
        <time>2022-02-09T10:13:41.780Z</time>
      </trkpt>
      <trkpt lat="48.35313" lon="2.71982">
        <ele>97</ele>
        <time>2022-02-09T10:13:46.779Z</time>
      </trkpt>
      <trkpt lat="48.35312" lon="2.71989">
        <ele>97</ele>
        <time>2022-02-09T10:13:50.780Z</time>
      </trkpt>
      <trkpt lat="48.35311" lon="2.71996">
        <ele>97</ele>
        <time>2022-02-09T10:13:54.782Z</time>
      </trkpt>
      <trkpt lat="48.3531" lon="2.72006">
        <ele>97</ele>
        <time>2022-02-09T10:13:59.781Z</time>
      </trkpt>
      <trkpt lat="48.35308" lon="2.72012">
        <ele>97</ele>
        <time>2022-02-09T10:14:03.787Z</time>
      </trkpt>
      <trkpt lat="48.35304" lon="2.72018">
        <ele>97</ele>
        <time>2022-02-09T10:14:07.783Z</time>
      </trkpt>
      <trkpt lat="48.35301" lon="2.72023">
        <ele>97</ele>
        <time>2022-02-09T10:14:11.794Z</time>
      </trkpt>
      <trkpt lat="48.35298" lon="2.72032">
        <ele>97</ele>
        <time>2022-02-09T10:14:16.786Z</time>
      </trkpt>
      <trkpt lat="48.35297" lon="2.72041">
        <ele>97</ele>
        <time>2022-02-09T10:14:21.790Z</time>
      </trkpt>
      <trkpt lat="48.35296" lon="2.72049">
        <ele>97</ele>
        <time>2022-02-09T10:14:26.781Z</time>
      </trkpt>
      <trkpt lat="48.35294" lon="2.72054">
        <ele>97</ele>
        <time>2022-02-09T10:14:30.789Z</time>
      </trkpt>
      <trkpt lat="48.35291" lon="2.72061">
        <ele>96</ele>
        <time>2022-02-09T10:14:35.781Z</time>
      </trkpt>
      <trkpt lat="48.35287" lon="2.7207">
        <ele>96</ele>
        <time>2022-02-09T10:14:40.781Z</time>
      </trkpt>
      <trkpt lat="48.35287" lon="2.72078">
        <ele>96</ele>
        <time>2022-02-09T10:14:44.790Z</time>
      </trkpt>
      <trkpt lat="48.35286" lon="2.72087">
        <ele>96</ele>
        <time>2022-02-09T10:14:49.781Z</time>
      </trkpt>
      <trkpt lat="48.35284" lon="2.72094">
        <ele>96</ele>
        <time>2022-02-09T10:14:53.786Z</time>
      </trkpt>
      <trkpt lat="48.35281" lon="2.72103">
        <ele>96</ele>
        <time>2022-02-09T10:14:58.780Z</time>
      </trkpt>
      <trkpt lat="48.35279" lon="2.7211">
        <ele>96</ele>
        <time>2022-02-09T10:15:02.795Z</time>
      </trkpt>
      <trkpt lat="48.35276" lon="2.7212">
        <ele>96</ele>
        <time>2022-02-09T10:15:07.797Z</time>
      </trkpt>
      <trkpt lat="48.35274" lon="2.72127">
        <ele>96</ele>
        <time>2022-02-09T10:15:12.790Z</time>
      </trkpt>
      <trkpt lat="48.3527" lon="2.72135">
        <ele>96</ele>
        <time>2022-02-09T10:15:17.791Z</time>
      </trkpt>
      <trkpt lat="48.35267" lon="2.72142">
        <ele>96</ele>
        <time>2022-02-09T10:15:22.804Z</time>
      </trkpt>
      <trkpt lat="48.35264" lon="2.72146">
        <ele>96</ele>
        <time>2022-02-09T10:15:26.824Z</time>
      </trkpt>
      <trkpt lat="48.3526" lon="2.72153">
        <ele>97</ele>
        <time>2022-02-09T10:15:31.794Z</time>
      </trkpt>
      <trkpt lat="48.35256" lon="2.7216">
        <ele>97</ele>
        <time>2022-02-09T10:15:36.803Z</time>
      </trkpt>
      <trkpt lat="48.35253" lon="2.72169">
        <ele>97</ele>
        <time>2022-02-09T10:15:41.784Z</time>
      </trkpt>
      <trkpt lat="48.3525" lon="2.72178">
        <ele>97</ele>
        <time>2022-02-09T10:15:46.795Z</time>
      </trkpt>
      <trkpt lat="48.35247" lon="2.72187">
        <ele>98</ele>
        <time>2022-02-09T10:15:51.800Z</time>
      </trkpt>
      <trkpt lat="48.35244" lon="2.72196">
        <ele>98</ele>
        <time>2022-02-09T10:15:56.786Z</time>
      </trkpt>
      <trkpt lat="48.35242" lon="2.72205">
        <ele>98</ele>
        <time>2022-02-09T10:16:01.806Z</time>
      </trkpt>
      <trkpt lat="48.3524" lon="2.72213">
        <ele>98</ele>
        <time>2022-02-09T10:16:06.795Z</time>
      </trkpt>
      <trkpt lat="48.35238" lon="2.72221">
        <ele>98</ele>
        <time>2022-02-09T10:16:11.806Z</time>
      </trkpt>
      <trkpt lat="48.35237" lon="2.72229">
        <ele>98</ele>
        <time>2022-02-09T10:16:16.790Z</time>
      </trkpt>
      <trkpt lat="48.35235" lon="2.72236">
        <ele>98</ele>
        <time>2022-02-09T10:16:20.796Z</time>
      </trkpt>
      <trkpt lat="48.35231" lon="2.72243">
        <ele>98</ele>
        <time>2022-02-09T10:16:25.801Z</time>
      </trkpt>
      <trkpt lat="48.3523" lon="2.72253">
        <ele>98</ele>
        <time>2022-02-09T10:16:30.785Z</time>
      </trkpt>
      <trkpt lat="48.35229" lon="2.72261">
        <ele>98</ele>
        <time>2022-02-09T10:16:34.792Z</time>
      </trkpt>
      <trkpt lat="48.35228" lon="2.72268">
        <ele>98</ele>
        <time>2022-02-09T10:16:38.838Z</time>
      </trkpt>
      <trkpt lat="48.35226" lon="2.72276">
        <ele>98</ele>
        <time>2022-02-09T10:16:43.786Z</time>
      </trkpt>
      <trkpt lat="48.35224" lon="2.72283">
        <ele>98</ele>
        <time>2022-02-09T10:16:47.818Z</time>
      </trkpt>
      <trkpt lat="48.35222" lon="2.72293">
        <ele>99</ele>
        <time>2022-02-09T10:16:52.826Z</time>
      </trkpt>
      <trkpt lat="48.35221" lon="2.72301">
        <ele>99</ele>
        <time>2022-02-09T10:16:56.837Z</time>
      </trkpt>
      <trkpt lat="48.35219" lon="2.7231">
        <ele>99</ele>
        <time>2022-02-09T10:17:01.822Z</time>
      </trkpt>
      <trkpt lat="48.35219" lon="2.72319">
        <ele>99</ele>
        <time>2022-02-09T10:17:06.782Z</time>
      </trkpt>
      <trkpt lat="48.35219" lon="2.72327">
        <ele>98</ele>
        <time>2022-02-09T10:17:10.782Z</time>
      </trkpt>
      <trkpt lat="48.35218" lon="2.72337">
        <ele>98</ele>
        <time>2022-02-09T10:17:15.818Z</time>
      </trkpt>
      <trkpt lat="48.35215" lon="2.72345">
        <ele>98</ele>
        <time>2022-02-09T10:17:20.787Z</time>
      </trkpt>
      <trkpt lat="48.35212" lon="2.72351">
        <ele>97</ele>
        <time>2022-02-09T10:17:24.859Z</time>
      </trkpt>
      <trkpt lat="48.3521" lon="2.7236">
        <ele>97</ele>
        <time>2022-02-09T10:17:29.797Z</time>
      </trkpt>
      <trkpt lat="48.35208" lon="2.72369">
        <ele>99</ele>
        <time>2022-02-09T10:17:34.797Z</time>
      </trkpt>
      <trkpt lat="48.35205" lon="2.72379">
        <ele>98</ele>
        <time>2022-02-09T10:17:39.793Z</time>
      </trkpt>
      <trkpt lat="48.35202" lon="2.72389">
        <ele>98</ele>
        <time>2022-02-09T10:17:44.790Z</time>
      </trkpt>
      <trkpt lat="48.352" lon="2.72397">
        <ele>98</ele>
        <time>2022-02-09T10:17:49.791Z</time>
      </trkpt>
      <trkpt lat="48.35195" lon="2.72405">
        <ele>99</ele>
        <time>2022-02-09T10:17:54.785Z</time>
      </trkpt>
      <trkpt lat="48.35194" lon="2.72415">
        <ele>99</ele>
        <time>2022-02-09T10:17:59.792Z</time>
      </trkpt>
      <trkpt lat="48.35194" lon="2.72425">
        <ele>99</ele>
        <time>2022-02-09T10:18:04.791Z</time>
      </trkpt>
      <trkpt lat="48.35193" lon="2.72433">
        <ele>100</ele>
        <time>2022-02-09T10:18:08.793Z</time>
      </trkpt>
      <trkpt lat="48.35192" lon="2.72442">
        <ele>100</ele>
        <time>2022-02-09T10:18:13.826Z</time>
      </trkpt>
      <trkpt lat="48.35192" lon="2.72452">
        <ele>100</ele>
        <time>2022-02-09T10:18:18.798Z</time>
      </trkpt>
      <trkpt lat="48.35192" lon="2.72462">
        <ele>100</ele>
        <time>2022-02-09T10:18:23.791Z</time>
      </trkpt>
      <trkpt lat="48.35191" lon="2.72471">
        <ele>100</ele>
        <time>2022-02-09T10:18:28.795Z</time>
      </trkpt>
      <trkpt lat="48.35191" lon="2.72479">
        <ele>100</ele>
        <time>2022-02-09T10:18:32.805Z</time>
      </trkpt>
      <trkpt lat="48.35191" lon="2.72489">
        <ele>100</ele>
        <time>2022-02-09T10:18:37.797Z</time>
      </trkpt>
      <trkpt lat="48.35191" lon="2.72499">
        <ele>100</ele>
        <time>2022-02-09T10:18:42.793Z</time>
      </trkpt>
      <trkpt lat="48.35192" lon="2.72508">
        <ele>100</ele>
        <time>2022-02-09T10:18:47.786Z</time>
      </trkpt>
      <trkpt lat="48.35192" lon="2.72518">
        <ele>100</ele>
        <time>2022-02-09T10:18:52.819Z</time>
      </trkpt>
      <trkpt lat="48.35192" lon="2.72526">
        <ele>100</ele>
        <time>2022-02-09T10:18:57.791Z</time>
      </trkpt>
      <trkpt lat="48.35193" lon="2.72536">
        <ele>100</ele>
        <time>2022-02-09T10:19:02.785Z</time>
      </trkpt>
      <trkpt lat="48.35193" lon="2.72545">
        <ele>99</ele>
        <time>2022-02-09T10:19:06.791Z</time>
      </trkpt>
      <trkpt lat="48.35193" lon="2.72554">
        <ele>99</ele>
        <time>2022-02-09T10:19:10.793Z</time>
      </trkpt>
      <trkpt lat="48.35192" lon="2.72563">
        <ele>99</ele>
        <time>2022-02-09T10:19:15.792Z</time>
      </trkpt>
      <trkpt lat="48.35193" lon="2.7257">
        <ele>100</ele>
        <time>2022-02-09T10:19:19.870Z</time>
      </trkpt>
      <trkpt lat="48.35192" lon="2.72579">
        <ele>100</ele>
        <time>2022-02-09T10:19:24.791Z</time>
      </trkpt>
      <trkpt lat="48.35191" lon="2.72588">
        <ele>100</ele>
        <time>2022-02-09T10:19:29.886Z</time>
      </trkpt>
      <trkpt lat="48.3519" lon="2.72597">
        <ele>100</ele>
        <time>2022-02-09T10:19:34.794Z</time>
      </trkpt>
      <trkpt lat="48.35189" lon="2.72604">
        <ele>100</ele>
        <time>2022-02-09T10:19:38.826Z</time>
      </trkpt>
      <trkpt lat="48.35188" lon="2.72612">
        <ele>100</ele>
        <time>2022-02-09T10:19:42.913Z</time>
      </trkpt>
      <trkpt lat="48.35186" lon="2.72621">
        <ele>100</ele>
        <time>2022-02-09T10:19:47.823Z</time>
      </trkpt>
      <trkpt lat="48.35186" lon="2.72631">
        <ele>101</ele>
        <time>2022-02-09T10:19:52.842Z</time>
      </trkpt>
      <trkpt lat="48.35186" lon="2.7264">
        <ele>101</ele>
        <time>2022-02-09T10:19:57.796Z</time>
      </trkpt>
      <trkpt lat="48.35187" lon="2.72648">
        <ele>101</ele>
        <time>2022-02-09T10:20:01.832Z</time>
      </trkpt>
      <trkpt lat="48.35187" lon="2.72657">
        <ele>102</ele>
        <time>2022-02-09T10:20:06.793Z</time>
      </trkpt>
      <trkpt lat="48.35186" lon="2.72667">
        <ele>102</ele>
        <time>2022-02-09T10:20:11.789Z</time>
      </trkpt>
      <trkpt lat="48.35186" lon="2.72674">
        <ele>102</ele>
        <time>2022-02-09T10:20:15.806Z</time>
      </trkpt>
      <trkpt lat="48.35187" lon="2.72683">
        <ele>104</ele>
        <time>2022-02-09T10:20:20.794Z</time>
      </trkpt>
      <trkpt lat="48.35186" lon="2.7269">
        <ele>104</ele>
        <time>2022-02-09T10:20:24.796Z</time>
      </trkpt>
      <trkpt lat="48.35187" lon="2.72699">
        <ele>104</ele>
        <time>2022-02-09T10:20:29.782Z</time>
      </trkpt>
      <trkpt lat="48.35187" lon="2.72706">
        <ele>104</ele>
        <time>2022-02-09T10:20:33.830Z</time>
      </trkpt>
      <trkpt lat="48.35187" lon="2.72715">
        <ele>106</ele>
        <time>2022-02-09T10:20:38.806Z</time>
      </trkpt>
      <trkpt lat="48.35187" lon="2.72724">
        <ele>106</ele>
        <time>2022-02-09T10:20:43.790Z</time>
      </trkpt>
      <trkpt lat="48.35189" lon="2.72733">
        <ele>106</ele>
        <time>2022-02-09T10:20:48.826Z</time>
      </trkpt>
      <trkpt lat="48.35189" lon="2.72742">
        <ele>105</ele>
        <time>2022-02-09T10:20:52.824Z</time>
      </trkpt>
      <trkpt lat="48.35186" lon="2.72749">
        <ele>105</ele>
        <time>2022-02-09T10:20:57.831Z</time>
      </trkpt>
      <trkpt lat="48.35183" lon="2.72757">
        <ele>105</ele>
        <time>2022-02-09T10:21:02.833Z</time>
      </trkpt>
      <trkpt lat="48.35182" lon="2.72766">
        <ele>105</ele>
        <time>2022-02-09T10:21:07.793Z</time>
      </trkpt>
      <trkpt lat="48.3518" lon="2.72773">
        <ele>106</ele>
        <time>2022-02-09T10:21:11.832Z</time>
      </trkpt>
      <trkpt lat="48.35179" lon="2.72783">
        <ele>106</ele>
        <time>2022-02-09T10:21:16.822Z</time>
      </trkpt>
      <trkpt lat="48.35178" lon="2.72792">
        <ele>105</ele>
        <time>2022-02-09T10:21:21.786Z</time>
      </trkpt>
      <trkpt lat="48.35177" lon="2.72801">
        <ele>105</ele>
        <time>2022-02-09T10:21:25.835Z</time>
      </trkpt>
      <trkpt lat="48.35177" lon="2.7281">
        <ele>105</ele>
        <time>2022-02-09T10:21:30.794Z</time>
      </trkpt>
      <trkpt lat="48.35176" lon="2.72818">
        <ele>105</ele>
        <time>2022-02-09T10:21:34.809Z</time>
      </trkpt>
      <trkpt lat="48.35175" lon="2.72827">
        <ele>105</ele>
        <time>2022-02-09T10:21:39.794Z</time>
      </trkpt>
      <trkpt lat="48.35175" lon="2.72837">
        <ele>105</ele>
        <time>2022-02-09T10:21:44.792Z</time>
      </trkpt>
      <trkpt lat="48.35175" lon="2.72845">
        <ele>105</ele>
        <time>2022-02-09T10:21:48.789Z</time>
      </trkpt>
      <trkpt lat="48.35174" lon="2.72852">
        <ele>105</ele>
        <time>2022-02-09T10:21:52.829Z</time>
      </trkpt>
      <trkpt lat="48.35173" lon="2.72862">
        <ele>105</ele>
        <time>2022-02-09T10:21:57.818Z</time>
      </trkpt>
      <trkpt lat="48.35172" lon="2.72872">
        <ele>105</ele>
        <time>2022-02-09T10:22:02.821Z</time>
      </trkpt>
      <trkpt lat="48.3517" lon="2.7288">
        <ele>106</ele>
        <time>2022-02-09T10:22:07.782Z</time>
      </trkpt>
      <trkpt lat="48.35168" lon="2.72888">
        <ele>106</ele>
        <time>2022-02-09T10:22:11.793Z</time>
      </trkpt>
      <trkpt lat="48.35167" lon="2.72897">
        <ele>106</ele>
        <time>2022-02-09T10:22:16.789Z</time>
      </trkpt>
      <trkpt lat="48.35165" lon="2.72907">
        <ele>107</ele>
        <time>2022-02-09T10:22:21.792Z</time>
      </trkpt>
      <trkpt lat="48.35164" lon="2.72915">
        <ele>107</ele>
        <time>2022-02-09T10:22:25.789Z</time>
      </trkpt>
      <trkpt lat="48.35163" lon="2.72924">
        <ele>107</ele>
        <time>2022-02-09T10:22:30.794Z</time>
      </trkpt>
      <trkpt lat="48.35163" lon="2.72934">
        <ele>107</ele>
        <time>2022-02-09T10:22:35.787Z</time>
      </trkpt>
      <trkpt lat="48.35163" lon="2.72943">
        <ele>107</ele>
        <time>2022-02-09T10:22:40.794Z</time>
      </trkpt>
      <trkpt lat="48.35163" lon="2.72954">
        <ele>107</ele>
        <time>2022-02-09T10:22:45.787Z</time>
      </trkpt>
      <trkpt lat="48.35164" lon="2.72963">
        <ele>107</ele>
        <time>2022-02-09T10:22:50.794Z</time>
      </trkpt>
      <trkpt lat="48.35164" lon="2.72972">
        <ele>107</ele>
        <time>2022-02-09T10:22:55.789Z</time>
      </trkpt>
      <trkpt lat="48.35163" lon="2.72979">
        <ele>107</ele>
        <time>2022-02-09T10:22:59.795Z</time>
      </trkpt>
      <trkpt lat="48.35163" lon="2.72986">
        <ele>108</ele>
        <time>2022-02-09T10:23:03.825Z</time>
      </trkpt>
      <trkpt lat="48.35163" lon="2.72993">
        <ele>108</ele>
        <time>2022-02-09T10:23:07.836Z</time>
      </trkpt>
      <trkpt lat="48.35161" lon="2.73003">
        <ele>108</ele>
        <time>2022-02-09T10:23:12.842Z</time>
      </trkpt>
      <trkpt lat="48.35159" lon="2.73013">
        <ele>108</ele>
        <time>2022-02-09T10:23:17.793Z</time>
      </trkpt>
      <trkpt lat="48.35158" lon="2.73021">
        <ele>109</ele>
        <time>2022-02-09T10:23:21.841Z</time>
      </trkpt>
      <trkpt lat="48.35157" lon="2.73031">
        <ele>109</ele>
        <time>2022-02-09T10:23:26.799Z</time>
      </trkpt>
      <trkpt lat="48.35156" lon="2.73039">
        <ele>109</ele>
        <time>2022-02-09T10:23:31.784Z</time>
      </trkpt>
      <trkpt lat="48.35155" lon="2.73049">
        <ele>109</ele>
        <time>2022-02-09T10:23:36.795Z</time>
      </trkpt>
      <trkpt lat="48.35155" lon="2.73058">
        <ele>109</ele>
        <time>2022-02-09T10:23:40.825Z</time>
      </trkpt>
      <trkpt lat="48.35154" lon="2.73067">
        <ele>109</ele>
        <time>2022-02-09T10:23:45.786Z</time>
      </trkpt>
      <trkpt lat="48.35153" lon="2.73077">
        <ele>109</ele>
        <time>2022-02-09T10:23:50.817Z</time>
      </trkpt>
      <trkpt lat="48.35153" lon="2.73087">
        <ele>109</ele>
        <time>2022-02-09T10:23:55.788Z</time>
      </trkpt>
      <trkpt lat="48.35154" lon="2.73094">
        <ele>109</ele>
        <time>2022-02-09T10:23:59.793Z</time>
      </trkpt>
      <trkpt lat="48.35154" lon="2.73101">
        <ele>109</ele>
        <time>2022-02-09T10:24:03.830Z</time>
      </trkpt>
      <trkpt lat="48.35152" lon="2.7311">
        <ele>109</ele>
        <time>2022-02-09T10:24:08.802Z</time>
      </trkpt>
      <trkpt lat="48.35151" lon="2.73117">
        <ele>109</ele>
        <time>2022-02-09T10:24:12.813Z</time>
      </trkpt>
      <trkpt lat="48.35151" lon="2.73126">
        <ele>109</ele>
        <time>2022-02-09T10:24:16.829Z</time>
      </trkpt>
      <trkpt lat="48.35149" lon="2.73138">
        <ele>109</ele>
        <time>2022-02-09T10:24:21.794Z</time>
      </trkpt>
      <trkpt lat="48.35149" lon="2.73146">
        <ele>109</ele>
        <time>2022-02-09T10:24:25.830Z</time>
      </trkpt>
      <trkpt lat="48.3515" lon="2.73155">
        <ele>109</ele>
        <time>2022-02-09T10:24:30.785Z</time>
      </trkpt>
      <trkpt lat="48.3515" lon="2.73162">
        <ele>109</ele>
        <time>2022-02-09T10:24:34.794Z</time>
      </trkpt>
      <trkpt lat="48.35148" lon="2.73169">
        <ele>109</ele>
        <time>2022-02-09T10:24:38.822Z</time>
      </trkpt>
      <trkpt lat="48.35146" lon="2.73178">
        <ele>109</ele>
        <time>2022-02-09T10:24:43.789Z</time>
      </trkpt>
      <trkpt lat="48.35144" lon="2.73185">
        <ele>109</ele>
        <time>2022-02-09T10:24:47.826Z</time>
      </trkpt>
      <trkpt lat="48.35144" lon="2.73194">
        <ele>109</ele>
        <time>2022-02-09T10:24:52.823Z</time>
      </trkpt>
      <trkpt lat="48.35143" lon="2.73204">
        <ele>109</ele>
        <time>2022-02-09T10:24:57.819Z</time>
      </trkpt>
      <trkpt lat="48.35141" lon="2.73213">
        <ele>109</ele>
        <time>2022-02-09T10:25:02.827Z</time>
      </trkpt>
      <trkpt lat="48.35139" lon="2.73222">
        <ele>109</ele>
        <time>2022-02-09T10:25:07.830Z</time>
      </trkpt>
      <trkpt lat="48.35138" lon="2.73231">
        <ele>109</ele>
        <time>2022-02-09T10:25:12.824Z</time>
      </trkpt>
      <trkpt lat="48.35137" lon="2.7324">
        <ele>111</ele>
        <time>2022-02-09T10:25:17.796Z</time>
      </trkpt>
      <trkpt lat="48.35136" lon="2.7325">
        <ele>111</ele>
        <time>2022-02-09T10:25:22.825Z</time>
      </trkpt>
      <trkpt lat="48.35135" lon="2.73257">
        <ele>111</ele>
        <time>2022-02-09T10:25:26.839Z</time>
      </trkpt>
      <trkpt lat="48.35134" lon="2.73266">
        <ele>113</ele>
        <time>2022-02-09T10:25:31.799Z</time>
      </trkpt>
      <trkpt lat="48.35133" lon="2.73273">
        <ele>113</ele>
        <time>2022-02-09T10:25:35.836Z</time>
      </trkpt>
      <trkpt lat="48.35135" lon="2.73283">
        <ele>113</ele>
        <time>2022-02-09T10:25:40.795Z</time>
      </trkpt>
      <trkpt lat="48.35137" lon="2.73292">
        <ele>114</ele>
        <time>2022-02-09T10:25:45.796Z</time>
      </trkpt>
      <trkpt lat="48.35136" lon="2.73302">
        <ele>114</ele>
        <time>2022-02-09T10:25:50.799Z</time>
      </trkpt>
      <trkpt lat="48.35137" lon="2.7331">
        <ele>114</ele>
        <time>2022-02-09T10:25:54.831Z</time>
      </trkpt>
      <trkpt lat="48.35138" lon="2.73318">
        <ele>114</ele>
        <time>2022-02-09T10:25:59.795Z</time>
      </trkpt>
      <trkpt lat="48.35138" lon="2.73325">
        <ele>114</ele>
        <time>2022-02-09T10:26:03.830Z</time>
      </trkpt>
      <trkpt lat="48.35138" lon="2.73334">
        <ele>114</ele>
        <time>2022-02-09T10:26:08.796Z</time>
      </trkpt>
      <trkpt lat="48.35137" lon="2.73342">
        <ele>114</ele>
        <time>2022-02-09T10:26:12.824Z</time>
      </trkpt>
      <trkpt lat="48.35138" lon="2.7335">
        <ele>116</ele>
        <time>2022-02-09T10:26:16.838Z</time>
      </trkpt>
      <trkpt lat="48.35137" lon="2.73361">
        <ele>116</ele>
        <time>2022-02-09T10:26:21.816Z</time>
      </trkpt>
      <trkpt lat="48.35137" lon="2.73371">
        <ele>116</ele>
        <time>2022-02-09T10:26:26.786Z</time>
      </trkpt>
      <trkpt lat="48.35137" lon="2.7338">
        <ele>117</ele>
        <time>2022-02-09T10:26:30.795Z</time>
      </trkpt>
      <trkpt lat="48.35136" lon="2.7339">
        <ele>117</ele>
        <time>2022-02-09T10:26:35.790Z</time>
      </trkpt>
      <trkpt lat="48.35133" lon="2.73397">
        <ele>117</ele>
        <time>2022-02-09T10:26:40.790Z</time>
      </trkpt>
      <trkpt lat="48.35128" lon="2.73407">
        <ele>118</ele>
        <time>2022-02-09T10:26:54.787Z</time>
      </trkpt>
      <trkpt lat="48.35129" lon="2.73417">
        <ele>118</ele>
        <time>2022-02-09T10:26:58.789Z</time>
      </trkpt>
      <trkpt lat="48.35127" lon="2.73427">
        <ele>118</ele>
        <time>2022-02-09T10:27:03.789Z</time>
      </trkpt>
      <trkpt lat="48.35125" lon="2.73436">
        <ele>124</ele>
        <time>2022-02-09T10:27:08.787Z</time>
      </trkpt>
      <trkpt lat="48.35123" lon="2.73445">
        <ele>124</ele>
        <time>2022-02-09T10:27:12.824Z</time>
      </trkpt>
      <trkpt lat="48.35121" lon="2.73455">
        <ele>124</ele>
        <time>2022-02-09T10:27:17.832Z</time>
      </trkpt>
      <trkpt lat="48.35119" lon="2.73465">
        <ele>123</ele>
        <time>2022-02-09T10:27:22.833Z</time>
      </trkpt>
      <trkpt lat="48.35116" lon="2.73473">
        <ele>123</ele>
        <time>2022-02-09T10:27:27.838Z</time>
      </trkpt>
      <trkpt lat="48.35114" lon="2.73482">
        <ele>123</ele>
        <time>2022-02-09T10:27:32.823Z</time>
      </trkpt>
      <trkpt lat="48.35112" lon="2.73491">
        <ele>124</ele>
        <time>2022-02-09T10:27:37.787Z</time>
      </trkpt>
      <trkpt lat="48.35111" lon="2.73498">
        <ele>124</ele>
        <time>2022-02-09T10:27:41.821Z</time>
      </trkpt>
      <trkpt lat="48.35109" lon="2.73506">
        <ele>124</ele>
        <time>2022-02-09T10:27:46.792Z</time>
      </trkpt>
      <trkpt lat="48.35108" lon="2.73513">
        <ele>124</ele>
        <time>2022-02-09T10:27:50.793Z</time>
      </trkpt>
      <trkpt lat="48.35107" lon="2.7352">
        <ele>125</ele>
        <time>2022-02-09T10:27:54.791Z</time>
      </trkpt>
      <trkpt lat="48.35106" lon="2.73527">
        <ele>125</ele>
        <time>2022-02-09T10:27:58.826Z</time>
      </trkpt>
      <trkpt lat="48.35108" lon="2.73536">
        <ele>125</ele>
        <time>2022-02-09T10:28:03.802Z</time>
      </trkpt>
      <trkpt lat="48.35107" lon="2.73542">
        <ele>127</ele>
        <time>2022-02-09T10:28:07.827Z</time>
      </trkpt>
      <trkpt lat="48.35106" lon="2.73549">
        <ele>127</ele>
        <time>2022-02-09T10:28:12.825Z</time>
      </trkpt>
      <trkpt lat="48.35104" lon="2.73556">
        <ele>127</ele>
        <time>2022-02-09T10:28:17.795Z</time>
      </trkpt>
      <trkpt lat="48.35101" lon="2.73564">
        <ele>127</ele>
        <time>2022-02-09T10:28:22.794Z</time>
      </trkpt>
      <trkpt lat="48.35101" lon="2.73572">
        <ele>127</ele>
        <time>2022-02-09T10:28:26.828Z</time>
      </trkpt>
      <trkpt lat="48.35099" lon="2.7358">
        <ele>127</ele>
        <time>2022-02-09T10:28:31.794Z</time>
      </trkpt>
      <trkpt lat="48.35098" lon="2.73586">
        <ele>127</ele>
        <time>2022-02-09T10:28:35.807Z</time>
      </trkpt>
      <trkpt lat="48.35096" lon="2.73594">
        <ele>134</ele>
        <time>2022-02-09T10:28:40.798Z</time>
      </trkpt>
      <trkpt lat="48.35093" lon="2.73601">
        <ele>134</ele>
        <time>2022-02-09T10:28:45.791Z</time>
      </trkpt>
      <trkpt lat="48.35091" lon="2.7361">
        <ele>134</ele>
        <time>2022-02-09T10:28:50.792Z</time>
      </trkpt>
      <trkpt lat="48.35091" lon="2.73619">
        <ele>134</ele>
        <time>2022-02-09T10:28:55.790Z</time>
      </trkpt>
      <trkpt lat="48.3509" lon="2.73627">
        <ele>136</ele>
        <time>2022-02-09T10:29:00.789Z</time>
      </trkpt>
      <trkpt lat="48.35089" lon="2.73636">
        <ele>136</ele>
        <time>2022-02-09T10:29:05.794Z</time>
      </trkpt>
      <trkpt lat="48.35085" lon="2.73643">
        <ele>136</ele>
        <time>2022-02-09T10:29:10.840Z</time>
      </trkpt>
      <trkpt lat="48.35084" lon="2.73651">
        <ele>136</ele>
        <time>2022-02-09T10:29:15.792Z</time>
      </trkpt>
      <trkpt lat="48.35082" lon="2.73658">
        <ele>138</ele>
        <time>2022-02-09T10:29:20.802Z</time>
      </trkpt>
      <trkpt lat="48.3508" lon="2.73665">
        <ele>138</ele>
        <time>2022-02-09T10:29:25.803Z</time>
      </trkpt>
      <trkpt lat="48.35076" lon="2.73673">
        <ele>138</ele>
        <time>2022-02-09T10:29:30.844Z</time>
      </trkpt>
      <trkpt lat="48.35073" lon="2.73681">
        <ele>139</ele>
        <time>2022-02-09T10:29:35.789Z</time>
      </trkpt>
      <trkpt lat="48.3507" lon="2.73686">
        <ele>139</ele>
        <time>2022-02-09T10:29:39.803Z</time>
      </trkpt>
      <trkpt lat="48.35067" lon="2.73692">
        <ele>138</ele>
        <time>2022-02-09T10:29:44.790Z</time>
      </trkpt>
      <trkpt lat="48.35064" lon="2.73697">
        <ele>138</ele>
        <time>2022-02-09T10:29:48.828Z</time>
      </trkpt>
      <trkpt lat="48.35061" lon="2.73704">
        <ele>138</ele>
        <time>2022-02-09T10:29:53.804Z</time>
      </trkpt>
      <trkpt lat="48.35057" lon="2.73711">
        <ele>137</ele>
        <time>2022-02-09T10:29:58.841Z</time>
      </trkpt>
      <trkpt lat="48.35053" lon="2.73717">
        <ele>137</ele>
        <time>2022-02-09T10:30:03.795Z</time>
      </trkpt>
      <trkpt lat="48.35049" lon="2.7372">
        <ele>137</ele>
        <time>2022-02-09T10:30:07.835Z</time>
      </trkpt>
      <trkpt lat="48.35044" lon="2.73724">
        <ele>137</ele>
        <time>2022-02-09T10:30:12.795Z</time>
      </trkpt>
      <trkpt lat="48.35041" lon="2.73728">
        <ele>135</ele>
        <time>2022-02-09T10:30:16.838Z</time>
      </trkpt>
      <trkpt lat="48.35036" lon="2.73733">
        <ele>135</ele>
        <time>2022-02-09T10:30:21.802Z</time>
      </trkpt>
      <trkpt lat="48.35031" lon="2.7374">
        <ele>135</ele>
        <time>2022-02-09T10:30:26.792Z</time>
      </trkpt>
      <trkpt lat="48.35027" lon="2.73744">
        <ele>135</ele>
        <time>2022-02-09T10:30:30.795Z</time>
      </trkpt>
      <trkpt lat="48.35023" lon="2.73748">
        <ele>135</ele>
        <time>2022-02-09T10:30:35.798Z</time>
      </trkpt>
      <trkpt lat="48.35022" lon="2.73756">
        <ele>135</ele>
        <time>2022-02-09T10:30:39.797Z</time>
      </trkpt>
      <trkpt lat="48.35017" lon="2.73762">
        <ele>135</ele>
        <time>2022-02-09T10:30:44.787Z</time>
      </trkpt>
      <trkpt lat="48.35011" lon="2.73766">
        <ele>137</ele>
        <time>2022-02-09T10:30:49.793Z</time>
      </trkpt>
      <trkpt lat="48.35006" lon="2.73769">
        <ele>137</ele>
        <time>2022-02-09T10:30:53.797Z</time>
      </trkpt>
      <trkpt lat="48.35001" lon="2.73772">
        <ele>137</ele>
        <time>2022-02-09T10:30:58.787Z</time>
      </trkpt>
      <trkpt lat="48.34997" lon="2.73777">
        <ele>137</ele>
        <time>2022-02-09T10:31:02.824Z</time>
      </trkpt>
      <trkpt lat="48.34992" lon="2.73781">
        <ele>137</ele>
        <time>2022-02-09T10:31:07.793Z</time>
      </trkpt>
      <trkpt lat="48.34988" lon="2.73785">
        <ele>137</ele>
        <time>2022-02-09T10:31:11.795Z</time>
      </trkpt>
      <trkpt lat="48.34984" lon="2.7379">
        <ele>139</ele>
        <time>2022-02-09T10:31:15.798Z</time>
      </trkpt>
      <trkpt lat="48.34978" lon="2.73794">
        <ele>141</ele>
        <time>2022-02-09T10:31:20.847Z</time>
      </trkpt>
      <trkpt lat="48.34972" lon="2.73799">
        <ele>141</ele>
        <time>2022-02-09T10:31:25.790Z</time>
      </trkpt>
      <trkpt lat="48.34965" lon="2.73804">
        <ele>141</ele>
        <time>2022-02-09T10:31:30.790Z</time>
      </trkpt>
      <trkpt lat="48.34959" lon="2.73808">
        <ele>141</ele>
        <time>2022-02-09T10:31:35.793Z</time>
      </trkpt>
      <trkpt lat="48.34952" lon="2.73812">
        <ele>141</ele>
        <time>2022-02-09T10:31:40.826Z</time>
      </trkpt>
      <trkpt lat="48.34946" lon="2.73817">
        <ele>141</ele>
        <time>2022-02-09T10:31:45.790Z</time>
      </trkpt>
      <trkpt lat="48.34942" lon="2.73822">
        <ele>143</ele>
        <time>2022-02-09T10:31:49.799Z</time>
      </trkpt>
      <trkpt lat="48.34936" lon="2.73826">
        <ele>143</ele>
        <time>2022-02-09T10:31:54.799Z</time>
      </trkpt>
      <trkpt lat="48.34931" lon="2.7383">
        <ele>143</ele>
        <time>2022-02-09T10:31:58.828Z</time>
      </trkpt>
      <trkpt lat="48.34924" lon="2.73834">
        <ele>142</ele>
        <time>2022-02-09T10:32:03.795Z</time>
      </trkpt>
      <trkpt lat="48.34917" lon="2.73838">
        <ele>142</ele>
        <time>2022-02-09T10:32:08.827Z</time>
      </trkpt>
      <trkpt lat="48.34912" lon="2.73842">
        <ele>142</ele>
        <time>2022-02-09T10:32:12.833Z</time>
      </trkpt>
      <trkpt lat="48.34906" lon="2.73844">
        <ele>142</ele>
        <time>2022-02-09T10:32:17.825Z</time>
      </trkpt>
      <trkpt lat="48.34901" lon="2.73848">
        <ele>143</ele>
        <time>2022-02-09T10:32:22.797Z</time>
      </trkpt>
      <trkpt lat="48.34896" lon="2.73852">
        <ele>143</ele>
        <time>2022-02-09T10:32:26.795Z</time>
      </trkpt>
      <trkpt lat="48.3489" lon="2.73857">
        <ele>143</ele>
        <time>2022-02-09T10:32:31.828Z</time>
      </trkpt>
      <trkpt lat="48.34883" lon="2.73863">
        <ele>143</ele>
        <time>2022-02-09T10:32:36.796Z</time>
      </trkpt>
      <trkpt lat="48.34877" lon="2.73869">
        <ele>143</ele>
        <time>2022-02-09T10:32:40.797Z</time>
      </trkpt>
      <trkpt lat="48.3487" lon="2.73875">
        <ele>144</ele>
        <time>2022-02-09T10:32:45.832Z</time>
      </trkpt>
      <trkpt lat="48.34863" lon="2.73881">
        <ele>144</ele>
        <time>2022-02-09T10:32:50.794Z</time>
      </trkpt>
      <trkpt lat="48.34856" lon="2.73887">
        <ele>144</ele>
        <time>2022-02-09T10:32:55.796Z</time>
      </trkpt>
      <trkpt lat="48.34851" lon="2.73892">
        <ele>144</ele>
        <time>2022-02-09T10:32:59.792Z</time>
      </trkpt>
      <trkpt lat="48.34846" lon="2.73896">
        <ele>146</ele>
        <time>2022-02-09T10:33:03.799Z</time>
      </trkpt>
      <trkpt lat="48.34841" lon="2.73903">
        <ele>146</ele>
        <time>2022-02-09T10:33:08.794Z</time>
      </trkpt>
      <trkpt lat="48.34835" lon="2.73908">
        <ele>146</ele>
        <time>2022-02-09T10:33:13.807Z</time>
      </trkpt>
      <trkpt lat="48.34829" lon="2.73913">
        <ele>146</ele>
        <time>2022-02-09T10:33:18.786Z</time>
      </trkpt>
      <trkpt lat="48.34824" lon="2.73918">
        <ele>146</ele>
        <time>2022-02-09T10:33:22.789Z</time>
      </trkpt>
      <trkpt lat="48.34819" lon="2.73924">
        <ele>147</ele>
        <time>2022-02-09T10:33:27.796Z</time>
      </trkpt>
      <trkpt lat="48.34812" lon="2.7393">
        <ele>147</ele>
        <time>2022-02-09T10:33:32.788Z</time>
      </trkpt>
      <trkpt lat="48.34807" lon="2.73934">
        <ele>147</ele>
        <time>2022-02-09T10:33:36.804Z</time>
      </trkpt>
      <trkpt lat="48.34802" lon="2.73939">
        <ele>147</ele>
        <time>2022-02-09T10:33:41.798Z</time>
      </trkpt>
      <trkpt lat="48.34797" lon="2.73944">
        <ele>147</ele>
        <time>2022-02-09T10:33:46.794Z</time>
      </trkpt>
      <trkpt lat="48.34792" lon="2.73948">
        <ele>147</ele>
        <time>2022-02-09T10:33:50.794Z</time>
      </trkpt>
      <trkpt lat="48.34786" lon="2.73953">
        <ele>145</ele>
        <time>2022-02-09T10:33:55.794Z</time>
      </trkpt>
      <trkpt lat="48.34781" lon="2.73956">
        <ele>145</ele>
        <time>2022-02-09T10:33:59.802Z</time>
      </trkpt>
      <trkpt lat="48.34776" lon="2.7396">
        <ele>143</ele>
        <time>2022-02-09T10:34:04.799Z</time>
      </trkpt>
      <trkpt lat="48.34767" lon="2.73968">
        <ele>143</ele>
        <time>2022-02-09T10:48:05.807Z</time>
      </trkpt>
      <trkpt lat="48.34767" lon="2.73968">
        <ele>143</ele>
        <time>2022-02-09T10:48:10.802Z</time>
      </trkpt>
      <trkpt lat="48.34767" lon="2.73968">
        <ele>143</ele>
        <time>2022-02-09T10:48:15.795Z</time>
      </trkpt>
      <trkpt lat="48.34765" lon="2.7397">
        <ele>143</ele>
        <time>2022-02-09T10:48:19.804Z</time>
      </trkpt>
      <trkpt lat="48.34764" lon="2.73971">
        <ele>140</ele>
        <time>2022-02-09T10:48:24.808Z</time>
      </trkpt>
      <trkpt lat="48.34764" lon="2.73971">
        <ele>140</ele>
        <time>2022-02-09T10:48:29.801Z</time>
      </trkpt>
      <trkpt lat="48.34762" lon="2.73973">
        <ele>140</ele>
        <time>2022-02-09T10:48:34.805Z</time>
      </trkpt>
      <trkpt lat="48.34759" lon="2.73975">
        <ele>140</ele>
        <time>2022-02-09T10:48:38.800Z</time>
      </trkpt>
      <trkpt lat="48.34755" lon="2.73979">
        <ele>140</ele>
        <time>2022-02-09T10:48:43.799Z</time>
      </trkpt>
      <trkpt lat="48.34752" lon="2.73983">
        <ele>140</ele>
        <time>2022-02-09T10:48:47.800Z</time>
      </trkpt>
      <trkpt lat="48.34747" lon="2.73987">
        <ele>139</ele>
        <time>2022-02-09T10:48:52.803Z</time>
      </trkpt>
      <trkpt lat="48.34742" lon="2.7399">
        <ele>139</ele>
        <time>2022-02-09T10:48:57.799Z</time>
      </trkpt>
      <trkpt lat="48.34738" lon="2.73995">
        <ele>139</ele>
        <time>2022-02-09T10:49:02.799Z</time>
      </trkpt>
      <trkpt lat="48.3473" lon="2.74001">
        <ele>138</ele>
        <time>2022-02-09T10:49:07.794Z</time>
      </trkpt>
      <trkpt lat="48.34726" lon="2.74004">
        <ele>138</ele>
        <time>2022-02-09T10:49:11.802Z</time>
      </trkpt>
      <trkpt lat="48.34721" lon="2.74006">
        <ele>138</ele>
        <time>2022-02-09T10:49:15.816Z</time>
      </trkpt>
      <trkpt lat="48.34718" lon="2.74013">
        <ele>138</ele>
        <time>2022-02-09T10:49:20.802Z</time>
      </trkpt>
      <trkpt lat="48.34713" lon="2.74014">
        <ele>138</ele>
        <time>2022-02-09T10:49:25.795Z</time>
      </trkpt>
      <trkpt lat="48.34708" lon="2.74016">
        <ele>136</ele>
        <time>2022-02-09T10:49:29.802Z</time>
      </trkpt>
      <trkpt lat="48.34703" lon="2.7402">
        <ele>136</ele>
        <time>2022-02-09T10:49:34.807Z</time>
      </trkpt>
      <trkpt lat="48.34698" lon="2.74025">
        <ele>136</ele>
        <time>2022-02-09T10:49:39.805Z</time>
      </trkpt>
      <trkpt lat="48.34692" lon="2.7403">
        <ele>136</ele>
        <time>2022-02-09T10:49:44.804Z</time>
      </trkpt>
      <trkpt lat="48.34686" lon="2.74034">
        <ele>136</ele>
        <time>2022-02-09T10:49:49.805Z</time>
      </trkpt>
      <trkpt lat="48.34682" lon="2.74032">
        <ele>136</ele>
        <time>2022-02-09T10:49:53.805Z</time>
      </trkpt>
      <trkpt lat="48.34677" lon="2.74035">
        <ele>135</ele>
        <time>2022-02-09T10:49:58.799Z</time>
      </trkpt>
      <trkpt lat="48.34672" lon="2.7404">
        <ele>135</ele>
        <time>2022-02-09T10:50:03.790Z</time>
      </trkpt>
      <trkpt lat="48.34668" lon="2.74044">
        <ele>133</ele>
        <time>2022-02-09T10:50:07.801Z</time>
      </trkpt>
      <trkpt lat="48.34662" lon="2.74045">
        <ele>133</ele>
        <time>2022-02-09T10:50:12.806Z</time>
      </trkpt>
      <trkpt lat="48.34656" lon="2.74049">
        <ele>133</ele>
        <time>2022-02-09T10:50:17.805Z</time>
      </trkpt>
      <trkpt lat="48.34651" lon="2.74053">
        <ele>134</ele>
        <time>2022-02-09T10:50:21.805Z</time>
      </trkpt>
      <trkpt lat="48.34646" lon="2.74058">
        <ele>134</ele>
        <time>2022-02-09T10:50:26.801Z</time>
      </trkpt>
      <trkpt lat="48.34639" lon="2.74061">
        <ele>134</ele>
        <time>2022-02-09T10:50:31.800Z</time>
      </trkpt>
      <trkpt lat="48.34632" lon="2.7406">
        <ele>134</ele>
        <time>2022-02-09T10:50:36.801Z</time>
      </trkpt>
      <trkpt lat="48.34629" lon="2.74054">
        <ele>134</ele>
        <time>2022-02-09T10:50:41.798Z</time>
      </trkpt>
      <trkpt lat="48.34632" lon="2.74049">
        <ele>134</ele>
        <time>2022-02-09T10:50:45.807Z</time>
      </trkpt>
      <trkpt lat="48.34634" lon="2.7404">
        <ele>136</ele>
        <time>2022-02-09T10:50:50.795Z</time>
      </trkpt>
      <trkpt lat="48.34634" lon="2.74033">
        <ele>136</ele>
        <time>2022-02-09T10:50:54.801Z</time>
      </trkpt>
      <trkpt lat="48.34634" lon="2.74022">
        <ele>136</ele>
        <time>2022-02-09T10:50:59.796Z</time>
      </trkpt>
      <trkpt lat="48.34633" lon="2.74013">
        <ele>137</ele>
        <time>2022-02-09T10:51:04.793Z</time>
      </trkpt>
      <trkpt lat="48.34631" lon="2.74004">
        <ele>137</ele>
        <time>2022-02-09T10:51:08.798Z</time>
      </trkpt>
      <trkpt lat="48.34627" lon="2.73995">
        <ele>137</ele>
        <time>2022-02-09T10:51:13.793Z</time>
      </trkpt>
      <trkpt lat="48.34625" lon="2.73988">
        <ele>138</ele>
        <time>2022-02-09T10:51:17.799Z</time>
      </trkpt>
      <trkpt lat="48.34623" lon="2.7398">
        <ele>138</ele>
        <time>2022-02-09T10:51:21.835Z</time>
      </trkpt>
      <trkpt lat="48.34621" lon="2.73971">
        <ele>138</ele>
        <time>2022-02-09T10:51:26.827Z</time>
      </trkpt>
      <trkpt lat="48.34619" lon="2.73964">
        <ele>138</ele>
        <time>2022-02-09T10:51:30.856Z</time>
      </trkpt>
      <trkpt lat="48.34616" lon="2.73953">
        <ele>137</ele>
        <time>2022-02-09T10:51:35.818Z</time>
      </trkpt>
      <trkpt lat="48.34614" lon="2.73942">
        <ele>137</ele>
        <time>2022-02-09T10:51:40.800Z</time>
      </trkpt>
      <trkpt lat="48.34611" lon="2.73932">
        <ele>137</ele>
        <time>2022-02-09T10:51:45.838Z</time>
      </trkpt>
      <trkpt lat="48.34609" lon="2.73923">
        <ele>136</ele>
        <time>2022-02-09T10:51:50.804Z</time>
      </trkpt>
      <trkpt lat="48.34608" lon="2.73914">
        <ele>136</ele>
        <time>2022-02-09T10:51:55.801Z</time>
      </trkpt>
      <trkpt lat="48.34606" lon="2.73904">
        <ele>136</ele>
        <time>2022-02-09T10:52:00.801Z</time>
      </trkpt>
      <trkpt lat="48.34604" lon="2.73895">
        <ele>135</ele>
        <time>2022-02-09T10:52:05.796Z</time>
      </trkpt>
      <trkpt lat="48.34602" lon="2.73885">
        <ele>135</ele>
        <time>2022-02-09T10:52:10.841Z</time>
      </trkpt>
      <trkpt lat="48.346" lon="2.73875">
        <ele>135</ele>
        <time>2022-02-09T10:52:15.799Z</time>
      </trkpt>
      <trkpt lat="48.34598" lon="2.73866">
        <ele>135</ele>
        <time>2022-02-09T10:52:20.845Z</time>
      </trkpt>
      <trkpt lat="48.34598" lon="2.73856">
        <ele>135</ele>
        <time>2022-02-09T10:52:25.803Z</time>
      </trkpt>
      <trkpt lat="48.34596" lon="2.73848">
        <ele>133</ele>
        <time>2022-02-09T10:52:29.799Z</time>
      </trkpt>
      <trkpt lat="48.34595" lon="2.7384">
        <ele>134</ele>
        <time>2022-02-09T10:52:33.832Z</time>
      </trkpt>
      <trkpt lat="48.34593" lon="2.73831">
        <ele>134</ele>
        <time>2022-02-09T10:52:38.798Z</time>
      </trkpt>
      <trkpt lat="48.34592" lon="2.73825">
        <ele>134</ele>
        <time>2022-02-09T10:52:42.799Z</time>
      </trkpt>
      <trkpt lat="48.34592" lon="2.73817">
        <ele>135</ele>
        <time>2022-02-09T10:52:46.822Z</time>
      </trkpt>
      <trkpt lat="48.3459" lon="2.73807">
        <ele>135</ele>
        <time>2022-02-09T10:52:51.841Z</time>
      </trkpt>
      <trkpt lat="48.34587" lon="2.73798">
        <ele>135</ele>
        <time>2022-02-09T10:52:56.852Z</time>
      </trkpt>
      <trkpt lat="48.34586" lon="2.73788">
        <ele>134</ele>
        <time>2022-02-09T10:53:01.801Z</time>
      </trkpt>
      <trkpt lat="48.34584" lon="2.7378">
        <ele>134</ele>
        <time>2022-02-09T10:53:06.821Z</time>
      </trkpt>
      <trkpt lat="48.34584" lon="2.7377">
        <ele>134</ele>
        <time>2022-02-09T10:53:11.797Z</time>
      </trkpt>
      <trkpt lat="48.34582" lon="2.7376">
        <ele>134</ele>
        <time>2022-02-09T10:53:16.816Z</time>
      </trkpt>
      <trkpt lat="48.34581" lon="2.73752">
        <ele>134</ele>
        <time>2022-02-09T10:53:21.803Z</time>
      </trkpt>
      <trkpt lat="48.34575" lon="2.73745">
        <ele>134</ele>
        <time>2022-02-09T10:53:26.800Z</time>
      </trkpt>
      <trkpt lat="48.34572" lon="2.73739">
        <ele>134</ele>
        <time>2022-02-09T10:53:30.802Z</time>
      </trkpt>
      <trkpt lat="48.34567" lon="2.73733">
        <ele>134</ele>
        <time>2022-02-09T10:53:35.802Z</time>
      </trkpt>
      <trkpt lat="48.34565" lon="2.73726">
        <ele>134</ele>
        <time>2022-02-09T10:53:39.814Z</time>
      </trkpt>
      <trkpt lat="48.34563" lon="2.7372">
        <ele>134</ele>
        <time>2022-02-09T10:53:43.833Z</time>
      </trkpt>
      <trkpt lat="48.34559" lon="2.73713">
        <ele>134</ele>
        <time>2022-02-09T10:53:48.834Z</time>
      </trkpt>
      <trkpt lat="48.34555" lon="2.73705">
        <ele>135</ele>
        <time>2022-02-09T10:53:53.803Z</time>
      </trkpt>
      <trkpt lat="48.34551" lon="2.73699">
        <ele>135</ele>
        <time>2022-02-09T10:53:57.841Z</time>
      </trkpt>
      <trkpt lat="48.34547" lon="2.73692">
        <ele>135</ele>
        <time>2022-02-09T10:54:02.829Z</time>
      </trkpt>
      <trkpt lat="48.3454" lon="2.73685">
        <ele>135</ele>
        <time>2022-02-09T10:54:07.799Z</time>
      </trkpt>
      <trkpt lat="48.34536" lon="2.73678">
        <ele>136</ele>
        <time>2022-02-09T10:54:11.836Z</time>
      </trkpt>
      <trkpt lat="48.34531" lon="2.73671">
        <ele>136</ele>
        <time>2022-02-09T10:54:16.833Z</time>
      </trkpt>
      <trkpt lat="48.34527" lon="2.73666">
        <ele>136</ele>
        <time>2022-02-09T10:54:21.827Z</time>
      </trkpt>
      <trkpt lat="48.34523" lon="2.73659">
        <ele>136</ele>
        <time>2022-02-09T10:54:26.828Z</time>
      </trkpt>
      <trkpt lat="48.3452" lon="2.73651">
        <ele>133</ele>
        <time>2022-02-09T10:54:31.795Z</time>
      </trkpt>
      <trkpt lat="48.34517" lon="2.73645">
        <ele>133</ele>
        <time>2022-02-09T10:54:35.802Z</time>
      </trkpt>
      <trkpt lat="48.34515" lon="2.73637">
        <ele>133</ele>
        <time>2022-02-09T10:54:40.799Z</time>
      </trkpt>
      <trkpt lat="48.3451" lon="2.7363">
        <ele>133</ele>
        <time>2022-02-09T10:54:45.804Z</time>
      </trkpt>
      <trkpt lat="48.34505" lon="2.73626">
        <ele>133</ele>
        <time>2022-02-09T10:54:49.817Z</time>
      </trkpt>
      <trkpt lat="48.34499" lon="2.73624">
        <ele>131</ele>
        <time>2022-02-09T10:54:54.791Z</time>
      </trkpt>
      <trkpt lat="48.34492" lon="2.73621">
        <ele>131</ele>
        <time>2022-02-09T10:54:59.789Z</time>
      </trkpt>
      <trkpt lat="48.34486" lon="2.73622">
        <ele>131</ele>
        <time>2022-02-09T10:55:03.796Z</time>
      </trkpt>
      <trkpt lat="48.3448" lon="2.73618">
        <ele>130</ele>
        <time>2022-02-09T10:55:08.794Z</time>
      </trkpt>
      <trkpt lat="48.34474" lon="2.73614">
        <ele>130</ele>
        <time>2022-02-09T10:55:13.788Z</time>
      </trkpt>
      <trkpt lat="48.34469" lon="2.73614">
        <ele>130</ele>
        <time>2022-02-09T10:55:17.794Z</time>
      </trkpt>
      <trkpt lat="48.34463" lon="2.73611">
        <ele>130</ele>
        <time>2022-02-09T10:55:22.790Z</time>
      </trkpt>
      <trkpt lat="48.34456" lon="2.73607">
        <ele>130</ele>
        <time>2022-02-09T10:55:27.795Z</time>
      </trkpt>
      <trkpt lat="48.34452" lon="2.73603">
        <ele>130</ele>
        <time>2022-02-09T10:55:31.797Z</time>
      </trkpt>
      <trkpt lat="48.34447" lon="2.73599">
        <ele>130</ele>
        <time>2022-02-09T10:55:36.803Z</time>
      </trkpt>
      <trkpt lat="48.34442" lon="2.73598">
        <ele>130</ele>
        <time>2022-02-09T10:55:40.801Z</time>
      </trkpt>
      <trkpt lat="48.34436" lon="2.73598">
        <ele>130</ele>
        <time>2022-02-09T10:55:45.790Z</time>
      </trkpt>
      <trkpt lat="48.34431" lon="2.73599">
        <ele>130</ele>
        <time>2022-02-09T10:55:49.794Z</time>
      </trkpt>
      <trkpt lat="48.34427" lon="2.73596">
        <ele>127</ele>
        <time>2022-02-09T10:55:54.793Z</time>
      </trkpt>
      <trkpt lat="48.34422" lon="2.73594">
        <ele>127</ele>
        <time>2022-02-09T10:55:59.796Z</time>
      </trkpt>
      <trkpt lat="48.34419" lon="2.73588">
        <ele>127</ele>
        <time>2022-02-09T10:56:04.793Z</time>
      </trkpt>
      <trkpt lat="48.34418" lon="2.73583">
        <ele>127</ele>
        <time>2022-02-09T10:56:08.799Z</time>
      </trkpt>
      <trkpt lat="48.34419" lon="2.73577">
        <ele>127</ele>
        <time>2022-02-09T10:56:12.813Z</time>
      </trkpt>
      <trkpt lat="48.34419" lon="2.7357">
        <ele>127</ele>
        <time>2022-02-09T10:56:17.811Z</time>
      </trkpt>
      <trkpt lat="48.34418" lon="2.73563">
        <ele>124</ele>
        <time>2022-02-09T10:56:22.798Z</time>
      </trkpt>
      <trkpt lat="48.34418" lon="2.73556">
        <ele>124</ele>
        <time>2022-02-09T10:56:26.795Z</time>
      </trkpt>
      <trkpt lat="48.34419" lon="2.73547">
        <ele>124</ele>
        <time>2022-02-09T10:56:31.802Z</time>
      </trkpt>
      <trkpt lat="48.34422" lon="2.73526">
        <ele>122</ele>
        <time>2022-02-09T10:56:50.801Z</time>
      </trkpt>
      <trkpt lat="48.34422" lon="2.73526">
        <ele>122</ele>
        <time>2022-02-09T10:56:55.810Z</time>
      </trkpt>
      <trkpt lat="48.34422" lon="2.73526">
        <ele>122</ele>
        <time>2022-02-09T10:57:00.805Z</time>
      </trkpt>
      <trkpt lat="48.34422" lon="2.73526">
        <ele>122</ele>
        <time>2022-02-09T10:57:05.801Z</time>
      </trkpt>
      <trkpt lat="48.34422" lon="2.73525">
        <ele>122</ele>
        <time>2022-02-09T10:57:10.799Z</time>
      </trkpt>
      <trkpt lat="48.34423" lon="2.73524">
        <ele>122</ele>
        <time>2022-02-09T10:57:14.801Z</time>
      </trkpt>
      <trkpt lat="48.3442" lon="2.73524">
        <ele>122</ele>
        <time>2022-02-09T10:57:19.794Z</time>
      </trkpt>
      <trkpt lat="48.34416" lon="2.73522">
        <ele>122</ele>
        <time>2022-02-09T10:57:23.800Z</time>
      </trkpt>
      <trkpt lat="48.3441" lon="2.73516">
        <ele>122</ele>
        <time>2022-02-09T10:57:28.799Z</time>
      </trkpt>
      <trkpt lat="48.34407" lon="2.73514">
        <ele>122</ele>
        <time>2022-02-09T10:57:32.802Z</time>
      </trkpt>
      <trkpt lat="48.34402" lon="2.73511">
        <ele>118</ele>
        <time>2022-02-09T10:57:37.801Z</time>
      </trkpt>
      <trkpt lat="48.34398" lon="2.73509">
        <ele>118</ele>
        <time>2022-02-09T10:57:41.799Z</time>
      </trkpt>
      <trkpt lat="48.34394" lon="2.73506">
        <ele>118</ele>
        <time>2022-02-09T10:57:45.813Z</time>
      </trkpt>
      <trkpt lat="48.3439" lon="2.73503">
        <ele>118</ele>
        <time>2022-02-09T10:57:50.801Z</time>
      </trkpt>
      <trkpt lat="48.34386" lon="2.73501">
        <ele>118</ele>
        <time>2022-02-09T10:57:55.799Z</time>
      </trkpt>
      <trkpt lat="48.34382" lon="2.735">
        <ele>118</ele>
        <time>2022-02-09T10:58:00.800Z</time>
      </trkpt>
      <trkpt lat="48.34378" lon="2.73498">
        <ele>118</ele>
        <time>2022-02-09T10:58:05.797Z</time>
      </trkpt>
      <trkpt lat="48.34359" lon="2.73488">
        <ele>114</ele>
        <time>2022-02-09T10:58:33.794Z</time>
      </trkpt>
      <trkpt lat="48.34355" lon="2.73486">
        <ele>114</ele>
        <time>2022-02-09T10:58:38.790Z</time>
      </trkpt>
      <trkpt lat="48.3435" lon="2.73485">
        <ele>113</ele>
        <time>2022-02-09T10:58:42.798Z</time>
      </trkpt>
      <trkpt lat="48.34345" lon="2.73483">
        <ele>111</ele>
        <time>2022-02-09T10:58:46.794Z</time>
      </trkpt>
      <trkpt lat="48.34338" lon="2.73481">
        <ele>111</ele>
        <time>2022-02-09T10:58:51.797Z</time>
      </trkpt>
      <trkpt lat="48.34332" lon="2.7348">
        <ele>111</ele>
        <time>2022-02-09T10:58:55.795Z</time>
      </trkpt>
      <trkpt lat="48.34325" lon="2.73478">
        <ele>111</ele>
        <time>2022-02-09T10:59:00.800Z</time>
      </trkpt>
      <trkpt lat="48.34318" lon="2.73476">
        <ele>109</ele>
        <time>2022-02-09T10:59:05.793Z</time>
      </trkpt>
      <trkpt lat="48.34311" lon="2.73473">
        <ele>109</ele>
        <time>2022-02-09T10:59:10.787Z</time>
      </trkpt>
      <trkpt lat="48.34307" lon="2.73471">
        <ele>109</ele>
        <time>2022-02-09T10:59:14.794Z</time>
      </trkpt>
      <trkpt lat="48.343" lon="2.73469">
        <ele>109</ele>
        <time>2022-02-09T10:59:19.806Z</time>
      </trkpt>
      <trkpt lat="48.34294" lon="2.73466">
        <ele>109</ele>
        <time>2022-02-09T10:59:24.802Z</time>
      </trkpt>
      <trkpt lat="48.34289" lon="2.73465">
        <ele>106</ele>
        <time>2022-02-09T10:59:28.805Z</time>
      </trkpt>
      <trkpt lat="48.34283" lon="2.7346">
        <ele>106</ele>
        <time>2022-02-09T10:59:33.796Z</time>
      </trkpt>
      <trkpt lat="48.34276" lon="2.73457">
        <ele>105</ele>
        <time>2022-02-09T10:59:38.806Z</time>
      </trkpt>
      <trkpt lat="48.3427" lon="2.73454">
        <ele>105</ele>
        <time>2022-02-09T10:59:43.792Z</time>
      </trkpt>
      <trkpt lat="48.34264" lon="2.73452">
        <ele>105</ele>
        <time>2022-02-09T10:59:47.813Z</time>
      </trkpt>
      <trkpt lat="48.34258" lon="2.73452">
        <ele>105</ele>
        <time>2022-02-09T10:59:51.936Z</time>
      </trkpt>
      <trkpt lat="48.34252" lon="2.7345">
        <ele>105</ele>
        <time>2022-02-09T10:59:56.797Z</time>
      </trkpt>
      <trkpt lat="48.34246" lon="2.73447">
        <ele>105</ele>
        <time>2022-02-09T11:00:01.799Z</time>
      </trkpt>
      <trkpt lat="48.3424" lon="2.73444">
        <ele>105</ele>
        <time>2022-02-09T11:00:06.794Z</time>
      </trkpt>
      <trkpt lat="48.34233" lon="2.73443">
        <ele>105</ele>
        <time>2022-02-09T11:00:11.789Z</time>
      </trkpt>
      <trkpt lat="48.34227" lon="2.73443">
        <ele>105</ele>
        <time>2022-02-09T11:00:15.795Z</time>
      </trkpt>
      <trkpt lat="48.34221" lon="2.73443">
        <ele>105</ele>
        <time>2022-02-09T11:00:20.801Z</time>
      </trkpt>
      <trkpt lat="48.34213" lon="2.73443">
        <ele>105</ele>
        <time>2022-02-09T11:00:25.811Z</time>
      </trkpt>
      <trkpt lat="48.34207" lon="2.73444">
        <ele>106</ele>
        <time>2022-02-09T11:00:30.795Z</time>
      </trkpt>
      <trkpt lat="48.34202" lon="2.73446">
        <ele>106</ele>
        <time>2022-02-09T11:00:35.793Z</time>
      </trkpt>
      <trkpt lat="48.34197" lon="2.73447">
        <ele>106</ele>
        <time>2022-02-09T11:00:39.802Z</time>
      </trkpt>
      <trkpt lat="48.34192" lon="2.73448">
        <ele>106</ele>
        <time>2022-02-09T11:00:43.805Z</time>
      </trkpt>
      <trkpt lat="48.34186" lon="2.73448">
        <ele>106</ele>
        <time>2022-02-09T11:00:48.797Z</time>
      </trkpt>
      <trkpt lat="48.34179" lon="2.7345">
        <ele>104</ele>
        <time>2022-02-09T11:00:53.801Z</time>
      </trkpt>
      <trkpt lat="48.34172" lon="2.73451">
        <ele>104</ele>
        <time>2022-02-09T11:00:58.803Z</time>
      </trkpt>
      <trkpt lat="48.34166" lon="2.73452">
        <ele>104</ele>
        <time>2022-02-09T11:01:03.793Z</time>
      </trkpt>
      <trkpt lat="48.34161" lon="2.73453">
        <ele>104</ele>
        <time>2022-02-09T11:01:07.800Z</time>
      </trkpt>
      <trkpt lat="48.34156" lon="2.73455">
        <ele>104</ele>
        <time>2022-02-09T11:01:11.802Z</time>
      </trkpt>
      <trkpt lat="48.34149" lon="2.73455">
        <ele>100</ele>
        <time>2022-02-09T11:01:16.800Z</time>
      </trkpt>
      <trkpt lat="48.34143" lon="2.73456">
        <ele>100</ele>
        <time>2022-02-09T11:01:21.814Z</time>
      </trkpt>
      <trkpt lat="48.34137" lon="2.73458">
        <ele>100</ele>
        <time>2022-02-09T11:01:26.801Z</time>
      </trkpt>
      <trkpt lat="48.34131" lon="2.73459">
        <ele>102</ele>
        <time>2022-02-09T11:01:30.802Z</time>
      </trkpt>
      <trkpt lat="48.34124" lon="2.7346">
        <ele>98</ele>
        <time>2022-02-09T11:01:35.793Z</time>
      </trkpt>
      <trkpt lat="48.34118" lon="2.73461">
        <ele>98</ele>
        <time>2022-02-09T11:01:40.791Z</time>
      </trkpt>
      <trkpt lat="48.34111" lon="2.73463">
        <ele>98</ele>
        <time>2022-02-09T11:01:45.796Z</time>
      </trkpt>
      <trkpt lat="48.34106" lon="2.73464">
        <ele>98</ele>
        <time>2022-02-09T11:01:49.805Z</time>
      </trkpt>
      <trkpt lat="48.341" lon="2.73464">
        <ele>98</ele>
        <time>2022-02-09T11:01:54.792Z</time>
      </trkpt>
      <trkpt lat="48.34094" lon="2.73466">
        <ele>96</ele>
        <time>2022-02-09T11:01:59.806Z</time>
      </trkpt>
      <trkpt lat="48.34089" lon="2.73467">
        <ele>96</ele>
        <time>2022-02-09T11:02:03.814Z</time>
      </trkpt>
      <trkpt lat="48.34084" lon="2.73468">
        <ele>96</ele>
        <time>2022-02-09T11:02:08.797Z</time>
      </trkpt>
      <trkpt lat="48.34079" lon="2.7347">
        <ele>96</ele>
        <time>2022-02-09T11:02:12.810Z</time>
      </trkpt>
      <trkpt lat="48.34074" lon="2.73472">
        <ele>96</ele>
        <time>2022-02-09T11:02:17.810Z</time>
      </trkpt>
      <trkpt lat="48.34067" lon="2.73473">
        <ele>95</ele>
        <time>2022-02-09T11:02:22.799Z</time>
      </trkpt>
      <trkpt lat="48.3406" lon="2.73473">
        <ele>95</ele>
        <time>2022-02-09T11:02:27.794Z</time>
      </trkpt>
      <trkpt lat="48.34055" lon="2.73473">
        <ele>95</ele>
        <time>2022-02-09T11:02:31.803Z</time>
      </trkpt>
      <trkpt lat="48.34048" lon="2.73474">
        <ele>95</ele>
        <time>2022-02-09T11:02:36.790Z</time>
      </trkpt>
      <trkpt lat="48.34044" lon="2.73475">
        <ele>95</ele>
        <time>2022-02-09T11:02:40.797Z</time>
      </trkpt>
      <trkpt lat="48.34039" lon="2.73476">
        <ele>95</ele>
        <time>2022-02-09T11:02:44.805Z</time>
      </trkpt>
      <trkpt lat="48.34032" lon="2.73477">
        <ele>95</ele>
        <time>2022-02-09T11:02:49.800Z</time>
      </trkpt>
      <trkpt lat="48.34027" lon="2.73478">
        <ele>95</ele>
        <time>2022-02-09T11:02:53.800Z</time>
      </trkpt>
      <trkpt lat="48.34021" lon="2.73479">
        <ele>95</ele>
        <time>2022-02-09T11:02:58.797Z</time>
      </trkpt>
      <trkpt lat="48.34016" lon="2.7348">
        <ele>95</ele>
        <time>2022-02-09T11:03:02.802Z</time>
      </trkpt>
      <trkpt lat="48.3401" lon="2.73481">
        <ele>93</ele>
        <time>2022-02-09T11:03:07.799Z</time>
      </trkpt>
      <trkpt lat="48.34004" lon="2.73483">
        <ele>93</ele>
        <time>2022-02-09T11:03:12.798Z</time>
      </trkpt>
      <trkpt lat="48.33999" lon="2.73485">
        <ele>93</ele>
        <time>2022-02-09T11:03:16.800Z</time>
      </trkpt>
      <trkpt lat="48.33992" lon="2.73486">
        <ele>94</ele>
        <time>2022-02-09T11:03:21.813Z</time>
      </trkpt>
      <trkpt lat="48.33986" lon="2.73486">
        <ele>93</ele>
        <time>2022-02-09T11:03:26.805Z</time>
      </trkpt>
      <trkpt lat="48.33979" lon="2.73487">
        <ele>93</ele>
        <time>2022-02-09T11:03:31.803Z</time>
      </trkpt>
      <trkpt lat="48.33974" lon="2.73492">
        <ele>93</ele>
        <time>2022-02-09T11:03:36.793Z</time>
      </trkpt>
      <trkpt lat="48.33972" lon="2.73502">
        <ele>93</ele>
        <time>2022-02-09T11:03:41.793Z</time>
      </trkpt>
      <trkpt lat="48.33972" lon="2.73508">
        <ele>93</ele>
        <time>2022-02-09T11:03:45.801Z</time>
      </trkpt>
      <trkpt lat="48.33972" lon="2.73511">
        <ele>93</ele>
        <time>2022-02-09T11:03:49.796Z</time>
      </trkpt>
      <trkpt lat="48.3397" lon="2.73518">
        <ele>93</ele>
        <time>2022-02-09T11:04:12.800Z</time>
      </trkpt>
      <trkpt lat="48.33971" lon="2.73523">
        <ele>93</ele>
        <time>2022-02-09T11:04:17.794Z</time>
      </trkpt>
      <trkpt lat="48.33971" lon="2.73531">
        <ele>93</ele>
        <time>2022-02-09T11:04:21.800Z</time>
      </trkpt>
      <trkpt lat="48.33971" lon="2.73541">
        <ele>93</ele>
        <time>2022-02-09T11:04:26.803Z</time>
      </trkpt>
      <trkpt lat="48.33967" lon="2.73544">
        <ele>94</ele>
        <time>2022-02-09T11:04:30.798Z</time>
      </trkpt>
      <trkpt lat="48.33962" lon="2.73542">
        <ele>94</ele>
        <time>2022-02-09T11:04:35.786Z</time>
      </trkpt>
      <trkpt lat="48.33958" lon="2.7354">
        <ele>92</ele>
        <time>2022-02-09T11:04:39.799Z</time>
      </trkpt>
      <trkpt lat="48.33951" lon="2.7354">
        <ele>92</ele>
        <time>2022-02-09T11:04:44.795Z</time>
      </trkpt>
      <trkpt lat="48.33945" lon="2.73541">
        <ele>92</ele>
        <time>2022-02-09T11:04:49.797Z</time>
      </trkpt>
      <trkpt lat="48.33939" lon="2.73542">
        <ele>93</ele>
        <time>2022-02-09T11:04:54.793Z</time>
      </trkpt>
      <trkpt lat="48.33934" lon="2.73543">
        <ele>93</ele>
        <time>2022-02-09T11:04:58.814Z</time>
      </trkpt>
      <trkpt lat="48.33928" lon="2.73544">
        <ele>92</ele>
        <time>2022-02-09T11:05:03.804Z</time>
      </trkpt>
      <trkpt lat="48.33922" lon="2.73544">
        <ele>92</ele>
        <time>2022-02-09T11:05:08.802Z</time>
      </trkpt>
      <trkpt lat="48.33916" lon="2.73546">
        <ele>92</ele>
        <time>2022-02-09T11:05:13.800Z</time>
      </trkpt>
      <trkpt lat="48.3391" lon="2.73548">
        <ele>92</ele>
        <time>2022-02-09T11:05:18.816Z</time>
      </trkpt>
      <trkpt lat="48.33904" lon="2.73549">
        <ele>92</ele>
        <time>2022-02-09T11:05:23.791Z</time>
      </trkpt>
      <trkpt lat="48.339" lon="2.73551">
        <ele>91</ele>
        <time>2022-02-09T11:05:27.805Z</time>
      </trkpt>
      <trkpt lat="48.33894" lon="2.73552">
        <ele>91</ele>
        <time>2022-02-09T11:05:32.800Z</time>
      </trkpt>
      <trkpt lat="48.33888" lon="2.73554">
        <ele>91</ele>
        <time>2022-02-09T11:05:37.795Z</time>
      </trkpt>
      <trkpt lat="48.33883" lon="2.73554">
        <ele>91</ele>
        <time>2022-02-09T11:05:41.806Z</time>
      </trkpt>
      <trkpt lat="48.33877" lon="2.73554">
        <ele>91</ele>
        <time>2022-02-09T11:05:46.803Z</time>
      </trkpt>
      <trkpt lat="48.33872" lon="2.73555">
        <ele>90</ele>
        <time>2022-02-09T11:05:50.803Z</time>
      </trkpt>
      <trkpt lat="48.33866" lon="2.73555">
        <ele>90</ele>
        <time>2022-02-09T11:05:55.794Z</time>
      </trkpt>
      <trkpt lat="48.33859" lon="2.73555">
        <ele>90</ele>
        <time>2022-02-09T11:06:00.813Z</time>
      </trkpt>
      <trkpt lat="48.33854" lon="2.73556">
        <ele>90</ele>
        <time>2022-02-09T11:06:04.802Z</time>
      </trkpt>
      <trkpt lat="48.3385" lon="2.73559">
        <ele>90</ele>
        <time>2022-02-09T11:06:09.802Z</time>
      </trkpt>
      <trkpt lat="48.33844" lon="2.73561">
        <ele>88</ele>
        <time>2022-02-09T11:06:14.797Z</time>
      </trkpt>
      <trkpt lat="48.33838" lon="2.73562">
        <ele>88</ele>
        <time>2022-02-09T11:06:19.794Z</time>
      </trkpt>
      <trkpt lat="48.33833" lon="2.73563">
        <ele>88</ele>
        <time>2022-02-09T11:06:23.804Z</time>
      </trkpt>
      <trkpt lat="48.33826" lon="2.73563">
        <ele>88</ele>
        <time>2022-02-09T11:06:28.796Z</time>
      </trkpt>
      <trkpt lat="48.33819" lon="2.73565">
        <ele>86</ele>
        <time>2022-02-09T11:06:33.799Z</time>
      </trkpt>
      <trkpt lat="48.33813" lon="2.73566">
        <ele>86</ele>
        <time>2022-02-09T11:06:37.797Z</time>
      </trkpt>
      <trkpt lat="48.33807" lon="2.73567">
        <ele>86</ele>
        <time>2022-02-09T11:06:42.803Z</time>
      </trkpt>
      <trkpt lat="48.33801" lon="2.73569">
        <ele>86</ele>
        <time>2022-02-09T11:06:47.801Z</time>
      </trkpt>
      <trkpt lat="48.33795" lon="2.73569">
        <ele>86</ele>
        <time>2022-02-09T11:06:52.806Z</time>
      </trkpt>
      <trkpt lat="48.33789" lon="2.7357">
        <ele>86</ele>
        <time>2022-02-09T11:06:57.803Z</time>
      </trkpt>
      <trkpt lat="48.33783" lon="2.73572">
        <ele>86</ele>
        <time>2022-02-09T11:07:02.802Z</time>
      </trkpt>
      <trkpt lat="48.33777" lon="2.73574">
        <ele>86</ele>
        <time>2022-02-09T11:07:06.801Z</time>
      </trkpt>
      <trkpt lat="48.33772" lon="2.73575">
        <ele>86</ele>
        <time>2022-02-09T11:07:10.808Z</time>
      </trkpt>
      <trkpt lat="48.33766" lon="2.73576">
        <ele>86</ele>
        <time>2022-02-09T11:07:15.802Z</time>
      </trkpt>
      <trkpt lat="48.3376" lon="2.73577">
        <ele>87</ele>
        <time>2022-02-09T11:07:20.799Z</time>
      </trkpt>
      <trkpt lat="48.33754" lon="2.7358">
        <ele>87</ele>
        <time>2022-02-09T11:07:25.798Z</time>
      </trkpt>
      <trkpt lat="48.33749" lon="2.73581">
        <ele>87</ele>
        <time>2022-02-09T11:07:29.800Z</time>
      </trkpt>
      <trkpt lat="48.33742" lon="2.73581">
        <ele>87</ele>
        <time>2022-02-09T11:07:34.792Z</time>
      </trkpt>
      <trkpt lat="48.33737" lon="2.73582">
        <ele>87</ele>
        <time>2022-02-09T11:07:38.808Z</time>
      </trkpt>
      <trkpt lat="48.33731" lon="2.73582">
        <ele>88</ele>
        <time>2022-02-09T11:07:43.815Z</time>
      </trkpt>
      <trkpt lat="48.33724" lon="2.73584">
        <ele>88</ele>
        <time>2022-02-09T11:07:48.801Z</time>
      </trkpt>
      <trkpt lat="48.33718" lon="2.73586">
        <ele>88</ele>
        <time>2022-02-09T11:07:53.798Z</time>
      </trkpt>
      <trkpt lat="48.33713" lon="2.73592">
        <ele>88</ele>
        <time>2022-02-09T11:07:58.799Z</time>
      </trkpt>
      <trkpt lat="48.33709" lon="2.736">
        <ele>87</ele>
        <time>2022-02-09T11:08:02.808Z</time>
      </trkpt>
      <trkpt lat="48.33706" lon="2.73607">
        <ele>85</ele>
        <time>2022-02-09T11:08:06.817Z</time>
      </trkpt>
      <trkpt lat="48.33705" lon="2.73618">
        <ele>85</ele>
        <time>2022-02-09T11:08:11.799Z</time>
      </trkpt>
      <trkpt lat="48.33705" lon="2.73627">
        <ele>84</ele>
        <time>2022-02-09T11:08:15.804Z</time>
      </trkpt>
      <trkpt lat="48.33705" lon="2.73637">
        <ele>84</ele>
        <time>2022-02-09T11:08:20.798Z</time>
      </trkpt>
      <trkpt lat="48.33705" lon="2.73646">
        <ele>84</ele>
        <time>2022-02-09T11:08:25.811Z</time>
      </trkpt>
      <trkpt lat="48.33705" lon="2.73656">
        <ele>83</ele>
        <time>2022-02-09T11:08:30.799Z</time>
      </trkpt>
      <trkpt lat="48.33705" lon="2.73664">
        <ele>83</ele>
        <time>2022-02-09T11:08:34.809Z</time>
      </trkpt>
      <trkpt lat="48.33705" lon="2.73676">
        <ele>83</ele>
        <time>2022-02-09T11:08:39.801Z</time>
      </trkpt>
      <trkpt lat="48.33705" lon="2.73686">
        <ele>83</ele>
        <time>2022-02-09T11:08:43.796Z</time>
      </trkpt>
      <trkpt lat="48.33705" lon="2.73696">
        <ele>83</ele>
        <time>2022-02-09T11:08:48.804Z</time>
      </trkpt>
      <trkpt lat="48.33704" lon="2.73706">
        <ele>83</ele>
        <time>2022-02-09T11:08:53.803Z</time>
      </trkpt>
      <trkpt lat="48.33704" lon="2.73716">
        <ele>84</ele>
        <time>2022-02-09T11:08:58.798Z</time>
      </trkpt>
      <trkpt lat="48.33704" lon="2.73724">
        <ele>84</ele>
        <time>2022-02-09T11:09:02.805Z</time>
      </trkpt>
      <trkpt lat="48.33704" lon="2.73735">
        <ele>84</ele>
        <time>2022-02-09T11:09:07.802Z</time>
      </trkpt>
      <trkpt lat="48.33704" lon="2.73743">
        <ele>84</ele>
        <time>2022-02-09T11:09:11.805Z</time>
      </trkpt>
      <trkpt lat="48.33704" lon="2.73753">
        <ele>84</ele>
        <time>2022-02-09T11:09:16.798Z</time>
      </trkpt>
      <trkpt lat="48.33705" lon="2.73763">
        <ele>84</ele>
        <time>2022-02-09T11:09:21.796Z</time>
      </trkpt>
      <trkpt lat="48.33704" lon="2.73773">
        <ele>85</ele>
        <time>2022-02-09T11:09:26.802Z</time>
      </trkpt>
      <trkpt lat="48.33704" lon="2.73781">
        <ele>85</ele>
        <time>2022-02-09T11:09:30.803Z</time>
      </trkpt>
      <trkpt lat="48.33704" lon="2.73788">
        <ele>85</ele>
        <time>2022-02-09T11:09:34.807Z</time>
      </trkpt>
      <trkpt lat="48.33704" lon="2.73797">
        <ele>85</ele>
        <time>2022-02-09T11:09:39.809Z</time>
      </trkpt>
      <trkpt lat="48.33704" lon="2.73806">
        <ele>85</ele>
        <time>2022-02-09T11:09:44.809Z</time>
      </trkpt>
      <trkpt lat="48.33703" lon="2.73816">
        <ele>85</ele>
        <time>2022-02-09T11:09:49.805Z</time>
      </trkpt>
      <trkpt lat="48.33703" lon="2.73827">
        <ele>85</ele>
        <time>2022-02-09T11:09:54.801Z</time>
      </trkpt>
      <trkpt lat="48.33703" lon="2.73837">
        <ele>85</ele>
        <time>2022-02-09T11:09:59.793Z</time>
      </trkpt>
      <trkpt lat="48.33703" lon="2.73844">
        <ele>85</ele>
        <time>2022-02-09T11:10:03.811Z</time>
      </trkpt>
      <trkpt lat="48.33703" lon="2.73855">
        <ele>84</ele>
        <time>2022-02-09T11:10:08.809Z</time>
      </trkpt>
      <trkpt lat="48.33703" lon="2.73864">
        <ele>84</ele>
        <time>2022-02-09T11:10:13.795Z</time>
      </trkpt>
      <trkpt lat="48.33702" lon="2.73872">
        <ele>84</ele>
        <time>2022-02-09T11:10:17.810Z</time>
      </trkpt>
      <trkpt lat="48.33702" lon="2.73882">
        <ele>84</ele>
        <time>2022-02-09T11:10:22.797Z</time>
      </trkpt>
      <trkpt lat="48.33701" lon="2.73891">
        <ele>84</ele>
        <time>2022-02-09T11:10:27.802Z</time>
      </trkpt>
      <trkpt lat="48.33701" lon="2.73902">
        <ele>84</ele>
        <time>2022-02-09T11:10:32.804Z</time>
      </trkpt>
      <trkpt lat="48.337" lon="2.73912">
        <ele>84</ele>
        <time>2022-02-09T11:10:37.799Z</time>
      </trkpt>
      <trkpt lat="48.337" lon="2.7392">
        <ele>84</ele>
        <time>2022-02-09T11:10:41.803Z</time>
      </trkpt>
      <trkpt lat="48.33699" lon="2.73928">
        <ele>84</ele>
        <time>2022-02-09T11:10:45.804Z</time>
      </trkpt>
      <trkpt lat="48.33699" lon="2.73938">
        <ele>84</ele>
        <time>2022-02-09T11:10:50.813Z</time>
      </trkpt>
      <trkpt lat="48.33699" lon="2.73948">
        <ele>84</ele>
        <time>2022-02-09T11:10:55.797Z</time>
      </trkpt>
      <trkpt lat="48.33699" lon="2.73956">
        <ele>84</ele>
        <time>2022-02-09T11:10:59.793Z</time>
      </trkpt>
      <trkpt lat="48.33701" lon="2.73963">
        <ele>84</ele>
        <time>2022-02-09T11:11:03.817Z</time>
      </trkpt>
      <trkpt lat="48.337" lon="2.73973">
        <ele>84</ele>
        <time>2022-02-09T11:11:08.803Z</time>
      </trkpt>
      <trkpt lat="48.33702" lon="2.7398">
        <ele>84</ele>
        <time>2022-02-09T11:11:13.802Z</time>
      </trkpt>
      <trkpt lat="48.33701" lon="2.73986">
        <ele>84</ele>
        <time>2022-02-09T11:11:17.811Z</time>
      </trkpt>
      <trkpt lat="48.33701" lon="2.73994">
        <ele>84</ele>
        <time>2022-02-09T11:11:22.803Z</time>
      </trkpt>
      <trkpt lat="48.33701" lon="2.74002">
        <ele>84</ele>
        <time>2022-02-09T11:11:27.797Z</time>
      </trkpt>
      <trkpt lat="48.33699" lon="2.74009">
        <ele>84</ele>
        <time>2022-02-09T11:11:31.797Z</time>
      </trkpt>
      <trkpt lat="48.33698" lon="2.74017">
        <ele>84</ele>
        <time>2022-02-09T11:11:35.804Z</time>
      </trkpt>
      <trkpt lat="48.33699" lon="2.74026">
        <ele>84</ele>
        <time>2022-02-09T11:11:40.807Z</time>
      </trkpt>
      <trkpt lat="48.337" lon="2.74036">
        <ele>84</ele>
        <time>2022-02-09T11:11:45.810Z</time>
      </trkpt>
      <trkpt lat="48.33699" lon="2.74046">
        <ele>84</ele>
        <time>2022-02-09T11:11:50.798Z</time>
      </trkpt>
      <trkpt lat="48.33698" lon="2.74055">
        <ele>84</ele>
        <time>2022-02-09T11:11:55.801Z</time>
      </trkpt>
      <trkpt lat="48.33697" lon="2.74062">
        <ele>84</ele>
        <time>2022-02-09T11:11:59.811Z</time>
      </trkpt>
      <trkpt lat="48.33697" lon="2.74072">
        <ele>83</ele>
        <time>2022-02-09T11:12:04.805Z</time>
      </trkpt>
      <trkpt lat="48.33696" lon="2.74082">
        <ele>83</ele>
        <time>2022-02-09T11:12:09.802Z</time>
      </trkpt>
      <trkpt lat="48.33695" lon="2.74091">
        <ele>83</ele>
        <time>2022-02-09T11:12:13.806Z</time>
      </trkpt>
      <trkpt lat="48.33695" lon="2.74101">
        <ele>82</ele>
        <time>2022-02-09T11:12:18.814Z</time>
      </trkpt>
      <trkpt lat="48.33695" lon="2.7411">
        <ele>82</ele>
        <time>2022-02-09T11:12:23.789Z</time>
      </trkpt>
      <trkpt lat="48.33694" lon="2.74117">
        <ele>82</ele>
        <time>2022-02-09T11:12:27.805Z</time>
      </trkpt>
      <trkpt lat="48.33694" lon="2.74128">
        <ele>82</ele>
        <time>2022-02-09T11:12:32.798Z</time>
      </trkpt>
      <trkpt lat="48.33693" lon="2.74135">
        <ele>82</ele>
        <time>2022-02-09T11:12:36.796Z</time>
      </trkpt>
      <trkpt lat="48.33692" lon="2.74143">
        <ele>82</ele>
        <time>2022-02-09T11:12:40.799Z</time>
      </trkpt>
      <trkpt lat="48.33691" lon="2.74152">
        <ele>82</ele>
        <time>2022-02-09T11:12:45.806Z</time>
      </trkpt>
      <trkpt lat="48.3369" lon="2.7416">
        <ele>81</ele>
        <time>2022-02-09T11:12:49.811Z</time>
      </trkpt>
      <trkpt lat="48.33689" lon="2.74169">
        <ele>81</ele>
        <time>2022-02-09T11:12:54.808Z</time>
      </trkpt>
      <trkpt lat="48.33687" lon="2.74178">
        <ele>81</ele>
        <time>2022-02-09T11:12:59.790Z</time>
      </trkpt>
      <trkpt lat="48.33686" lon="2.74186">
        <ele>80</ele>
        <time>2022-02-09T11:13:03.802Z</time>
      </trkpt>
      <trkpt lat="48.33684" lon="2.74196">
        <ele>80</ele>
        <time>2022-02-09T11:13:08.792Z</time>
      </trkpt>
      <trkpt lat="48.33684" lon="2.74203">
        <ele>80</ele>
        <time>2022-02-09T11:13:12.795Z</time>
      </trkpt>
      <trkpt lat="48.33688" lon="2.74207">
        <ele>80</ele>
        <time>2022-02-09T11:13:16.812Z</time>
      </trkpt>
      <trkpt lat="48.33692" lon="2.74205">
        <ele>80</ele>
        <time>2022-02-09T11:13:21.798Z</time>
      </trkpt>
      <trkpt lat="48.33697" lon="2.74205">
        <ele>80</ele>
        <time>2022-02-09T11:13:26.803Z</time>
      </trkpt>
      <trkpt lat="48.33702" lon="2.74203">
        <ele>80</ele>
        <time>2022-02-09T11:13:31.798Z</time>
      </trkpt>
      <trkpt lat="48.33707" lon="2.74203">
        <ele>80</ele>
        <time>2022-02-09T11:13:36.802Z</time>
      </trkpt>
      <trkpt lat="48.33712" lon="2.74202">
        <ele>82</ele>
        <time>2022-02-09T11:13:40.804Z</time>
      </trkpt>
      <trkpt lat="48.33718" lon="2.742">
        <ele>82</ele>
        <time>2022-02-09T11:13:45.795Z</time>
      </trkpt>
      <trkpt lat="48.33722" lon="2.742">
        <ele>82</ele>
        <time>2022-02-09T11:13:49.814Z</time>
      </trkpt>
      <trkpt lat="48.33724" lon="2.742">
        <ele>82</ele>
        <time>2022-02-09T11:13:53.814Z</time>
      </trkpt>
      <trkpt lat="48.33729" lon="2.74199">
        <ele>82</ele>
        <time>2022-02-09T11:13:58.816Z</time>
      </trkpt>
      <trkpt lat="48.33735" lon="2.74198">
        <ele>82</ele>
        <time>2022-02-09T11:14:03.795Z</time>
      </trkpt>
      <trkpt lat="48.33741" lon="2.74198">
        <ele>83</ele>
        <time>2022-02-09T11:14:08.806Z</time>
      </trkpt>
      <trkpt lat="48.33746" lon="2.74199">
        <ele>83</ele>
        <time>2022-02-09T11:14:13.795Z</time>
      </trkpt>
      <trkpt lat="48.33752" lon="2.74199">
        <ele>83</ele>
        <time>2022-02-09T11:14:18.804Z</time>
      </trkpt>
      <trkpt lat="48.33757" lon="2.74199">
        <ele>83</ele>
        <time>2022-02-09T11:14:23.797Z</time>
      </trkpt>
      <trkpt lat="48.33761" lon="2.74199">
        <ele>83</ele>
        <time>2022-02-09T11:14:27.799Z</time>
      </trkpt>
      <trkpt lat="48.33766" lon="2.74199">
        <ele>85</ele>
        <time>2022-02-09T11:14:32.802Z</time>
      </trkpt>
      <trkpt lat="48.3377" lon="2.74198">
        <ele>85</ele>
        <time>2022-02-09T11:14:36.810Z</time>
      </trkpt>
      <trkpt lat="48.33775" lon="2.74198">
        <ele>85</ele>
        <time>2022-02-09T11:14:41.807Z</time>
      </trkpt>
      <trkpt lat="48.33781" lon="2.74198">
        <ele>85</ele>
        <time>2022-02-09T11:14:46.815Z</time>
      </trkpt>
      <trkpt lat="48.33787" lon="2.74198">
        <ele>85</ele>
        <time>2022-02-09T11:14:51.799Z</time>
      </trkpt>
      <trkpt lat="48.33791" lon="2.74198">
        <ele>85</ele>
        <time>2022-02-09T11:14:55.813Z</time>
      </trkpt>
      <trkpt lat="48.33796" lon="2.74197">
        <ele>86</ele>
        <time>2022-02-09T11:15:00.805Z</time>
      </trkpt>
      <trkpt lat="48.33802" lon="2.74198">
        <ele>86</ele>
        <time>2022-02-09T11:15:05.801Z</time>
      </trkpt>
      <trkpt lat="48.33808" lon="2.74197">
        <ele>86</ele>
        <time>2022-02-09T11:15:10.809Z</time>
      </trkpt>
      <trkpt lat="48.33813" lon="2.74197">
        <ele>86</ele>
        <time>2022-02-09T11:15:15.803Z</time>
      </trkpt>
      <trkpt lat="48.33817" lon="2.74196">
        <ele>86</ele>
        <time>2022-02-09T11:15:19.804Z</time>
      </trkpt>
      <trkpt lat="48.33821" lon="2.74195">
        <ele>85</ele>
        <time>2022-02-09T11:15:23.810Z</time>
      </trkpt>
      <trkpt lat="48.33826" lon="2.74197">
        <ele>85</ele>
        <time>2022-02-09T11:15:28.810Z</time>
      </trkpt>
      <trkpt lat="48.33828" lon="2.74203">
        <ele>85</ele>
        <time>2022-02-09T11:15:32.803Z</time>
      </trkpt>
      <trkpt lat="48.33829" lon="2.74214">
        <ele>85</ele>
        <time>2022-02-09T11:15:37.810Z</time>
      </trkpt>
      <trkpt lat="48.33831" lon="2.74224">
        <ele>85</ele>
        <time>2022-02-09T11:15:42.801Z</time>
      </trkpt>
      <trkpt lat="48.33832" lon="2.74234">
        <ele>85</ele>
        <time>2022-02-09T11:15:47.805Z</time>
      </trkpt>
      <trkpt lat="48.33832" lon="2.74242">
        <ele>84</ele>
        <time>2022-02-09T11:15:51.807Z</time>
      </trkpt>
      <trkpt lat="48.33833" lon="2.74252">
        <ele>84</ele>
        <time>2022-02-09T11:15:56.807Z</time>
      </trkpt>
      <trkpt lat="48.33833" lon="2.74264">
        <ele>84</ele>
        <time>2022-02-09T11:16:01.803Z</time>
      </trkpt>
      <trkpt lat="48.33834" lon="2.74275">
        <ele>84</ele>
        <time>2022-02-09T11:16:06.795Z</time>
      </trkpt>
      <trkpt lat="48.33834" lon="2.74284">
        <ele>84</ele>
        <time>2022-02-09T11:16:10.804Z</time>
      </trkpt>
      <trkpt lat="48.33835" lon="2.74294">
        <ele>84</ele>
        <time>2022-02-09T11:16:15.797Z</time>
      </trkpt>
      <trkpt lat="48.33835" lon="2.74304">
        <ele>84</ele>
        <time>2022-02-09T11:16:20.794Z</time>
      </trkpt>
      <trkpt lat="48.33836" lon="2.74315">
        <ele>84</ele>
        <time>2022-02-09T11:16:25.803Z</time>
      </trkpt>
      <trkpt lat="48.3384" lon="2.74324">
        <ele>82</ele>
        <time>2022-02-09T11:16:30.806Z</time>
      </trkpt>
      <trkpt lat="48.33846" lon="2.74328">
        <ele>82</ele>
        <time>2022-02-09T11:16:35.799Z</time>
      </trkpt>
      <trkpt lat="48.33851" lon="2.74329">
        <ele>83</ele>
        <time>2022-02-09T11:16:39.817Z</time>
      </trkpt>
      <trkpt lat="48.33857" lon="2.74328">
        <ele>83</ele>
        <time>2022-02-09T11:16:44.808Z</time>
      </trkpt>
      <trkpt lat="48.33863" lon="2.74328">
        <ele>83</ele>
        <time>2022-02-09T11:16:48.812Z</time>
      </trkpt>
      <trkpt lat="48.33868" lon="2.74333">
        <ele>83</ele>
        <time>2022-02-09T11:16:53.801Z</time>
      </trkpt>
      <trkpt lat="48.33869" lon="2.74343">
        <ele>83</ele>
        <time>2022-02-09T11:16:58.808Z</time>
      </trkpt>
      <trkpt lat="48.33869" lon="2.74352">
        <ele>81</ele>
        <time>2022-02-09T11:17:03.800Z</time>
      </trkpt>
      <trkpt lat="48.3387" lon="2.7436">
        <ele>81</ele>
        <time>2022-02-09T11:17:07.804Z</time>
      </trkpt>
      <trkpt lat="48.33869" lon="2.7437">
        <ele>81</ele>
        <time>2022-02-09T11:17:12.796Z</time>
      </trkpt>
      <trkpt lat="48.3387" lon="2.7438">
        <ele>79</ele>
        <time>2022-02-09T11:17:17.806Z</time>
      </trkpt>
      <trkpt lat="48.33871" lon="2.7439">
        <ele>79</ele>
        <time>2022-02-09T11:17:22.797Z</time>
      </trkpt>
      <trkpt lat="48.33872" lon="2.74397">
        <ele>79</ele>
        <time>2022-02-09T11:17:26.808Z</time>
      </trkpt>
      <trkpt lat="48.33872" lon="2.74407">
        <ele>78</ele>
        <time>2022-02-09T11:17:31.798Z</time>
      </trkpt>
      <trkpt lat="48.33873" lon="2.74414">
        <ele>78</ele>
        <time>2022-02-09T11:17:35.802Z</time>
      </trkpt>
      <trkpt lat="48.33872" lon="2.74422">
        <ele>78</ele>
        <time>2022-02-09T11:17:39.818Z</time>
      </trkpt>
      <trkpt lat="48.33872" lon="2.74432">
        <ele>78</ele>
        <time>2022-02-09T11:17:44.795Z</time>
      </trkpt>
      <trkpt lat="48.33874" lon="2.74442">
        <ele>78</ele>
        <time>2022-02-09T11:17:49.803Z</time>
      </trkpt>
      <trkpt lat="48.33874" lon="2.74449">
        <ele>78</ele>
        <time>2022-02-09T11:17:53.803Z</time>
      </trkpt>
      <trkpt lat="48.33875" lon="2.74457">
        <ele>79</ele>
        <time>2022-02-09T11:17:57.812Z</time>
      </trkpt>
      <trkpt lat="48.33875" lon="2.74466">
        <ele>79</ele>
        <time>2022-02-09T11:18:02.803Z</time>
      </trkpt>
      <trkpt lat="48.33875" lon="2.74472">
        <ele>79</ele>
        <time>2022-02-09T11:18:06.811Z</time>
      </trkpt>
      <trkpt lat="48.33872" lon="2.74479">
        <ele>79</ele>
        <time>2022-02-09T11:18:11.803Z</time>
      </trkpt>
      <trkpt lat="48.33867" lon="2.74482">
        <ele>79</ele>
        <time>2022-02-09T11:18:25.801Z</time>
      </trkpt>
      <trkpt lat="48.33864" lon="2.74483">
        <ele>79</ele>
        <time>2022-02-09T11:18:29.811Z</time>
      </trkpt>
      <trkpt lat="48.33865" lon="2.74491">
        <ele>80</ele>
        <time>2022-02-09T11:18:34.802Z</time>
      </trkpt>
      <trkpt lat="48.33869" lon="2.74492">
        <ele>80</ele>
        <time>2022-02-09T11:18:38.814Z</time>
      </trkpt>
      <trkpt lat="48.33873" lon="2.74495">
        <ele>80</ele>
        <time>2022-02-09T11:18:43.806Z</time>
      </trkpt>
      <trkpt lat="48.33879" lon="2.74496">
        <ele>81</ele>
        <time>2022-02-09T11:18:48.804Z</time>
      </trkpt>
      <trkpt lat="48.33884" lon="2.74498">
        <ele>81</ele>
        <time>2022-02-09T11:18:53.798Z</time>
      </trkpt>
      <trkpt lat="48.33888" lon="2.74499">
        <ele>81</ele>
        <time>2022-02-09T11:18:57.806Z</time>
      </trkpt>
      <trkpt lat="48.33893" lon="2.745">
        <ele>81</ele>
        <time>2022-02-09T11:19:02.803Z</time>
      </trkpt>
      <trkpt lat="48.33896" lon="2.74504">
        <ele>81</ele>
        <time>2022-02-09T11:19:06.811Z</time>
      </trkpt>
      <trkpt lat="48.339" lon="2.74508">
        <ele>81</ele>
        <time>2022-02-09T11:19:11.809Z</time>
      </trkpt>
      <trkpt lat="48.33904" lon="2.74513">
        <ele>81</ele>
        <time>2022-02-09T11:19:16.815Z</time>
      </trkpt>
      <trkpt lat="48.33909" lon="2.74517">
        <ele>84</ele>
        <time>2022-02-09T11:19:21.804Z</time>
      </trkpt>
      <trkpt lat="48.33913" lon="2.74521">
        <ele>84</ele>
        <time>2022-02-09T11:19:25.806Z</time>
      </trkpt>
      <trkpt lat="48.33918" lon="2.74525">
        <ele>84</ele>
        <time>2022-02-09T11:19:30.809Z</time>
      </trkpt>
      <trkpt lat="48.33922" lon="2.74529">
        <ele>84</ele>
        <time>2022-02-09T11:19:35.813Z</time>
      </trkpt>
      <trkpt lat="48.33927" lon="2.74534">
        <ele>84</ele>
        <time>2022-02-09T11:19:40.809Z</time>
      </trkpt>
      <trkpt lat="48.3393" lon="2.7454">
        <ele>84</ele>
        <time>2022-02-09T11:19:45.806Z</time>
      </trkpt>
      <trkpt lat="48.33932" lon="2.74544">
        <ele>89</ele>
        <time>2022-02-09T11:19:49.811Z</time>
      </trkpt>
      <trkpt lat="48.33934" lon="2.74552">
        <ele>89</ele>
        <time>2022-02-09T11:19:54.803Z</time>
      </trkpt>
      <trkpt lat="48.33936" lon="2.74561">
        <ele>89</ele>
        <time>2022-02-09T11:19:59.801Z</time>
      </trkpt>
      <trkpt lat="48.33938" lon="2.74568">
        <ele>89</ele>
        <time>2022-02-09T11:20:04.812Z</time>
      </trkpt>
      <trkpt lat="48.3394" lon="2.74574">
        <ele>90</ele>
        <time>2022-02-09T11:20:08.815Z</time>
      </trkpt>
      <trkpt lat="48.3394" lon="2.74581">
        <ele>90</ele>
        <time>2022-02-09T11:20:13.813Z</time>
      </trkpt>
      <trkpt lat="48.3394" lon="2.7459">
        <ele>90</ele>
        <time>2022-02-09T11:20:18.804Z</time>
      </trkpt>
      <trkpt lat="48.3394" lon="2.74598">
        <ele>91</ele>
        <time>2022-02-09T11:20:22.799Z</time>
      </trkpt>
      <trkpt lat="48.3394" lon="2.74606">
        <ele>91</ele>
        <time>2022-02-09T11:20:26.811Z</time>
      </trkpt>
      <trkpt lat="48.3394" lon="2.74616">
        <ele>91</ele>
        <time>2022-02-09T11:20:31.808Z</time>
      </trkpt>
      <trkpt lat="48.3394" lon="2.74626">
        <ele>92</ele>
        <time>2022-02-09T11:20:36.803Z</time>
      </trkpt>
      <trkpt lat="48.33941" lon="2.74636">
        <ele>92</ele>
        <time>2022-02-09T11:20:41.803Z</time>
      </trkpt>
      <trkpt lat="48.33941" lon="2.74646">
        <ele>92</ele>
        <time>2022-02-09T11:20:46.803Z</time>
      </trkpt>
      <trkpt lat="48.33941" lon="2.74655">
        <ele>93</ele>
        <time>2022-02-09T11:20:51.808Z</time>
      </trkpt>
      <trkpt lat="48.33941" lon="2.74665">
        <ele>93</ele>
        <time>2022-02-09T11:20:56.806Z</time>
      </trkpt>
      <trkpt lat="48.33941" lon="2.74673">
        <ele>93</ele>
        <time>2022-02-09T11:21:00.809Z</time>
      </trkpt>
      <trkpt lat="48.33941" lon="2.74683">
        <ele>95</ele>
        <time>2022-02-09T11:21:05.796Z</time>
      </trkpt>
      <trkpt lat="48.33941" lon="2.74692">
        <ele>95</ele>
        <time>2022-02-09T11:21:09.796Z</time>
      </trkpt>
      <trkpt lat="48.3394" lon="2.747">
        <ele>95</ele>
        <time>2022-02-09T11:21:13.815Z</time>
      </trkpt>
      <trkpt lat="48.3394" lon="2.74711">
        <ele>96</ele>
        <time>2022-02-09T11:21:18.799Z</time>
      </trkpt>
      <trkpt lat="48.33939" lon="2.74719">
        <ele>96</ele>
        <time>2022-02-09T11:21:22.819Z</time>
      </trkpt>
      <trkpt lat="48.3394" lon="2.74728">
        <ele>96</ele>
        <time>2022-02-09T11:21:27.804Z</time>
      </trkpt>
      <trkpt lat="48.33941" lon="2.74738">
        <ele>96</ele>
        <time>2022-02-09T11:21:32.804Z</time>
      </trkpt>
      <trkpt lat="48.33941" lon="2.74749">
        <ele>96</ele>
        <time>2022-02-09T11:21:37.809Z</time>
      </trkpt>
      <trkpt lat="48.33941" lon="2.74759">
        <ele>96</ele>
        <time>2022-02-09T11:21:42.801Z</time>
      </trkpt>
      <trkpt lat="48.33941" lon="2.74767">
        <ele>97</ele>
        <time>2022-02-09T11:21:46.809Z</time>
      </trkpt>
      <trkpt lat="48.33942" lon="2.74776">
        <ele>97</ele>
        <time>2022-02-09T11:21:51.808Z</time>
      </trkpt>
      <trkpt lat="48.33941" lon="2.74786">
        <ele>97</ele>
        <time>2022-02-09T11:21:56.804Z</time>
      </trkpt>
      <trkpt lat="48.33941" lon="2.74796">
        <ele>97</ele>
        <time>2022-02-09T11:22:01.804Z</time>
      </trkpt>
      <trkpt lat="48.3394" lon="2.74806">
        <ele>97</ele>
        <time>2022-02-09T11:22:06.838Z</time>
      </trkpt>
      <trkpt lat="48.33939" lon="2.74816">
        <ele>97</ele>
        <time>2022-02-09T11:22:11.806Z</time>
      </trkpt>
      <trkpt lat="48.33937" lon="2.74822">
        <ele>98</ele>
        <time>2022-02-09T11:22:15.837Z</time>
      </trkpt>
      <trkpt lat="48.33936" lon="2.74833">
        <ele>98</ele>
        <time>2022-02-09T11:22:20.791Z</time>
      </trkpt>
      <trkpt lat="48.33937" lon="2.74841">
        <ele>98</ele>
        <time>2022-02-09T11:22:24.803Z</time>
      </trkpt>
      <trkpt lat="48.33938" lon="2.7485">
        <ele>98</ele>
        <time>2022-02-09T11:22:29.806Z</time>
      </trkpt>
      <trkpt lat="48.33939" lon="2.74858">
        <ele>98</ele>
        <time>2022-02-09T11:22:33.835Z</time>
      </trkpt>
      <trkpt lat="48.33939" lon="2.74867">
        <ele>98</ele>
        <time>2022-02-09T11:22:38.845Z</time>
      </trkpt>
      <trkpt lat="48.33939" lon="2.74877">
        <ele>99</ele>
        <time>2022-02-09T11:22:43.834Z</time>
      </trkpt>
      <trkpt lat="48.3394" lon="2.74887">
        <ele>99</ele>
        <time>2022-02-09T11:22:48.797Z</time>
      </trkpt>
      <trkpt lat="48.33941" lon="2.74895">
        <ele>99</ele>
        <time>2022-02-09T11:22:52.803Z</time>
      </trkpt>
      <trkpt lat="48.33942" lon="2.74902">
        <ele>99</ele>
        <time>2022-02-09T11:22:56.806Z</time>
      </trkpt>
      <trkpt lat="48.33943" lon="2.7491">
        <ele>100</ele>
        <time>2022-02-09T11:23:00.806Z</time>
      </trkpt>
      <trkpt lat="48.33944" lon="2.74919">
        <ele>100</ele>
        <time>2022-02-09T11:23:05.808Z</time>
      </trkpt>
      <trkpt lat="48.33945" lon="2.74928">
        <ele>100</ele>
        <time>2022-02-09T11:23:09.804Z</time>
      </trkpt>
      <trkpt lat="48.33948" lon="2.74937">
        <ele>101</ele>
        <time>2022-02-09T11:23:14.812Z</time>
      </trkpt>
      <trkpt lat="48.3395" lon="2.74946">
        <ele>101</ele>
        <time>2022-02-09T11:23:19.803Z</time>
      </trkpt>
      <trkpt lat="48.33951" lon="2.74956">
        <ele>101</ele>
        <time>2022-02-09T11:23:24.808Z</time>
      </trkpt>
      <trkpt lat="48.33953" lon="2.74963">
        <ele>101</ele>
        <time>2022-02-09T11:23:28.830Z</time>
      </trkpt>
      <trkpt lat="48.33954" lon="2.7497">
        <ele>101</ele>
        <time>2022-02-09T11:23:32.827Z</time>
      </trkpt>
      <trkpt lat="48.33954" lon="2.74979">
        <ele>101</ele>
        <time>2022-02-09T11:23:37.813Z</time>
      </trkpt>
      <trkpt lat="48.33957" lon="2.74989">
        <ele>100</ele>
        <time>2022-02-09T11:23:42.807Z</time>
      </trkpt>
      <trkpt lat="48.33959" lon="2.74998">
        <ele>101</ele>
        <time>2022-02-09T11:23:47.808Z</time>
      </trkpt>
      <trkpt lat="48.3396" lon="2.75006">
        <ele>101</ele>
        <time>2022-02-09T11:23:51.801Z</time>
      </trkpt>
      <trkpt lat="48.33961" lon="2.75015">
        <ele>101</ele>
        <time>2022-02-09T11:23:56.801Z</time>
      </trkpt>
      <trkpt lat="48.33961" lon="2.75023">
        <ele>101</ele>
        <time>2022-02-09T11:24:00.816Z</time>
      </trkpt>
      <trkpt lat="48.33962" lon="2.75033">
        <ele>101</ele>
        <time>2022-02-09T11:24:05.805Z</time>
      </trkpt>
      <trkpt lat="48.33963" lon="2.75042">
        <ele>100</ele>
        <time>2022-02-09T11:24:10.805Z</time>
      </trkpt>
      <trkpt lat="48.33964" lon="2.75051">
        <ele>100</ele>
        <time>2022-02-09T11:24:15.807Z</time>
      </trkpt>
      <trkpt lat="48.33965" lon="2.75061">
        <ele>100</ele>
        <time>2022-02-09T11:24:20.803Z</time>
      </trkpt>
      <trkpt lat="48.33964" lon="2.75071">
        <ele>99</ele>
        <time>2022-02-09T11:24:25.801Z</time>
      </trkpt>
      <trkpt lat="48.33964" lon="2.75079">
        <ele>99</ele>
        <time>2022-02-09T11:24:29.819Z</time>
      </trkpt>
      <trkpt lat="48.33965" lon="2.75087">
        <ele>99</ele>
        <time>2022-02-09T11:24:33.840Z</time>
      </trkpt>
      <trkpt lat="48.33967" lon="2.75096">
        <ele>99</ele>
        <time>2022-02-09T11:24:38.830Z</time>
      </trkpt>
      <trkpt lat="48.33968" lon="2.75104">
        <ele>98</ele>
        <time>2022-02-09T11:24:42.831Z</time>
      </trkpt>
      <trkpt lat="48.33969" lon="2.75112">
        <ele>98</ele>
        <time>2022-02-09T11:24:46.847Z</time>
      </trkpt>
      <trkpt lat="48.33968" lon="2.75121">
        <ele>98</ele>
        <time>2022-02-09T11:24:51.807Z</time>
      </trkpt>
      <trkpt lat="48.33966" lon="2.75131">
        <ele>98</ele>
        <time>2022-02-09T11:24:56.812Z</time>
      </trkpt>
      <trkpt lat="48.33963" lon="2.75138">
        <ele>98</ele>
        <time>2022-02-09T11:25:01.808Z</time>
      </trkpt>
      <trkpt lat="48.33961" lon="2.75146">
        <ele>98</ele>
        <time>2022-02-09T11:25:05.808Z</time>
      </trkpt>
      <trkpt lat="48.33958" lon="2.75154">
        <ele>97</ele>
        <time>2022-02-09T11:25:10.801Z</time>
      </trkpt>
      <trkpt lat="48.33955" lon="2.75162">
        <ele>97</ele>
        <time>2022-02-09T11:25:15.806Z</time>
      </trkpt>
      <trkpt lat="48.33953" lon="2.7517">
        <ele>97</ele>
        <time>2022-02-09T11:25:20.806Z</time>
      </trkpt>
      <trkpt lat="48.33951" lon="2.75177">
        <ele>97</ele>
        <time>2022-02-09T11:25:24.807Z</time>
      </trkpt>
      <trkpt lat="48.33949" lon="2.75184">
        <ele>96</ele>
        <time>2022-02-09T11:25:28.828Z</time>
      </trkpt>
      <trkpt lat="48.33948" lon="2.75193">
        <ele>96</ele>
        <time>2022-02-09T11:25:33.833Z</time>
      </trkpt>
      <trkpt lat="48.33948" lon="2.75203">
        <ele>96</ele>
        <time>2022-02-09T11:25:38.824Z</time>
      </trkpt>
      <trkpt lat="48.33946" lon="2.75212">
        <ele>95</ele>
        <time>2022-02-09T11:25:43.792Z</time>
      </trkpt>
      <trkpt lat="48.33945" lon="2.75222">
        <ele>95</ele>
        <time>2022-02-09T11:25:48.812Z</time>
      </trkpt>
      <trkpt lat="48.33944" lon="2.75231">
        <ele>95</ele>
        <time>2022-02-09T11:25:52.812Z</time>
      </trkpt>
      <trkpt lat="48.33943" lon="2.75245">
        <ele>94</ele>
        <time>2022-02-09T11:25:58.836Z</time>
      </trkpt>
      <trkpt lat="48.33942" lon="2.75253">
        <ele>94</ele>
        <time>2022-02-09T11:26:02.841Z</time>
      </trkpt>
      <trkpt lat="48.33941" lon="2.75263">
        <ele>94</ele>
        <time>2022-02-09T11:26:07.794Z</time>
      </trkpt>
      <trkpt lat="48.3394" lon="2.75271">
        <ele>93</ele>
        <time>2022-02-09T11:26:11.823Z</time>
      </trkpt>
      <trkpt lat="48.33939" lon="2.75281">
        <ele>93</ele>
        <time>2022-02-09T11:26:16.794Z</time>
      </trkpt>
      <trkpt lat="48.33938" lon="2.75289">
        <ele>93</ele>
        <time>2022-02-09T11:26:20.809Z</time>
      </trkpt>
      <trkpt lat="48.33936" lon="2.753">
        <ele>92</ele>
        <time>2022-02-09T11:26:25.803Z</time>
      </trkpt>
      <trkpt lat="48.33935" lon="2.75309">
        <ele>92</ele>
        <time>2022-02-09T11:26:29.814Z</time>
      </trkpt>
      <trkpt lat="48.33933" lon="2.75318">
        <ele>92</ele>
        <time>2022-02-09T11:26:34.907Z</time>
      </trkpt>
      <trkpt lat="48.33932" lon="2.75328">
        <ele>91</ele>
        <time>2022-02-09T11:26:39.806Z</time>
      </trkpt>
      <trkpt lat="48.33931" lon="2.75337">
        <ele>91</ele>
        <time>2022-02-09T11:26:43.838Z</time>
      </trkpt>
      <trkpt lat="48.33928" lon="2.75346">
        <ele>89</ele>
        <time>2022-02-09T11:26:48.804Z</time>
      </trkpt>
      <trkpt lat="48.33925" lon="2.75352">
        <ele>89</ele>
        <time>2022-02-09T11:26:52.840Z</time>
      </trkpt>
      <trkpt lat="48.33923" lon="2.75362">
        <ele>89</ele>
        <time>2022-02-09T11:26:57.856Z</time>
      </trkpt>
      <trkpt lat="48.33921" lon="2.75371">
        <ele>89</ele>
        <time>2022-02-09T11:27:02.834Z</time>
      </trkpt>
      <trkpt lat="48.33918" lon="2.7538">
        <ele>89</ele>
        <time>2022-02-09T11:27:07.804Z</time>
      </trkpt>
      <trkpt lat="48.33916" lon="2.75388">
        <ele>89</ele>
        <time>2022-02-09T11:27:11.807Z</time>
      </trkpt>
      <trkpt lat="48.33914" lon="2.75398">
        <ele>89</ele>
        <time>2022-02-09T11:27:16.810Z</time>
      </trkpt>
      <trkpt lat="48.33911" lon="2.75409">
        <ele>89</ele>
        <time>2022-02-09T11:27:21.807Z</time>
      </trkpt>
      <trkpt lat="48.33908" lon="2.75418">
        <ele>89</ele>
        <time>2022-02-09T11:27:26.801Z</time>
      </trkpt>
      <trkpt lat="48.33906" lon="2.75425">
        <ele>89</ele>
        <time>2022-02-09T11:27:30.805Z</time>
      </trkpt>
      <trkpt lat="48.33903" lon="2.75435">
        <ele>89</ele>
        <time>2022-02-09T11:27:35.805Z</time>
      </trkpt>
      <trkpt lat="48.33902" lon="2.75442">
        <ele>91</ele>
        <time>2022-02-09T11:27:39.807Z</time>
      </trkpt>
      <trkpt lat="48.339" lon="2.75452">
        <ele>91</ele>
        <time>2022-02-09T11:27:44.807Z</time>
      </trkpt>
      <trkpt lat="48.33899" lon="2.75459">
        <ele>89</ele>
        <time>2022-02-09T11:27:48.858Z</time>
      </trkpt>
      <trkpt lat="48.33896" lon="2.75468">
        <ele>89</ele>
        <time>2022-02-09T11:27:53.807Z</time>
      </trkpt>
      <trkpt lat="48.33895" lon="2.75477">
        <ele>89</ele>
        <time>2022-02-09T11:27:58.806Z</time>
      </trkpt>
      <trkpt lat="48.33894" lon="2.75486">
        <ele>89</ele>
        <time>2022-02-09T11:28:02.836Z</time>
      </trkpt>
      <trkpt lat="48.33893" lon="2.75494">
        <ele>87</ele>
        <time>2022-02-09T11:28:06.870Z</time>
      </trkpt>
      <trkpt lat="48.33892" lon="2.75503">
        <ele>87</ele>
        <time>2022-02-09T11:28:11.803Z</time>
      </trkpt>
      <trkpt lat="48.33892" lon="2.75511">
        <ele>87</ele>
        <time>2022-02-09T11:28:15.848Z</time>
      </trkpt>
      <trkpt lat="48.33891" lon="2.7552">
        <ele>86</ele>
        <time>2022-02-09T11:28:20.814Z</time>
      </trkpt>
      <trkpt lat="48.33892" lon="2.75531">
        <ele>86</ele>
        <time>2022-02-09T11:28:25.801Z</time>
      </trkpt>
      <trkpt lat="48.33892" lon="2.75541">
        <ele>86</ele>
        <time>2022-02-09T11:28:30.847Z</time>
      </trkpt>
      <trkpt lat="48.33893" lon="2.75552">
        <ele>85</ele>
        <time>2022-02-09T11:28:35.802Z</time>
      </trkpt>
      <trkpt lat="48.33892" lon="2.7556">
        <ele>85</ele>
        <time>2022-02-09T11:28:39.809Z</time>
      </trkpt>
      <trkpt lat="48.33893" lon="2.75569">
        <ele>85</ele>
        <time>2022-02-09T11:28:43.827Z</time>
      </trkpt>
      <trkpt lat="48.33893" lon="2.75579">
        <ele>84</ele>
        <time>2022-02-09T11:28:48.808Z</time>
      </trkpt>
      <trkpt lat="48.33893" lon="2.7559">
        <ele>84</ele>
        <time>2022-02-09T11:28:53.830Z</time>
      </trkpt>
      <trkpt lat="48.33893" lon="2.75599">
        <ele>84</ele>
        <time>2022-02-09T11:28:57.848Z</time>
      </trkpt>
      <trkpt lat="48.33892" lon="2.75609">
        <ele>84</ele>
        <time>2022-02-09T11:29:02.836Z</time>
      </trkpt>
      <trkpt lat="48.33892" lon="2.75619">
        <ele>84</ele>
        <time>2022-02-09T11:29:07.810Z</time>
      </trkpt>
      <trkpt lat="48.33891" lon="2.75627">
        <ele>85</ele>
        <time>2022-02-09T11:29:11.863Z</time>
      </trkpt>
      <trkpt lat="48.33891" lon="2.75638">
        <ele>85</ele>
        <time>2022-02-09T11:29:16.805Z</time>
      </trkpt>
      <trkpt lat="48.33892" lon="2.75645">
        <ele>85</ele>
        <time>2022-02-09T11:29:20.805Z</time>
      </trkpt>
      <trkpt lat="48.33892" lon="2.75656">
        <ele>85</ele>
        <time>2022-02-09T11:29:25.808Z</time>
      </trkpt>
      <trkpt lat="48.33892" lon="2.75666">
        <ele>85</ele>
        <time>2022-02-09T11:29:30.806Z</time>
      </trkpt>
      <trkpt lat="48.33892" lon="2.75679">
        <ele>85</ele>
        <time>2022-02-09T11:29:35.803Z</time>
      </trkpt>
      <trkpt lat="48.33892" lon="2.75686">
        <ele>85</ele>
        <time>2022-02-09T11:29:39.816Z</time>
      </trkpt>
      <trkpt lat="48.33893" lon="2.75695">
        <ele>85</ele>
        <time>2022-02-09T11:29:44.798Z</time>
      </trkpt>
      <trkpt lat="48.33894" lon="2.75703">
        <ele>85</ele>
        <time>2022-02-09T11:29:48.840Z</time>
      </trkpt>
      <trkpt lat="48.33894" lon="2.75713">
        <ele>84</ele>
        <time>2022-02-09T11:29:53.835Z</time>
      </trkpt>
      <trkpt lat="48.33895" lon="2.75722">
        <ele>84</ele>
        <time>2022-02-09T11:29:58.805Z</time>
      </trkpt>
      <trkpt lat="48.33897" lon="2.75732">
        <ele>84</ele>
        <time>2022-02-09T11:30:03.803Z</time>
      </trkpt>
      <trkpt lat="48.33899" lon="2.75742">
        <ele>84</ele>
        <time>2022-02-09T11:30:08.808Z</time>
      </trkpt>
      <trkpt lat="48.33901" lon="2.75752">
        <ele>84</ele>
        <time>2022-02-09T11:30:13.809Z</time>
      </trkpt>
      <trkpt lat="48.33902" lon="2.75758">
        <ele>84</ele>
        <time>2022-02-09T11:30:17.855Z</time>
      </trkpt>
      <trkpt lat="48.33904" lon="2.75769">
        <ele>84</ele>
        <time>2022-02-09T11:30:22.928Z</time>
      </trkpt>
      <trkpt lat="48.33906" lon="2.75779">
        <ele>84</ele>
        <time>2022-02-09T11:30:27.809Z</time>
      </trkpt>
      <trkpt lat="48.33906" lon="2.75787">
        <ele>84</ele>
        <time>2022-02-09T11:30:31.812Z</time>
      </trkpt>
      <trkpt lat="48.33906" lon="2.75796">
        <ele>82</ele>
        <time>2022-02-09T11:30:36.805Z</time>
      </trkpt>
      <trkpt lat="48.33906" lon="2.75803">
        <ele>82</ele>
        <time>2022-02-09T11:30:40.812Z</time>
      </trkpt>
      <trkpt lat="48.33906" lon="2.75812">
        <ele>82</ele>
        <time>2022-02-09T11:30:45.806Z</time>
      </trkpt>
      <trkpt lat="48.33907" lon="2.75819">
        <ele>80</ele>
        <time>2022-02-09T11:30:49.809Z</time>
      </trkpt>
      <trkpt lat="48.33908" lon="2.75826">
        <ele>80</ele>
        <time>2022-02-09T11:30:53.845Z</time>
      </trkpt>
      <trkpt lat="48.33911" lon="2.75834">
        <ele>80</ele>
        <time>2022-02-09T11:30:58.796Z</time>
      </trkpt>
      <trkpt lat="48.33912" lon="2.75843">
        <ele>80</ele>
        <time>2022-02-09T11:31:03.804Z</time>
      </trkpt>
      <trkpt lat="48.33912" lon="2.75851">
        <ele>78</ele>
        <time>2022-02-09T11:31:07.847Z</time>
      </trkpt>
      <trkpt lat="48.33912" lon="2.7586">
        <ele>78</ele>
        <time>2022-02-09T11:31:12.814Z</time>
      </trkpt>
      <trkpt lat="48.33911" lon="2.7587">
        <ele>78</ele>
        <time>2022-02-09T11:31:17.842Z</time>
      </trkpt>
      <trkpt lat="48.3391" lon="2.7588">
        <ele>77</ele>
        <time>2022-02-09T11:31:22.800Z</time>
      </trkpt>
      <trkpt lat="48.33909" lon="2.75887">
        <ele>77</ele>
        <time>2022-02-09T11:31:26.808Z</time>
      </trkpt>
      <trkpt lat="48.3391" lon="2.75894">
        <ele>77</ele>
        <time>2022-02-09T11:31:30.819Z</time>
      </trkpt>
      <trkpt lat="48.33916" lon="2.75891">
        <ele>77</ele>
        <time>2022-02-09T11:31:35.810Z</time>
      </trkpt>
      <trkpt lat="48.3392" lon="2.75888">
        <ele>77</ele>
        <time>2022-02-09T11:31:40.812Z</time>
      </trkpt>
      <trkpt lat="48.33925" lon="2.75882">
        <ele>77</ele>
        <time>2022-02-09T11:31:45.802Z</time>
      </trkpt>
      <trkpt lat="48.33929" lon="2.75876">
        <ele>77</ele>
        <time>2022-02-09T11:31:50.805Z</time>
      </trkpt>
      <trkpt lat="48.33933" lon="2.7587">
        <ele>80</ele>
        <time>2022-02-09T11:31:55.804Z</time>
      </trkpt>
      <trkpt lat="48.33937" lon="2.75863">
        <ele>80</ele>
        <time>2022-02-09T11:32:00.806Z</time>
      </trkpt>
      <trkpt lat="48.33941" lon="2.75857">
        <ele>80</ele>
        <time>2022-02-09T11:32:05.801Z</time>
      </trkpt>
      <trkpt lat="48.33944" lon="2.75852">
        <ele>80</ele>
        <time>2022-02-09T11:32:09.817Z</time>
      </trkpt>
      <trkpt lat="48.33949" lon="2.75845">
        <ele>83</ele>
        <time>2022-02-09T11:32:14.805Z</time>
      </trkpt>
      <trkpt lat="48.33953" lon="2.75841">
        <ele>83</ele>
        <time>2022-02-09T11:32:18.812Z</time>
      </trkpt>
      <trkpt lat="48.33958" lon="2.75835">
        <ele>83</ele>
        <time>2022-02-09T11:32:23.809Z</time>
      </trkpt>
      <trkpt lat="48.33961" lon="2.7583">
        <ele>85</ele>
        <time>2022-02-09T11:32:27.818Z</time>
      </trkpt>
      <trkpt lat="48.33965" lon="2.75823">
        <ele>85</ele>
        <time>2022-02-09T11:32:32.807Z</time>
      </trkpt>
      <trkpt lat="48.3397" lon="2.75817">
        <ele>86</ele>
        <time>2022-02-09T11:32:37.802Z</time>
      </trkpt>
      <trkpt lat="48.33975" lon="2.75813">
        <ele>86</ele>
        <time>2022-02-09T11:32:42.811Z</time>
      </trkpt>
      <trkpt lat="48.3398" lon="2.75813">
        <ele>86</ele>
        <time>2022-02-09T11:32:46.841Z</time>
      </trkpt>
      <trkpt lat="48.33985" lon="2.75819">
        <ele>86</ele>
        <time>2022-02-09T11:32:51.806Z</time>
      </trkpt>
      <trkpt lat="48.33987" lon="2.75826">
        <ele>87</ele>
        <time>2022-02-09T11:32:55.816Z</time>
      </trkpt>
      <trkpt lat="48.33989" lon="2.75835">
        <ele>87</ele>
        <time>2022-02-09T11:33:00.810Z</time>
      </trkpt>
      <trkpt lat="48.33993" lon="2.75843">
        <ele>87</ele>
        <time>2022-02-09T11:33:05.843Z</time>
      </trkpt>
      <trkpt lat="48.33996" lon="2.7585">
        <ele>85</ele>
        <time>2022-02-09T11:33:10.806Z</time>
      </trkpt>
      <trkpt lat="48.33998" lon="2.75857">
        <ele>85</ele>
        <time>2022-02-09T11:33:14.830Z</time>
      </trkpt>
      <trkpt lat="48.34" lon="2.75864">
        <ele>85</ele>
        <time>2022-02-09T11:33:18.819Z</time>
      </trkpt>
      <trkpt lat="48.34003" lon="2.75872">
        <ele>85</ele>
        <time>2022-02-09T11:33:23.801Z</time>
      </trkpt>
      <trkpt lat="48.34006" lon="2.75878">
        <ele>84</ele>
        <time>2022-02-09T11:33:27.837Z</time>
      </trkpt>
      <trkpt lat="48.3401" lon="2.75885">
        <ele>84</ele>
        <time>2022-02-09T11:33:32.824Z</time>
      </trkpt>
      <trkpt lat="48.34013" lon="2.7589">
        <ele>84</ele>
        <time>2022-02-09T11:33:36.854Z</time>
      </trkpt>
      <trkpt lat="48.34016" lon="2.75897">
        <ele>86</ele>
        <time>2022-02-09T11:33:41.825Z</time>
      </trkpt>
      <trkpt lat="48.3402" lon="2.75903">
        <ele>85</ele>
        <time>2022-02-09T11:33:46.808Z</time>
      </trkpt>
      <trkpt lat="48.34025" lon="2.75909">
        <ele>85</ele>
        <time>2022-02-09T11:33:51.808Z</time>
      </trkpt>
      <trkpt lat="48.34028" lon="2.75914">
        <ele>85</ele>
        <time>2022-02-09T11:33:55.810Z</time>
      </trkpt>
      <trkpt lat="48.34032" lon="2.75921">
        <ele>85</ele>
        <time>2022-02-09T11:34:00.809Z</time>
      </trkpt>
      <trkpt lat="48.34035" lon="2.75928">
        <ele>85</ele>
        <time>2022-02-09T11:34:05.797Z</time>
      </trkpt>
      <trkpt lat="48.34038" lon="2.75936">
        <ele>85</ele>
        <time>2022-02-09T11:34:10.802Z</time>
      </trkpt>
      <trkpt lat="48.34043" lon="2.75942">
        <ele>86</ele>
        <time>2022-02-09T11:34:15.853Z</time>
      </trkpt>
      <trkpt lat="48.34046" lon="2.75948">
        <ele>86</ele>
        <time>2022-02-09T11:34:20.815Z</time>
      </trkpt>
      <trkpt lat="48.34051" lon="2.75955">
        <ele>86</ele>
        <time>2022-02-09T11:34:25.816Z</time>
      </trkpt>
      <trkpt lat="48.34055" lon="2.75962">
        <ele>86</ele>
        <time>2022-02-09T11:34:30.809Z</time>
      </trkpt>
      <trkpt lat="48.3406" lon="2.75967">
        <ele>86</ele>
        <time>2022-02-09T11:34:35.815Z</time>
      </trkpt>
      <trkpt lat="48.34064" lon="2.75973">
        <ele>86</ele>
        <time>2022-02-09T11:34:40.846Z</time>
      </trkpt>
      <trkpt lat="48.34069" lon="2.75977">
        <ele>86</ele>
        <time>2022-02-09T11:34:45.803Z</time>
      </trkpt>
      <trkpt lat="48.34074" lon="2.75982">
        <ele>89</ele>
        <time>2022-02-09T11:34:50.804Z</time>
      </trkpt>
      <trkpt lat="48.34078" lon="2.75985">
        <ele>89</ele>
        <time>2022-02-09T11:34:54.806Z</time>
      </trkpt>
      <trkpt lat="48.34083" lon="2.75989">
        <ele>88</ele>
        <time>2022-02-09T11:34:58.818Z</time>
      </trkpt>
      <trkpt lat="48.34086" lon="2.75994">
        <ele>88</ele>
        <time>2022-02-09T11:35:02.845Z</time>
      </trkpt>
      <trkpt lat="48.34091" lon="2.76">
        <ele>88</ele>
        <time>2022-02-09T11:35:07.805Z</time>
      </trkpt>
      <trkpt lat="48.34094" lon="2.76006">
        <ele>88</ele>
        <time>2022-02-09T11:35:11.812Z</time>
      </trkpt>
      <trkpt lat="48.34099" lon="2.76014">
        <ele>92</ele>
        <time>2022-02-09T11:35:16.808Z</time>
      </trkpt>
      <trkpt lat="48.34103" lon="2.76022">
        <ele>91</ele>
        <time>2022-02-09T11:35:21.809Z</time>
      </trkpt>
      <trkpt lat="48.34108" lon="2.7603">
        <ele>91</ele>
        <time>2022-02-09T11:35:26.832Z</time>
      </trkpt>
      <trkpt lat="48.3411" lon="2.76038">
        <ele>91</ele>
        <time>2022-02-09T11:35:31.807Z</time>
      </trkpt>
      <trkpt lat="48.34113" lon="2.76045">
        <ele>90</ele>
        <time>2022-02-09T11:35:35.806Z</time>
      </trkpt>
      <trkpt lat="48.34116" lon="2.76052">
        <ele>90</ele>
        <time>2022-02-09T11:35:39.820Z</time>
      </trkpt>
      <trkpt lat="48.34121" lon="2.7606">
        <ele>90</ele>
        <time>2022-02-09T11:35:44.810Z</time>
      </trkpt>
      <trkpt lat="48.34124" lon="2.76069">
        <ele>90</ele>
        <time>2022-02-09T11:35:49.810Z</time>
      </trkpt>
      <trkpt lat="48.34128" lon="2.76078">
        <ele>92</ele>
        <time>2022-02-09T11:35:54.805Z</time>
      </trkpt>
      <trkpt lat="48.34131" lon="2.76083">
        <ele>92</ele>
        <time>2022-02-09T11:35:58.805Z</time>
      </trkpt>
      <trkpt lat="48.34133" lon="2.76091">
        <ele>92</ele>
        <time>2022-02-09T11:36:02.840Z</time>
      </trkpt>
      <trkpt lat="48.34136" lon="2.76099">
        <ele>90</ele>
        <time>2022-02-09T11:36:07.839Z</time>
      </trkpt>
      <trkpt lat="48.3414" lon="2.76108">
        <ele>90</ele>
        <time>2022-02-09T11:36:12.810Z</time>
      </trkpt>
      <trkpt lat="48.34142" lon="2.76116">
        <ele>90</ele>
        <time>2022-02-09T11:36:16.860Z</time>
      </trkpt>
      <trkpt lat="48.34146" lon="2.76124">
        <ele>90</ele>
        <time>2022-02-09T11:36:21.802Z</time>
      </trkpt>
      <trkpt lat="48.34148" lon="2.76132">
        <ele>88</ele>
        <time>2022-02-09T11:36:25.827Z</time>
      </trkpt>
      <trkpt lat="48.34152" lon="2.76141">
        <ele>88</ele>
        <time>2022-02-09T11:36:30.811Z</time>
      </trkpt>
      <trkpt lat="48.34155" lon="2.76148">
        <ele>92</ele>
        <time>2022-02-09T11:36:34.837Z</time>
      </trkpt>
      <trkpt lat="48.34158" lon="2.76155">
        <ele>89</ele>
        <time>2022-02-09T11:36:38.842Z</time>
      </trkpt>
      <trkpt lat="48.34164" lon="2.76163">
        <ele>89</ele>
        <time>2022-02-09T11:36:43.810Z</time>
      </trkpt>
      <trkpt lat="48.34168" lon="2.76168">
        <ele>89</ele>
        <time>2022-02-09T11:36:47.853Z</time>
      </trkpt>
      <trkpt lat="48.34173" lon="2.76173">
        <ele>89</ele>
        <time>2022-02-09T11:36:52.838Z</time>
      </trkpt>
      <trkpt lat="48.34176" lon="2.76181">
        <ele>87</ele>
        <time>2022-02-09T11:36:57.839Z</time>
      </trkpt>
      <trkpt lat="48.34179" lon="2.76187">
        <ele>87</ele>
        <time>2022-02-09T11:37:02.801Z</time>
      </trkpt>
      <trkpt lat="48.34182" lon="2.76193">
        <ele>90</ele>
        <time>2022-02-09T11:37:06.812Z</time>
      </trkpt>
      <trkpt lat="48.34185" lon="2.76203">
        <ele>90</ele>
        <time>2022-02-09T11:37:11.808Z</time>
      </trkpt>
      <trkpt lat="48.34187" lon="2.7621">
        <ele>88</ele>
        <time>2022-02-09T11:37:15.814Z</time>
      </trkpt>
      <trkpt lat="48.3419" lon="2.76218">
        <ele>88</ele>
        <time>2022-02-09T11:37:20.808Z</time>
      </trkpt>
      <trkpt lat="48.34195" lon="2.76225">
        <ele>88</ele>
        <time>2022-02-09T11:37:25.809Z</time>
      </trkpt>
      <trkpt lat="48.34199" lon="2.76232">
        <ele>88</ele>
        <time>2022-02-09T11:37:30.806Z</time>
      </trkpt>
      <trkpt lat="48.34203" lon="2.76238">
        <ele>86</ele>
        <time>2022-02-09T11:37:34.807Z</time>
      </trkpt>
      <trkpt lat="48.34207" lon="2.76245">
        <ele>86</ele>
        <time>2022-02-09T11:37:39.800Z</time>
      </trkpt>
      <trkpt lat="48.34212" lon="2.76251">
        <ele>89</ele>
        <time>2022-02-09T11:37:44.803Z</time>
      </trkpt>
      <trkpt lat="48.34216" lon="2.76256">
        <ele>89</ele>
        <time>2022-02-09T11:37:48.804Z</time>
      </trkpt>
      <trkpt lat="48.3422" lon="2.76263">
        <ele>89</ele>
        <time>2022-02-09T11:37:53.807Z</time>
      </trkpt>
      <trkpt lat="48.34223" lon="2.76269">
        <ele>87</ele>
        <time>2022-02-09T11:37:58.816Z</time>
      </trkpt>
      <trkpt lat="48.34225" lon="2.76273">
        <ele>87</ele>
        <time>2022-02-09T11:38:12.814Z</time>
      </trkpt>
      <trkpt lat="48.34227" lon="2.76274">
        <ele>87</ele>
        <time>2022-02-09T11:38:17.814Z</time>
      </trkpt>
      <trkpt lat="48.34227" lon="2.76274">
        <ele>87</ele>
        <time>2022-02-09T11:38:22.806Z</time>
      </trkpt>
      <trkpt lat="48.3423" lon="2.76275">
        <ele>87</ele>
        <time>2022-02-09T11:38:26.804Z</time>
      </trkpt>
      <trkpt lat="48.34234" lon="2.76271">
        <ele>87</ele>
        <time>2022-02-09T11:38:31.806Z</time>
      </trkpt>
      <trkpt lat="48.34238" lon="2.76268">
        <ele>90</ele>
        <time>2022-02-09T11:38:35.810Z</time>
      </trkpt>
      <trkpt lat="48.34243" lon="2.76263">
        <ele>91</ele>
        <time>2022-02-09T11:38:40.804Z</time>
      </trkpt>
      <trkpt lat="48.34246" lon="2.76259">
        <ele>91</ele>
        <time>2022-02-09T11:38:44.808Z</time>
      </trkpt>
      <trkpt lat="48.34251" lon="2.76253">
        <ele>91</ele>
        <time>2022-02-09T11:38:49.821Z</time>
      </trkpt>
      <trkpt lat="48.34255" lon="2.76249">
        <ele>91</ele>
        <time>2022-02-09T11:38:53.817Z</time>
      </trkpt>
      <trkpt lat="48.34259" lon="2.76242">
        <ele>91</ele>
        <time>2022-02-09T11:38:58.808Z</time>
      </trkpt>
      <trkpt lat="48.34264" lon="2.76235">
        <ele>92</ele>
        <time>2022-02-09T11:39:03.833Z</time>
      </trkpt>
      <trkpt lat="48.34267" lon="2.76229">
        <ele>96</ele>
        <time>2022-02-09T11:39:07.836Z</time>
      </trkpt>
      <trkpt lat="48.34272" lon="2.76222">
        <ele>96</ele>
        <time>2022-02-09T11:39:12.838Z</time>
      </trkpt>
      <trkpt lat="48.34277" lon="2.76214">
        <ele>96</ele>
        <time>2022-02-09T11:39:17.840Z</time>
      </trkpt>
      <trkpt lat="48.34282" lon="2.76207">
        <ele>96</ele>
        <time>2022-02-09T11:39:22.800Z</time>
      </trkpt>
      <trkpt lat="48.34287" lon="2.76202">
        <ele>96</ele>
        <time>2022-02-09T11:39:27.802Z</time>
      </trkpt>
      <trkpt lat="48.34291" lon="2.76197">
        <ele>96</ele>
        <time>2022-02-09T11:39:31.844Z</time>
      </trkpt>
      <trkpt lat="48.34296" lon="2.7619">
        <ele>98</ele>
        <time>2022-02-09T11:39:36.813Z</time>
      </trkpt>
      <trkpt lat="48.343" lon="2.76183">
        <ele>98</ele>
        <time>2022-02-09T11:39:41.806Z</time>
      </trkpt>
      <trkpt lat="48.34304" lon="2.76178">
        <ele>97</ele>
        <time>2022-02-09T11:39:45.834Z</time>
      </trkpt>
      <trkpt lat="48.34309" lon="2.76168">
        <ele>97</ele>
        <time>2022-02-09T11:39:50.804Z</time>
      </trkpt>
      <trkpt lat="48.34313" lon="2.76161">
        <ele>97</ele>
        <time>2022-02-09T11:39:54.815Z</time>
      </trkpt>
      <trkpt lat="48.34317" lon="2.76154">
        <ele>97</ele>
        <time>2022-02-09T11:39:58.839Z</time>
      </trkpt>
      <trkpt lat="48.34322" lon="2.76147">
        <ele>98</ele>
        <time>2022-02-09T11:40:03.802Z</time>
      </trkpt>
      <trkpt lat="48.34327" lon="2.76138">
        <ele>98</ele>
        <time>2022-02-09T11:40:08.809Z</time>
      </trkpt>
      <trkpt lat="48.34331" lon="2.76133">
        <ele>98</ele>
        <time>2022-02-09T11:40:12.843Z</time>
      </trkpt>
      <trkpt lat="48.34336" lon="2.76125">
        <ele>98</ele>
        <time>2022-02-09T11:40:17.830Z</time>
      </trkpt>
      <trkpt lat="48.3434" lon="2.76117">
        <ele>99</ele>
        <time>2022-02-09T11:40:22.836Z</time>
      </trkpt>
      <trkpt lat="48.34346" lon="2.76111">
        <ele>99</ele>
        <time>2022-02-09T11:40:27.837Z</time>
      </trkpt>
      <trkpt lat="48.3435" lon="2.76104">
        <ele>101</ele>
        <time>2022-02-09T11:40:32.837Z</time>
      </trkpt>
      <trkpt lat="48.34355" lon="2.76097">
        <ele>101</ele>
        <time>2022-02-09T11:40:37.814Z</time>
      </trkpt>
      <trkpt lat="48.34359" lon="2.76088">
        <ele>101</ele>
        <time>2022-02-09T11:40:42.803Z</time>
      </trkpt>
      <trkpt lat="48.34368" lon="2.76073">
        <ele>101</ele>
        <time>2022-02-09T11:41:25.806Z</time>
      </trkpt>
      <trkpt lat="48.34368" lon="2.76073">
        <ele>101</ele>
        <time>2022-02-09T11:41:30.801Z</time>
      </trkpt>
      <trkpt lat="48.34371" lon="2.76072">
        <ele>101</ele>
        <time>2022-02-09T11:41:34.806Z</time>
      </trkpt>
      <trkpt lat="48.34376" lon="2.76071">
        <ele>102</ele>
        <time>2022-02-09T11:41:38.835Z</time>
      </trkpt>
      <trkpt lat="48.3438" lon="2.76078">
        <ele>102</ele>
        <time>2022-02-09T11:41:43.805Z</time>
      </trkpt>
      <trkpt lat="48.34384" lon="2.76086">
        <ele>102</ele>
        <time>2022-02-09T11:41:48.823Z</time>
      </trkpt>
      <trkpt lat="48.34387" lon="2.76095">
        <ele>102</ele>
        <time>2022-02-09T11:41:53.800Z</time>
      </trkpt>
      <trkpt lat="48.3439" lon="2.76101">
        <ele>102</ele>
        <time>2022-02-09T11:41:57.808Z</time>
      </trkpt>
      <trkpt lat="48.34392" lon="2.76108">
        <ele>102</ele>
        <time>2022-02-09T11:42:01.808Z</time>
      </trkpt>
      <trkpt lat="48.34396" lon="2.76116">
        <ele>102</ele>
        <time>2022-02-09T11:42:06.823Z</time>
      </trkpt>
      <trkpt lat="48.344" lon="2.76124">
        <ele>102</ele>
        <time>2022-02-09T11:42:11.812Z</time>
      </trkpt>
      <trkpt lat="48.34403" lon="2.76132">
        <ele>102</ele>
        <time>2022-02-09T11:42:16.808Z</time>
      </trkpt>
      <trkpt lat="48.34404" lon="2.76139">
        <ele>104</ele>
        <time>2022-02-09T11:42:20.813Z</time>
      </trkpt>
      <trkpt lat="48.34407" lon="2.76146">
        <ele>104</ele>
        <time>2022-02-09T11:42:25.801Z</time>
      </trkpt>
      <trkpt lat="48.34408" lon="2.76156">
        <ele>104</ele>
        <time>2022-02-09T11:42:30.809Z</time>
      </trkpt>
      <trkpt lat="48.3441" lon="2.76163">
        <ele>104</ele>
        <time>2022-02-09T11:42:34.802Z</time>
      </trkpt>
      <trkpt lat="48.34413" lon="2.7617">
        <ele>104</ele>
        <time>2022-02-09T11:42:38.813Z</time>
      </trkpt>
      <trkpt lat="48.34416" lon="2.7618">
        <ele>104</ele>
        <time>2022-02-09T11:42:43.809Z</time>
      </trkpt>
      <trkpt lat="48.3442" lon="2.76185">
        <ele>104</ele>
        <time>2022-02-09T11:42:47.825Z</time>
      </trkpt>
      <trkpt lat="48.34425" lon="2.76188">
        <ele>104</ele>
        <time>2022-02-09T11:42:52.803Z</time>
      </trkpt>
      <trkpt lat="48.3443" lon="2.7619">
        <ele>104</ele>
        <time>2022-02-09T11:42:56.819Z</time>
      </trkpt>
      <trkpt lat="48.34436" lon="2.76192">
        <ele>105</ele>
        <time>2022-02-09T11:43:01.812Z</time>
      </trkpt>
      <trkpt lat="48.34441" lon="2.76196">
        <ele>105</ele>
        <time>2022-02-09T11:43:05.812Z</time>
      </trkpt>
      <trkpt lat="48.34446" lon="2.76199">
        <ele>105</ele>
        <time>2022-02-09T11:43:10.807Z</time>
      </trkpt>
      <trkpt lat="48.34452" lon="2.76203">
        <ele>105</ele>
        <time>2022-02-09T11:43:15.816Z</time>
      </trkpt>
      <trkpt lat="48.34457" lon="2.76206">
        <ele>105</ele>
        <time>2022-02-09T11:43:19.823Z</time>
      </trkpt>
      <trkpt lat="48.34462" lon="2.76211">
        <ele>104</ele>
        <time>2022-02-09T11:43:24.808Z</time>
      </trkpt>
      <trkpt lat="48.34467" lon="2.76214">
        <ele>104</ele>
        <time>2022-02-09T11:43:29.810Z</time>
      </trkpt>
      <trkpt lat="48.34471" lon="2.76218">
        <ele>104</ele>
        <time>2022-02-09T11:43:33.812Z</time>
      </trkpt>
      <trkpt lat="48.34475" lon="2.76222">
        <ele>104</ele>
        <time>2022-02-09T11:43:38.813Z</time>
      </trkpt>
      <trkpt lat="48.34481" lon="2.76226">
        <ele>104</ele>
        <time>2022-02-09T11:43:43.814Z</time>
      </trkpt>
      <trkpt lat="48.34486" lon="2.7623">
        <ele>104</ele>
        <time>2022-02-09T11:43:47.824Z</time>
      </trkpt>
      <trkpt lat="48.34491" lon="2.76234">
        <ele>104</ele>
        <time>2022-02-09T11:43:51.819Z</time>
      </trkpt>
      <trkpt lat="48.34497" lon="2.76237">
        <ele>105</ele>
        <time>2022-02-09T11:43:56.817Z</time>
      </trkpt>
      <trkpt lat="48.34503" lon="2.76243">
        <ele>105</ele>
        <time>2022-02-09T11:44:01.810Z</time>
      </trkpt>
      <trkpt lat="48.34509" lon="2.76246">
        <ele>105</ele>
        <time>2022-02-09T11:44:06.808Z</time>
      </trkpt>
      <trkpt lat="48.34515" lon="2.7625">
        <ele>103</ele>
        <time>2022-02-09T11:44:11.803Z</time>
      </trkpt>
      <trkpt lat="48.3452" lon="2.76251">
        <ele>103</ele>
        <time>2022-02-09T11:44:15.815Z</time>
      </trkpt>
      <trkpt lat="48.34526" lon="2.76255">
        <ele>103</ele>
        <time>2022-02-09T11:44:20.813Z</time>
      </trkpt>
      <trkpt lat="48.34532" lon="2.76257">
        <ele>103</ele>
        <time>2022-02-09T11:44:25.814Z</time>
      </trkpt>
      <trkpt lat="48.34538" lon="2.76262">
        <ele>103</ele>
        <time>2022-02-09T11:44:30.810Z</time>
      </trkpt>
      <trkpt lat="48.34544" lon="2.76266">
        <ele>102</ele>
        <time>2022-02-09T11:44:35.818Z</time>
      </trkpt>
      <trkpt lat="48.3455" lon="2.76269">
        <ele>102</ele>
        <time>2022-02-09T11:44:40.805Z</time>
      </trkpt>
      <trkpt lat="48.34557" lon="2.76273">
        <ele>102</ele>
        <time>2022-02-09T11:44:45.818Z</time>
      </trkpt>
      <trkpt lat="48.34562" lon="2.76277">
        <ele>102</ele>
        <time>2022-02-09T11:44:50.801Z</time>
      </trkpt>
      <trkpt lat="48.34566" lon="2.76281">
        <ele>102</ele>
        <time>2022-02-09T11:44:54.807Z</time>
      </trkpt>
      <trkpt lat="48.34569" lon="2.76286">
        <ele>102</ele>
        <time>2022-02-09T11:44:58.847Z</time>
      </trkpt>
      <trkpt lat="48.34574" lon="2.76292">
        <ele>102</ele>
        <time>2022-02-09T11:45:03.830Z</time>
      </trkpt>
      <trkpt lat="48.3458" lon="2.76296">
        <ele>102</ele>
        <time>2022-02-09T11:45:08.808Z</time>
      </trkpt>
      <trkpt lat="48.34585" lon="2.763">
        <ele>102</ele>
        <time>2022-02-09T11:45:12.835Z</time>
      </trkpt>
      <trkpt lat="48.34591" lon="2.76302">
        <ele>102</ele>
        <time>2022-02-09T11:45:17.843Z</time>
      </trkpt>
      <trkpt lat="48.34597" lon="2.76304">
        <ele>102</ele>
        <time>2022-02-09T11:45:22.834Z</time>
      </trkpt>
      <trkpt lat="48.34604" lon="2.76307">
        <ele>102</ele>
        <time>2022-02-09T11:45:27.832Z</time>
      </trkpt>
      <trkpt lat="48.3461" lon="2.76309">
        <ele>102</ele>
        <time>2022-02-09T11:45:32.809Z</time>
      </trkpt>
      <trkpt lat="48.34615" lon="2.76311">
        <ele>102</ele>
        <time>2022-02-09T11:45:36.835Z</time>
      </trkpt>
      <trkpt lat="48.34621" lon="2.76312">
        <ele>102</ele>
        <time>2022-02-09T11:45:41.799Z</time>
      </trkpt>
      <trkpt lat="48.34627" lon="2.76314">
        <ele>102</ele>
        <time>2022-02-09T11:45:45.802Z</time>
      </trkpt>
      <trkpt lat="48.34631" lon="2.76317">
        <ele>102</ele>
        <time>2022-02-09T11:45:49.809Z</time>
      </trkpt>
      <trkpt lat="48.34638" lon="2.76318">
        <ele>102</ele>
        <time>2022-02-09T11:45:54.806Z</time>
      </trkpt>
      <trkpt lat="48.34642" lon="2.76317">
        <ele>102</ele>
        <time>2022-02-09T11:45:58.881Z</time>
      </trkpt>
      <trkpt lat="48.34648" lon="2.76317">
        <ele>102</ele>
        <time>2022-02-09T11:46:03.805Z</time>
      </trkpt>
      <trkpt lat="48.34654" lon="2.76316">
        <ele>102</ele>
        <time>2022-02-09T11:46:08.817Z</time>
      </trkpt>
      <trkpt lat="48.3466" lon="2.76315">
        <ele>102</ele>
        <time>2022-02-09T11:46:12.836Z</time>
      </trkpt>
      <trkpt lat="48.34666" lon="2.76316">
        <ele>102</ele>
        <time>2022-02-09T11:46:17.837Z</time>
      </trkpt>
      <trkpt lat="48.34673" lon="2.76317">
        <ele>102</ele>
        <time>2022-02-09T11:46:22.800Z</time>
      </trkpt>
      <trkpt lat="48.34678" lon="2.76318">
        <ele>102</ele>
        <time>2022-02-09T11:46:26.801Z</time>
      </trkpt>
      <trkpt lat="48.34683" lon="2.76318">
        <ele>103</ele>
        <time>2022-02-09T11:46:30.814Z</time>
      </trkpt>
      <trkpt lat="48.3469" lon="2.76318">
        <ele>103</ele>
        <time>2022-02-09T11:46:35.845Z</time>
      </trkpt>
      <trkpt lat="48.34696" lon="2.7632">
        <ele>102</ele>
        <time>2022-02-09T11:46:40.804Z</time>
      </trkpt>
      <trkpt lat="48.34703" lon="2.76322">
        <ele>102</ele>
        <time>2022-02-09T11:46:45.806Z</time>
      </trkpt>
      <trkpt lat="48.34708" lon="2.76322">
        <ele>101</ele>
        <time>2022-02-09T11:46:50.797Z</time>
      </trkpt>
      <trkpt lat="48.34712" lon="2.76322">
        <ele>101</ele>
        <time>2022-02-09T11:46:54.808Z</time>
      </trkpt>
      <trkpt lat="48.34718" lon="2.76323">
        <ele>101</ele>
        <time>2022-02-09T11:46:59.805Z</time>
      </trkpt>
      <trkpt lat="48.34725" lon="2.76321">
        <ele>101</ele>
        <time>2022-02-09T11:47:04.804Z</time>
      </trkpt>
      <trkpt lat="48.3473" lon="2.76322">
        <ele>101</ele>
        <time>2022-02-09T11:47:08.808Z</time>
      </trkpt>
      <trkpt lat="48.34738" lon="2.76319">
        <ele>102</ele>
        <time>2022-02-09T11:47:13.814Z</time>
      </trkpt>
      <trkpt lat="48.34743" lon="2.76318">
        <ele>102</ele>
        <time>2022-02-09T11:47:17.821Z</time>
      </trkpt>
      <trkpt lat="48.34749" lon="2.76318">
        <ele>102</ele>
        <time>2022-02-09T11:47:22.805Z</time>
      </trkpt>
      <trkpt lat="48.34755" lon="2.76318">
        <ele>102</ele>
        <time>2022-02-09T11:47:26.818Z</time>
      </trkpt>
      <trkpt lat="48.34761" lon="2.76317">
        <ele>102</ele>
        <time>2022-02-09T11:47:31.802Z</time>
      </trkpt>
      <trkpt lat="48.34768" lon="2.76319">
        <ele>104</ele>
        <time>2022-02-09T11:47:36.816Z</time>
      </trkpt>
      <trkpt lat="48.34774" lon="2.76319">
        <ele>104</ele>
        <time>2022-02-09T11:47:41.817Z</time>
      </trkpt>
      <trkpt lat="48.3478" lon="2.76322">
        <ele>104</ele>
        <time>2022-02-09T11:47:46.816Z</time>
      </trkpt>
      <trkpt lat="48.34786" lon="2.76325">
        <ele>104</ele>
        <time>2022-02-09T11:47:51.803Z</time>
      </trkpt>
      <trkpt lat="48.34792" lon="2.7633">
        <ele>104</ele>
        <time>2022-02-09T11:47:56.809Z</time>
      </trkpt>
      <trkpt lat="48.34795" lon="2.76338">
        <ele>104</ele>
        <time>2022-02-09T11:48:01.811Z</time>
      </trkpt>
      <trkpt lat="48.34798" lon="2.7635">
        <ele>103</ele>
        <time>2022-02-09T11:48:06.805Z</time>
      </trkpt>
      <trkpt lat="48.348" lon="2.76358">
        <ele>103</ele>
        <time>2022-02-09T11:48:10.814Z</time>
      </trkpt>
      <trkpt lat="48.34801" lon="2.76366">
        <ele>103</ele>
        <time>2022-02-09T11:48:15.809Z</time>
      </trkpt>
      <trkpt lat="48.34804" lon="2.76373">
        <ele>103</ele>
        <time>2022-02-09T11:48:19.816Z</time>
      </trkpt>
      <trkpt lat="48.34808" lon="2.7638">
        <ele>103</ele>
        <time>2022-02-09T11:48:24.803Z</time>
      </trkpt>
      <trkpt lat="48.34812" lon="2.76386">
        <ele>103</ele>
        <time>2022-02-09T11:48:28.813Z</time>
      </trkpt>
      <trkpt lat="48.34817" lon="2.76389">
        <ele>103</ele>
        <time>2022-02-09T11:48:32.823Z</time>
      </trkpt>
      <trkpt lat="48.34824" lon="2.76391">
        <ele>103</ele>
        <time>2022-02-09T11:48:37.800Z</time>
      </trkpt>
      <trkpt lat="48.3483" lon="2.76393">
        <ele>103</ele>
        <time>2022-02-09T11:48:42.811Z</time>
      </trkpt>
      <trkpt lat="48.34835" lon="2.76394">
        <ele>103</ele>
        <time>2022-02-09T11:48:46.833Z</time>
      </trkpt>
      <trkpt lat="48.3484" lon="2.76393">
        <ele>103</ele>
        <time>2022-02-09T11:48:51.804Z</time>
      </trkpt>
      <trkpt lat="48.34845" lon="2.76391">
        <ele>103</ele>
        <time>2022-02-09T11:48:56.815Z</time>
      </trkpt>
      <trkpt lat="48.34851" lon="2.7639">
        <ele>105</ele>
        <time>2022-02-09T11:49:01.822Z</time>
      </trkpt>
      <trkpt lat="48.34856" lon="2.7639">
        <ele>105</ele>
        <time>2022-02-09T11:49:06.799Z</time>
      </trkpt>
      <trkpt lat="48.34861" lon="2.76391">
        <ele>105</ele>
        <time>2022-02-09T11:49:11.817Z</time>
      </trkpt>
      <trkpt lat="48.34867" lon="2.76393">
        <ele>105</ele>
        <time>2022-02-09T11:49:16.804Z</time>
      </trkpt>
      <trkpt lat="48.34872" lon="2.76394">
        <ele>105</ele>
        <time>2022-02-09T11:49:20.810Z</time>
      </trkpt>
      <trkpt lat="48.34878" lon="2.76396">
        <ele>104</ele>
        <time>2022-02-09T11:49:25.804Z</time>
      </trkpt>
      <trkpt lat="48.34883" lon="2.76398">
        <ele>104</ele>
        <time>2022-02-09T11:49:29.823Z</time>
      </trkpt>
      <trkpt lat="48.34889" lon="2.764">
        <ele>104</ele>
        <time>2022-02-09T11:49:34.820Z</time>
      </trkpt>
      <trkpt lat="48.34892" lon="2.764">
        <ele>104</ele>
        <time>2022-02-09T11:49:38.842Z</time>
      </trkpt>
      <trkpt lat="48.34898" lon="2.76404">
        <ele>106</ele>
        <time>2022-02-09T11:49:43.820Z</time>
      </trkpt>
      <trkpt lat="48.34902" lon="2.76404">
        <ele>106</ele>
        <time>2022-02-09T11:49:47.847Z</time>
      </trkpt>
      <trkpt lat="48.34906" lon="2.76405">
        <ele>105</ele>
        <time>2022-02-09T11:49:52.817Z</time>
      </trkpt>
      <trkpt lat="48.3491" lon="2.76406">
        <ele>105</ele>
        <time>2022-02-09T11:49:56.841Z</time>
      </trkpt>
      <trkpt lat="48.34915" lon="2.76408">
        <ele>105</ele>
        <time>2022-02-09T11:50:01.803Z</time>
      </trkpt>
      <trkpt lat="48.3492" lon="2.7641">
        <ele>105</ele>
        <time>2022-02-09T11:50:06.809Z</time>
      </trkpt>
      <trkpt lat="48.34925" lon="2.7641">
        <ele>105</ele>
        <time>2022-02-09T11:50:10.811Z</time>
      </trkpt>
      <trkpt lat="48.34929" lon="2.7641">
        <ele>105</ele>
        <time>2022-02-09T11:50:14.819Z</time>
      </trkpt>
      <trkpt lat="48.34933" lon="2.76411">
        <ele>105</ele>
        <time>2022-02-09T11:50:19.803Z</time>
      </trkpt>
      <trkpt lat="48.34938" lon="2.76412">
        <ele>105</ele>
        <time>2022-02-09T11:50:23.803Z</time>
      </trkpt>
      <trkpt lat="48.34942" lon="2.76415">
        <ele>105</ele>
        <time>2022-02-09T11:50:27.811Z</time>
      </trkpt>
      <trkpt lat="48.34947" lon="2.76418">
        <ele>105</ele>
        <time>2022-02-09T11:50:32.808Z</time>
      </trkpt>
      <trkpt lat="48.34952" lon="2.76421">
        <ele>105</ele>
        <time>2022-02-09T11:50:37.825Z</time>
      </trkpt>
      <trkpt lat="48.34958" lon="2.76424">
        <ele>105</ele>
        <time>2022-02-09T11:50:41.818Z</time>
      </trkpt>
      <trkpt lat="48.34963" lon="2.76429">
        <ele>104</ele>
        <time>2022-02-09T11:50:46.811Z</time>
      </trkpt>
      <trkpt lat="48.34967" lon="2.76432">
        <ele>103</ele>
        <time>2022-02-09T11:50:50.814Z</time>
      </trkpt>
      <trkpt lat="48.34971" lon="2.76435">
        <ele>103</ele>
        <time>2022-02-09T11:50:55.807Z</time>
      </trkpt>
      <trkpt lat="48.34976" lon="2.76438">
        <ele>103</ele>
        <time>2022-02-09T11:50:59.814Z</time>
      </trkpt>
      <trkpt lat="48.34981" lon="2.76441">
        <ele>103</ele>
        <time>2022-02-09T11:51:03.810Z</time>
      </trkpt>
      <trkpt lat="48.34987" lon="2.76445">
        <ele>103</ele>
        <time>2022-02-09T11:51:08.795Z</time>
      </trkpt>
      <trkpt lat="48.34992" lon="2.76449">
        <ele>103</ele>
        <time>2022-02-09T11:51:12.814Z</time>
      </trkpt>
      <trkpt lat="48.34998" lon="2.76452">
        <ele>103</ele>
        <time>2022-02-09T11:51:17.809Z</time>
      </trkpt>
      <trkpt lat="48.35003" lon="2.76457">
        <ele>103</ele>
        <time>2022-02-09T11:51:22.808Z</time>
      </trkpt>
      <trkpt lat="48.35008" lon="2.76461">
        <ele>102</ele>
        <time>2022-02-09T11:51:27.806Z</time>
      </trkpt>
      <trkpt lat="48.35013" lon="2.76466">
        <ele>102</ele>
        <time>2022-02-09T11:51:32.799Z</time>
      </trkpt>
      <trkpt lat="48.3502" lon="2.7647">
        <ele>102</ele>
        <time>2022-02-09T11:51:37.814Z</time>
      </trkpt>
      <trkpt lat="48.35026" lon="2.76476">
        <ele>102</ele>
        <time>2022-02-09T11:51:42.807Z</time>
      </trkpt>
      <trkpt lat="48.35031" lon="2.7648">
        <ele>102</ele>
        <time>2022-02-09T11:51:46.816Z</time>
      </trkpt>
      <trkpt lat="48.35037" lon="2.76482">
        <ele>102</ele>
        <time>2022-02-09T11:51:51.815Z</time>
      </trkpt>
      <trkpt lat="48.35041" lon="2.76486">
        <ele>102</ele>
        <time>2022-02-09T11:51:56.816Z</time>
      </trkpt>
      <trkpt lat="48.35046" lon="2.7649">
        <ele>101</ele>
        <time>2022-02-09T11:52:01.811Z</time>
      </trkpt>
      <trkpt lat="48.35051" lon="2.76494">
        <ele>101</ele>
        <time>2022-02-09T11:52:06.808Z</time>
      </trkpt>
      <trkpt lat="48.35056" lon="2.76497">
        <ele>101</ele>
        <time>2022-02-09T11:52:10.813Z</time>
      </trkpt>
      <trkpt lat="48.35062" lon="2.76503">
        <ele>101</ele>
        <time>2022-02-09T11:52:15.809Z</time>
      </trkpt>
      <trkpt lat="48.35067" lon="2.76507">
        <ele>101</ele>
        <time>2022-02-09T11:52:19.823Z</time>
      </trkpt>
      <trkpt lat="48.35071" lon="2.76512">
        <ele>100</ele>
        <time>2022-02-09T11:52:24.821Z</time>
      </trkpt>
      <trkpt lat="48.35076" lon="2.76517">
        <ele>100</ele>
        <time>2022-02-09T11:52:29.805Z</time>
      </trkpt>
      <trkpt lat="48.35081" lon="2.76523">
        <ele>100</ele>
        <time>2022-02-09T11:52:34.811Z</time>
      </trkpt>
      <trkpt lat="48.35081" lon="2.76531">
        <ele>100</ele>
        <time>2022-02-09T11:52:39.822Z</time>
      </trkpt>
      <trkpt lat="48.35077" lon="2.76538">
        <ele>100</ele>
        <time>2022-02-09T11:52:44.804Z</time>
      </trkpt>
      <trkpt lat="48.35073" lon="2.76543">
        <ele>101</ele>
        <time>2022-02-09T11:52:49.803Z</time>
      </trkpt>
      <trkpt lat="48.3507" lon="2.76547">
        <ele>101</ele>
        <time>2022-02-09T11:52:53.843Z</time>
      </trkpt>
      <trkpt lat="48.35066" lon="2.76554">
        <ele>101</ele>
        <time>2022-02-09T11:52:58.800Z</time>
      </trkpt>
      <trkpt lat="48.35062" lon="2.76558">
        <ele>101</ele>
        <time>2022-02-09T11:53:02.842Z</time>
      </trkpt>
      <trkpt lat="48.35059" lon="2.76565">
        <ele>101</ele>
        <time>2022-02-09T11:53:07.799Z</time>
      </trkpt>
      <trkpt lat="48.35056" lon="2.76569">
        <ele>101</ele>
        <time>2022-02-09T11:53:11.881Z</time>
      </trkpt>
      <trkpt lat="48.3505" lon="2.76574">
        <ele>101</ele>
        <time>2022-02-09T11:53:16.809Z</time>
      </trkpt>
      <trkpt lat="48.35044" lon="2.76579">
        <ele>101</ele>
        <time>2022-02-09T11:53:21.805Z</time>
      </trkpt>
      <trkpt lat="48.35038" lon="2.76584">
        <ele>102</ele>
        <time>2022-02-09T11:53:26.812Z</time>
      </trkpt>
      <trkpt lat="48.35035" lon="2.76587">
        <ele>102</ele>
        <time>2022-02-09T11:53:30.823Z</time>
      </trkpt>
      <trkpt lat="48.35031" lon="2.76593">
        <ele>102</ele>
        <time>2022-02-09T11:53:35.815Z</time>
      </trkpt>
      <trkpt lat="48.35027" lon="2.76598">
        <ele>102</ele>
        <time>2022-02-09T11:53:40.822Z</time>
      </trkpt>
      <trkpt lat="48.35021" lon="2.76601">
        <ele>102</ele>
        <time>2022-02-09T11:53:45.834Z</time>
      </trkpt>
      <trkpt lat="48.35016" lon="2.76606">
        <ele>102</ele>
        <time>2022-02-09T11:53:50.811Z</time>
      </trkpt>
      <trkpt lat="48.3501" lon="2.76609">
        <ele>102</ele>
        <time>2022-02-09T11:53:55.815Z</time>
      </trkpt>
      <trkpt lat="48.35005" lon="2.76615">
        <ele>102</ele>
        <time>2022-02-09T11:54:00.806Z</time>
      </trkpt>
      <trkpt lat="48.35001" lon="2.76618">
        <ele>102</ele>
        <time>2022-02-09T11:54:04.818Z</time>
      </trkpt>
      <trkpt lat="48.34996" lon="2.76625">
        <ele>102</ele>
        <time>2022-02-09T11:54:08.831Z</time>
      </trkpt>
      <trkpt lat="48.34991" lon="2.7663">
        <ele>102</ele>
        <time>2022-02-09T11:54:13.814Z</time>
      </trkpt>
      <trkpt lat="48.34987" lon="2.76635">
        <ele>102</ele>
        <time>2022-02-09T11:54:17.811Z</time>
      </trkpt>
      <trkpt lat="48.34982" lon="2.76641">
        <ele>102</ele>
        <time>2022-02-09T11:54:21.816Z</time>
      </trkpt>
      <trkpt lat="48.34977" lon="2.76646">
        <ele>102</ele>
        <time>2022-02-09T11:54:26.807Z</time>
      </trkpt>
      <trkpt lat="48.34972" lon="2.76652">
        <ele>102</ele>
        <time>2022-02-09T11:54:31.809Z</time>
      </trkpt>
      <trkpt lat="48.34969" lon="2.76656">
        <ele>101</ele>
        <time>2022-02-09T11:54:35.828Z</time>
      </trkpt>
      <trkpt lat="48.34962" lon="2.76661">
        <ele>101</ele>
        <time>2022-02-09T11:54:40.806Z</time>
      </trkpt>
      <trkpt lat="48.34959" lon="2.76665">
        <ele>101</ele>
        <time>2022-02-09T11:54:44.812Z</time>
      </trkpt>
      <trkpt lat="48.34953" lon="2.7667">
        <ele>102</ele>
        <time>2022-02-09T11:54:49.808Z</time>
      </trkpt>
      <trkpt lat="48.34948" lon="2.76675">
        <ele>102</ele>
        <time>2022-02-09T11:54:53.812Z</time>
      </trkpt>
      <trkpt lat="48.34945" lon="2.76682">
        <ele>102</ele>
        <time>2022-02-09T11:54:57.823Z</time>
      </trkpt>
      <trkpt lat="48.3494" lon="2.76688">
        <ele>102</ele>
        <time>2022-02-09T11:55:02.812Z</time>
      </trkpt>
      <trkpt lat="48.34936" lon="2.76694">
        <ele>102</ele>
        <time>2022-02-09T11:55:07.814Z</time>
      </trkpt>
      <trkpt lat="48.34932" lon="2.767">
        <ele>102</ele>
        <time>2022-02-09T11:55:12.818Z</time>
      </trkpt>
      <trkpt lat="48.34927" lon="2.76705">
        <ele>102</ele>
        <time>2022-02-09T11:55:17.823Z</time>
      </trkpt>
      <trkpt lat="48.34922" lon="2.76711">
        <ele>101</ele>
        <time>2022-02-09T11:55:22.805Z</time>
      </trkpt>
      <trkpt lat="48.34918" lon="2.76715">
        <ele>101</ele>
        <time>2022-02-09T11:55:26.832Z</time>
      </trkpt>
      <trkpt lat="48.34913" lon="2.76721">
        <ele>101</ele>
        <time>2022-02-09T11:55:31.799Z</time>
      </trkpt>
      <trkpt lat="48.34908" lon="2.76724">
        <ele>101</ele>
        <time>2022-02-09T11:55:35.821Z</time>
      </trkpt>
      <trkpt lat="48.34903" lon="2.76732">
        <ele>101</ele>
        <time>2022-02-09T11:55:40.801Z</time>
      </trkpt>
      <trkpt lat="48.34899" lon="2.76738">
        <ele>100</ele>
        <time>2022-02-09T11:55:44.817Z</time>
      </trkpt>
      <trkpt lat="48.34894" lon="2.76743">
        <ele>100</ele>
        <time>2022-02-09T11:55:49.813Z</time>
      </trkpt>
      <trkpt lat="48.34889" lon="2.76748">
        <ele>100</ele>
        <time>2022-02-09T11:55:54.805Z</time>
      </trkpt>
      <trkpt lat="48.34885" lon="2.76753">
        <ele>100</ele>
        <time>2022-02-09T11:55:58.827Z</time>
      </trkpt>
      <trkpt lat="48.34881" lon="2.76759">
        <ele>100</ele>
        <time>2022-02-09T11:56:02.842Z</time>
      </trkpt>
      <trkpt lat="48.34877" lon="2.76765">
        <ele>99</ele>
        <time>2022-02-09T11:56:07.851Z</time>
      </trkpt>
      <trkpt lat="48.34872" lon="2.76774">
        <ele>98</ele>
        <time>2022-02-09T11:56:12.830Z</time>
      </trkpt>
      <trkpt lat="48.34866" lon="2.76781">
        <ele>98</ele>
        <time>2022-02-09T11:56:17.866Z</time>
      </trkpt>
      <trkpt lat="48.3486" lon="2.76788">
        <ele>98</ele>
        <time>2022-02-09T11:56:22.812Z</time>
      </trkpt>
      <trkpt lat="48.34856" lon="2.76794">
        <ele>98</ele>
        <time>2022-02-09T11:56:27.817Z</time>
      </trkpt>
      <trkpt lat="48.34852" lon="2.76798">
        <ele>98</ele>
        <time>2022-02-09T11:56:31.820Z</time>
      </trkpt>
      <trkpt lat="48.34846" lon="2.76803">
        <ele>97</ele>
        <time>2022-02-09T11:56:36.813Z</time>
      </trkpt>
      <trkpt lat="48.34841" lon="2.76807">
        <ele>97</ele>
        <time>2022-02-09T11:56:41.807Z</time>
      </trkpt>
      <trkpt lat="48.34837" lon="2.76813">
        <ele>97</ele>
        <time>2022-02-09T11:56:45.831Z</time>
      </trkpt>
      <trkpt lat="48.34833" lon="2.76817">
        <ele>97</ele>
        <time>2022-02-09T11:56:50.815Z</time>
      </trkpt>
      <trkpt lat="48.34828" lon="2.76822">
        <ele>97</ele>
        <time>2022-02-09T11:56:55.818Z</time>
      </trkpt>
      <trkpt lat="48.34824" lon="2.76829">
        <ele>97</ele>
        <time>2022-02-09T11:57:00.805Z</time>
      </trkpt>
      <trkpt lat="48.3482" lon="2.76834">
        <ele>97</ele>
        <time>2022-02-09T11:57:05.808Z</time>
      </trkpt>
      <trkpt lat="48.34815" lon="2.76841">
        <ele>97</ele>
        <time>2022-02-09T11:57:10.812Z</time>
      </trkpt>
      <trkpt lat="48.34811" lon="2.76847">
        <ele>97</ele>
        <time>2022-02-09T11:57:14.825Z</time>
      </trkpt>
      <trkpt lat="48.34807" lon="2.76852">
        <ele>96</ele>
        <time>2022-02-09T11:57:18.842Z</time>
      </trkpt>
      <trkpt lat="48.34803" lon="2.76857">
        <ele>96</ele>
        <time>2022-02-09T11:57:22.842Z</time>
      </trkpt>
      <trkpt lat="48.34796" lon="2.76862">
        <ele>96</ele>
        <time>2022-02-09T11:57:27.843Z</time>
      </trkpt>
      <trkpt lat="48.34792" lon="2.76869">
        <ele>96</ele>
        <time>2022-02-09T11:57:32.837Z</time>
      </trkpt>
      <trkpt lat="48.34787" lon="2.76876">
        <ele>96</ele>
        <time>2022-02-09T11:57:37.806Z</time>
      </trkpt>
      <trkpt lat="48.34784" lon="2.7688">
        <ele>96</ele>
        <time>2022-02-09T11:57:41.848Z</time>
      </trkpt>
      <trkpt lat="48.34779" lon="2.76889">
        <ele>96</ele>
        <time>2022-02-09T11:57:46.806Z</time>
      </trkpt>
      <trkpt lat="48.34776" lon="2.76893">
        <ele>96</ele>
        <time>2022-02-09T11:57:50.815Z</time>
      </trkpt>
      <trkpt lat="48.34767" lon="2.76899">
        <ele>96</ele>
        <time>2022-02-09T11:58:58.805Z</time>
      </trkpt>
      <trkpt lat="48.34767" lon="2.76906">
        <ele>97</ele>
        <time>2022-02-09T11:59:02.809Z</time>
      </trkpt>
      <trkpt lat="48.34762" lon="2.76913">
        <ele>94</ele>
        <time>2022-02-09T11:59:07.812Z</time>
      </trkpt>
      <trkpt lat="48.34757" lon="2.76921">
        <ele>94</ele>
        <time>2022-02-09T11:59:11.828Z</time>
      </trkpt>
      <trkpt lat="48.34752" lon="2.76928">
        <ele>94</ele>
        <time>2022-02-09T11:59:16.804Z</time>
      </trkpt>
      <trkpt lat="48.34748" lon="2.76933">
        <ele>93</ele>
        <time>2022-02-09T11:59:20.807Z</time>
      </trkpt>
      <trkpt lat="48.34744" lon="2.76938">
        <ele>93</ele>
        <time>2022-02-09T11:59:24.820Z</time>
      </trkpt>
      <trkpt lat="48.3474" lon="2.76943">
        <ele>93</ele>
        <time>2022-02-09T11:59:29.808Z</time>
      </trkpt>
      <trkpt lat="48.34735" lon="2.76947">
        <ele>91</ele>
        <time>2022-02-09T11:59:34.807Z</time>
      </trkpt>
      <trkpt lat="48.34732" lon="2.76953">
        <ele>91</ele>
        <time>2022-02-09T11:59:38.814Z</time>
      </trkpt>
      <trkpt lat="48.34733" lon="2.76961">
        <ele>89</ele>
        <time>2022-02-09T11:59:43.810Z</time>
      </trkpt>
      <trkpt lat="48.34735" lon="2.76968">
        <ele>89</ele>
        <time>2022-02-09T11:59:48.797Z</time>
      </trkpt>
      <trkpt lat="48.34738" lon="2.76975">
        <ele>93</ele>
        <time>2022-02-09T11:59:52.926Z</time>
      </trkpt>
      <trkpt lat="48.34739" lon="2.76983">
        <ele>93</ele>
        <time>2022-02-09T11:59:57.804Z</time>
      </trkpt>
      <trkpt lat="48.3474" lon="2.76988">
        <ele>92</ele>
        <time>2022-02-09T12:00:01.806Z</time>
      </trkpt>
      <trkpt lat="48.34742" lon="2.76996">
        <ele>92</ele>
        <time>2022-02-09T12:00:06.805Z</time>
      </trkpt>
      <trkpt lat="48.34745" lon="2.77003">
        <ele>92</ele>
        <time>2022-02-09T12:00:11.814Z</time>
      </trkpt>
      <trkpt lat="48.34748" lon="2.7701">
        <ele>92</ele>
        <time>2022-02-09T12:00:16.805Z</time>
      </trkpt>
      <trkpt lat="48.34751" lon="2.77018">
        <ele>91</ele>
        <time>2022-02-09T12:00:21.806Z</time>
      </trkpt>
      <trkpt lat="48.34754" lon="2.77026">
        <ele>91</ele>
        <time>2022-02-09T12:00:26.813Z</time>
      </trkpt>
      <trkpt lat="48.34756" lon="2.77033">
        <ele>91</ele>
        <time>2022-02-09T12:00:30.809Z</time>
      </trkpt>
      <trkpt lat="48.34759" lon="2.77038">
        <ele>91</ele>
        <time>2022-02-09T12:00:34.814Z</time>
      </trkpt>
      <trkpt lat="48.34762" lon="2.77045">
        <ele>91</ele>
        <time>2022-02-09T12:00:39.805Z</time>
      </trkpt>
      <trkpt lat="48.34764" lon="2.77054">
        <ele>92</ele>
        <time>2022-02-09T12:00:44.809Z</time>
      </trkpt>
      <trkpt lat="48.34767" lon="2.77062">
        <ele>92</ele>
        <time>2022-02-09T12:00:49.814Z</time>
      </trkpt>
      <trkpt lat="48.3477" lon="2.77071">
        <ele>91</ele>
        <time>2022-02-09T12:00:54.803Z</time>
      </trkpt>
      <trkpt lat="48.34772" lon="2.77079">
        <ele>91</ele>
        <time>2022-02-09T12:00:59.805Z</time>
      </trkpt>
      <trkpt lat="48.34772" lon="2.77083">
        <ele>91</ele>
        <time>2022-02-09T12:01:03.807Z</time>
      </trkpt>
      <trkpt lat="48.34771" lon="2.77089">
        <ele>91</ele>
        <time>2022-02-09T12:01:07.814Z</time>
      </trkpt>
      <trkpt lat="48.34772" lon="2.77099">
        <ele>90</ele>
        <time>2022-02-09T12:01:12.814Z</time>
      </trkpt>
      <trkpt lat="48.34777" lon="2.77106">
        <ele>90</ele>
        <time>2022-02-09T12:01:17.812Z</time>
      </trkpt>
      <trkpt lat="48.34782" lon="2.77114">
        <ele>90</ele>
        <time>2022-02-09T12:01:22.808Z</time>
      </trkpt>
      <trkpt lat="48.34786" lon="2.77121">
        <ele>90</ele>
        <time>2022-02-09T12:01:26.816Z</time>
      </trkpt>
      <trkpt lat="48.34796" lon="2.77127">
        <ele>90</ele>
        <time>2022-02-09T12:01:31.812Z</time>
      </trkpt>
      <trkpt lat="48.348" lon="2.77136">
        <ele>90</ele>
        <time>2022-02-09T12:01:36.818Z</time>
      </trkpt>
      <trkpt lat="48.34801" lon="2.77144">
        <ele>90</ele>
        <time>2022-02-09T12:01:41.808Z</time>
      </trkpt>
      <trkpt lat="48.34803" lon="2.7715">
        <ele>90</ele>
        <time>2022-02-09T12:01:45.811Z</time>
      </trkpt>
      <trkpt lat="48.34805" lon="2.77155">
        <ele>90</ele>
        <time>2022-02-09T12:01:49.817Z</time>
      </trkpt>
      <trkpt lat="48.34808" lon="2.77163">
        <ele>90</ele>
        <time>2022-02-09T12:01:54.816Z</time>
      </trkpt>
      <trkpt lat="48.34811" lon="2.77169">
        <ele>90</ele>
        <time>2022-02-09T12:01:58.825Z</time>
      </trkpt>
      <trkpt lat="48.34814" lon="2.77177">
        <ele>90</ele>
        <time>2022-02-09T12:02:03.805Z</time>
      </trkpt>
      <trkpt lat="48.34818" lon="2.77185">
        <ele>90</ele>
        <time>2022-02-09T12:02:08.814Z</time>
      </trkpt>
      <trkpt lat="48.34819" lon="2.77191">
        <ele>90</ele>
        <time>2022-02-09T12:02:12.819Z</time>
      </trkpt>
      <trkpt lat="48.34822" lon="2.772">
        <ele>90</ele>
        <time>2022-02-09T12:02:17.814Z</time>
      </trkpt>
      <trkpt lat="48.34824" lon="2.7721">
        <ele>91</ele>
        <time>2022-02-09T12:02:22.816Z</time>
      </trkpt>
      <trkpt lat="48.34827" lon="2.77219">
        <ele>91</ele>
        <time>2022-02-09T12:02:27.807Z</time>
      </trkpt>
      <trkpt lat="48.3483" lon="2.77227">
        <ele>91</ele>
        <time>2022-02-09T12:02:32.805Z</time>
      </trkpt>
      <trkpt lat="48.34831" lon="2.77236">
        <ele>91</ele>
        <time>2022-02-09T12:02:37.818Z</time>
      </trkpt>
      <trkpt lat="48.34834" lon="2.77244">
        <ele>91</ele>
        <time>2022-02-09T12:02:42.824Z</time>
      </trkpt>
      <trkpt lat="48.34838" lon="2.77253">
        <ele>91</ele>
        <time>2022-02-09T12:02:47.810Z</time>
      </trkpt>
      <trkpt lat="48.34842" lon="2.77262">
        <ele>91</ele>
        <time>2022-02-09T12:02:52.811Z</time>
      </trkpt>
      <trkpt lat="48.34847" lon="2.77271">
        <ele>90</ele>
        <time>2022-02-09T12:02:57.808Z</time>
      </trkpt>
      <trkpt lat="48.3485" lon="2.77277">
        <ele>92</ele>
        <time>2022-02-09T12:03:01.818Z</time>
      </trkpt>
      <trkpt lat="48.34854" lon="2.77286">
        <ele>92</ele>
        <time>2022-02-09T12:03:06.821Z</time>
      </trkpt>
      <trkpt lat="48.34858" lon="2.77295">
        <ele>90</ele>
        <time>2022-02-09T12:03:11.825Z</time>
      </trkpt>
      <trkpt lat="48.34862" lon="2.77302">
        <ele>90</ele>
        <time>2022-02-09T12:03:16.801Z</time>
      </trkpt>
      <trkpt lat="48.34865" lon="2.7731">
        <ele>90</ele>
        <time>2022-02-09T12:03:20.805Z</time>
      </trkpt>
      <trkpt lat="48.34869" lon="2.77319">
        <ele>90</ele>
        <time>2022-02-09T12:03:25.810Z</time>
      </trkpt>
      <trkpt lat="48.34871" lon="2.77326">
        <ele>88</ele>
        <time>2022-02-09T12:03:29.814Z</time>
      </trkpt>
      <trkpt lat="48.34874" lon="2.77335">
        <ele>88</ele>
        <time>2022-02-09T12:03:34.804Z</time>
      </trkpt>
      <trkpt lat="48.34875" lon="2.77343">
        <ele>89</ele>
        <time>2022-02-09T12:03:38.807Z</time>
      </trkpt>
      <trkpt lat="48.34876" lon="2.77349">
        <ele>89</ele>
        <time>2022-02-09T12:03:42.808Z</time>
      </trkpt>
      <trkpt lat="48.34875" lon="2.77356">
        <ele>89</ele>
        <time>2022-02-09T12:03:46.817Z</time>
      </trkpt>
      <trkpt lat="48.34877" lon="2.77365">
        <ele>89</ele>
        <time>2022-02-09T12:03:51.816Z</time>
      </trkpt>
      <trkpt lat="48.34881" lon="2.77374">
        <ele>89</ele>
        <time>2022-02-09T12:03:56.808Z</time>
      </trkpt>
      <trkpt lat="48.34883" lon="2.7738">
        <ele>89</ele>
        <time>2022-02-09T12:04:00.811Z</time>
      </trkpt>
      <trkpt lat="48.34886" lon="2.77387">
        <ele>89</ele>
        <time>2022-02-09T12:04:05.819Z</time>
      </trkpt>
      <trkpt lat="48.34889" lon="2.77394">
        <ele>89</ele>
        <time>2022-02-09T12:04:10.826Z</time>
      </trkpt>
      <trkpt lat="48.34893" lon="2.77402">
        <ele>89</ele>
        <time>2022-02-09T12:04:15.813Z</time>
      </trkpt>
      <trkpt lat="48.34896" lon="2.7741">
        <ele>88</ele>
        <time>2022-02-09T12:04:20.816Z</time>
      </trkpt>
      <trkpt lat="48.34898" lon="2.77418">
        <ele>88</ele>
        <time>2022-02-09T12:04:25.805Z</time>
      </trkpt>
      <trkpt lat="48.34898" lon="2.77422">
        <ele>88</ele>
        <time>2022-02-09T12:04:29.816Z</time>
      </trkpt>
      <trkpt lat="48.34895" lon="2.77426">
        <ele>88</ele>
        <time>2022-02-09T12:04:34.810Z</time>
      </trkpt>
      <trkpt lat="48.34891" lon="2.77427">
        <ele>88</ele>
        <time>2022-02-09T12:04:39.809Z</time>
      </trkpt>
      <trkpt lat="48.34886" lon="2.77428">
        <ele>88</ele>
        <time>2022-02-09T12:04:44.809Z</time>
      </trkpt>
      <trkpt lat="48.3488" lon="2.77428">
        <ele>88</ele>
        <time>2022-02-09T12:04:49.808Z</time>
      </trkpt>
      <trkpt lat="48.34874" lon="2.77429">
        <ele>88</ele>
        <time>2022-02-09T12:04:54.815Z</time>
      </trkpt>
      <trkpt lat="48.34868" lon="2.77428">
        <ele>88</ele>
        <time>2022-02-09T12:04:59.803Z</time>
      </trkpt>
      <trkpt lat="48.34863" lon="2.7743">
        <ele>88</ele>
        <time>2022-02-09T12:05:03.807Z</time>
      </trkpt>
      <trkpt lat="48.34857" lon="2.77431">
        <ele>87</ele>
        <time>2022-02-09T12:05:08.804Z</time>
      </trkpt>
      <trkpt lat="48.34852" lon="2.77431">
        <ele>87</ele>
        <time>2022-02-09T12:05:12.811Z</time>
      </trkpt>
      <trkpt lat="48.34846" lon="2.77432">
        <ele>87</ele>
        <time>2022-02-09T12:05:16.815Z</time>
      </trkpt>
      <trkpt lat="48.3484" lon="2.77433">
        <ele>87</ele>
        <time>2022-02-09T12:05:21.805Z</time>
      </trkpt>
      <trkpt lat="48.34833" lon="2.77433">
        <ele>87</ele>
        <time>2022-02-09T12:05:26.917Z</time>
      </trkpt>
      <trkpt lat="48.34827" lon="2.77434">
        <ele>87</ele>
        <time>2022-02-09T12:05:31.813Z</time>
      </trkpt>
      <trkpt lat="48.34821" lon="2.77436">
        <ele>87</ele>
        <time>2022-02-09T12:05:36.820Z</time>
      </trkpt>
      <trkpt lat="48.34815" lon="2.77437">
        <ele>85</ele>
        <time>2022-02-09T12:05:41.813Z</time>
      </trkpt>
      <trkpt lat="48.34809" lon="2.77437">
        <ele>85</ele>
        <time>2022-02-09T12:05:45.814Z</time>
      </trkpt>
      <trkpt lat="48.34804" lon="2.77438">
        <ele>85</ele>
        <time>2022-02-09T12:05:49.825Z</time>
      </trkpt>
      <trkpt lat="48.34797" lon="2.77438">
        <ele>85</ele>
        <time>2022-02-09T12:05:54.814Z</time>
      </trkpt>
      <trkpt lat="48.34791" lon="2.77438">
        <ele>83</ele>
        <time>2022-02-09T12:05:59.805Z</time>
      </trkpt>
      <trkpt lat="48.34787" lon="2.77439">
        <ele>83</ele>
        <time>2022-02-09T12:06:03.812Z</time>
      </trkpt>
      <trkpt lat="48.34782" lon="2.7744">
        <ele>83</ele>
        <time>2022-02-09T12:06:07.822Z</time>
      </trkpt>
      <trkpt lat="48.34775" lon="2.77441">
        <ele>83</ele>
        <time>2022-02-09T12:06:12.814Z</time>
      </trkpt>
      <trkpt lat="48.3477" lon="2.7744">
        <ele>83</ele>
        <time>2022-02-09T12:06:16.816Z</time>
      </trkpt>
      <trkpt lat="48.34764" lon="2.7744">
        <ele>80</ele>
        <time>2022-02-09T12:06:21.812Z</time>
      </trkpt>
      <trkpt lat="48.34757" lon="2.77439">
        <ele>80</ele>
        <time>2022-02-09T12:06:26.814Z</time>
      </trkpt>
      <trkpt lat="48.34751" lon="2.77441">
        <ele>80</ele>
        <time>2022-02-09T12:06:31.809Z</time>
      </trkpt>
      <trkpt lat="48.34744" lon="2.77444">
        <ele>80</ele>
        <time>2022-02-09T12:06:36.810Z</time>
      </trkpt>
      <trkpt lat="48.3474" lon="2.77448">
        <ele>80</ele>
        <time>2022-02-09T12:06:40.818Z</time>
      </trkpt>
      <trkpt lat="48.34736" lon="2.77453">
        <ele>77</ele>
        <time>2022-02-09T12:06:45.805Z</time>
      </trkpt>
      <trkpt lat="48.34731" lon="2.77457">
        <ele>77</ele>
        <time>2022-02-09T12:06:50.805Z</time>
      </trkpt>
      <trkpt lat="48.34726" lon="2.77463">
        <ele>75</ele>
        <time>2022-02-09T12:06:55.804Z</time>
      </trkpt>
      <trkpt lat="48.34722" lon="2.77468">
        <ele>75</ele>
        <time>2022-02-09T12:06:59.807Z</time>
      </trkpt>
      <trkpt lat="48.34716" lon="2.77476">
        <ele>75</ele>
        <time>2022-02-09T12:07:04.815Z</time>
      </trkpt>
      <trkpt lat="48.34709" lon="2.77473">
        <ele>75</ele>
        <time>2022-02-09T12:07:09.802Z</time>
      </trkpt>
      <trkpt lat="48.34705" lon="2.77467">
        <ele>73</ele>
        <time>2022-02-09T12:07:13.814Z</time>
      </trkpt>
      <trkpt lat="48.34698" lon="2.77468">
        <ele>73</ele>
        <time>2022-02-09T12:07:18.804Z</time>
      </trkpt>
      <trkpt lat="48.34693" lon="2.7747">
        <ele>73</ele>
        <time>2022-02-09T12:07:22.809Z</time>
      </trkpt>
      <trkpt lat="48.34686" lon="2.77468">
        <ele>73</ele>
        <time>2022-02-09T12:07:27.809Z</time>
      </trkpt>
      <trkpt lat="48.34681" lon="2.77465">
        <ele>73</ele>
        <time>2022-02-09T12:07:31.817Z</time>
      </trkpt>
      <trkpt lat="48.34676" lon="2.77461">
        <ele>74</ele>
        <time>2022-02-09T12:07:36.810Z</time>
      </trkpt>
      <trkpt lat="48.3467" lon="2.77457">
        <ele>77</ele>
        <time>2022-02-09T12:07:41.805Z</time>
      </trkpt>
      <trkpt lat="48.34664" lon="2.77455">
        <ele>77</ele>
        <time>2022-02-09T12:07:46.817Z</time>
      </trkpt>
      <trkpt lat="48.34658" lon="2.7745">
        <ele>77</ele>
        <time>2022-02-09T12:07:51.805Z</time>
      </trkpt>
      <trkpt lat="48.34652" lon="2.77446">
        <ele>76</ele>
        <time>2022-02-09T12:07:55.815Z</time>
      </trkpt>
      <trkpt lat="48.34647" lon="2.77443">
        <ele>76</ele>
        <time>2022-02-09T12:07:59.820Z</time>
      </trkpt>
      <trkpt lat="48.34639" lon="2.7744">
        <ele>76</ele>
        <time>2022-02-09T12:08:04.808Z</time>
      </trkpt>
      <trkpt lat="48.34635" lon="2.77437">
        <ele>76</ele>
        <time>2022-02-09T12:08:08.812Z</time>
      </trkpt>
      <trkpt lat="48.34628" lon="2.77434">
        <ele>76</ele>
        <time>2022-02-09T12:08:13.811Z</time>
      </trkpt>
      <trkpt lat="48.34623" lon="2.77433">
        <ele>76</ele>
        <time>2022-02-09T12:08:17.809Z</time>
      </trkpt>
      <trkpt lat="48.34617" lon="2.77428">
        <ele>76</ele>
        <time>2022-02-09T12:08:22.813Z</time>
      </trkpt>
      <trkpt lat="48.34612" lon="2.77425">
        <ele>76</ele>
        <time>2022-02-09T12:08:26.815Z</time>
      </trkpt>
      <trkpt lat="48.34606" lon="2.7742">
        <ele>76</ele>
        <time>2022-02-09T12:08:31.813Z</time>
      </trkpt>
      <trkpt lat="48.34598" lon="2.77418">
        <ele>76</ele>
        <time>2022-02-09T12:08:36.822Z</time>
      </trkpt>
      <trkpt lat="48.3459" lon="2.77415">
        <ele>76</ele>
        <time>2022-02-09T12:08:41.809Z</time>
      </trkpt>
      <trkpt lat="48.34584" lon="2.77411">
        <ele>76</ele>
        <time>2022-02-09T12:08:46.817Z</time>
      </trkpt>
      <trkpt lat="48.34578" lon="2.77406">
        <ele>76</ele>
        <time>2022-02-09T12:08:51.803Z</time>
      </trkpt>
      <trkpt lat="48.34575" lon="2.774">
        <ele>76</ele>
        <time>2022-02-09T12:08:55.809Z</time>
      </trkpt>
      <trkpt lat="48.34572" lon="2.77394">
        <ele>76</ele>
        <time>2022-02-09T12:08:59.818Z</time>
      </trkpt>
      <trkpt lat="48.34568" lon="2.77387">
        <ele>75</ele>
        <time>2022-02-09T12:09:04.805Z</time>
      </trkpt>
      <trkpt lat="48.34565" lon="2.77381">
        <ele>75</ele>
        <time>2022-02-09T12:09:08.812Z</time>
      </trkpt>
      <trkpt lat="48.34562" lon="2.77376">
        <ele>75</ele>
        <time>2022-02-09T12:09:12.819Z</time>
      </trkpt>
      <trkpt lat="48.34557" lon="2.7737">
        <ele>75</ele>
        <time>2022-02-09T12:09:17.813Z</time>
      </trkpt>
      <trkpt lat="48.34553" lon="2.77362">
        <ele>75</ele>
        <time>2022-02-09T12:09:22.811Z</time>
      </trkpt>
      <trkpt lat="48.3455" lon="2.77354">
        <ele>75</ele>
        <time>2022-02-09T12:09:27.811Z</time>
      </trkpt>
      <trkpt lat="48.34547" lon="2.77346">
        <ele>74</ele>
        <time>2022-02-09T12:09:32.804Z</time>
      </trkpt>
      <trkpt lat="48.34545" lon="2.77339">
        <ele>74</ele>
        <time>2022-02-09T12:09:36.811Z</time>
      </trkpt>
      <trkpt lat="48.34541" lon="2.77329">
        <ele>72</ele>
        <time>2022-02-09T12:09:41.819Z</time>
      </trkpt>
      <trkpt lat="48.34539" lon="2.77323">
        <ele>72</ele>
        <time>2022-02-09T12:09:45.814Z</time>
      </trkpt>
      <trkpt lat="48.34536" lon="2.77314">
        <ele>70</ele>
        <time>2022-02-09T12:09:50.908Z</time>
      </trkpt>
      <trkpt lat="48.34533" lon="2.77306">
        <ele>70</ele>
        <time>2022-02-09T12:09:55.812Z</time>
      </trkpt>
      <trkpt lat="48.34531" lon="2.77299">
        <ele>70</ele>
        <time>2022-02-09T12:09:59.823Z</time>
      </trkpt>
      <trkpt lat="48.34526" lon="2.7729">
        <ele>67</ele>
        <time>2022-02-09T12:10:04.812Z</time>
      </trkpt>
      <trkpt lat="48.34521" lon="2.77281">
        <ele>67</ele>
        <time>2022-02-09T12:10:09.823Z</time>
      </trkpt>
      <trkpt lat="48.34517" lon="2.77273">
        <ele>67</ele>
        <time>2022-02-09T12:10:14.810Z</time>
      </trkpt>
      <trkpt lat="48.34512" lon="2.77264">
        <ele>64</ele>
        <time>2022-02-09T12:10:19.815Z</time>
      </trkpt>
      <trkpt lat="48.34509" lon="2.77257">
        <ele>62</ele>
        <time>2022-02-09T12:10:23.815Z</time>
      </trkpt>
      <trkpt lat="48.34504" lon="2.77249">
        <ele>62</ele>
        <time>2022-02-09T12:10:28.822Z</time>
      </trkpt>
      <trkpt lat="48.345" lon="2.77241">
        <ele>62</ele>
        <time>2022-02-09T12:10:33.820Z</time>
      </trkpt>
      <trkpt lat="48.34495" lon="2.77233">
        <ele>62</ele>
        <time>2022-02-09T12:10:38.822Z</time>
      </trkpt>
      <trkpt lat="48.34491" lon="2.77225">
        <ele>62</ele>
        <time>2022-02-09T12:10:43.814Z</time>
      </trkpt>
      <trkpt lat="48.34486" lon="2.77219">
        <ele>62</ele>
        <time>2022-02-09T12:10:48.802Z</time>
      </trkpt>
      <trkpt lat="48.3448" lon="2.77213">
        <ele>62</ele>
        <time>2022-02-09T12:10:53.809Z</time>
      </trkpt>
      <trkpt lat="48.34475" lon="2.77207">
        <ele>62</ele>
        <time>2022-02-09T12:10:58.804Z</time>
      </trkpt>
      <trkpt lat="48.34473" lon="2.77205">
        <ele>62</ele>
        <time>2022-02-09T12:11:02.815Z</time>
      </trkpt>
      <trkpt lat="48.34472" lon="2.77204">
        <ele>62</ele>
        <time>2022-02-09T12:11:06.850Z</time>
      </trkpt>
      <trkpt lat="48.34472" lon="2.77204">
        <ele>62</ele>
        <time>2022-02-09T12:11:11.810Z</time>
      </trkpt>
      <trkpt lat="48.34471" lon="2.77204">
        <ele>62</ele>
        <time>2022-02-09T12:11:16.855Z</time>
      </trkpt>
      <trkpt lat="48.34468" lon="2.77202">
        <ele>62</ele>
        <time>2022-02-09T12:11:21.837Z</time>
      </trkpt>
      <trkpt lat="48.34463" lon="2.77207">
        <ele>62</ele>
        <time>2022-02-09T12:11:26.813Z</time>
      </trkpt>
      <trkpt lat="48.34459" lon="2.77213">
        <ele>62</ele>
        <time>2022-02-09T12:11:31.814Z</time>
      </trkpt>
      <trkpt lat="48.34454" lon="2.77218">
        <ele>61</ele>
        <time>2022-02-09T12:11:36.814Z</time>
      </trkpt>
      <trkpt lat="48.34449" lon="2.77224">
        <ele>61</ele>
        <time>2022-02-09T12:11:41.807Z</time>
      </trkpt>
      <trkpt lat="48.34444" lon="2.77229">
        <ele>61</ele>
        <time>2022-02-09T12:11:45.815Z</time>
      </trkpt>
      <trkpt lat="48.34441" lon="2.77233">
        <ele>61</ele>
        <time>2022-02-09T12:11:49.828Z</time>
      </trkpt>
      <trkpt lat="48.34436" lon="2.77238">
        <ele>60</ele>
        <time>2022-02-09T12:11:54.816Z</time>
      </trkpt>
      <trkpt lat="48.34431" lon="2.77241">
        <ele>60</ele>
        <time>2022-02-09T12:11:59.811Z</time>
      </trkpt>
      <trkpt lat="48.34427" lon="2.77245">
        <ele>58</ele>
        <time>2022-02-09T12:12:04.818Z</time>
      </trkpt>
      <trkpt lat="48.34422" lon="2.7725">
        <ele>58</ele>
        <time>2022-02-09T12:12:09.815Z</time>
      </trkpt>
      <trkpt lat="48.34419" lon="2.77254">
        <ele>58</ele>
        <time>2022-02-09T12:12:13.824Z</time>
      </trkpt>
      <trkpt lat="48.34414" lon="2.77259">
        <ele>58</ele>
        <time>2022-02-09T12:12:18.821Z</time>
      </trkpt>
      <trkpt lat="48.34409" lon="2.77264">
        <ele>58</ele>
        <time>2022-02-09T12:12:23.813Z</time>
      </trkpt>
      <trkpt lat="48.34405" lon="2.77268">
        <ele>56</ele>
        <time>2022-02-09T12:12:27.813Z</time>
      </trkpt>
      <trkpt lat="48.34401" lon="2.77272">
        <ele>56</ele>
        <time>2022-02-09T12:12:31.853Z</time>
      </trkpt>
      <trkpt lat="48.34395" lon="2.77277">
        <ele>56</ele>
        <time>2022-02-09T12:12:36.812Z</time>
      </trkpt>
      <trkpt lat="48.3439" lon="2.77282">
        <ele>56</ele>
        <time>2022-02-09T12:12:41.812Z</time>
      </trkpt>
      <trkpt lat="48.34385" lon="2.77287">
        <ele>56</ele>
        <time>2022-02-09T12:12:46.816Z</time>
      </trkpt>
      <trkpt lat="48.3438" lon="2.77293">
        <ele>55</ele>
        <time>2022-02-09T12:12:51.808Z</time>
      </trkpt>
      <trkpt lat="48.34375" lon="2.77298">
        <ele>55</ele>
        <time>2022-02-09T12:12:56.813Z</time>
      </trkpt>
      <trkpt lat="48.34369" lon="2.77303">
        <ele>55</ele>
        <time>2022-02-09T12:13:01.842Z</time>
      </trkpt>
      <trkpt lat="48.34364" lon="2.77307">
        <ele>55</ele>
        <time>2022-02-09T12:13:06.799Z</time>
      </trkpt>
      <trkpt lat="48.34359" lon="2.77311">
        <ele>55</ele>
        <time>2022-02-09T12:13:10.815Z</time>
      </trkpt>
      <trkpt lat="48.34354" lon="2.77316">
        <ele>55</ele>
        <time>2022-02-09T12:13:15.810Z</time>
      </trkpt>
      <trkpt lat="48.34349" lon="2.77321">
        <ele>54</ele>
        <time>2022-02-09T12:13:20.830Z</time>
      </trkpt>
      <trkpt lat="48.34345" lon="2.77329">
        <ele>54</ele>
        <time>2022-02-09T12:13:25.819Z</time>
      </trkpt>
      <trkpt lat="48.34345" lon="2.77339">
        <ele>54</ele>
        <time>2022-02-09T12:13:30.810Z</time>
      </trkpt>
      <trkpt lat="48.34347" lon="2.77345">
        <ele>54</ele>
        <time>2022-02-09T12:13:34.813Z</time>
      </trkpt>
      <trkpt lat="48.3435" lon="2.77352">
        <ele>54</ele>
        <time>2022-02-09T12:13:38.821Z</time>
      </trkpt>
      <trkpt lat="48.34354" lon="2.7736">
        <ele>54</ele>
        <time>2022-02-09T12:13:43.812Z</time>
      </trkpt>
      <trkpt lat="48.34358" lon="2.77367">
        <ele>54</ele>
        <time>2022-02-09T12:13:48.808Z</time>
      </trkpt>
      <trkpt lat="48.34362" lon="2.77375">
        <ele>54</ele>
        <time>2022-02-09T12:13:53.810Z</time>
      </trkpt>
      <trkpt lat="48.34367" lon="2.77379">
        <ele>54</ele>
        <time>2022-02-09T12:13:57.814Z</time>
      </trkpt>
      <trkpt lat="48.34372" lon="2.77384">
        <ele>54</ele>
        <time>2022-02-09T12:14:02.815Z</time>
      </trkpt>
      <trkpt lat="48.34377" lon="2.7739">
        <ele>54</ele>
        <time>2022-02-09T12:14:07.828Z</time>
      </trkpt>
      <trkpt lat="48.34379" lon="2.77398">
        <ele>54</ele>
        <time>2022-02-09T12:14:12.813Z</time>
      </trkpt>
      <trkpt lat="48.34382" lon="2.77403">
        <ele>54</ele>
        <time>2022-02-09T12:14:16.814Z</time>
      </trkpt>
      <trkpt lat="48.34386" lon="2.77408">
        <ele>54</ele>
        <time>2022-02-09T12:14:21.815Z</time>
      </trkpt>
      <trkpt lat="48.34389" lon="2.77414">
        <ele>54</ele>
        <time>2022-02-09T12:14:26.898Z</time>
      </trkpt>
      <trkpt lat="48.34392" lon="2.77423">
        <ele>54</ele>
        <time>2022-02-09T12:14:31.820Z</time>
      </trkpt>
      <trkpt lat="48.34396" lon="2.7743">
        <ele>54</ele>
        <time>2022-02-09T12:14:36.816Z</time>
      </trkpt>
      <trkpt lat="48.344" lon="2.77437">
        <ele>55</ele>
        <time>2022-02-09T12:14:41.814Z</time>
      </trkpt>
      <trkpt lat="48.34405" lon="2.77444">
        <ele>54</ele>
        <time>2022-02-09T12:14:46.809Z</time>
      </trkpt>
      <trkpt lat="48.34408" lon="2.7745">
        <ele>54</ele>
        <time>2022-02-09T12:14:50.886Z</time>
      </trkpt>
      <trkpt lat="48.34412" lon="2.77458">
        <ele>55</ele>
        <time>2022-02-09T12:14:55.815Z</time>
      </trkpt>
      <trkpt lat="48.34416" lon="2.77466">
        <ele>55</ele>
        <time>2022-02-09T12:15:00.806Z</time>
      </trkpt>
      <trkpt lat="48.34419" lon="2.77472">
        <ele>55</ele>
        <time>2022-02-09T12:15:04.826Z</time>
      </trkpt>
      <trkpt lat="48.34423" lon="2.77478">
        <ele>55</ele>
        <time>2022-02-09T12:15:09.820Z</time>
      </trkpt>
      <trkpt lat="48.34426" lon="2.77485">
        <ele>55</ele>
        <time>2022-02-09T12:15:14.813Z</time>
      </trkpt>
      <trkpt lat="48.34429" lon="2.7749">
        <ele>56</ele>
        <time>2022-02-09T12:15:18.826Z</time>
      </trkpt>
      <trkpt lat="48.34432" lon="2.77498">
        <ele>56</ele>
        <time>2022-02-09T12:15:23.835Z</time>
      </trkpt>
      <trkpt lat="48.34431" lon="2.77508">
        <ele>56</ele>
        <time>2022-02-09T12:15:28.813Z</time>
      </trkpt>
      <trkpt lat="48.34431" lon="2.77517">
        <ele>55</ele>
        <time>2022-02-09T12:15:33.813Z</time>
      </trkpt>
      <trkpt lat="48.3443" lon="2.77524">
        <ele>56</ele>
        <time>2022-02-09T12:15:37.829Z</time>
      </trkpt>
      <trkpt lat="48.34425" lon="2.7753">
        <ele>56</ele>
        <time>2022-02-09T12:15:42.827Z</time>
      </trkpt>
      <trkpt lat="48.34421" lon="2.77537">
        <ele>56</ele>
        <time>2022-02-09T12:15:47.806Z</time>
      </trkpt>
      <trkpt lat="48.34417" lon="2.77541">
        <ele>56</ele>
        <time>2022-02-09T12:15:51.862Z</time>
      </trkpt>
      <trkpt lat="48.34412" lon="2.77547">
        <ele>55</ele>
        <time>2022-02-09T12:15:56.812Z</time>
      </trkpt>
      <trkpt lat="48.34408" lon="2.77555">
        <ele>55</ele>
        <time>2022-02-09T12:16:01.813Z</time>
      </trkpt>
      <trkpt lat="48.34404" lon="2.7756">
        <ele>55</ele>
        <time>2022-02-09T12:16:05.822Z</time>
      </trkpt>
      <trkpt lat="48.34398" lon="2.77564">
        <ele>55</ele>
        <time>2022-02-09T12:16:10.806Z</time>
      </trkpt>
      <trkpt lat="48.34393" lon="2.77564">
        <ele>55</ele>
        <time>2022-02-09T12:16:14.813Z</time>
      </trkpt>
      <trkpt lat="48.34389" lon="2.77561">
        <ele>55</ele>
        <time>2022-02-09T12:16:18.843Z</time>
      </trkpt>
      <trkpt lat="48.34384" lon="2.77556">
        <ele>55</ele>
        <time>2022-02-09T12:16:23.813Z</time>
      </trkpt>
      <trkpt lat="48.3438" lon="2.77553">
        <ele>55</ele>
        <time>2022-02-09T12:16:27.839Z</time>
      </trkpt>
      <trkpt lat="48.34376" lon="2.77546">
        <ele>55</ele>
        <time>2022-02-09T12:16:32.818Z</time>
      </trkpt>
      <trkpt lat="48.34372" lon="2.7754">
        <ele>56</ele>
        <time>2022-02-09T12:16:36.817Z</time>
      </trkpt>
      <trkpt lat="48.34366" lon="2.77537">
        <ele>56</ele>
        <time>2022-02-09T12:16:41.863Z</time>
      </trkpt>
      <trkpt lat="48.3436" lon="2.77531">
        <ele>56</ele>
        <time>2022-02-09T12:16:46.805Z</time>
      </trkpt>
      <trkpt lat="48.34356" lon="2.77529">
        <ele>56</ele>
        <time>2022-02-09T12:16:50.845Z</time>
      </trkpt>
      <trkpt lat="48.34349" lon="2.77528">
        <ele>56</ele>
        <time>2022-02-09T12:16:55.813Z</time>
      </trkpt>
      <trkpt lat="48.34343" lon="2.77529">
        <ele>56</ele>
        <time>2022-02-09T12:17:00.809Z</time>
      </trkpt>
      <trkpt lat="48.34336" lon="2.7753">
        <ele>56</ele>
        <time>2022-02-09T12:17:05.812Z</time>
      </trkpt>
      <trkpt lat="48.3433" lon="2.77532">
        <ele>56</ele>
        <time>2022-02-09T12:17:10.827Z</time>
      </trkpt>
      <trkpt lat="48.34324" lon="2.7753">
        <ele>56</ele>
        <time>2022-02-09T12:17:14.865Z</time>
      </trkpt>
      <trkpt lat="48.34318" lon="2.77528">
        <ele>57</ele>
        <time>2022-02-09T12:17:19.829Z</time>
      </trkpt>
      <trkpt lat="48.34312" lon="2.77531">
        <ele>57</ele>
        <time>2022-02-09T12:17:24.813Z</time>
      </trkpt>
      <trkpt lat="48.34306" lon="2.77532">
        <ele>57</ele>
        <time>2022-02-09T12:17:29.813Z</time>
      </trkpt>
      <trkpt lat="48.34301" lon="2.7753">
        <ele>57</ele>
        <time>2022-02-09T12:17:33.841Z</time>
      </trkpt>
      <trkpt lat="48.34295" lon="2.77529">
        <ele>57</ele>
        <time>2022-02-09T12:17:37.844Z</time>
      </trkpt>
      <trkpt lat="48.34289" lon="2.77527">
        <ele>57</ele>
        <time>2022-02-09T12:17:42.809Z</time>
      </trkpt>
      <trkpt lat="48.34284" lon="2.77527">
        <ele>57</ele>
        <time>2022-02-09T12:17:46.805Z</time>
      </trkpt>
      <trkpt lat="48.34279" lon="2.7753">
        <ele>57</ele>
        <time>2022-02-09T12:17:51.850Z</time>
      </trkpt>
      <trkpt lat="48.34274" lon="2.77536">
        <ele>57</ele>
        <time>2022-02-09T12:17:56.823Z</time>
      </trkpt>
      <trkpt lat="48.34269" lon="2.77539">
        <ele>57</ele>
        <time>2022-02-09T12:18:01.813Z</time>
      </trkpt>
      <trkpt lat="48.34265" lon="2.77542">
        <ele>57</ele>
        <time>2022-02-09T12:18:05.841Z</time>
      </trkpt>
      <trkpt lat="48.34259" lon="2.7754">
        <ele>57</ele>
        <time>2022-02-09T12:18:10.854Z</time>
      </trkpt>
      <trkpt lat="48.34253" lon="2.77536">
        <ele>57</ele>
        <time>2022-02-09T12:18:15.808Z</time>
      </trkpt>
      <trkpt lat="48.34246" lon="2.77536">
        <ele>57</ele>
        <time>2022-02-09T12:18:20.823Z</time>
      </trkpt>
      <trkpt lat="48.3424" lon="2.77539">
        <ele>57</ele>
        <time>2022-02-09T12:18:25.850Z</time>
      </trkpt>
      <trkpt lat="48.34235" lon="2.77542">
        <ele>58</ele>
        <time>2022-02-09T12:18:30.898Z</time>
      </trkpt>
      <trkpt lat="48.34229" lon="2.77545">
        <ele>58</ele>
        <time>2022-02-09T12:18:35.818Z</time>
      </trkpt>
      <trkpt lat="48.34222" lon="2.77547">
        <ele>58</ele>
        <time>2022-02-09T12:18:40.816Z</time>
      </trkpt>
      <trkpt lat="48.34216" lon="2.77548">
        <ele>58</ele>
        <time>2022-02-09T12:18:45.820Z</time>
      </trkpt>
      <trkpt lat="48.3421" lon="2.77551">
        <ele>58</ele>
        <time>2022-02-09T12:18:50.853Z</time>
      </trkpt>
      <trkpt lat="48.34204" lon="2.77554">
        <ele>58</ele>
        <time>2022-02-09T12:18:55.820Z</time>
      </trkpt>
      <trkpt lat="48.34199" lon="2.77555">
        <ele>58</ele>
        <time>2022-02-09T12:18:59.912Z</time>
      </trkpt>
      <trkpt lat="48.34193" lon="2.77556">
        <ele>58</ele>
        <time>2022-02-09T12:19:04.812Z</time>
      </trkpt>
      <trkpt lat="48.34187" lon="2.77556">
        <ele>58</ele>
        <time>2022-02-09T12:19:09.812Z</time>
      </trkpt>
      <trkpt lat="48.34182" lon="2.77559">
        <ele>58</ele>
        <time>2022-02-09T12:19:13.824Z</time>
      </trkpt>
      <trkpt lat="48.34178" lon="2.77561">
        <ele>56</ele>
        <time>2022-02-09T12:19:17.854Z</time>
      </trkpt>
      <trkpt lat="48.34172" lon="2.77561">
        <ele>56</ele>
        <time>2022-02-09T12:19:22.843Z</time>
      </trkpt>
      <trkpt lat="48.34167" lon="2.77562">
        <ele>56</ele>
        <time>2022-02-09T12:19:26.851Z</time>
      </trkpt>
      <trkpt lat="48.3416" lon="2.77567">
        <ele>56</ele>
        <time>2022-02-09T12:19:31.808Z</time>
      </trkpt>
      <trkpt lat="48.34155" lon="2.77569">
        <ele>56</ele>
        <time>2022-02-09T12:19:35.821Z</time>
      </trkpt>
      <trkpt lat="48.34149" lon="2.77571">
        <ele>54</ele>
        <time>2022-02-09T12:19:40.813Z</time>
      </trkpt>
      <trkpt lat="48.34144" lon="2.77572">
        <ele>54</ele>
        <time>2022-02-09T12:19:45.820Z</time>
      </trkpt>
      <trkpt lat="48.34138" lon="2.77576">
        <ele>54</ele>
        <time>2022-02-09T12:19:50.813Z</time>
      </trkpt>
      <trkpt lat="48.34134" lon="2.77584">
        <ele>54</ele>
        <time>2022-02-09T12:19:55.811Z</time>
      </trkpt>
      <trkpt lat="48.34132" lon="2.77591">
        <ele>54</ele>
        <time>2022-02-09T12:19:59.818Z</time>
      </trkpt>
      <trkpt lat="48.34129" lon="2.77601">
        <ele>53</ele>
        <time>2022-02-09T12:20:04.816Z</time>
      </trkpt>
      <trkpt lat="48.34127" lon="2.77611">
        <ele>53</ele>
        <time>2022-02-09T12:20:09.809Z</time>
      </trkpt>
      <trkpt lat="48.34127" lon="2.7762">
        <ele>53</ele>
        <time>2022-02-09T12:20:14.818Z</time>
      </trkpt>
      <trkpt lat="48.34126" lon="2.77628">
        <ele>53</ele>
        <time>2022-02-09T12:20:19.813Z</time>
      </trkpt>
      <trkpt lat="48.34125" lon="2.77638">
        <ele>53</ele>
        <time>2022-02-09T12:20:24.807Z</time>
      </trkpt>
      <trkpt lat="48.34123" lon="2.77644">
        <ele>53</ele>
        <time>2022-02-09T12:20:28.811Z</time>
      </trkpt>
      <trkpt lat="48.34122" lon="2.77652">
        <ele>53</ele>
        <time>2022-02-09T12:20:32.813Z</time>
      </trkpt>
      <trkpt lat="48.34118" lon="2.77661">
        <ele>53</ele>
        <time>2022-02-09T12:20:37.805Z</time>
      </trkpt>
      <trkpt lat="48.34116" lon="2.77667">
        <ele>53</ele>
        <time>2022-02-09T12:20:41.814Z</time>
      </trkpt>
      <trkpt lat="48.34112" lon="2.77674">
        <ele>53</ele>
        <time>2022-02-09T12:20:46.803Z</time>
      </trkpt>
      <trkpt lat="48.3411" lon="2.7768">
        <ele>53</ele>
        <time>2022-02-09T12:20:50.813Z</time>
      </trkpt>
      <trkpt lat="48.34107" lon="2.77688">
        <ele>53</ele>
        <time>2022-02-09T12:20:55.808Z</time>
      </trkpt>
      <trkpt lat="48.34104" lon="2.77695">
        <ele>53</ele>
        <time>2022-02-09T12:20:59.817Z</time>
      </trkpt>
      <trkpt lat="48.34101" lon="2.77704">
        <ele>53</ele>
        <time>2022-02-09T12:21:04.809Z</time>
      </trkpt>
      <trkpt lat="48.34098" lon="2.7771">
        <ele>52</ele>
        <time>2022-02-09T12:21:08.817Z</time>
      </trkpt>
      <trkpt lat="48.34095" lon="2.77716">
        <ele>53</ele>
        <time>2022-02-09T12:21:12.814Z</time>
      </trkpt>
      <trkpt lat="48.34092" lon="2.77724">
        <ele>53</ele>
        <time>2022-02-09T12:21:17.813Z</time>
      </trkpt>
      <trkpt lat="48.34088" lon="2.77732">
        <ele>53</ele>
        <time>2022-02-09T12:21:21.816Z</time>
      </trkpt>
      <trkpt lat="48.34084" lon="2.7774">
        <ele>52</ele>
        <time>2022-02-09T12:21:26.811Z</time>
      </trkpt>
      <trkpt lat="48.3408" lon="2.77749">
        <ele>52</ele>
        <time>2022-02-09T12:21:31.813Z</time>
      </trkpt>
      <trkpt lat="48.34075" lon="2.77758">
        <ele>52</ele>
        <time>2022-02-09T12:21:36.815Z</time>
      </trkpt>
      <trkpt lat="48.34072" lon="2.77767">
        <ele>52</ele>
        <time>2022-02-09T12:21:41.816Z</time>
      </trkpt>
      <trkpt lat="48.34069" lon="2.77775">
        <ele>52</ele>
        <time>2022-02-09T12:21:45.812Z</time>
      </trkpt>
      <trkpt lat="48.34066" lon="2.77782">
        <ele>52</ele>
        <time>2022-02-09T12:21:49.820Z</time>
      </trkpt>
      <trkpt lat="48.34063" lon="2.77789">
        <ele>52</ele>
        <time>2022-02-09T12:21:53.817Z</time>
      </trkpt>
      <trkpt lat="48.34059" lon="2.77797">
        <ele>52</ele>
        <time>2022-02-09T12:21:58.817Z</time>
      </trkpt>
      <trkpt lat="48.34055" lon="2.77806">
        <ele>52</ele>
        <time>2022-02-09T12:22:03.817Z</time>
      </trkpt>
      <trkpt lat="48.34052" lon="2.77813">
        <ele>52</ele>
        <time>2022-02-09T12:22:07.816Z</time>
      </trkpt>
      <trkpt lat="48.34048" lon="2.77822">
        <ele>51</ele>
        <time>2022-02-09T12:22:12.825Z</time>
      </trkpt>
      <trkpt lat="48.34044" lon="2.77828">
        <ele>51</ele>
        <time>2022-02-09T12:22:16.829Z</time>
      </trkpt>
      <trkpt lat="48.34041" lon="2.77836">
        <ele>51</ele>
        <time>2022-02-09T12:22:21.813Z</time>
      </trkpt>
      <trkpt lat="48.34037" lon="2.77844">
        <ele>51</ele>
        <time>2022-02-09T12:22:26.812Z</time>
      </trkpt>
      <trkpt lat="48.34033" lon="2.77849">
        <ele>50</ele>
        <time>2022-02-09T12:22:30.815Z</time>
      </trkpt>
      <trkpt lat="48.34029" lon="2.77858">
        <ele>50</ele>
        <time>2022-02-09T12:22:35.817Z</time>
      </trkpt>
      <trkpt lat="48.34025" lon="2.77864">
        <ele>50</ele>
        <time>2022-02-09T12:22:39.820Z</time>
      </trkpt>
      <trkpt lat="48.34021" lon="2.77873">
        <ele>50</ele>
        <time>2022-02-09T12:22:44.801Z</time>
      </trkpt>
      <trkpt lat="48.34019" lon="2.77878">
        <ele>50</ele>
        <time>2022-02-09T12:22:48.818Z</time>
      </trkpt>
      <trkpt lat="48.34015" lon="2.77884">
        <ele>50</ele>
        <time>2022-02-09T12:22:53.804Z</time>
      </trkpt>
      <trkpt lat="48.34011" lon="2.77891">
        <ele>50</ele>
        <time>2022-02-09T12:22:58.812Z</time>
      </trkpt>
      <trkpt lat="48.34008" lon="2.77896">
        <ele>50</ele>
        <time>2022-02-09T12:23:02.814Z</time>
      </trkpt>
      <trkpt lat="48.34005" lon="2.77904">
        <ele>50</ele>
        <time>2022-02-09T12:23:07.818Z</time>
      </trkpt>
      <trkpt lat="48.34001" lon="2.7791">
        <ele>50</ele>
        <time>2022-02-09T12:23:12.823Z</time>
      </trkpt>
      <trkpt lat="48.33996" lon="2.77918">
        <ele>50</ele>
        <time>2022-02-09T12:23:17.816Z</time>
      </trkpt>
      <trkpt lat="48.33992" lon="2.77925">
        <ele>50</ele>
        <time>2022-02-09T12:23:21.811Z</time>
      </trkpt>
      <trkpt lat="48.33994" lon="2.77945">
        <ele>51</ele>
        <time>2022-02-09T12:24:23.811Z</time>
      </trkpt>
      <trkpt lat="48.33995" lon="2.77946">
        <ele>51</ele>
        <time>2022-02-09T12:24:28.809Z</time>
      </trkpt>
      <trkpt lat="48.33998" lon="2.7795">
        <ele>51</ele>
        <time>2022-02-09T12:24:32.812Z</time>
      </trkpt>
      <trkpt lat="48.34" lon="2.77955">
        <ele>51</ele>
        <time>2022-02-09T12:24:37.811Z</time>
      </trkpt>
      <trkpt lat="48.34" lon="2.77956">
        <ele>51</ele>
        <time>2022-02-09T12:24:41.808Z</time>
      </trkpt>
      <trkpt lat="48.34005" lon="2.77963">
        <ele>51</ele>
        <time>2022-02-09T12:25:14.809Z</time>
      </trkpt>
      <trkpt lat="48.34007" lon="2.77969">
        <ele>51</ele>
        <time>2022-02-09T12:25:19.804Z</time>
      </trkpt>
      <trkpt lat="48.34012" lon="2.77974">
        <ele>51</ele>
        <time>2022-02-09T12:25:23.810Z</time>
      </trkpt>
      <trkpt lat="48.34018" lon="2.77977">
        <ele>50</ele>
        <time>2022-02-09T12:25:27.805Z</time>
      </trkpt>
      <trkpt lat="48.34023" lon="2.77977">
        <ele>50</ele>
        <time>2022-02-09T12:25:32.809Z</time>
      </trkpt>
      <trkpt lat="48.34028" lon="2.77975">
        <ele>50</ele>
        <time>2022-02-09T12:25:36.814Z</time>
      </trkpt>
      <trkpt lat="48.34034" lon="2.7797">
        <ele>50</ele>
        <time>2022-02-09T12:25:41.811Z</time>
      </trkpt>
      <trkpt lat="48.3404" lon="2.77964">
        <ele>50</ele>
        <time>2022-02-09T12:25:46.810Z</time>
      </trkpt>
      <trkpt lat="48.34044" lon="2.7796">
        <ele>48</ele>
        <time>2022-02-09T12:25:50.822Z</time>
      </trkpt>
      <trkpt lat="48.34049" lon="2.77958">
        <ele>48</ele>
        <time>2022-02-09T12:25:55.803Z</time>
      </trkpt>
      <trkpt lat="48.34054" lon="2.77955">
        <ele>48</ele>
        <time>2022-02-09T12:25:59.814Z</time>
      </trkpt>
      <trkpt lat="48.3406" lon="2.77954">
        <ele>48</ele>
        <time>2022-02-09T12:26:04.813Z</time>
      </trkpt>
      <trkpt lat="48.34067" lon="2.77955">
        <ele>48</ele>
        <time>2022-02-09T12:26:09.811Z</time>
      </trkpt>
      <trkpt lat="48.34065" lon="2.77962">
        <ele>48</ele>
        <time>2022-02-09T12:26:18.819Z</time>
      </trkpt>
      <trkpt lat="48.34065" lon="2.77962">
        <ele>48</ele>
        <time>2022-02-09T12:26:23.806Z</time>
      </trkpt>
      <trkpt lat="48.3407" lon="2.77958">
        <ele>48</ele>
        <time>2022-02-09T12:26:28.808Z</time>
      </trkpt>
      <trkpt lat="48.34074" lon="2.77953">
        <ele>48</ele>
        <time>2022-02-09T12:26:32.849Z</time>
      </trkpt>
      <trkpt lat="48.34079" lon="2.77949">
        <ele>48</ele>
        <time>2022-02-09T12:26:37.803Z</time>
      </trkpt>
      <trkpt lat="48.34088" lon="2.77944">
        <ele>48</ele>
        <time>2022-02-09T12:26:46.809Z</time>
      </trkpt>
      <trkpt lat="48.34091" lon="2.77943">
        <ele>48</ele>
        <time>2022-02-09T12:26:51.809Z</time>
      </trkpt>
      <trkpt lat="48.34091" lon="2.77944">
        <ele>48</ele>
        <time>2022-02-09T12:26:55.817Z</time>
      </trkpt>
      <trkpt lat="48.34093" lon="2.77945">
        <ele>48</ele>
        <time>2022-02-09T12:27:00.817Z</time>
      </trkpt>
      <trkpt lat="48.34095" lon="2.7795">
        <ele>48</ele>
        <time>2022-02-09T12:27:05.814Z</time>
      </trkpt>
      <trkpt lat="48.34094" lon="2.77948">
        <ele>48</ele>
        <time>2022-02-09T13:15:10.808Z</time>
      </trkpt>
      <trkpt lat="48.34093" lon="2.77947">
        <ele>48</ele>
        <time>2022-02-09T13:15:14.814Z</time>
      </trkpt>
      <trkpt lat="48.34093" lon="2.77943">
        <ele>48</ele>
        <time>2022-02-09T13:15:18.814Z</time>
      </trkpt>
      <trkpt lat="48.34094" lon="2.7794">
        <ele>48</ele>
        <time>2022-02-09T13:15:22.813Z</time>
      </trkpt>
      <trkpt lat="48.34093" lon="2.77935">
        <ele>48</ele>
        <time>2022-02-09T13:15:26.818Z</time>
      </trkpt>
      <trkpt lat="48.34094" lon="2.77928">
        <ele>49</ele>
        <time>2022-02-09T13:15:31.808Z</time>
      </trkpt>
      <trkpt lat="48.34097" lon="2.77924">
        <ele>50</ele>
        <time>2022-02-09T13:15:36.807Z</time>
      </trkpt>
      <trkpt lat="48.34102" lon="2.7792">
        <ele>50</ele>
        <time>2022-02-09T13:15:41.805Z</time>
      </trkpt>
      <trkpt lat="48.34107" lon="2.77917">
        <ele>50</ele>
        <time>2022-02-09T13:15:46.811Z</time>
      </trkpt>
      <trkpt lat="48.3411" lon="2.77915">
        <ele>50</ele>
        <time>2022-02-09T13:15:50.809Z</time>
      </trkpt>
      <trkpt lat="48.34115" lon="2.77912">
        <ele>50</ele>
        <time>2022-02-09T13:15:55.813Z</time>
      </trkpt>
      <trkpt lat="48.3412" lon="2.77906">
        <ele>50</ele>
        <time>2022-02-09T13:16:00.814Z</time>
      </trkpt>
      <trkpt lat="48.34124" lon="2.77898">
        <ele>50</ele>
        <time>2022-02-09T13:16:05.810Z</time>
      </trkpt>
      <trkpt lat="48.34128" lon="2.77893">
        <ele>51</ele>
        <time>2022-02-09T13:16:09.815Z</time>
      </trkpt>
      <trkpt lat="48.34131" lon="2.77887">
        <ele>51</ele>
        <time>2022-02-09T13:16:14.817Z</time>
      </trkpt>
      <trkpt lat="48.34135" lon="2.77883">
        <ele>51</ele>
        <time>2022-02-09T13:16:19.802Z</time>
      </trkpt>
      <trkpt lat="48.34139" lon="2.7788">
        <ele>51</ele>
        <time>2022-02-09T13:16:23.805Z</time>
      </trkpt>
      <trkpt lat="48.34143" lon="2.77875">
        <ele>51</ele>
        <time>2022-02-09T13:16:28.806Z</time>
      </trkpt>
      <trkpt lat="48.34146" lon="2.77873">
        <ele>52</ele>
        <time>2022-02-09T13:16:32.809Z</time>
      </trkpt>
      <trkpt lat="48.34148" lon="2.77869">
        <ele>52</ele>
        <time>2022-02-09T13:16:36.825Z</time>
      </trkpt>
      <trkpt lat="48.34149" lon="2.77862">
        <ele>52</ele>
        <time>2022-02-09T13:16:41.820Z</time>
      </trkpt>
      <trkpt lat="48.34152" lon="2.77857">
        <ele>52</ele>
        <time>2022-02-09T13:16:46.809Z</time>
      </trkpt>
      <trkpt lat="48.34156" lon="2.77853">
        <ele>53</ele>
        <time>2022-02-09T13:16:50.812Z</time>
      </trkpt>
      <trkpt lat="48.34161" lon="2.77848">
        <ele>53</ele>
        <time>2022-02-09T13:16:55.811Z</time>
      </trkpt>
      <trkpt lat="48.34164" lon="2.77847">
        <ele>53</ele>
        <time>2022-02-09T13:16:59.820Z</time>
      </trkpt>
      <trkpt lat="48.34169" lon="2.77844">
        <ele>53</ele>
        <time>2022-02-09T13:17:04.819Z</time>
      </trkpt>
      <trkpt lat="48.34173" lon="2.77842">
        <ele>53</ele>
        <time>2022-02-09T13:17:08.950Z</time>
      </trkpt>
      <trkpt lat="48.34178" lon="2.77839">
        <ele>53</ele>
        <time>2022-02-09T13:17:13.807Z</time>
      </trkpt>
      <trkpt lat="48.34183" lon="2.77836">
        <ele>54</ele>
        <time>2022-02-09T13:17:18.809Z</time>
      </trkpt>
      <trkpt lat="48.34187" lon="2.77833">
        <ele>54</ele>
        <time>2022-02-09T13:17:22.815Z</time>
      </trkpt>
      <trkpt lat="48.34193" lon="2.77831">
        <ele>54</ele>
        <time>2022-02-09T13:17:27.809Z</time>
      </trkpt>
      <trkpt lat="48.34198" lon="2.77827">
        <ele>54</ele>
        <time>2022-02-09T13:17:31.809Z</time>
      </trkpt>
      <trkpt lat="48.34205" lon="2.77821">
        <ele>54</ele>
        <time>2022-02-09T13:17:36.811Z</time>
      </trkpt>
      <trkpt lat="48.34209" lon="2.77817">
        <ele>51</ele>
        <time>2022-02-09T13:17:40.818Z</time>
      </trkpt>
      <trkpt lat="48.34215" lon="2.77813">
        <ele>51</ele>
        <time>2022-02-09T13:17:45.811Z</time>
      </trkpt>
      <trkpt lat="48.3422" lon="2.77807">
        <ele>51</ele>
        <time>2022-02-09T13:17:50.809Z</time>
      </trkpt>
      <trkpt lat="48.34225" lon="2.77802">
        <ele>51</ele>
        <time>2022-02-09T13:17:55.813Z</time>
      </trkpt>
      <trkpt lat="48.3423" lon="2.77798">
        <ele>51</ele>
        <time>2022-02-09T13:18:00.811Z</time>
      </trkpt>
      <trkpt lat="48.34234" lon="2.77795">
        <ele>51</ele>
        <time>2022-02-09T13:18:04.820Z</time>
      </trkpt>
      <trkpt lat="48.3424" lon="2.77793">
        <ele>49</ele>
        <time>2022-02-09T13:18:09.808Z</time>
      </trkpt>
      <trkpt lat="48.34245" lon="2.77789">
        <ele>49</ele>
        <time>2022-02-09T13:18:14.815Z</time>
      </trkpt>
      <trkpt lat="48.34251" lon="2.77783">
        <ele>49</ele>
        <time>2022-02-09T13:18:19.818Z</time>
      </trkpt>
      <trkpt lat="48.34257" lon="2.77777">
        <ele>49</ele>
        <time>2022-02-09T13:18:24.807Z</time>
      </trkpt>
      <trkpt lat="48.34261" lon="2.77774">
        <ele>49</ele>
        <time>2022-02-09T13:18:28.812Z</time>
      </trkpt>
      <trkpt lat="48.34267" lon="2.77768">
        <ele>48</ele>
        <time>2022-02-09T13:18:33.821Z</time>
      </trkpt>
      <trkpt lat="48.34272" lon="2.77763">
        <ele>50</ele>
        <time>2022-02-09T13:18:38.817Z</time>
      </trkpt>
      <trkpt lat="48.34277" lon="2.77759">
        <ele>50</ele>
        <time>2022-02-09T13:18:43.807Z</time>
      </trkpt>
      <trkpt lat="48.34282" lon="2.77754">
        <ele>50</ele>
        <time>2022-02-09T13:18:47.811Z</time>
      </trkpt>
      <trkpt lat="48.34287" lon="2.7775">
        <ele>50</ele>
        <time>2022-02-09T13:18:51.806Z</time>
      </trkpt>
      <trkpt lat="48.34292" lon="2.77746">
        <ele>50</ele>
        <time>2022-02-09T13:18:55.819Z</time>
      </trkpt>
      <trkpt lat="48.34298" lon="2.77741">
        <ele>50</ele>
        <time>2022-02-09T13:19:00.811Z</time>
      </trkpt>
      <trkpt lat="48.34304" lon="2.77735">
        <ele>51</ele>
        <time>2022-02-09T13:19:05.808Z</time>
      </trkpt>
      <trkpt lat="48.34308" lon="2.77731">
        <ele>51</ele>
        <time>2022-02-09T13:19:09.812Z</time>
      </trkpt>
      <trkpt lat="48.34313" lon="2.77728">
        <ele>51</ele>
        <time>2022-02-09T13:19:14.809Z</time>
      </trkpt>
      <trkpt lat="48.34318" lon="2.77725">
        <ele>51</ele>
        <time>2022-02-09T13:19:19.808Z</time>
      </trkpt>
      <trkpt lat="48.34321" lon="2.7772">
        <ele>51</ele>
        <time>2022-02-09T13:19:23.817Z</time>
      </trkpt>
      <trkpt lat="48.34327" lon="2.77715">
        <ele>51</ele>
        <time>2022-02-09T13:19:28.799Z</time>
      </trkpt>
      <trkpt lat="48.34331" lon="2.7771">
        <ele>51</ele>
        <time>2022-02-09T13:19:32.804Z</time>
      </trkpt>
      <trkpt lat="48.34337" lon="2.77704">
        <ele>51</ele>
        <time>2022-02-09T13:19:37.824Z</time>
      </trkpt>
      <trkpt lat="48.34342" lon="2.77699">
        <ele>51</ele>
        <time>2022-02-09T13:19:42.807Z</time>
      </trkpt>
      <trkpt lat="48.34346" lon="2.77695">
        <ele>51</ele>
        <time>2022-02-09T13:19:46.809Z</time>
      </trkpt>
      <trkpt lat="48.34351" lon="2.77691">
        <ele>51</ele>
        <time>2022-02-09T13:19:51.812Z</time>
      </trkpt>
      <trkpt lat="48.34357" lon="2.77688">
        <ele>51</ele>
        <time>2022-02-09T13:19:56.824Z</time>
      </trkpt>
      <trkpt lat="48.34362" lon="2.77683">
        <ele>51</ele>
        <time>2022-02-09T13:20:01.830Z</time>
      </trkpt>
      <trkpt lat="48.34367" lon="2.77679">
        <ele>50</ele>
        <time>2022-02-09T13:20:06.819Z</time>
      </trkpt>
      <trkpt lat="48.34372" lon="2.77674">
        <ele>50</ele>
        <time>2022-02-09T13:20:11.819Z</time>
      </trkpt>
      <trkpt lat="48.34377" lon="2.77671">
        <ele>51</ele>
        <time>2022-02-09T13:20:16.822Z</time>
      </trkpt>
      <trkpt lat="48.34383" lon="2.77666">
        <ele>51</ele>
        <time>2022-02-09T13:20:21.819Z</time>
      </trkpt>
      <trkpt lat="48.34388" lon="2.77662">
        <ele>51</ele>
        <time>2022-02-09T13:20:26.825Z</time>
      </trkpt>
      <trkpt lat="48.34393" lon="2.77657">
        <ele>51</ele>
        <time>2022-02-09T13:20:31.821Z</time>
      </trkpt>
      <trkpt lat="48.34399" lon="2.77653">
        <ele>51</ele>
        <time>2022-02-09T13:20:36.815Z</time>
      </trkpt>
      <trkpt lat="48.34403" lon="2.77651">
        <ele>54</ele>
        <time>2022-02-09T13:20:40.811Z</time>
      </trkpt>
      <trkpt lat="48.34407" lon="2.77649">
        <ele>54</ele>
        <time>2022-02-09T13:20:44.828Z</time>
      </trkpt>
      <trkpt lat="48.34413" lon="2.77644">
        <ele>54</ele>
        <time>2022-02-09T13:20:49.811Z</time>
      </trkpt>
      <trkpt lat="48.34419" lon="2.77638">
        <ele>54</ele>
        <time>2022-02-09T13:20:54.818Z</time>
      </trkpt>
      <trkpt lat="48.34422" lon="2.7763">
        <ele>54</ele>
        <time>2022-02-09T13:20:58.826Z</time>
      </trkpt>
      <trkpt lat="48.34425" lon="2.77621">
        <ele>55</ele>
        <time>2022-02-09T13:21:03.809Z</time>
      </trkpt>
      <trkpt lat="48.34427" lon="2.77614">
        <ele>55</ele>
        <time>2022-02-09T13:21:07.828Z</time>
      </trkpt>
      <trkpt lat="48.34433" lon="2.77612">
        <ele>55</ele>
        <time>2022-02-09T13:21:12.814Z</time>
      </trkpt>
      <trkpt lat="48.34439" lon="2.77612">
        <ele>55</ele>
        <time>2022-02-09T13:21:17.816Z</time>
      </trkpt>
      <trkpt lat="48.34445" lon="2.77612">
        <ele>55</ele>
        <time>2022-02-09T13:21:22.813Z</time>
      </trkpt>
      <trkpt lat="48.34447" lon="2.77612">
        <ele>55</ele>
        <time>2022-02-09T13:21:26.824Z</time>
      </trkpt>
      <trkpt lat="48.34451" lon="2.77609">
        <ele>55</ele>
        <time>2022-02-09T13:21:31.817Z</time>
      </trkpt>
      <trkpt lat="48.34453" lon="2.77608">
        <ele>55</ele>
        <time>2022-02-09T13:21:36.817Z</time>
      </trkpt>
      <trkpt lat="48.34454" lon="2.77608">
        <ele>55</ele>
        <time>2022-02-09T13:21:40.833Z</time>
      </trkpt>
      <trkpt lat="48.34458" lon="2.77605">
        <ele>55</ele>
        <time>2022-02-09T13:21:45.829Z</time>
      </trkpt>
      <trkpt lat="48.34462" lon="2.776">
        <ele>57</ele>
        <time>2022-02-09T13:21:50.815Z</time>
      </trkpt>
      <trkpt lat="48.34467" lon="2.77592">
        <ele>58</ele>
        <time>2022-02-09T13:21:55.816Z</time>
      </trkpt>
      <trkpt lat="48.34468" lon="2.77585">
        <ele>58</ele>
        <time>2022-02-09T13:22:00.820Z</time>
      </trkpt>
      <trkpt lat="48.3447" lon="2.77581">
        <ele>58</ele>
        <time>2022-02-09T13:22:05.804Z</time>
      </trkpt>
      <trkpt lat="48.34471" lon="2.77583">
        <ele>58</ele>
        <time>2022-02-09T13:22:09.825Z</time>
      </trkpt>
      <trkpt lat="48.34473" lon="2.77588">
        <ele>58</ele>
        <time>2022-02-09T13:22:14.807Z</time>
      </trkpt>
      <trkpt lat="48.34475" lon="2.77592">
        <ele>58</ele>
        <time>2022-02-09T13:22:18.821Z</time>
      </trkpt>
      <trkpt lat="48.34477" lon="2.77597">
        <ele>58</ele>
        <time>2022-02-09T13:22:23.812Z</time>
      </trkpt>
      <trkpt lat="48.3448" lon="2.77601">
        <ele>57</ele>
        <time>2022-02-09T13:22:27.815Z</time>
      </trkpt>
      <trkpt lat="48.34484" lon="2.77607">
        <ele>57</ele>
        <time>2022-02-09T13:22:32.807Z</time>
      </trkpt>
      <trkpt lat="48.34487" lon="2.77611">
        <ele>61</ele>
        <time>2022-02-09T13:22:36.820Z</time>
      </trkpt>
      <trkpt lat="48.34492" lon="2.77618">
        <ele>61</ele>
        <time>2022-02-09T13:22:41.821Z</time>
      </trkpt>
      <trkpt lat="48.34496" lon="2.77625">
        <ele>59</ele>
        <time>2022-02-09T13:22:46.809Z</time>
      </trkpt>
      <trkpt lat="48.345" lon="2.77631">
        <ele>59</ele>
        <time>2022-02-09T13:22:51.809Z</time>
      </trkpt>
      <trkpt lat="48.34503" lon="2.77637">
        <ele>59</ele>
        <time>2022-02-09T13:22:56.806Z</time>
      </trkpt>
      <trkpt lat="48.34506" lon="2.77643">
        <ele>59</ele>
        <time>2022-02-09T13:23:00.819Z</time>
      </trkpt>
      <trkpt lat="48.34511" lon="2.77651">
        <ele>59</ele>
        <time>2022-02-09T13:23:05.809Z</time>
      </trkpt>
      <trkpt lat="48.34514" lon="2.77659">
        <ele>59</ele>
        <time>2022-02-09T13:23:10.812Z</time>
      </trkpt>
      <trkpt lat="48.34518" lon="2.77666">
        <ele>59</ele>
        <time>2022-02-09T13:23:15.808Z</time>
      </trkpt>
      <trkpt lat="48.34521" lon="2.77673">
        <ele>59</ele>
        <time>2022-02-09T13:23:20.817Z</time>
      </trkpt>
      <trkpt lat="48.34523" lon="2.77679">
        <ele>59</ele>
        <time>2022-02-09T13:23:24.823Z</time>
      </trkpt>
      <trkpt lat="48.34527" lon="2.77685">
        <ele>57</ele>
        <time>2022-02-09T13:23:29.811Z</time>
      </trkpt>
      <trkpt lat="48.3453" lon="2.77691">
        <ele>57</ele>
        <time>2022-02-09T13:23:33.829Z</time>
      </trkpt>
      <trkpt lat="48.34535" lon="2.77697">
        <ele>57</ele>
        <time>2022-02-09T13:23:38.809Z</time>
      </trkpt>
      <trkpt lat="48.34539" lon="2.77701">
        <ele>57</ele>
        <time>2022-02-09T13:23:42.823Z</time>
      </trkpt>
      <trkpt lat="48.34544" lon="2.77707">
        <ele>60</ele>
        <time>2022-02-09T13:23:47.804Z</time>
      </trkpt>
      <trkpt lat="48.34547" lon="2.77713">
        <ele>59</ele>
        <time>2022-02-09T13:23:51.812Z</time>
      </trkpt>
      <trkpt lat="48.3455" lon="2.7772">
        <ele>59</ele>
        <time>2022-02-09T13:23:56.811Z</time>
      </trkpt>
      <trkpt lat="48.34554" lon="2.77727">
        <ele>59</ele>
        <time>2022-02-09T13:24:00.827Z</time>
      </trkpt>
      <trkpt lat="48.34559" lon="2.77735">
        <ele>59</ele>
        <time>2022-02-09T13:24:05.811Z</time>
      </trkpt>
      <trkpt lat="48.34563" lon="2.7774">
        <ele>59</ele>
        <time>2022-02-09T13:24:09.814Z</time>
      </trkpt>
      <trkpt lat="48.34567" lon="2.77747">
        <ele>59</ele>
        <time>2022-02-09T13:24:14.831Z</time>
      </trkpt>
      <trkpt lat="48.34571" lon="2.77754">
        <ele>61</ele>
        <time>2022-02-09T13:24:19.811Z</time>
      </trkpt>
      <trkpt lat="48.34575" lon="2.77761">
        <ele>61</ele>
        <time>2022-02-09T13:24:24.809Z</time>
      </trkpt>
      <trkpt lat="48.34579" lon="2.77766">
        <ele>62</ele>
        <time>2022-02-09T13:24:29.813Z</time>
      </trkpt>
      <trkpt lat="48.34582" lon="2.7777">
        <ele>62</ele>
        <time>2022-02-09T13:24:33.823Z</time>
      </trkpt>
      <trkpt lat="48.34587" lon="2.77775">
        <ele>62</ele>
        <time>2022-02-09T13:24:38.809Z</time>
      </trkpt>
      <trkpt lat="48.34592" lon="2.77781">
        <ele>62</ele>
        <time>2022-02-09T13:24:43.814Z</time>
      </trkpt>
      <trkpt lat="48.34594" lon="2.77785">
        <ele>62</ele>
        <time>2022-02-09T13:24:47.817Z</time>
      </trkpt>
      <trkpt lat="48.34599" lon="2.7779">
        <ele>64</ele>
        <time>2022-02-09T13:24:52.827Z</time>
      </trkpt>
      <trkpt lat="48.34602" lon="2.77794">
        <ele>66</ele>
        <time>2022-02-09T13:24:57.811Z</time>
      </trkpt>
      <trkpt lat="48.34607" lon="2.778">
        <ele>66</ele>
        <time>2022-02-09T13:25:02.818Z</time>
      </trkpt>
      <trkpt lat="48.34611" lon="2.77805">
        <ele>66</ele>
        <time>2022-02-09T13:25:07.805Z</time>
      </trkpt>
      <trkpt lat="48.34615" lon="2.77808">
        <ele>66</ele>
        <time>2022-02-09T13:25:11.815Z</time>
      </trkpt>
      <trkpt lat="48.34619" lon="2.77813">
        <ele>66</ele>
        <time>2022-02-09T13:25:16.812Z</time>
      </trkpt>
      <trkpt lat="48.34623" lon="2.77819">
        <ele>67</ele>
        <time>2022-02-09T13:25:21.816Z</time>
      </trkpt>
      <trkpt lat="48.34627" lon="2.77825">
        <ele>70</ele>
        <time>2022-02-09T13:25:26.820Z</time>
      </trkpt>
      <trkpt lat="48.34629" lon="2.7783">
        <ele>70</ele>
        <time>2022-02-09T13:25:30.822Z</time>
      </trkpt>
      <trkpt lat="48.34634" lon="2.77837">
        <ele>70</ele>
        <time>2022-02-09T13:25:35.810Z</time>
      </trkpt>
      <trkpt lat="48.34639" lon="2.77845">
        <ele>70</ele>
        <time>2022-02-09T13:25:40.825Z</time>
      </trkpt>
      <trkpt lat="48.34644" lon="2.77852">
        <ele>69</ele>
        <time>2022-02-09T13:25:45.828Z</time>
      </trkpt>
      <trkpt lat="48.3465" lon="2.7786">
        <ele>69</ele>
        <time>2022-02-09T13:25:50.833Z</time>
      </trkpt>
      <trkpt lat="48.34655" lon="2.77869">
        <ele>70</ele>
        <time>2022-02-09T13:25:55.811Z</time>
      </trkpt>
      <trkpt lat="48.34659" lon="2.77874">
        <ele>70</ele>
        <time>2022-02-09T13:26:00.823Z</time>
      </trkpt>
      <trkpt lat="48.34662" lon="2.77881">
        <ele>70</ele>
        <time>2022-02-09T13:26:05.821Z</time>
      </trkpt>
      <trkpt lat="48.34665" lon="2.77886">
        <ele>70</ele>
        <time>2022-02-09T13:26:10.809Z</time>
      </trkpt>
      <trkpt lat="48.34669" lon="2.77893">
        <ele>70</ele>
        <time>2022-02-09T13:26:15.806Z</time>
      </trkpt>
      <trkpt lat="48.34673" lon="2.779">
        <ele>70</ele>
        <time>2022-02-09T13:26:20.810Z</time>
      </trkpt>
      <trkpt lat="48.34677" lon="2.77909">
        <ele>69</ele>
        <time>2022-02-09T13:26:25.817Z</time>
      </trkpt>
      <trkpt lat="48.3468" lon="2.77917">
        <ele>69</ele>
        <time>2022-02-09T13:26:30.815Z</time>
      </trkpt>
      <trkpt lat="48.34685" lon="2.77925">
        <ele>72</ele>
        <time>2022-02-09T13:26:35.808Z</time>
      </trkpt>
      <trkpt lat="48.34689" lon="2.77934">
        <ele>71</ele>
        <time>2022-02-09T13:26:40.826Z</time>
      </trkpt>
      <trkpt lat="48.34692" lon="2.7794">
        <ele>71</ele>
        <time>2022-02-09T13:26:45.816Z</time>
      </trkpt>
      <trkpt lat="48.34695" lon="2.77947">
        <ele>71</ele>
        <time>2022-02-09T13:26:50.825Z</time>
      </trkpt>
      <trkpt lat="48.34699" lon="2.77954">
        <ele>71</ele>
        <time>2022-02-09T13:26:55.814Z</time>
      </trkpt>
      <trkpt lat="48.34703" lon="2.77961">
        <ele>70</ele>
        <time>2022-02-09T13:26:59.818Z</time>
      </trkpt>
      <trkpt lat="48.34706" lon="2.77969">
        <ele>70</ele>
        <time>2022-02-09T13:27:04.812Z</time>
      </trkpt>
      <trkpt lat="48.3471" lon="2.77974">
        <ele>71</ele>
        <time>2022-02-09T13:27:08.811Z</time>
      </trkpt>
      <trkpt lat="48.34712" lon="2.7798">
        <ele>71</ele>
        <time>2022-02-09T13:27:12.827Z</time>
      </trkpt>
      <trkpt lat="48.34716" lon="2.77988">
        <ele>70</ele>
        <time>2022-02-09T13:27:17.825Z</time>
      </trkpt>
      <trkpt lat="48.34718" lon="2.77995">
        <ele>70</ele>
        <time>2022-02-09T13:27:22.800Z</time>
      </trkpt>
      <trkpt lat="48.3472" lon="2.78002">
        <ele>70</ele>
        <time>2022-02-09T13:27:26.807Z</time>
      </trkpt>
      <trkpt lat="48.34724" lon="2.7801">
        <ele>70</ele>
        <time>2022-02-09T13:27:31.809Z</time>
      </trkpt>
      <trkpt lat="48.34728" lon="2.78017">
        <ele>69</ele>
        <time>2022-02-09T13:27:36.808Z</time>
      </trkpt>
      <trkpt lat="48.3473" lon="2.78022">
        <ele>69</ele>
        <time>2022-02-09T13:27:40.811Z</time>
      </trkpt>
      <trkpt lat="48.34734" lon="2.78029">
        <ele>69</ele>
        <time>2022-02-09T13:27:45.809Z</time>
      </trkpt>
      <trkpt lat="48.34737" lon="2.78035">
        <ele>71</ele>
        <time>2022-02-09T13:27:49.818Z</time>
      </trkpt>
      <trkpt lat="48.34741" lon="2.78043">
        <ele>70</ele>
        <time>2022-02-09T13:27:54.809Z</time>
      </trkpt>
      <trkpt lat="48.34746" lon="2.78051">
        <ele>70</ele>
        <time>2022-02-09T13:27:59.818Z</time>
      </trkpt>
      <trkpt lat="48.3475" lon="2.78059">
        <ele>70</ele>
        <time>2022-02-09T13:28:04.808Z</time>
      </trkpt>
      <trkpt lat="48.34752" lon="2.78064">
        <ele>70</ele>
        <time>2022-02-09T13:28:08.815Z</time>
      </trkpt>
      <trkpt lat="48.34755" lon="2.78072">
        <ele>70</ele>
        <time>2022-02-09T13:28:13.816Z</time>
      </trkpt>
      <trkpt lat="48.34759" lon="2.7808">
        <ele>70</ele>
        <time>2022-02-09T13:28:18.805Z</time>
      </trkpt>
      <trkpt lat="48.34762" lon="2.78086">
        <ele>70</ele>
        <time>2022-02-09T13:28:22.819Z</time>
      </trkpt>
      <trkpt lat="48.34765" lon="2.78094">
        <ele>72</ele>
        <time>2022-02-09T13:28:27.805Z</time>
      </trkpt>
      <trkpt lat="48.34769" lon="2.78102">
        <ele>72</ele>
        <time>2022-02-09T13:28:32.812Z</time>
      </trkpt>
      <trkpt lat="48.34772" lon="2.7811">
        <ele>72</ele>
        <time>2022-02-09T13:28:37.811Z</time>
      </trkpt>
      <trkpt lat="48.34776" lon="2.78117">
        <ele>72</ele>
        <time>2022-02-09T13:28:41.819Z</time>
      </trkpt>
      <trkpt lat="48.34781" lon="2.78125">
        <ele>72</ele>
        <time>2022-02-09T13:28:46.822Z</time>
      </trkpt>
      <trkpt lat="48.34783" lon="2.7813">
        <ele>71</ele>
        <time>2022-02-09T13:28:51.815Z</time>
      </trkpt>
      <trkpt lat="48.34787" lon="2.78138">
        <ele>71</ele>
        <time>2022-02-09T13:28:56.805Z</time>
      </trkpt>
      <trkpt lat="48.3479" lon="2.78145">
        <ele>71</ele>
        <time>2022-02-09T13:29:01.815Z</time>
      </trkpt>
      <trkpt lat="48.34792" lon="2.78151">
        <ele>74</ele>
        <time>2022-02-09T13:29:06.806Z</time>
      </trkpt>
      <trkpt lat="48.34794" lon="2.78158">
        <ele>74</ele>
        <time>2022-02-09T13:29:11.820Z</time>
      </trkpt>
      <trkpt lat="48.34799" lon="2.78163">
        <ele>74</ele>
        <time>2022-02-09T13:29:16.816Z</time>
      </trkpt>
      <trkpt lat="48.34803" lon="2.7817">
        <ele>74</ele>
        <time>2022-02-09T13:29:21.819Z</time>
      </trkpt>
      <trkpt lat="48.34805" lon="2.78178">
        <ele>74</ele>
        <time>2022-02-09T13:29:26.824Z</time>
      </trkpt>
      <trkpt lat="48.3481" lon="2.78187">
        <ele>73</ele>
        <time>2022-02-09T13:29:31.821Z</time>
      </trkpt>
      <trkpt lat="48.34814" lon="2.78195">
        <ele>73</ele>
        <time>2022-02-09T13:29:36.823Z</time>
      </trkpt>
      <trkpt lat="48.34816" lon="2.78202">
        <ele>73</ele>
        <time>2022-02-09T13:29:40.827Z</time>
      </trkpt>
      <trkpt lat="48.34822" lon="2.78205">
        <ele>77</ele>
        <time>2022-02-09T13:29:45.811Z</time>
      </trkpt>
      <trkpt lat="48.34827" lon="2.78204">
        <ele>77</ele>
        <time>2022-02-09T13:29:49.831Z</time>
      </trkpt>
      <trkpt lat="48.34832" lon="2.782">
        <ele>77</ele>
        <time>2022-02-09T13:29:54.833Z</time>
      </trkpt>
      <trkpt lat="48.34838" lon="2.78196">
        <ele>77</ele>
        <time>2022-02-09T13:29:59.818Z</time>
      </trkpt>
      <trkpt lat="48.34843" lon="2.78191">
        <ele>77</ele>
        <time>2022-02-09T13:30:04.820Z</time>
      </trkpt>
      <trkpt lat="48.34847" lon="2.78187">
        <ele>77</ele>
        <time>2022-02-09T13:30:08.825Z</time>
      </trkpt>
      <trkpt lat="48.34852" lon="2.78181">
        <ele>78</ele>
        <time>2022-02-09T13:30:13.822Z</time>
      </trkpt>
      <trkpt lat="48.34856" lon="2.78176">
        <ele>78</ele>
        <time>2022-02-09T13:30:18.806Z</time>
      </trkpt>
      <trkpt lat="48.3486" lon="2.7817">
        <ele>78</ele>
        <time>2022-02-09T13:30:22.817Z</time>
      </trkpt>
      <trkpt lat="48.34864" lon="2.78164">
        <ele>78</ele>
        <time>2022-02-09T13:30:26.823Z</time>
      </trkpt>
      <trkpt lat="48.34867" lon="2.78157">
        <ele>78</ele>
        <time>2022-02-09T13:30:30.830Z</time>
      </trkpt>
      <trkpt lat="48.34871" lon="2.7815">
        <ele>78</ele>
        <time>2022-02-09T13:30:35.815Z</time>
      </trkpt>
      <trkpt lat="48.34874" lon="2.78144">
        <ele>78</ele>
        <time>2022-02-09T13:30:39.822Z</time>
      </trkpt>
      <trkpt lat="48.34878" lon="2.78138">
        <ele>80</ele>
        <time>2022-02-09T13:30:44.818Z</time>
      </trkpt>
      <trkpt lat="48.34881" lon="2.78132">
        <ele>80</ele>
        <time>2022-02-09T13:30:49.819Z</time>
      </trkpt>
      <trkpt lat="48.34885" lon="2.78125">
        <ele>80</ele>
        <time>2022-02-09T13:30:54.813Z</time>
      </trkpt>
      <trkpt lat="48.34889" lon="2.78121">
        <ele>81</ele>
        <time>2022-02-09T13:30:58.819Z</time>
      </trkpt>
      <trkpt lat="48.34892" lon="2.78116">
        <ele>81</ele>
        <time>2022-02-09T13:31:02.825Z</time>
      </trkpt>
      <trkpt lat="48.34897" lon="2.78109">
        <ele>81</ele>
        <time>2022-02-09T13:31:07.822Z</time>
      </trkpt>
      <trkpt lat="48.34901" lon="2.78102">
        <ele>81</ele>
        <time>2022-02-09T13:31:12.818Z</time>
      </trkpt>
      <trkpt lat="48.34906" lon="2.78095">
        <ele>84</ele>
        <time>2022-02-09T13:31:17.838Z</time>
      </trkpt>
      <trkpt lat="48.3491" lon="2.78088">
        <ele>84</ele>
        <time>2022-02-09T13:31:22.819Z</time>
      </trkpt>
      <trkpt lat="48.34914" lon="2.78084">
        <ele>84</ele>
        <time>2022-02-09T13:31:26.825Z</time>
      </trkpt>
      <trkpt lat="48.34917" lon="2.78077">
        <ele>84</ele>
        <time>2022-02-09T13:31:31.816Z</time>
      </trkpt>
      <trkpt lat="48.34921" lon="2.78071">
        <ele>84</ele>
        <time>2022-02-09T13:31:35.809Z</time>
      </trkpt>
      <trkpt lat="48.34924" lon="2.78066">
        <ele>84</ele>
        <time>2022-02-09T13:31:39.821Z</time>
      </trkpt>
      <trkpt lat="48.34928" lon="2.7806">
        <ele>84</ele>
        <time>2022-02-09T13:31:44.826Z</time>
      </trkpt>
      <trkpt lat="48.34931" lon="2.78053">
        <ele>87</ele>
        <time>2022-02-09T13:31:49.814Z</time>
      </trkpt>
      <trkpt lat="48.34936" lon="2.78046">
        <ele>87</ele>
        <time>2022-02-09T13:31:54.817Z</time>
      </trkpt>
      <trkpt lat="48.34939" lon="2.78041">
        <ele>87</ele>
        <time>2022-02-09T13:31:59.815Z</time>
      </trkpt>
      <trkpt lat="48.34942" lon="2.78035">
        <ele>87</ele>
        <time>2022-02-09T13:32:03.830Z</time>
      </trkpt>
      <trkpt lat="48.34945" lon="2.78027">
        <ele>87</ele>
        <time>2022-02-09T13:32:08.812Z</time>
      </trkpt>
      <trkpt lat="48.34949" lon="2.78022">
        <ele>87</ele>
        <time>2022-02-09T13:32:13.828Z</time>
      </trkpt>
      <trkpt lat="48.34952" lon="2.78015">
        <ele>87</ele>
        <time>2022-02-09T13:32:18.820Z</time>
      </trkpt>
      <trkpt lat="48.34957" lon="2.78009">
        <ele>87</ele>
        <time>2022-02-09T13:32:23.823Z</time>
      </trkpt>
      <trkpt lat="48.34962" lon="2.78002">
        <ele>87</ele>
        <time>2022-02-09T13:32:28.815Z</time>
      </trkpt>
      <trkpt lat="48.34966" lon="2.77996">
        <ele>87</ele>
        <time>2022-02-09T13:32:32.819Z</time>
      </trkpt>
      <trkpt lat="48.34971" lon="2.77988">
        <ele>87</ele>
        <time>2022-02-09T13:32:37.821Z</time>
      </trkpt>
      <trkpt lat="48.34975" lon="2.77981">
        <ele>87</ele>
        <time>2022-02-09T13:32:42.821Z</time>
      </trkpt>
      <trkpt lat="48.34979" lon="2.77976">
        <ele>87</ele>
        <time>2022-02-09T13:32:46.823Z</time>
      </trkpt>
      <trkpt lat="48.34985" lon="2.7797">
        <ele>87</ele>
        <time>2022-02-09T13:32:51.816Z</time>
      </trkpt>
      <trkpt lat="48.34988" lon="2.77966">
        <ele>89</ele>
        <time>2022-02-09T13:32:55.827Z</time>
      </trkpt>
      <trkpt lat="48.34993" lon="2.77958">
        <ele>89</ele>
        <time>2022-02-09T13:33:00.820Z</time>
      </trkpt>
      <trkpt lat="48.34998" lon="2.77953">
        <ele>90</ele>
        <time>2022-02-09T13:33:05.806Z</time>
      </trkpt>
      <trkpt lat="48.35004" lon="2.77946">
        <ele>90</ele>
        <time>2022-02-09T13:33:10.818Z</time>
      </trkpt>
      <trkpt lat="48.35008" lon="2.77942">
        <ele>90</ele>
        <time>2022-02-09T13:33:15.820Z</time>
      </trkpt>
      <trkpt lat="48.35011" lon="2.77936">
        <ele>90</ele>
        <time>2022-02-09T13:33:20.813Z</time>
      </trkpt>
      <trkpt lat="48.35016" lon="2.7793">
        <ele>92</ele>
        <time>2022-02-09T13:33:25.825Z</time>
      </trkpt>
      <trkpt lat="48.35021" lon="2.77923">
        <ele>92</ele>
        <time>2022-02-09T13:33:30.806Z</time>
      </trkpt>
      <trkpt lat="48.35026" lon="2.77917">
        <ele>92</ele>
        <time>2022-02-09T13:33:34.817Z</time>
      </trkpt>
      <trkpt lat="48.35029" lon="2.77912">
        <ele>92</ele>
        <time>2022-02-09T13:33:38.821Z</time>
      </trkpt>
      <trkpt lat="48.35033" lon="2.77906">
        <ele>92</ele>
        <time>2022-02-09T13:33:43.813Z</time>
      </trkpt>
      <trkpt lat="48.35036" lon="2.779">
        <ele>94</ele>
        <time>2022-02-09T13:33:47.819Z</time>
      </trkpt>
      <trkpt lat="48.3504" lon="2.77893">
        <ele>94</ele>
        <time>2022-02-09T13:33:52.815Z</time>
      </trkpt>
      <trkpt lat="48.35045" lon="2.77889">
        <ele>94</ele>
        <time>2022-02-09T13:33:56.821Z</time>
      </trkpt>
      <trkpt lat="48.35051" lon="2.77885">
        <ele>94</ele>
        <time>2022-02-09T13:34:01.806Z</time>
      </trkpt>
      <trkpt lat="48.35055" lon="2.77882">
        <ele>94</ele>
        <time>2022-02-09T13:34:05.813Z</time>
      </trkpt>
      <trkpt lat="48.35061" lon="2.77878">
        <ele>94</ele>
        <time>2022-02-09T13:34:10.813Z</time>
      </trkpt>
      <trkpt lat="48.35066" lon="2.77875">
        <ele>94</ele>
        <time>2022-02-09T13:34:14.815Z</time>
      </trkpt>
      <trkpt lat="48.35071" lon="2.77872">
        <ele>96</ele>
        <time>2022-02-09T13:34:19.813Z</time>
      </trkpt>
      <trkpt lat="48.35077" lon="2.77869">
        <ele>96</ele>
        <time>2022-02-09T13:34:23.820Z</time>
      </trkpt>
      <trkpt lat="48.35083" lon="2.77864">
        <ele>96</ele>
        <time>2022-02-09T13:34:28.806Z</time>
      </trkpt>
      <trkpt lat="48.35086" lon="2.7786">
        <ele>96</ele>
        <time>2022-02-09T13:34:32.825Z</time>
      </trkpt>
      <trkpt lat="48.35091" lon="2.77854">
        <ele>96</ele>
        <time>2022-02-09T13:34:37.807Z</time>
      </trkpt>
      <trkpt lat="48.35096" lon="2.77851">
        <ele>96</ele>
        <time>2022-02-09T13:34:41.812Z</time>
      </trkpt>
      <trkpt lat="48.351" lon="2.77849">
        <ele>98</ele>
        <time>2022-02-09T13:34:45.818Z</time>
      </trkpt>
      <trkpt lat="48.35107" lon="2.77846">
        <ele>98</ele>
        <time>2022-02-09T13:34:50.813Z</time>
      </trkpt>
      <trkpt lat="48.35114" lon="2.77843">
        <ele>98</ele>
        <time>2022-02-09T13:34:55.811Z</time>
      </trkpt>
      <trkpt lat="48.35121" lon="2.77839">
        <ele>98</ele>
        <time>2022-02-09T13:35:00.812Z</time>
      </trkpt>
      <trkpt lat="48.35126" lon="2.77836">
        <ele>99</ele>
        <time>2022-02-09T13:35:05.815Z</time>
      </trkpt>
      <trkpt lat="48.35131" lon="2.77834">
        <ele>99</ele>
        <time>2022-02-09T13:35:09.820Z</time>
      </trkpt>
      <trkpt lat="48.35136" lon="2.7783">
        <ele>99</ele>
        <time>2022-02-09T13:35:14.827Z</time>
      </trkpt>
      <trkpt lat="48.35142" lon="2.77826">
        <ele>99</ele>
        <time>2022-02-09T13:35:19.817Z</time>
      </trkpt>
      <trkpt lat="48.35147" lon="2.77822">
        <ele>99</ele>
        <time>2022-02-09T13:35:24.806Z</time>
      </trkpt>
      <trkpt lat="48.35151" lon="2.77819">
        <ele>98</ele>
        <time>2022-02-09T13:35:28.815Z</time>
      </trkpt>
      <trkpt lat="48.35156" lon="2.77817">
        <ele>99</ele>
        <time>2022-02-09T13:35:33.806Z</time>
      </trkpt>
      <trkpt lat="48.35161" lon="2.77814">
        <ele>99</ele>
        <time>2022-02-09T13:35:37.811Z</time>
      </trkpt>
      <trkpt lat="48.35166" lon="2.77812">
        <ele>99</ele>
        <time>2022-02-09T13:35:41.817Z</time>
      </trkpt>
      <trkpt lat="48.3517" lon="2.7781">
        <ele>99</ele>
        <time>2022-02-09T13:35:45.824Z</time>
      </trkpt>
      <trkpt lat="48.35176" lon="2.77805">
        <ele>99</ele>
        <time>2022-02-09T13:35:50.815Z</time>
      </trkpt>
      <trkpt lat="48.35182" lon="2.77802">
        <ele>99</ele>
        <time>2022-02-09T13:35:55.816Z</time>
      </trkpt>
      <trkpt lat="48.35188" lon="2.77798">
        <ele>99</ele>
        <time>2022-02-09T13:36:00.814Z</time>
      </trkpt>
      <trkpt lat="48.35193" lon="2.77795">
        <ele>99</ele>
        <time>2022-02-09T13:36:04.813Z</time>
      </trkpt>
      <trkpt lat="48.35199" lon="2.77793">
        <ele>99</ele>
        <time>2022-02-09T13:36:09.847Z</time>
      </trkpt>
      <trkpt lat="48.35206" lon="2.77789">
        <ele>99</ele>
        <time>2022-02-09T13:36:14.819Z</time>
      </trkpt>
      <trkpt lat="48.35211" lon="2.77787">
        <ele>100</ele>
        <time>2022-02-09T13:36:19.804Z</time>
      </trkpt>
      <trkpt lat="48.35217" lon="2.77783">
        <ele>100</ele>
        <time>2022-02-09T13:36:24.809Z</time>
      </trkpt>
      <trkpt lat="48.35222" lon="2.77779">
        <ele>100</ele>
        <time>2022-02-09T13:36:29.844Z</time>
      </trkpt>
      <trkpt lat="48.35227" lon="2.77777">
        <ele>100</ele>
        <time>2022-02-09T13:36:34.825Z</time>
      </trkpt>
      <trkpt lat="48.35233" lon="2.77774">
        <ele>100</ele>
        <time>2022-02-09T13:36:39.817Z</time>
      </trkpt>
      <trkpt lat="48.35239" lon="2.77771">
        <ele>103</ele>
        <time>2022-02-09T13:36:44.816Z</time>
      </trkpt>
      <trkpt lat="48.35244" lon="2.77768">
        <ele>103</ele>
        <time>2022-02-09T13:36:49.814Z</time>
      </trkpt>
      <trkpt lat="48.35251" lon="2.77765">
        <ele>103</ele>
        <time>2022-02-09T13:36:54.809Z</time>
      </trkpt>
      <trkpt lat="48.35255" lon="2.77763">
        <ele>103</ele>
        <time>2022-02-09T13:36:58.816Z</time>
      </trkpt>
      <trkpt lat="48.3526" lon="2.7776">
        <ele>103</ele>
        <time>2022-02-09T13:37:02.845Z</time>
      </trkpt>
      <trkpt lat="48.35266" lon="2.77757">
        <ele>104</ele>
        <time>2022-02-09T13:37:07.843Z</time>
      </trkpt>
      <trkpt lat="48.35271" lon="2.77754">
        <ele>104</ele>
        <time>2022-02-09T13:37:12.810Z</time>
      </trkpt>
      <trkpt lat="48.35277" lon="2.77751">
        <ele>104</ele>
        <time>2022-02-09T13:37:16.842Z</time>
      </trkpt>
      <trkpt lat="48.35285" lon="2.77746">
        <ele>104</ele>
        <time>2022-02-09T13:37:21.837Z</time>
      </trkpt>
      <trkpt lat="48.3529" lon="2.77742">
        <ele>104</ele>
        <time>2022-02-09T13:37:25.843Z</time>
      </trkpt>
      <trkpt lat="48.35296" lon="2.77737">
        <ele>104</ele>
        <time>2022-02-09T13:37:30.811Z</time>
      </trkpt>
      <trkpt lat="48.35301" lon="2.77733">
        <ele>104</ele>
        <time>2022-02-09T13:37:34.843Z</time>
      </trkpt>
      <trkpt lat="48.35305" lon="2.77729">
        <ele>104</ele>
        <time>2022-02-09T13:37:39.825Z</time>
      </trkpt>
      <trkpt lat="48.35311" lon="2.77725">
        <ele>104</ele>
        <time>2022-02-09T13:37:44.809Z</time>
      </trkpt>
      <trkpt lat="48.35316" lon="2.77722">
        <ele>104</ele>
        <time>2022-02-09T13:37:48.811Z</time>
      </trkpt>
      <trkpt lat="48.35322" lon="2.77719">
        <ele>102</ele>
        <time>2022-02-09T13:37:53.820Z</time>
      </trkpt>
      <trkpt lat="48.35326" lon="2.77717">
        <ele>102</ele>
        <time>2022-02-09T13:37:57.845Z</time>
      </trkpt>
      <trkpt lat="48.3533" lon="2.77716">
        <ele>102</ele>
        <time>2022-02-09T13:38:01.854Z</time>
      </trkpt>
      <trkpt lat="48.35337" lon="2.77716">
        <ele>102</ele>
        <time>2022-02-09T13:38:06.826Z</time>
      </trkpt>
      <trkpt lat="48.35344" lon="2.77716">
        <ele>102</ele>
        <time>2022-02-09T13:38:11.809Z</time>
      </trkpt>
      <trkpt lat="48.35351" lon="2.77714">
        <ele>97</ele>
        <time>2022-02-09T13:38:15.809Z</time>
      </trkpt>
      <trkpt lat="48.35357" lon="2.77711">
        <ele>97</ele>
        <time>2022-02-09T13:38:20.814Z</time>
      </trkpt>
      <trkpt lat="48.35363" lon="2.77707">
        <ele>97</ele>
        <time>2022-02-09T13:38:25.815Z</time>
      </trkpt>
      <trkpt lat="48.35367" lon="2.77706">
        <ele>97</ele>
        <time>2022-02-09T13:38:29.813Z</time>
      </trkpt>
      <trkpt lat="48.35374" lon="2.77704">
        <ele>97</ele>
        <time>2022-02-09T13:38:34.824Z</time>
      </trkpt>
      <trkpt lat="48.35379" lon="2.77701">
        <ele>95</ele>
        <time>2022-02-09T13:38:39.817Z</time>
      </trkpt>
      <trkpt lat="48.35385" lon="2.77698">
        <ele>95</ele>
        <time>2022-02-09T13:38:44.808Z</time>
      </trkpt>
      <trkpt lat="48.3539" lon="2.77696">
        <ele>95</ele>
        <time>2022-02-09T13:38:48.816Z</time>
      </trkpt>
      <trkpt lat="48.35397" lon="2.77693">
        <ele>95</ele>
        <time>2022-02-09T13:38:53.816Z</time>
      </trkpt>
      <trkpt lat="48.35402" lon="2.77689">
        <ele>95</ele>
        <time>2022-02-09T13:38:57.851Z</time>
      </trkpt>
      <trkpt lat="48.35408" lon="2.77685">
        <ele>95</ele>
        <time>2022-02-09T13:39:02.855Z</time>
      </trkpt>
      <trkpt lat="48.35412" lon="2.77679">
        <ele>94</ele>
        <time>2022-02-09T13:39:07.850Z</time>
      </trkpt>
      <trkpt lat="48.35415" lon="2.77671">
        <ele>94</ele>
        <time>2022-02-09T13:39:12.828Z</time>
      </trkpt>
      <trkpt lat="48.35416" lon="2.77661">
        <ele>94</ele>
        <time>2022-02-09T13:39:17.811Z</time>
      </trkpt>
      <trkpt lat="48.35416" lon="2.77652">
        <ele>93</ele>
        <time>2022-02-09T13:39:21.823Z</time>
      </trkpt>
      <trkpt lat="48.35418" lon="2.77642">
        <ele>93</ele>
        <time>2022-02-09T13:39:26.814Z</time>
      </trkpt>
      <trkpt lat="48.35419" lon="2.77632">
        <ele>93</ele>
        <time>2022-02-09T13:39:31.805Z</time>
      </trkpt>
      <trkpt lat="48.35422" lon="2.77624">
        <ele>93</ele>
        <time>2022-02-09T13:39:35.814Z</time>
      </trkpt>
      <trkpt lat="48.35423" lon="2.77613">
        <ele>93</ele>
        <time>2022-02-09T13:39:40.811Z</time>
      </trkpt>
      <trkpt lat="48.35426" lon="2.77605">
        <ele>93</ele>
        <time>2022-02-09T13:39:45.815Z</time>
      </trkpt>
      <trkpt lat="48.35427" lon="2.77592">
        <ele>92</ele>
        <time>2022-02-09T13:39:50.805Z</time>
      </trkpt>
      <trkpt lat="48.35429" lon="2.77585">
        <ele>92</ele>
        <time>2022-02-09T13:39:54.811Z</time>
      </trkpt>
      <trkpt lat="48.3543" lon="2.77575">
        <ele>92</ele>
        <time>2022-02-09T13:39:59.805Z</time>
      </trkpt>
      <trkpt lat="48.35431" lon="2.77565">
        <ele>89</ele>
        <time>2022-02-09T13:40:03.813Z</time>
      </trkpt>
      <trkpt lat="48.35433" lon="2.77556">
        <ele>89</ele>
        <time>2022-02-09T13:40:08.805Z</time>
      </trkpt>
      <trkpt lat="48.35434" lon="2.77549">
        <ele>89</ele>
        <time>2022-02-09T13:40:12.810Z</time>
      </trkpt>
      <trkpt lat="48.35434" lon="2.7754">
        <ele>89</ele>
        <time>2022-02-09T13:40:17.806Z</time>
      </trkpt>
      <trkpt lat="48.35436" lon="2.7753">
        <ele>89</ele>
        <time>2022-02-09T13:40:22.808Z</time>
      </trkpt>
      <trkpt lat="48.35437" lon="2.77522">
        <ele>89</ele>
        <time>2022-02-09T13:40:26.811Z</time>
      </trkpt>
      <trkpt lat="48.35441" lon="2.77515">
        <ele>89</ele>
        <time>2022-02-09T13:40:31.808Z</time>
      </trkpt>
      <trkpt lat="48.35445" lon="2.77516">
        <ele>89</ele>
        <time>2022-02-09T13:40:36.806Z</time>
      </trkpt>
      <trkpt lat="48.35449" lon="2.77516">
        <ele>89</ele>
        <time>2022-02-09T13:40:40.814Z</time>
      </trkpt>
      <trkpt lat="48.35454" lon="2.77518">
        <ele>89</ele>
        <time>2022-02-09T13:40:44.836Z</time>
      </trkpt>
      <trkpt lat="48.3546" lon="2.7752">
        <ele>87</ele>
        <time>2022-02-09T13:40:49.816Z</time>
      </trkpt>
      <trkpt lat="48.35464" lon="2.77522">
        <ele>87</ele>
        <time>2022-02-09T13:40:54.806Z</time>
      </trkpt>
      <trkpt lat="48.35469" lon="2.77522">
        <ele>87</ele>
        <time>2022-02-09T13:40:59.804Z</time>
      </trkpt>
      <trkpt lat="48.35475" lon="2.77522">
        <ele>87</ele>
        <time>2022-02-09T13:41:04.805Z</time>
      </trkpt>
      <trkpt lat="48.3548" lon="2.77522">
        <ele>87</ele>
        <time>2022-02-09T13:41:08.815Z</time>
      </trkpt>
      <trkpt lat="48.35486" lon="2.77522">
        <ele>87</ele>
        <time>2022-02-09T13:41:13.819Z</time>
      </trkpt>
      <trkpt lat="48.35494" lon="2.77522">
        <ele>87</ele>
        <time>2022-02-09T13:41:18.811Z</time>
      </trkpt>
      <trkpt lat="48.355" lon="2.77523">
        <ele>87</ele>
        <time>2022-02-09T13:41:23.811Z</time>
      </trkpt>
      <trkpt lat="48.35506" lon="2.77524">
        <ele>87</ele>
        <time>2022-02-09T13:41:27.810Z</time>
      </trkpt>
      <trkpt lat="48.35512" lon="2.77524">
        <ele>87</ele>
        <time>2022-02-09T13:41:31.818Z</time>
      </trkpt>
      <trkpt lat="48.35518" lon="2.77526">
        <ele>87</ele>
        <time>2022-02-09T13:41:35.842Z</time>
      </trkpt>
      <trkpt lat="48.35524" lon="2.77525">
        <ele>87</ele>
        <time>2022-02-09T13:41:40.826Z</time>
      </trkpt>
      <trkpt lat="48.3553" lon="2.77526">
        <ele>87</ele>
        <time>2022-02-09T13:41:45.818Z</time>
      </trkpt>
      <trkpt lat="48.35536" lon="2.77527">
        <ele>87</ele>
        <time>2022-02-09T13:41:50.815Z</time>
      </trkpt>
      <trkpt lat="48.35544" lon="2.77529">
        <ele>87</ele>
        <time>2022-02-09T13:41:55.808Z</time>
      </trkpt>
      <trkpt lat="48.35549" lon="2.7753">
        <ele>87</ele>
        <time>2022-02-09T13:41:59.813Z</time>
      </trkpt>
      <trkpt lat="48.35556" lon="2.7753">
        <ele>87</ele>
        <time>2022-02-09T13:42:04.815Z</time>
      </trkpt>
      <trkpt lat="48.35562" lon="2.7753">
        <ele>87</ele>
        <time>2022-02-09T13:42:09.810Z</time>
      </trkpt>
      <trkpt lat="48.35567" lon="2.7753">
        <ele>87</ele>
        <time>2022-02-09T13:42:13.814Z</time>
      </trkpt>
      <trkpt lat="48.35572" lon="2.77532">
        <ele>87</ele>
        <time>2022-02-09T13:42:18.809Z</time>
      </trkpt>
      <trkpt lat="48.35578" lon="2.77533">
        <ele>87</ele>
        <time>2022-02-09T13:42:23.807Z</time>
      </trkpt>
      <trkpt lat="48.35584" lon="2.77534">
        <ele>87</ele>
        <time>2022-02-09T13:42:27.814Z</time>
      </trkpt>
      <trkpt lat="48.3559" lon="2.77535">
        <ele>87</ele>
        <time>2022-02-09T13:42:32.808Z</time>
      </trkpt>
      <trkpt lat="48.35595" lon="2.77537">
        <ele>87</ele>
        <time>2022-02-09T13:42:36.837Z</time>
      </trkpt>
      <trkpt lat="48.35602" lon="2.77537">
        <ele>88</ele>
        <time>2022-02-09T13:42:41.812Z</time>
      </trkpt>
      <trkpt lat="48.35609" lon="2.77538">
        <ele>88</ele>
        <time>2022-02-09T13:42:46.807Z</time>
      </trkpt>
      <trkpt lat="48.35616" lon="2.77538">
        <ele>88</ele>
        <time>2022-02-09T13:42:50.810Z</time>
      </trkpt>
      <trkpt lat="48.35623" lon="2.77539">
        <ele>88</ele>
        <time>2022-02-09T13:42:55.817Z</time>
      </trkpt>
      <trkpt lat="48.3563" lon="2.7754">
        <ele>88</ele>
        <time>2022-02-09T13:43:00.805Z</time>
      </trkpt>
      <trkpt lat="48.35635" lon="2.7754">
        <ele>88</ele>
        <time>2022-02-09T13:43:04.811Z</time>
      </trkpt>
      <trkpt lat="48.35641" lon="2.77539">
        <ele>88</ele>
        <time>2022-02-09T13:43:08.814Z</time>
      </trkpt>
      <trkpt lat="48.35647" lon="2.77541">
        <ele>88</ele>
        <time>2022-02-09T13:43:13.814Z</time>
      </trkpt>
      <trkpt lat="48.35655" lon="2.77541">
        <ele>87</ele>
        <time>2022-02-09T13:43:18.807Z</time>
      </trkpt>
      <trkpt lat="48.35661" lon="2.77543">
        <ele>88</ele>
        <time>2022-02-09T13:43:22.819Z</time>
      </trkpt>
      <trkpt lat="48.35666" lon="2.77542">
        <ele>88</ele>
        <time>2022-02-09T13:43:26.855Z</time>
      </trkpt>
      <trkpt lat="48.35672" lon="2.77541">
        <ele>87</ele>
        <time>2022-02-09T13:43:31.814Z</time>
      </trkpt>
      <trkpt lat="48.3568" lon="2.77539">
        <ele>87</ele>
        <time>2022-02-09T13:43:36.823Z</time>
      </trkpt>
      <trkpt lat="48.35687" lon="2.77539">
        <ele>87</ele>
        <time>2022-02-09T13:43:41.804Z</time>
      </trkpt>
      <trkpt lat="48.35692" lon="2.77539">
        <ele>87</ele>
        <time>2022-02-09T13:43:45.812Z</time>
      </trkpt>
      <trkpt lat="48.35697" lon="2.77541">
        <ele>87</ele>
        <time>2022-02-09T13:43:49.812Z</time>
      </trkpt>
      <trkpt lat="48.35704" lon="2.77541">
        <ele>87</ele>
        <time>2022-02-09T13:43:54.812Z</time>
      </trkpt>
      <trkpt lat="48.35711" lon="2.77542">
        <ele>87</ele>
        <time>2022-02-09T13:43:59.822Z</time>
      </trkpt>
      <trkpt lat="48.35717" lon="2.77544">
        <ele>87</ele>
        <time>2022-02-09T13:44:04.814Z</time>
      </trkpt>
      <trkpt lat="48.35724" lon="2.77545">
        <ele>87</ele>
        <time>2022-02-09T13:44:09.820Z</time>
      </trkpt>
      <trkpt lat="48.35732" lon="2.77545">
        <ele>87</ele>
        <time>2022-02-09T13:44:14.819Z</time>
      </trkpt>
      <trkpt lat="48.3574" lon="2.77546">
        <ele>86</ele>
        <time>2022-02-09T13:44:19.812Z</time>
      </trkpt>
      <trkpt lat="48.35746" lon="2.77546">
        <ele>86</ele>
        <time>2022-02-09T13:44:23.818Z</time>
      </trkpt>
      <trkpt lat="48.35752" lon="2.77548">
        <ele>86</ele>
        <time>2022-02-09T13:44:28.818Z</time>
      </trkpt>
      <trkpt lat="48.35759" lon="2.77549">
        <ele>86</ele>
        <time>2022-02-09T13:44:33.812Z</time>
      </trkpt>
      <trkpt lat="48.35764" lon="2.77549">
        <ele>86</ele>
        <time>2022-02-09T13:44:37.875Z</time>
      </trkpt>
      <trkpt lat="48.35771" lon="2.77548">
        <ele>86</ele>
        <time>2022-02-09T13:44:42.846Z</time>
      </trkpt>
      <trkpt lat="48.35778" lon="2.77548">
        <ele>86</ele>
        <time>2022-02-09T13:44:47.844Z</time>
      </trkpt>
      <trkpt lat="48.35785" lon="2.77549">
        <ele>86</ele>
        <time>2022-02-09T13:44:52.811Z</time>
      </trkpt>
      <trkpt lat="48.35792" lon="2.7755">
        <ele>87</ele>
        <time>2022-02-09T13:44:57.820Z</time>
      </trkpt>
      <trkpt lat="48.35798" lon="2.77551">
        <ele>87</ele>
        <time>2022-02-09T13:45:02.814Z</time>
      </trkpt>
      <trkpt lat="48.35805" lon="2.77551">
        <ele>87</ele>
        <time>2022-02-09T13:45:07.816Z</time>
      </trkpt>
      <trkpt lat="48.35811" lon="2.77552">
        <ele>87</ele>
        <time>2022-02-09T13:45:12.807Z</time>
      </trkpt>
      <trkpt lat="48.35816" lon="2.77552">
        <ele>87</ele>
        <time>2022-02-09T13:45:16.831Z</time>
      </trkpt>
      <trkpt lat="48.35823" lon="2.77551">
        <ele>87</ele>
        <time>2022-02-09T13:45:21.818Z</time>
      </trkpt>
      <trkpt lat="48.35831" lon="2.7755">
        <ele>87</ele>
        <time>2022-02-09T13:45:26.817Z</time>
      </trkpt>
      <trkpt lat="48.35838" lon="2.77552">
        <ele>87</ele>
        <time>2022-02-09T13:45:31.824Z</time>
      </trkpt>
      <trkpt lat="48.35845" lon="2.77555">
        <ele>87</ele>
        <time>2022-02-09T13:45:36.821Z</time>
      </trkpt>
      <trkpt lat="48.3585" lon="2.77557">
        <ele>87</ele>
        <time>2022-02-09T13:45:40.827Z</time>
      </trkpt>
      <trkpt lat="48.35859" lon="2.77557">
        <ele>87</ele>
        <time>2022-02-09T13:45:46.859Z</time>
      </trkpt>
      <trkpt lat="48.35865" lon="2.77558">
        <ele>87</ele>
        <time>2022-02-09T13:45:51.871Z</time>
      </trkpt>
      <trkpt lat="48.35872" lon="2.77559">
        <ele>87</ele>
        <time>2022-02-09T13:45:56.820Z</time>
      </trkpt>
      <trkpt lat="48.35879" lon="2.77561">
        <ele>87</ele>
        <time>2022-02-09T13:46:00.861Z</time>
      </trkpt>
      <trkpt lat="48.35886" lon="2.77562">
        <ele>87</ele>
        <time>2022-02-09T13:46:05.810Z</time>
      </trkpt>
      <trkpt lat="48.35893" lon="2.77563">
        <ele>87</ele>
        <time>2022-02-09T13:46:10.816Z</time>
      </trkpt>
      <trkpt lat="48.35899" lon="2.77563">
        <ele>87</ele>
        <time>2022-02-09T13:46:15.808Z</time>
      </trkpt>
      <trkpt lat="48.35907" lon="2.77563">
        <ele>87</ele>
        <time>2022-02-09T13:46:20.815Z</time>
      </trkpt>
      <trkpt lat="48.35913" lon="2.77564">
        <ele>87</ele>
        <time>2022-02-09T13:46:25.812Z</time>
      </trkpt>
      <trkpt lat="48.35919" lon="2.77564">
        <ele>87</ele>
        <time>2022-02-09T13:46:29.824Z</time>
      </trkpt>
      <trkpt lat="48.35925" lon="2.77565">
        <ele>87</ele>
        <time>2022-02-09T13:46:34.838Z</time>
      </trkpt>
      <trkpt lat="48.35931" lon="2.77566">
        <ele>88</ele>
        <time>2022-02-09T13:46:39.813Z</time>
      </trkpt>
      <trkpt lat="48.35938" lon="2.77567">
        <ele>88</ele>
        <time>2022-02-09T13:46:44.819Z</time>
      </trkpt>
      <trkpt lat="48.35944" lon="2.77568">
        <ele>88</ele>
        <time>2022-02-09T13:46:49.818Z</time>
      </trkpt>
      <trkpt lat="48.35951" lon="2.77569">
        <ele>88</ele>
        <time>2022-02-09T13:46:54.809Z</time>
      </trkpt>
      <trkpt lat="48.35958" lon="2.77571">
        <ele>89</ele>
        <time>2022-02-09T13:46:58.814Z</time>
      </trkpt>
      <trkpt lat="48.35965" lon="2.77571">
        <ele>90</ele>
        <time>2022-02-09T13:47:03.826Z</time>
      </trkpt>
      <trkpt lat="48.35973" lon="2.77571">
        <ele>90</ele>
        <time>2022-02-09T13:47:08.819Z</time>
      </trkpt>
      <trkpt lat="48.35979" lon="2.7757">
        <ele>90</ele>
        <time>2022-02-09T13:47:13.815Z</time>
      </trkpt>
      <trkpt lat="48.35985" lon="2.77571">
        <ele>90</ele>
        <time>2022-02-09T13:47:17.826Z</time>
      </trkpt>
      <trkpt lat="48.35991" lon="2.77573">
        <ele>90</ele>
        <time>2022-02-09T13:47:22.804Z</time>
      </trkpt>
      <trkpt lat="48.35996" lon="2.77574">
        <ele>90</ele>
        <time>2022-02-09T13:47:26.805Z</time>
      </trkpt>
      <trkpt lat="48.36003" lon="2.77575">
        <ele>90</ele>
        <time>2022-02-09T13:47:31.806Z</time>
      </trkpt>
      <trkpt lat="48.36009" lon="2.77575">
        <ele>90</ele>
        <time>2022-02-09T13:47:35.805Z</time>
      </trkpt>
      <trkpt lat="48.36014" lon="2.77573">
        <ele>89</ele>
        <time>2022-02-09T13:47:39.817Z</time>
      </trkpt>
      <trkpt lat="48.36018" lon="2.77563">
        <ele>89</ele>
        <time>2022-02-09T13:47:44.806Z</time>
      </trkpt>
      <trkpt lat="48.36019" lon="2.77554">
        <ele>89</ele>
        <time>2022-02-09T13:47:48.814Z</time>
      </trkpt>
      <trkpt lat="48.36022" lon="2.77545">
        <ele>89</ele>
        <time>2022-02-09T13:47:52.811Z</time>
      </trkpt>
      <trkpt lat="48.36025" lon="2.77533">
        <ele>89</ele>
        <time>2022-02-09T13:47:57.817Z</time>
      </trkpt>
      <trkpt lat="48.36026" lon="2.77523">
        <ele>89</ele>
        <time>2022-02-09T13:48:02.820Z</time>
      </trkpt>
      <trkpt lat="48.36029" lon="2.77512">
        <ele>88</ele>
        <time>2022-02-09T13:48:07.823Z</time>
      </trkpt>
      <trkpt lat="48.3603" lon="2.77503">
        <ele>88</ele>
        <time>2022-02-09T13:48:12.810Z</time>
      </trkpt>
      <trkpt lat="48.36032" lon="2.77494">
        <ele>88</ele>
        <time>2022-02-09T13:48:17.811Z</time>
      </trkpt>
      <trkpt lat="48.36033" lon="2.77486">
        <ele>88</ele>
        <time>2022-02-09T13:48:21.817Z</time>
      </trkpt>
      <trkpt lat="48.36035" lon="2.77476">
        <ele>88</ele>
        <time>2022-02-09T13:48:26.822Z</time>
      </trkpt>
      <trkpt lat="48.36037" lon="2.77467">
        <ele>88</ele>
        <time>2022-02-09T13:48:31.857Z</time>
      </trkpt>
      <trkpt lat="48.36038" lon="2.77457">
        <ele>87</ele>
        <time>2022-02-09T13:48:36.845Z</time>
      </trkpt>
      <trkpt lat="48.3604" lon="2.77447">
        <ele>87</ele>
        <time>2022-02-09T13:48:41.896Z</time>
      </trkpt>
      <trkpt lat="48.36041" lon="2.77437">
        <ele>87</ele>
        <time>2022-02-09T13:48:46.808Z</time>
      </trkpt>
      <trkpt lat="48.36043" lon="2.77429">
        <ele>89</ele>
        <time>2022-02-09T13:48:50.815Z</time>
      </trkpt>
      <trkpt lat="48.36045" lon="2.77419">
        <ele>89</ele>
        <time>2022-02-09T13:48:55.800Z</time>
      </trkpt>
      <trkpt lat="48.36047" lon="2.77412">
        <ele>89</ele>
        <time>2022-02-09T13:48:59.818Z</time>
      </trkpt>
      <trkpt lat="48.36049" lon="2.77402">
        <ele>89</ele>
        <time>2022-02-09T13:49:04.810Z</time>
      </trkpt>
      <trkpt lat="48.36049" lon="2.77394">
        <ele>89</ele>
        <time>2022-02-09T13:49:08.820Z</time>
      </trkpt>
      <trkpt lat="48.3605" lon="2.77384">
        <ele>89</ele>
        <time>2022-02-09T13:49:13.807Z</time>
      </trkpt>
      <trkpt lat="48.36052" lon="2.77374">
        <ele>89</ele>
        <time>2022-02-09T13:49:17.823Z</time>
      </trkpt>
      <trkpt lat="48.36052" lon="2.77363">
        <ele>89</ele>
        <time>2022-02-09T13:49:22.822Z</time>
      </trkpt>
      <trkpt lat="48.36054" lon="2.77352">
        <ele>89</ele>
        <time>2022-02-09T13:49:27.816Z</time>
      </trkpt>
      <trkpt lat="48.36055" lon="2.77342">
        <ele>89</ele>
        <time>2022-02-09T13:49:32.814Z</time>
      </trkpt>
      <trkpt lat="48.36056" lon="2.77332">
        <ele>89</ele>
        <time>2022-02-09T13:49:37.811Z</time>
      </trkpt>
      <trkpt lat="48.36058" lon="2.77322">
        <ele>89</ele>
        <time>2022-02-09T13:49:41.825Z</time>
      </trkpt>
      <trkpt lat="48.3606" lon="2.7731">
        <ele>89</ele>
        <time>2022-02-09T13:49:46.809Z</time>
      </trkpt>
      <trkpt lat="48.36061" lon="2.77301">
        <ele>89</ele>
        <time>2022-02-09T13:49:51.810Z</time>
      </trkpt>
      <trkpt lat="48.36061" lon="2.77293">
        <ele>89</ele>
        <time>2022-02-09T13:49:55.819Z</time>
      </trkpt>
      <trkpt lat="48.36062" lon="2.77286">
        <ele>89</ele>
        <time>2022-02-09T13:49:59.816Z</time>
      </trkpt>
      <trkpt lat="48.36064" lon="2.77276">
        <ele>89</ele>
        <time>2022-02-09T13:50:04.814Z</time>
      </trkpt>
      <trkpt lat="48.36066" lon="2.77262">
        <ele>88</ele>
        <time>2022-02-09T13:50:09.809Z</time>
      </trkpt>
      <trkpt lat="48.36067" lon="2.77252">
        <ele>88</ele>
        <time>2022-02-09T13:50:13.815Z</time>
      </trkpt>
      <trkpt lat="48.36069" lon="2.77242">
        <ele>88</ele>
        <time>2022-02-09T13:50:18.824Z</time>
      </trkpt>
      <trkpt lat="48.36071" lon="2.77232">
        <ele>90</ele>
        <time>2022-02-09T13:50:23.813Z</time>
      </trkpt>
      <trkpt lat="48.36073" lon="2.77223">
        <ele>90</ele>
        <time>2022-02-09T13:50:27.815Z</time>
      </trkpt>
      <trkpt lat="48.36074" lon="2.77213">
        <ele>90</ele>
        <time>2022-02-09T13:50:32.815Z</time>
      </trkpt>
      <trkpt lat="48.36075" lon="2.77202">
        <ele>90</ele>
        <time>2022-02-09T13:50:37.811Z</time>
      </trkpt>
      <trkpt lat="48.36076" lon="2.77196">
        <ele>90</ele>
        <time>2022-02-09T13:50:41.814Z</time>
      </trkpt>
      <trkpt lat="48.36078" lon="2.77187">
        <ele>90</ele>
        <time>2022-02-09T13:50:46.810Z</time>
      </trkpt>
      <trkpt lat="48.36079" lon="2.77179">
        <ele>90</ele>
        <time>2022-02-09T13:50:50.801Z</time>
      </trkpt>
      <trkpt lat="48.36081" lon="2.77169">
        <ele>90</ele>
        <time>2022-02-09T13:50:55.804Z</time>
      </trkpt>
      <trkpt lat="48.36082" lon="2.7716">
        <ele>90</ele>
        <time>2022-02-09T13:50:59.813Z</time>
      </trkpt>
      <trkpt lat="48.36085" lon="2.77149">
        <ele>90</ele>
        <time>2022-02-09T13:51:04.817Z</time>
      </trkpt>
      <trkpt lat="48.36086" lon="2.77139">
        <ele>90</ele>
        <time>2022-02-09T13:51:09.825Z</time>
      </trkpt>
      <trkpt lat="48.36091" lon="2.77135">
        <ele>90</ele>
        <time>2022-02-09T13:51:14.822Z</time>
      </trkpt>
      <trkpt lat="48.36096" lon="2.77136">
        <ele>90</ele>
        <time>2022-02-09T13:51:19.811Z</time>
      </trkpt>
      <trkpt lat="48.36101" lon="2.77136">
        <ele>90</ele>
        <time>2022-02-09T13:51:24.820Z</time>
      </trkpt>
      <trkpt lat="48.36108" lon="2.77136">
        <ele>90</ele>
        <time>2022-02-09T13:51:29.814Z</time>
      </trkpt>
      <trkpt lat="48.36113" lon="2.77138">
        <ele>90</ele>
        <time>2022-02-09T13:51:33.823Z</time>
      </trkpt>
      <trkpt lat="48.36118" lon="2.77141">
        <ele>90</ele>
        <time>2022-02-09T13:51:38.804Z</time>
      </trkpt>
      <trkpt lat="48.36124" lon="2.77143">
        <ele>90</ele>
        <time>2022-02-09T13:51:42.815Z</time>
      </trkpt>
      <trkpt lat="48.36128" lon="2.77143">
        <ele>87</ele>
        <time>2022-02-09T13:51:46.859Z</time>
      </trkpt>
      <trkpt lat="48.36134" lon="2.77143">
        <ele>87</ele>
        <time>2022-02-09T13:51:51.820Z</time>
      </trkpt>
      <trkpt lat="48.3614" lon="2.77143">
        <ele>87</ele>
        <time>2022-02-09T13:51:55.828Z</time>
      </trkpt>
      <trkpt lat="48.36146" lon="2.77141">
        <ele>87</ele>
        <time>2022-02-09T13:52:00.825Z</time>
      </trkpt>
      <trkpt lat="48.36151" lon="2.77141">
        <ele>87</ele>
        <time>2022-02-09T13:52:04.859Z</time>
      </trkpt>
      <trkpt lat="48.36157" lon="2.77141">
        <ele>85</ele>
        <time>2022-02-09T13:52:09.813Z</time>
      </trkpt>
      <trkpt lat="48.36163" lon="2.77142">
        <ele>85</ele>
        <time>2022-02-09T13:52:14.814Z</time>
      </trkpt>
      <trkpt lat="48.36169" lon="2.77142">
        <ele>85</ele>
        <time>2022-02-09T13:52:18.819Z</time>
      </trkpt>
      <trkpt lat="48.36174" lon="2.77144">
        <ele>85</ele>
        <time>2022-02-09T13:52:22.842Z</time>
      </trkpt>
      <trkpt lat="48.36181" lon="2.77145">
        <ele>83</ele>
        <time>2022-02-09T13:52:27.851Z</time>
      </trkpt>
      <trkpt lat="48.36187" lon="2.77144">
        <ele>83</ele>
        <time>2022-02-09T13:52:32.842Z</time>
      </trkpt>
      <trkpt lat="48.36194" lon="2.77144">
        <ele>83</ele>
        <time>2022-02-09T13:52:37.840Z</time>
      </trkpt>
      <trkpt lat="48.362" lon="2.77145">
        <ele>83</ele>
        <time>2022-02-09T13:52:41.848Z</time>
      </trkpt>
      <trkpt lat="48.36207" lon="2.77145">
        <ele>83</ele>
        <time>2022-02-09T13:52:46.811Z</time>
      </trkpt>
      <trkpt lat="48.36213" lon="2.77145">
        <ele>85</ele>
        <time>2022-02-09T13:52:50.819Z</time>
      </trkpt>
      <trkpt lat="48.3622" lon="2.77146">
        <ele>85</ele>
        <time>2022-02-09T13:52:55.803Z</time>
      </trkpt>
      <trkpt lat="48.36228" lon="2.77146">
        <ele>85</ele>
        <time>2022-02-09T13:53:00.814Z</time>
      </trkpt>
      <trkpt lat="48.36233" lon="2.77148">
        <ele>85</ele>
        <time>2022-02-09T13:53:04.830Z</time>
      </trkpt>
      <trkpt lat="48.36241" lon="2.77149">
        <ele>88</ele>
        <time>2022-02-09T13:53:09.829Z</time>
      </trkpt>
      <trkpt lat="48.36248" lon="2.77148">
        <ele>88</ele>
        <time>2022-02-09T13:53:14.810Z</time>
      </trkpt>
      <trkpt lat="48.36253" lon="2.77149">
        <ele>88</ele>
        <time>2022-02-09T13:53:18.815Z</time>
      </trkpt>
      <trkpt lat="48.3626" lon="2.7715">
        <ele>88</ele>
        <time>2022-02-09T13:53:23.830Z</time>
      </trkpt>
      <trkpt lat="48.36266" lon="2.7715">
        <ele>89</ele>
        <time>2022-02-09T13:53:28.813Z</time>
      </trkpt>
      <trkpt lat="48.36272" lon="2.77151">
        <ele>89</ele>
        <time>2022-02-09T13:53:32.815Z</time>
      </trkpt>
      <trkpt lat="48.36279" lon="2.77151">
        <ele>89</ele>
        <time>2022-02-09T13:53:37.821Z</time>
      </trkpt>
      <trkpt lat="48.36284" lon="2.77154">
        <ele>88</ele>
        <time>2022-02-09T13:53:42.813Z</time>
      </trkpt>
      <trkpt lat="48.36291" lon="2.77155">
        <ele>88</ele>
        <time>2022-02-09T13:53:47.819Z</time>
      </trkpt>
      <trkpt lat="48.36297" lon="2.77155">
        <ele>90</ele>
        <time>2022-02-09T13:53:51.847Z</time>
      </trkpt>
      <trkpt lat="48.36303" lon="2.77155">
        <ele>90</ele>
        <time>2022-02-09T13:53:56.821Z</time>
      </trkpt>
      <trkpt lat="48.36309" lon="2.77156">
        <ele>90</ele>
        <time>2022-02-09T13:54:00.858Z</time>
      </trkpt>
      <trkpt lat="48.36316" lon="2.77158">
        <ele>90</ele>
        <time>2022-02-09T13:54:05.854Z</time>
      </trkpt>
      <trkpt lat="48.36323" lon="2.7716">
        <ele>92</ele>
        <time>2022-02-09T13:54:10.809Z</time>
      </trkpt>
      <trkpt lat="48.36329" lon="2.77161">
        <ele>92</ele>
        <time>2022-02-09T13:54:14.816Z</time>
      </trkpt>
      <trkpt lat="48.36337" lon="2.77162">
        <ele>92</ele>
        <time>2022-02-09T13:54:19.854Z</time>
      </trkpt>
      <trkpt lat="48.36344" lon="2.77162">
        <ele>92</ele>
        <time>2022-02-09T13:54:24.823Z</time>
      </trkpt>
      <trkpt lat="48.36352" lon="2.77161">
        <ele>93</ele>
        <time>2022-02-09T13:54:29.846Z</time>
      </trkpt>
      <trkpt lat="48.36359" lon="2.77161">
        <ele>93</ele>
        <time>2022-02-09T13:54:34.812Z</time>
      </trkpt>
      <trkpt lat="48.36366" lon="2.77161">
        <ele>93</ele>
        <time>2022-02-09T13:54:39.818Z</time>
      </trkpt>
      <trkpt lat="48.3637" lon="2.77161">
        <ele>93</ele>
        <time>2022-02-09T13:54:43.834Z</time>
      </trkpt>
      <trkpt lat="48.36376" lon="2.77161">
        <ele>93</ele>
        <time>2022-02-09T13:54:48.826Z</time>
      </trkpt>
      <trkpt lat="48.36383" lon="2.77161">
        <ele>93</ele>
        <time>2022-02-09T13:54:53.813Z</time>
      </trkpt>
      <trkpt lat="48.3639" lon="2.77161">
        <ele>93</ele>
        <time>2022-02-09T13:54:58.817Z</time>
      </trkpt>
      <trkpt lat="48.36396" lon="2.77161">
        <ele>93</ele>
        <time>2022-02-09T13:55:03.808Z</time>
      </trkpt>
      <trkpt lat="48.36402" lon="2.77162">
        <ele>93</ele>
        <time>2022-02-09T13:55:07.852Z</time>
      </trkpt>
      <trkpt lat="48.36409" lon="2.77162">
        <ele>94</ele>
        <time>2022-02-09T13:55:12.847Z</time>
      </trkpt>
      <trkpt lat="48.36417" lon="2.77157">
        <ele>94</ele>
        <time>2022-02-09T13:58:20.821Z</time>
      </trkpt>
      <trkpt lat="48.36417" lon="2.77157">
        <ele>94</ele>
        <time>2022-02-09T13:58:25.823Z</time>
      </trkpt>
      <trkpt lat="48.3642" lon="2.77152">
        <ele>93</ele>
        <time>2022-02-09T13:58:29.821Z</time>
      </trkpt>
      <trkpt lat="48.36423" lon="2.77143">
        <ele>93</ele>
        <time>2022-02-09T13:58:34.812Z</time>
      </trkpt>
      <trkpt lat="48.36425" lon="2.77135">
        <ele>93</ele>
        <time>2022-02-09T13:58:38.811Z</time>
      </trkpt>
      <trkpt lat="48.36427" lon="2.77125">
        <ele>92</ele>
        <time>2022-02-09T13:58:43.807Z</time>
      </trkpt>
      <trkpt lat="48.36429" lon="2.77117">
        <ele>92</ele>
        <time>2022-02-09T13:58:47.813Z</time>
      </trkpt>
      <trkpt lat="48.3643" lon="2.77106">
        <ele>92</ele>
        <time>2022-02-09T13:58:52.805Z</time>
      </trkpt>
      <trkpt lat="48.36432" lon="2.77098">
        <ele>92</ele>
        <time>2022-02-09T13:58:56.806Z</time>
      </trkpt>
      <trkpt lat="48.36433" lon="2.7709">
        <ele>93</ele>
        <time>2022-02-09T13:59:00.821Z</time>
      </trkpt>
      <trkpt lat="48.36434" lon="2.77078">
        <ele>93</ele>
        <time>2022-02-09T13:59:05.814Z</time>
      </trkpt>
      <trkpt lat="48.36435" lon="2.77066">
        <ele>93</ele>
        <time>2022-02-09T13:59:10.808Z</time>
      </trkpt>
      <trkpt lat="48.36436" lon="2.77057">
        <ele>93</ele>
        <time>2022-02-09T13:59:15.812Z</time>
      </trkpt>
      <trkpt lat="48.36437" lon="2.77047">
        <ele>93</ele>
        <time>2022-02-09T13:59:19.826Z</time>
      </trkpt>
      <trkpt lat="48.36439" lon="2.77036">
        <ele>93</ele>
        <time>2022-02-09T13:59:24.821Z</time>
      </trkpt>
      <trkpt lat="48.3644" lon="2.77027">
        <ele>93</ele>
        <time>2022-02-09T13:59:29.815Z</time>
      </trkpt>
      <trkpt lat="48.36442" lon="2.77017">
        <ele>93</ele>
        <time>2022-02-09T13:59:34.831Z</time>
      </trkpt>
      <trkpt lat="48.36443" lon="2.77009">
        <ele>94</ele>
        <time>2022-02-09T13:59:39.809Z</time>
      </trkpt>
      <trkpt lat="48.36444" lon="2.77002">
        <ele>94</ele>
        <time>2022-02-09T13:59:43.816Z</time>
      </trkpt>
      <trkpt lat="48.36444" lon="2.76993">
        <ele>94</ele>
        <time>2022-02-09T13:59:48.809Z</time>
      </trkpt>
      <trkpt lat="48.36445" lon="2.76986">
        <ele>94</ele>
        <time>2022-02-09T13:59:52.824Z</time>
      </trkpt>
      <trkpt lat="48.36447" lon="2.76978">
        <ele>94</ele>
        <time>2022-02-09T13:59:57.811Z</time>
      </trkpt>
      <trkpt lat="48.36448" lon="2.76967">
        <ele>94</ele>
        <time>2022-02-09T14:00:02.814Z</time>
      </trkpt>
      <trkpt lat="48.36448" lon="2.76959">
        <ele>94</ele>
        <time>2022-02-09T14:00:06.812Z</time>
      </trkpt>
      <trkpt lat="48.36449" lon="2.7695">
        <ele>95</ele>
        <time>2022-02-09T14:00:11.810Z</time>
      </trkpt>
      <trkpt lat="48.3645" lon="2.76941">
        <ele>95</ele>
        <time>2022-02-09T14:00:15.806Z</time>
      </trkpt>
      <trkpt lat="48.36452" lon="2.76931">
        <ele>95</ele>
        <time>2022-02-09T14:00:20.810Z</time>
      </trkpt>
      <trkpt lat="48.36453" lon="2.76924">
        <ele>96</ele>
        <time>2022-02-09T14:00:24.821Z</time>
      </trkpt>
      <trkpt lat="48.36455" lon="2.76915">
        <ele>96</ele>
        <time>2022-02-09T14:00:29.813Z</time>
      </trkpt>
      <trkpt lat="48.36455" lon="2.76907">
        <ele>96</ele>
        <time>2022-02-09T14:00:33.814Z</time>
      </trkpt>
      <trkpt lat="48.36456" lon="2.76896">
        <ele>97</ele>
        <time>2022-02-09T14:00:38.812Z</time>
      </trkpt>
      <trkpt lat="48.36458" lon="2.76888">
        <ele>97</ele>
        <time>2022-02-09T14:00:42.818Z</time>
      </trkpt>
      <trkpt lat="48.36459" lon="2.76879">
        <ele>99</ele>
        <time>2022-02-09T14:00:46.814Z</time>
      </trkpt>
      <trkpt lat="48.36459" lon="2.76869">
        <ele>99</ele>
        <time>2022-02-09T14:00:51.814Z</time>
      </trkpt>
      <trkpt lat="48.3646" lon="2.76859">
        <ele>99</ele>
        <time>2022-02-09T14:00:56.818Z</time>
      </trkpt>
      <trkpt lat="48.36462" lon="2.7685">
        <ele>99</ele>
        <time>2022-02-09T14:01:01.817Z</time>
      </trkpt>
      <trkpt lat="48.36462" lon="2.7684">
        <ele>100</ele>
        <time>2022-02-09T14:01:06.819Z</time>
      </trkpt>
      <trkpt lat="48.36463" lon="2.7683">
        <ele>100</ele>
        <time>2022-02-09T14:01:11.807Z</time>
      </trkpt>
      <trkpt lat="48.36464" lon="2.76822">
        <ele>100</ele>
        <time>2022-02-09T14:01:15.805Z</time>
      </trkpt>
      <trkpt lat="48.36465" lon="2.76814">
        <ele>100</ele>
        <time>2022-02-09T14:01:19.817Z</time>
      </trkpt>
      <trkpt lat="48.36465" lon="2.76804">
        <ele>100</ele>
        <time>2022-02-09T14:01:24.830Z</time>
      </trkpt>
      <trkpt lat="48.36466" lon="2.76793">
        <ele>100</ele>
        <time>2022-02-09T14:01:29.819Z</time>
      </trkpt>
      <trkpt lat="48.36467" lon="2.76785">
        <ele>101</ele>
        <time>2022-02-09T14:01:33.904Z</time>
      </trkpt>
      <trkpt lat="48.36469" lon="2.76776">
        <ele>101</ele>
        <time>2022-02-09T14:01:38.812Z</time>
      </trkpt>
      <trkpt lat="48.36469" lon="2.76767">
        <ele>101</ele>
        <time>2022-02-09T14:01:42.815Z</time>
      </trkpt>
      <trkpt lat="48.36471" lon="2.76756">
        <ele>101</ele>
        <time>2022-02-09T14:01:47.814Z</time>
      </trkpt>
      <trkpt lat="48.36474" lon="2.76746">
        <ele>101</ele>
        <time>2022-02-09T14:01:52.806Z</time>
      </trkpt>
      <trkpt lat="48.36474" lon="2.76735">
        <ele>100</ele>
        <time>2022-02-09T14:01:57.814Z</time>
      </trkpt>
      <trkpt lat="48.36475" lon="2.76726">
        <ele>100</ele>
        <time>2022-02-09T14:02:01.816Z</time>
      </trkpt>
      <trkpt lat="48.36476" lon="2.76715">
        <ele>100</ele>
        <time>2022-02-09T14:02:06.823Z</time>
      </trkpt>
      <trkpt lat="48.36478" lon="2.76705">
        <ele>98</ele>
        <time>2022-02-09T14:02:11.815Z</time>
      </trkpt>
      <trkpt lat="48.3648" lon="2.76693">
        <ele>98</ele>
        <time>2022-02-09T14:02:16.821Z</time>
      </trkpt>
      <trkpt lat="48.36483" lon="2.76682">
        <ele>98</ele>
        <time>2022-02-09T14:02:21.813Z</time>
      </trkpt>
      <trkpt lat="48.36487" lon="2.76677">
        <ele>96</ele>
        <time>2022-02-09T14:02:26.820Z</time>
      </trkpt>
      <trkpt lat="48.36492" lon="2.76675">
        <ele>96</ele>
        <time>2022-02-09T14:02:31.810Z</time>
      </trkpt>
      <trkpt lat="48.36495" lon="2.76675">
        <ele>96</ele>
        <time>2022-02-09T14:02:35.819Z</time>
      </trkpt>
      <trkpt lat="48.365" lon="2.76676">
        <ele>96</ele>
        <time>2022-02-09T14:02:40.808Z</time>
      </trkpt>
      <trkpt lat="48.36504" lon="2.76678">
        <ele>96</ele>
        <time>2022-02-09T14:02:44.815Z</time>
      </trkpt>
      <trkpt lat="48.3651" lon="2.76679">
        <ele>96</ele>
        <time>2022-02-09T14:02:49.815Z</time>
      </trkpt>
      <trkpt lat="48.36516" lon="2.76679">
        <ele>94</ele>
        <time>2022-02-09T14:02:54.807Z</time>
      </trkpt>
      <trkpt lat="48.36521" lon="2.7668">
        <ele>94</ele>
        <time>2022-02-09T14:02:58.803Z</time>
      </trkpt>
      <trkpt lat="48.36526" lon="2.7668">
        <ele>94</ele>
        <time>2022-02-09T14:03:03.802Z</time>
      </trkpt>
      <trkpt lat="48.36533" lon="2.7668">
        <ele>94</ele>
        <time>2022-02-09T14:03:08.807Z</time>
      </trkpt>
      <trkpt lat="48.36538" lon="2.76681">
        <ele>96</ele>
        <time>2022-02-09T14:03:12.812Z</time>
      </trkpt>
      <trkpt lat="48.36544" lon="2.76681">
        <ele>93</ele>
        <time>2022-02-09T14:03:17.809Z</time>
      </trkpt>
      <trkpt lat="48.36552" lon="2.76681">
        <ele>93</ele>
        <time>2022-02-09T14:03:22.809Z</time>
      </trkpt>
      <trkpt lat="48.36559" lon="2.76682">
        <ele>93</ele>
        <time>2022-02-09T14:03:27.816Z</time>
      </trkpt>
      <trkpt lat="48.36566" lon="2.76682">
        <ele>93</ele>
        <time>2022-02-09T14:03:32.835Z</time>
      </trkpt>
      <trkpt lat="48.36572" lon="2.76683">
        <ele>92</ele>
        <time>2022-02-09T14:03:37.821Z</time>
      </trkpt>
      <trkpt lat="48.36578" lon="2.76683">
        <ele>92</ele>
        <time>2022-02-09T14:03:41.830Z</time>
      </trkpt>
      <trkpt lat="48.36584" lon="2.76684">
        <ele>92</ele>
        <time>2022-02-09T14:03:46.816Z</time>
      </trkpt>
      <trkpt lat="48.3659" lon="2.76685">
        <ele>92</ele>
        <time>2022-02-09T14:03:51.820Z</time>
      </trkpt>
      <trkpt lat="48.36597" lon="2.76686">
        <ele>92</ele>
        <time>2022-02-09T14:03:56.810Z</time>
      </trkpt>
      <trkpt lat="48.36604" lon="2.76685">
        <ele>92</ele>
        <time>2022-02-09T14:04:00.812Z</time>
      </trkpt>
      <trkpt lat="48.36611" lon="2.76685">
        <ele>92</ele>
        <time>2022-02-09T14:04:05.809Z</time>
      </trkpt>
      <trkpt lat="48.36619" lon="2.76685">
        <ele>92</ele>
        <time>2022-02-09T14:04:10.814Z</time>
      </trkpt>
      <trkpt lat="48.36626" lon="2.76686">
        <ele>93</ele>
        <time>2022-02-09T14:04:15.801Z</time>
      </trkpt>
      <trkpt lat="48.36632" lon="2.76688">
        <ele>93</ele>
        <time>2022-02-09T14:04:19.813Z</time>
      </trkpt>
      <trkpt lat="48.36639" lon="2.76688">
        <ele>93</ele>
        <time>2022-02-09T14:04:24.808Z</time>
      </trkpt>
      <trkpt lat="48.36645" lon="2.76688">
        <ele>93</ele>
        <time>2022-02-09T14:04:28.809Z</time>
      </trkpt>
      <trkpt lat="48.36651" lon="2.76688">
        <ele>93</ele>
        <time>2022-02-09T14:04:33.808Z</time>
      </trkpt>
      <trkpt lat="48.36657" lon="2.7669">
        <ele>94</ele>
        <time>2022-02-09T14:04:37.820Z</time>
      </trkpt>
      <trkpt lat="48.36664" lon="2.76692">
        <ele>94</ele>
        <time>2022-02-09T14:04:42.817Z</time>
      </trkpt>
      <trkpt lat="48.3667" lon="2.76694">
        <ele>94</ele>
        <time>2022-02-09T14:04:47.815Z</time>
      </trkpt>
      <trkpt lat="48.36677" lon="2.76695">
        <ele>94</ele>
        <time>2022-02-09T14:04:52.811Z</time>
      </trkpt>
      <trkpt lat="48.36684" lon="2.76696">
        <ele>93</ele>
        <time>2022-02-09T14:04:57.811Z</time>
      </trkpt>
      <trkpt lat="48.36689" lon="2.76696">
        <ele>93</ele>
        <time>2022-02-09T14:05:01.819Z</time>
      </trkpt>
      <trkpt lat="48.36697" lon="2.76697">
        <ele>93</ele>
        <time>2022-02-09T14:05:06.813Z</time>
      </trkpt>
      <trkpt lat="48.36703" lon="2.76698">
        <ele>93</ele>
        <time>2022-02-09T14:05:11.818Z</time>
      </trkpt>
      <trkpt lat="48.36708" lon="2.767">
        <ele>93</ele>
        <time>2022-02-09T14:05:15.820Z</time>
      </trkpt>
      <trkpt lat="48.36715" lon="2.76702">
        <ele>93</ele>
        <time>2022-02-09T14:05:20.817Z</time>
      </trkpt>
      <trkpt lat="48.36722" lon="2.76702">
        <ele>93</ele>
        <time>2022-02-09T14:05:25.815Z</time>
      </trkpt>
      <trkpt lat="48.36727" lon="2.76702">
        <ele>93</ele>
        <time>2022-02-09T14:05:29.819Z</time>
      </trkpt>
      <trkpt lat="48.36734" lon="2.76703">
        <ele>93</ele>
        <time>2022-02-09T14:05:34.820Z</time>
      </trkpt>
      <trkpt lat="48.36742" lon="2.76704">
        <ele>96</ele>
        <time>2022-02-09T14:05:39.820Z</time>
      </trkpt>
      <trkpt lat="48.36749" lon="2.76705">
        <ele>96</ele>
        <time>2022-02-09T14:05:44.820Z</time>
      </trkpt>
      <trkpt lat="48.36755" lon="2.76706">
        <ele>96</ele>
        <time>2022-02-09T14:05:49.827Z</time>
      </trkpt>
      <trkpt lat="48.36763" lon="2.76705">
        <ele>96</ele>
        <time>2022-02-09T14:05:54.809Z</time>
      </trkpt>
      <trkpt lat="48.36769" lon="2.76706">
        <ele>98</ele>
        <time>2022-02-09T14:05:59.817Z</time>
      </trkpt>
      <trkpt lat="48.36776" lon="2.76707">
        <ele>98</ele>
        <time>2022-02-09T14:06:04.822Z</time>
      </trkpt>
      <trkpt lat="48.36784" lon="2.76708">
        <ele>98</ele>
        <time>2022-02-09T14:06:09.814Z</time>
      </trkpt>
      <trkpt lat="48.36788" lon="2.76708">
        <ele>98</ele>
        <time>2022-02-09T14:06:13.822Z</time>
      </trkpt>
      <trkpt lat="48.36792" lon="2.76708">
        <ele>99</ele>
        <time>2022-02-09T14:06:18.820Z</time>
      </trkpt>
      <trkpt lat="48.36797" lon="2.76704">
        <ele>99</ele>
        <time>2022-02-09T14:06:23.821Z</time>
      </trkpt>
      <trkpt lat="48.36798" lon="2.76695">
        <ele>99</ele>
        <time>2022-02-09T14:06:28.820Z</time>
      </trkpt>
      <trkpt lat="48.36799" lon="2.76688">
        <ele>99</ele>
        <time>2022-02-09T14:06:32.936Z</time>
      </trkpt>
      <trkpt lat="48.36798" lon="2.76679">
        <ele>97</ele>
        <time>2022-02-09T14:06:37.814Z</time>
      </trkpt>
      <trkpt lat="48.36798" lon="2.76673">
        <ele>97</ele>
        <time>2022-02-09T14:06:42.813Z</time>
      </trkpt>
      <trkpt lat="48.36796" lon="2.76665">
        <ele>97</ele>
        <time>2022-02-09T14:06:46.814Z</time>
      </trkpt>
      <trkpt lat="48.36794" lon="2.76654">
        <ele>97</ele>
        <time>2022-02-09T14:06:51.823Z</time>
      </trkpt>
      <trkpt lat="48.36792" lon="2.76644">
        <ele>96</ele>
        <time>2022-02-09T14:06:56.808Z</time>
      </trkpt>
      <trkpt lat="48.3679" lon="2.76636">
        <ele>97</ele>
        <time>2022-02-09T14:07:00.812Z</time>
      </trkpt>
      <trkpt lat="48.36789" lon="2.76628">
        <ele>97</ele>
        <time>2022-02-09T14:07:04.818Z</time>
      </trkpt>
      <trkpt lat="48.36786" lon="2.76619">
        <ele>97</ele>
        <time>2022-02-09T14:07:09.834Z</time>
      </trkpt>
      <trkpt lat="48.36785" lon="2.7661">
        <ele>97</ele>
        <time>2022-02-09T14:07:14.803Z</time>
      </trkpt>
      <trkpt lat="48.36782" lon="2.76601">
        <ele>97</ele>
        <time>2022-02-09T14:07:18.827Z</time>
      </trkpt>
      <trkpt lat="48.36781" lon="2.76591">
        <ele>98</ele>
        <time>2022-02-09T14:07:23.824Z</time>
      </trkpt>
      <trkpt lat="48.36779" lon="2.76579">
        <ele>98</ele>
        <time>2022-02-09T14:07:28.828Z</time>
      </trkpt>
      <trkpt lat="48.36777" lon="2.76569">
        <ele>99</ele>
        <time>2022-02-09T14:07:33.830Z</time>
      </trkpt>
      <trkpt lat="48.36776" lon="2.7656">
        <ele>99</ele>
        <time>2022-02-09T14:07:38.818Z</time>
      </trkpt>
      <trkpt lat="48.36774" lon="2.7655">
        <ele>99</ele>
        <time>2022-02-09T14:07:43.816Z</time>
      </trkpt>
      <trkpt lat="48.36772" lon="2.7654">
        <ele>99</ele>
        <time>2022-02-09T14:07:48.810Z</time>
      </trkpt>
      <trkpt lat="48.36769" lon="2.7653">
        <ele>99</ele>
        <time>2022-02-09T14:07:53.820Z</time>
      </trkpt>
      <trkpt lat="48.36767" lon="2.76522">
        <ele>99</ele>
        <time>2022-02-09T14:07:57.823Z</time>
      </trkpt>
      <trkpt lat="48.36766" lon="2.76511">
        <ele>100</ele>
        <time>2022-02-09T14:08:02.822Z</time>
      </trkpt>
      <trkpt lat="48.36765" lon="2.76502">
        <ele>100</ele>
        <time>2022-02-09T14:08:07.805Z</time>
      </trkpt>
      <trkpt lat="48.36762" lon="2.76492">
        <ele>100</ele>
        <time>2022-02-09T14:08:12.817Z</time>
      </trkpt>
      <trkpt lat="48.3676" lon="2.76483">
        <ele>100</ele>
        <time>2022-02-09T14:08:17.814Z</time>
      </trkpt>
      <trkpt lat="48.36758" lon="2.76472">
        <ele>100</ele>
        <time>2022-02-09T14:08:22.808Z</time>
      </trkpt>
      <trkpt lat="48.36754" lon="2.76462">
        <ele>100</ele>
        <time>2022-02-09T14:08:26.817Z</time>
      </trkpt>
      <trkpt lat="48.36754" lon="2.76452">
        <ele>100</ele>
        <time>2022-02-09T14:08:31.819Z</time>
      </trkpt>
      <trkpt lat="48.36752" lon="2.76443">
        <ele>100</ele>
        <time>2022-02-09T14:08:36.818Z</time>
      </trkpt>
      <trkpt lat="48.3675" lon="2.76434">
        <ele>100</ele>
        <time>2022-02-09T14:08:41.825Z</time>
      </trkpt>
      <trkpt lat="48.36748" lon="2.76425">
        <ele>101</ele>
        <time>2022-02-09T14:08:46.825Z</time>
      </trkpt>
      <trkpt lat="48.36746" lon="2.76417">
        <ele>101</ele>
        <time>2022-02-09T14:08:51.808Z</time>
      </trkpt>
      <trkpt lat="48.36742" lon="2.76409">
        <ele>101</ele>
        <time>2022-02-09T14:08:56.833Z</time>
      </trkpt>
      <trkpt lat="48.36741" lon="2.76399">
        <ele>101</ele>
        <time>2022-02-09T14:09:01.823Z</time>
      </trkpt>
      <trkpt lat="48.36738" lon="2.76387">
        <ele>101</ele>
        <time>2022-02-09T14:09:06.811Z</time>
      </trkpt>
      <trkpt lat="48.36737" lon="2.76378">
        <ele>101</ele>
        <time>2022-02-09T14:09:10.816Z</time>
      </trkpt>
      <trkpt lat="48.36736" lon="2.76367">
        <ele>101</ele>
        <time>2022-02-09T14:09:15.816Z</time>
      </trkpt>
      <trkpt lat="48.36733" lon="2.76357">
        <ele>101</ele>
        <time>2022-02-09T14:09:20.820Z</time>
      </trkpt>
      <trkpt lat="48.36729" lon="2.76349">
        <ele>101</ele>
        <time>2022-02-09T14:09:25.816Z</time>
      </trkpt>
      <trkpt lat="48.36729" lon="2.76339">
        <ele>101</ele>
        <time>2022-02-09T14:09:30.817Z</time>
      </trkpt>
      <trkpt lat="48.36727" lon="2.76331">
        <ele>101</ele>
        <time>2022-02-09T14:09:34.830Z</time>
      </trkpt>
      <trkpt lat="48.36725" lon="2.76322">
        <ele>101</ele>
        <time>2022-02-09T14:09:39.819Z</time>
      </trkpt>
      <trkpt lat="48.36722" lon="2.76312">
        <ele>101</ele>
        <time>2022-02-09T14:09:44.819Z</time>
      </trkpt>
      <trkpt lat="48.36719" lon="2.76303">
        <ele>101</ele>
        <time>2022-02-09T14:09:49.839Z</time>
      </trkpt>
      <trkpt lat="48.36716" lon="2.76292">
        <ele>101</ele>
        <time>2022-02-09T14:09:54.815Z</time>
      </trkpt>
      <trkpt lat="48.36714" lon="2.76281">
        <ele>103</ele>
        <time>2022-02-09T14:09:59.826Z</time>
      </trkpt>
      <trkpt lat="48.36714" lon="2.7627">
        <ele>103</ele>
        <time>2022-02-09T14:10:04.823Z</time>
      </trkpt>
      <trkpt lat="48.36714" lon="2.76259">
        <ele>104</ele>
        <time>2022-02-09T14:10:09.822Z</time>
      </trkpt>
      <trkpt lat="48.36714" lon="2.7625">
        <ele>104</ele>
        <time>2022-02-09T14:10:14.815Z</time>
      </trkpt>
      <trkpt lat="48.36714" lon="2.76241">
        <ele>104</ele>
        <time>2022-02-09T14:10:18.823Z</time>
      </trkpt>
      <trkpt lat="48.36713" lon="2.76232">
        <ele>104</ele>
        <time>2022-02-09T14:10:23.813Z</time>
      </trkpt>
      <trkpt lat="48.36712" lon="2.76223">
        <ele>104</ele>
        <time>2022-02-09T14:10:27.836Z</time>
      </trkpt>
      <trkpt lat="48.36711" lon="2.76215">
        <ele>104</ele>
        <time>2022-02-09T14:10:32.824Z</time>
      </trkpt>
      <trkpt lat="48.36713" lon="2.76206">
        <ele>105</ele>
        <time>2022-02-09T14:10:37.817Z</time>
      </trkpt>
      <trkpt lat="48.36714" lon="2.76199">
        <ele>105</ele>
        <time>2022-02-09T14:10:42.817Z</time>
      </trkpt>
      <trkpt lat="48.36715" lon="2.76189">
        <ele>105</ele>
        <time>2022-02-09T14:10:47.820Z</time>
      </trkpt>
      <trkpt lat="48.36714" lon="2.76181">
        <ele>105</ele>
        <time>2022-02-09T14:10:51.822Z</time>
      </trkpt>
      <trkpt lat="48.36713" lon="2.76173">
        <ele>105</ele>
        <time>2022-02-09T14:10:55.815Z</time>
      </trkpt>
      <trkpt lat="48.36714" lon="2.76164">
        <ele>105</ele>
        <time>2022-02-09T14:11:00.813Z</time>
      </trkpt>
      <trkpt lat="48.36714" lon="2.76155">
        <ele>105</ele>
        <time>2022-02-09T14:11:05.823Z</time>
      </trkpt>
      <trkpt lat="48.36712" lon="2.76149">
        <ele>104</ele>
        <time>2022-02-09T14:11:10.830Z</time>
      </trkpt>
      <trkpt lat="48.3671" lon="2.76145">
        <ele>104</ele>
        <time>2022-02-09T14:11:15.814Z</time>
      </trkpt>
      <trkpt lat="48.3671" lon="2.76145">
        <ele>104</ele>
        <time>2022-02-09T14:11:28.815Z</time>
      </trkpt>
      <trkpt lat="48.3671" lon="2.76139">
        <ele>104</ele>
        <time>2022-02-09T14:11:32.828Z</time>
      </trkpt>
      <trkpt lat="48.3671" lon="2.76131">
        <ele>104</ele>
        <time>2022-02-09T14:11:37.828Z</time>
      </trkpt>
      <trkpt lat="48.36711" lon="2.76123">
        <ele>104</ele>
        <time>2022-02-09T14:11:42.814Z</time>
      </trkpt>
      <trkpt lat="48.36712" lon="2.76117">
        <ele>104</ele>
        <time>2022-02-09T14:11:47.813Z</time>
      </trkpt>
      <trkpt lat="48.36712" lon="2.76113">
        <ele>104</ele>
        <time>2022-02-09T14:11:51.827Z</time>
      </trkpt>
      <trkpt lat="48.36713" lon="2.76108">
        <ele>104</ele>
        <time>2022-02-09T14:11:56.947Z</time>
      </trkpt>
      <trkpt lat="48.36715" lon="2.76101">
        <ele>104</ele>
        <time>2022-02-09T14:12:01.823Z</time>
      </trkpt>
      <trkpt lat="48.36716" lon="2.76096">
        <ele>104</ele>
        <time>2022-02-09T14:12:06.819Z</time>
      </trkpt>
      <trkpt lat="48.36716" lon="2.76089">
        <ele>104</ele>
        <time>2022-02-09T14:12:11.821Z</time>
      </trkpt>
      <trkpt lat="48.36715" lon="2.76081">
        <ele>104</ele>
        <time>2022-02-09T14:12:16.815Z</time>
      </trkpt>
      <trkpt lat="48.36715" lon="2.76076">
        <ele>104</ele>
        <time>2022-02-09T14:12:21.818Z</time>
      </trkpt>
      <trkpt lat="48.36715" lon="2.7607">
        <ele>104</ele>
        <time>2022-02-09T14:12:25.819Z</time>
      </trkpt>
      <trkpt lat="48.36714" lon="2.76061">
        <ele>105</ele>
        <time>2022-02-09T14:12:30.829Z</time>
      </trkpt>
      <trkpt lat="48.36714" lon="2.76051">
        <ele>105</ele>
        <time>2022-02-09T14:12:35.836Z</time>
      </trkpt>
      <trkpt lat="48.36716" lon="2.76044">
        <ele>105</ele>
        <time>2022-02-09T14:12:40.818Z</time>
      </trkpt>
      <trkpt lat="48.36716" lon="2.76036">
        <ele>107</ele>
        <time>2022-02-09T14:12:45.816Z</time>
      </trkpt>
      <trkpt lat="48.36717" lon="2.7603">
        <ele>107</ele>
        <time>2022-02-09T14:12:49.811Z</time>
      </trkpt>
      <trkpt lat="48.36717" lon="2.76023">
        <ele>107</ele>
        <time>2022-02-09T14:12:54.814Z</time>
      </trkpt>
      <trkpt lat="48.36718" lon="2.76015">
        <ele>107</ele>
        <time>2022-02-09T14:12:59.822Z</time>
      </trkpt>
      <trkpt lat="48.36718" lon="2.76009">
        <ele>109</ele>
        <time>2022-02-09T14:13:03.826Z</time>
      </trkpt>
      <trkpt lat="48.3672" lon="2.76002">
        <ele>109</ele>
        <time>2022-02-09T14:13:08.815Z</time>
      </trkpt>
      <trkpt lat="48.36721" lon="2.75995">
        <ele>109</ele>
        <time>2022-02-09T14:13:12.825Z</time>
      </trkpt>
      <trkpt lat="48.36722" lon="2.75987">
        <ele>109</ele>
        <time>2022-02-09T14:13:17.817Z</time>
      </trkpt>
      <trkpt lat="48.36723" lon="2.7598">
        <ele>110</ele>
        <time>2022-02-09T14:13:21.823Z</time>
      </trkpt>
      <trkpt lat="48.36725" lon="2.7597">
        <ele>110</ele>
        <time>2022-02-09T14:13:26.821Z</time>
      </trkpt>
      <trkpt lat="48.36726" lon="2.7596">
        <ele>110</ele>
        <time>2022-02-09T14:13:31.819Z</time>
      </trkpt>
      <trkpt lat="48.36726" lon="2.75951">
        <ele>112</ele>
        <time>2022-02-09T14:13:36.818Z</time>
      </trkpt>
      <trkpt lat="48.36727" lon="2.75943">
        <ele>112</ele>
        <time>2022-02-09T14:13:41.823Z</time>
      </trkpt>
      <trkpt lat="48.36727" lon="2.75933">
        <ele>112</ele>
        <time>2022-02-09T14:13:46.816Z</time>
      </trkpt>
      <trkpt lat="48.36729" lon="2.75925">
        <ele>114</ele>
        <time>2022-02-09T14:13:51.811Z</time>
      </trkpt>
      <trkpt lat="48.3673" lon="2.75918">
        <ele>114</ele>
        <time>2022-02-09T14:13:55.818Z</time>
      </trkpt>
      <trkpt lat="48.36732" lon="2.75911">
        <ele>114</ele>
        <time>2022-02-09T14:14:00.830Z</time>
      </trkpt>
      <trkpt lat="48.36732" lon="2.75902">
        <ele>119</ele>
        <time>2022-02-09T14:14:05.834Z</time>
      </trkpt>
      <trkpt lat="48.36732" lon="2.75895">
        <ele>119</ele>
        <time>2022-02-09T14:14:10.821Z</time>
      </trkpt>
      <trkpt lat="48.36733" lon="2.7589">
        <ele>119</ele>
        <time>2022-02-09T14:14:14.819Z</time>
      </trkpt>
      <trkpt lat="48.36736" lon="2.75884">
        <ele>119</ele>
        <time>2022-02-09T14:14:19.827Z</time>
      </trkpt>
      <trkpt lat="48.36736" lon="2.75877">
        <ele>119</ele>
        <time>2022-02-09T14:14:24.812Z</time>
      </trkpt>
      <trkpt lat="48.36735" lon="2.75871">
        <ele>123</ele>
        <time>2022-02-09T14:14:28.819Z</time>
      </trkpt>
      <trkpt lat="48.36737" lon="2.75865">
        <ele>126</ele>
        <time>2022-02-09T14:14:32.935Z</time>
      </trkpt>
      <trkpt lat="48.36737" lon="2.75858">
        <ele>126</ele>
        <time>2022-02-09T14:14:37.819Z</time>
      </trkpt>
      <trkpt lat="48.36738" lon="2.75849">
        <ele>126</ele>
        <time>2022-02-09T14:14:42.820Z</time>
      </trkpt>
      <trkpt lat="48.36739" lon="2.75841">
        <ele>128</ele>
        <time>2022-02-09T14:14:47.811Z</time>
      </trkpt>
      <trkpt lat="48.36739" lon="2.75832">
        <ele>128</ele>
        <time>2022-02-09T14:14:52.816Z</time>
      </trkpt>
      <trkpt lat="48.36739" lon="2.75824">
        <ele>128</ele>
        <time>2022-02-09T14:14:57.823Z</time>
      </trkpt>
      <trkpt lat="48.3674" lon="2.75817">
        <ele>129</ele>
        <time>2022-02-09T14:15:02.831Z</time>
      </trkpt>
      <trkpt lat="48.3674" lon="2.75809">
        <ele>129</ele>
        <time>2022-02-09T14:15:07.822Z</time>
      </trkpt>
      <trkpt lat="48.3674" lon="2.75803">
        <ele>129</ele>
        <time>2022-02-09T14:15:12.818Z</time>
      </trkpt>
      <trkpt lat="48.3674" lon="2.75795">
        <ele>129</ele>
        <time>2022-02-09T14:15:17.829Z</time>
      </trkpt>
      <trkpt lat="48.36741" lon="2.75789">
        <ele>129</ele>
        <time>2022-02-09T14:15:22.078Z</time>
      </trkpt>
      <trkpt lat="48.36742" lon="2.75782">
        <ele>129</ele>
        <time>2022-02-09T14:15:26.826Z</time>
      </trkpt>
      <trkpt lat="48.36743" lon="2.75775">
        <ele>129</ele>
        <time>2022-02-09T14:15:31.820Z</time>
      </trkpt>
      <trkpt lat="48.36745" lon="2.75767">
        <ele>129</ele>
        <time>2022-02-09T14:15:36.809Z</time>
      </trkpt>
      <trkpt lat="48.36746" lon="2.75759">
        <ele>131</ele>
        <time>2022-02-09T14:15:40.820Z</time>
      </trkpt>
      <trkpt lat="48.36746" lon="2.75751">
        <ele>131</ele>
        <time>2022-02-09T14:15:45.816Z</time>
      </trkpt>
      <trkpt lat="48.36747" lon="2.75745">
        <ele>131</ele>
        <time>2022-02-09T14:15:49.835Z</time>
      </trkpt>
      <trkpt lat="48.36746" lon="2.7574">
        <ele>131</ele>
        <time>2022-02-09T14:15:54.818Z</time>
      </trkpt>
      <trkpt lat="48.36746" lon="2.75729">
        <ele>133</ele>
        <time>2022-02-09T14:17:37.816Z</time>
      </trkpt>
      <trkpt lat="48.36744" lon="2.75725">
        <ele>133</ele>
        <time>2022-02-09T14:17:41.822Z</time>
      </trkpt>
      <trkpt lat="48.36744" lon="2.7572">
        <ele>133</ele>
        <time>2022-02-09T14:17:46.815Z</time>
      </trkpt>
      <trkpt lat="48.36743" lon="2.75712">
        <ele>133</ele>
        <time>2022-02-09T14:17:51.817Z</time>
      </trkpt>
      <trkpt lat="48.36743" lon="2.75705">
        <ele>133</ele>
        <time>2022-02-09T14:17:56.816Z</time>
      </trkpt>
      <trkpt lat="48.36741" lon="2.75699">
        <ele>133</ele>
        <time>2022-02-09T14:18:00.822Z</time>
      </trkpt>
      <trkpt lat="48.3674" lon="2.75691">
        <ele>133</ele>
        <time>2022-02-09T14:18:05.818Z</time>
      </trkpt>
      <trkpt lat="48.36738" lon="2.75682">
        <ele>133</ele>
        <time>2022-02-09T14:18:10.813Z</time>
      </trkpt>
      <trkpt lat="48.36738" lon="2.75675">
        <ele>134</ele>
        <time>2022-02-09T14:18:14.819Z</time>
      </trkpt>
      <trkpt lat="48.36736" lon="2.75668">
        <ele>134</ele>
        <time>2022-02-09T14:18:18.822Z</time>
      </trkpt>
      <trkpt lat="48.36735" lon="2.75659">
        <ele>131</ele>
        <time>2022-02-09T14:18:23.813Z</time>
      </trkpt>
      <trkpt lat="48.36734" lon="2.75652">
        <ele>132</ele>
        <time>2022-02-09T14:18:27.825Z</time>
      </trkpt>
      <trkpt lat="48.36733" lon="2.75643">
        <ele>132</ele>
        <time>2022-02-09T14:18:32.820Z</time>
      </trkpt>
      <trkpt lat="48.36732" lon="2.75633">
        <ele>132</ele>
        <time>2022-02-09T14:18:37.827Z</time>
      </trkpt>
      <trkpt lat="48.36731" lon="2.75624">
        <ele>132</ele>
        <time>2022-02-09T14:18:41.862Z</time>
      </trkpt>
      <trkpt lat="48.36729" lon="2.75615">
        <ele>132</ele>
        <time>2022-02-09T14:18:46.807Z</time>
      </trkpt>
      <trkpt lat="48.36728" lon="2.75608">
        <ele>132</ele>
        <time>2022-02-09T14:18:50.811Z</time>
      </trkpt>
      <trkpt lat="48.36727" lon="2.756">
        <ele>132</ele>
        <time>2022-02-09T14:18:54.827Z</time>
      </trkpt>
      <trkpt lat="48.36725" lon="2.75591">
        <ele>133</ele>
        <time>2022-02-09T14:18:59.822Z</time>
      </trkpt>
      <trkpt lat="48.36723" lon="2.75581">
        <ele>133</ele>
        <time>2022-02-09T14:19:04.809Z</time>
      </trkpt>
      <trkpt lat="48.36722" lon="2.75574">
        <ele>133</ele>
        <time>2022-02-09T14:19:08.814Z</time>
      </trkpt>
      <trkpt lat="48.36721" lon="2.75565">
        <ele>134</ele>
        <time>2022-02-09T14:19:13.822Z</time>
      </trkpt>
      <trkpt lat="48.36718" lon="2.75559">
        <ele>134</ele>
        <time>2022-02-09T14:19:17.849Z</time>
      </trkpt>
      <trkpt lat="48.36718" lon="2.75549">
        <ele>134</ele>
        <time>2022-02-09T14:19:22.819Z</time>
      </trkpt>
      <trkpt lat="48.36718" lon="2.75542">
        <ele>134</ele>
        <time>2022-02-09T14:19:26.818Z</time>
      </trkpt>
      <trkpt lat="48.36717" lon="2.75533">
        <ele>135</ele>
        <time>2022-02-09T14:19:31.851Z</time>
      </trkpt>
      <trkpt lat="48.36717" lon="2.75523">
        <ele>135</ele>
        <time>2022-02-09T14:19:36.857Z</time>
      </trkpt>
      <trkpt lat="48.36718" lon="2.75515">
        <ele>135</ele>
        <time>2022-02-09T14:19:41.852Z</time>
      </trkpt>
      <trkpt lat="48.3672" lon="2.75507">
        <ele>136</ele>
        <time>2022-02-09T14:19:46.866Z</time>
      </trkpt>
      <trkpt lat="48.36723" lon="2.75498">
        <ele>136</ele>
        <time>2022-02-09T14:19:51.838Z</time>
      </trkpt>
      <trkpt lat="48.36726" lon="2.75489">
        <ele>136</ele>
        <time>2022-02-09T14:19:56.828Z</time>
      </trkpt>
      <trkpt lat="48.36729" lon="2.75481">
        <ele>136</ele>
        <time>2022-02-09T14:20:01.845Z</time>
      </trkpt>
      <trkpt lat="48.36732" lon="2.75473">
        <ele>136</ele>
        <time>2022-02-09T14:20:06.815Z</time>
      </trkpt>
      <trkpt lat="48.36734" lon="2.75464">
        <ele>136</ele>
        <time>2022-02-09T14:20:11.849Z</time>
      </trkpt>
      <trkpt lat="48.36736" lon="2.75455">
        <ele>139</ele>
        <time>2022-02-09T14:20:16.850Z</time>
      </trkpt>
      <trkpt lat="48.36737" lon="2.75447">
        <ele>139</ele>
        <time>2022-02-09T14:20:20.856Z</time>
      </trkpt>
      <trkpt lat="48.36739" lon="2.75437">
        <ele>139</ele>
        <time>2022-02-09T14:20:25.856Z</time>
      </trkpt>
      <trkpt lat="48.3674" lon="2.75427">
        <ele>138</ele>
        <time>2022-02-09T14:20:30.822Z</time>
      </trkpt>
      <trkpt lat="48.36741" lon="2.75417">
        <ele>138</ele>
        <time>2022-02-09T14:20:35.820Z</time>
      </trkpt>
      <trkpt lat="48.36742" lon="2.75409">
        <ele>138</ele>
        <time>2022-02-09T14:20:39.828Z</time>
      </trkpt>
      <trkpt lat="48.36742" lon="2.75399">
        <ele>138</ele>
        <time>2022-02-09T14:20:44.810Z</time>
      </trkpt>
      <trkpt lat="48.36742" lon="2.7539">
        <ele>138</ele>
        <time>2022-02-09T14:20:48.816Z</time>
      </trkpt>
      <trkpt lat="48.36742" lon="2.75381">
        <ele>138</ele>
        <time>2022-02-09T14:20:52.847Z</time>
      </trkpt>
      <trkpt lat="48.36743" lon="2.75369">
        <ele>138</ele>
        <time>2022-02-09T14:20:57.817Z</time>
      </trkpt>
      <trkpt lat="48.36743" lon="2.75361">
        <ele>138</ele>
        <time>2022-02-09T14:21:01.839Z</time>
      </trkpt>
      <trkpt lat="48.36743" lon="2.7535">
        <ele>138</ele>
        <time>2022-02-09T14:21:06.850Z</time>
      </trkpt>
      <trkpt lat="48.36745" lon="2.75338">
        <ele>137</ele>
        <time>2022-02-09T14:21:11.820Z</time>
      </trkpt>
      <trkpt lat="48.36747" lon="2.75332">
        <ele>137</ele>
        <time>2022-02-09T14:21:15.848Z</time>
      </trkpt>
      <trkpt lat="48.36747" lon="2.75322">
        <ele>137</ele>
        <time>2022-02-09T14:21:20.855Z</time>
      </trkpt>
      <trkpt lat="48.36749" lon="2.75313">
        <ele>136</ele>
        <time>2022-02-09T14:21:25.821Z</time>
      </trkpt>
      <trkpt lat="48.36749" lon="2.75304">
        <ele>136</ele>
        <time>2022-02-09T14:21:30.845Z</time>
      </trkpt>
      <trkpt lat="48.36751" lon="2.75296">
        <ele>136</ele>
        <time>2022-02-09T14:21:35.815Z</time>
      </trkpt>
      <trkpt lat="48.36751" lon="2.75288">
        <ele>136</ele>
        <time>2022-02-09T14:21:39.822Z</time>
      </trkpt>
      <trkpt lat="48.36753" lon="2.75277">
        <ele>136</ele>
        <time>2022-02-09T14:21:44.874Z</time>
      </trkpt>
      <trkpt lat="48.36753" lon="2.75263">
        <ele>136</ele>
        <time>2022-02-09T14:21:49.822Z</time>
      </trkpt>
      <trkpt lat="48.36754" lon="2.75254">
        <ele>136</ele>
        <time>2022-02-09T14:21:54.824Z</time>
      </trkpt>
      <trkpt lat="48.36754" lon="2.75245">
        <ele>136</ele>
        <time>2022-02-09T14:21:59.827Z</time>
      </trkpt>
      <trkpt lat="48.36753" lon="2.75235">
        <ele>136</ele>
        <time>2022-02-09T14:22:04.810Z</time>
      </trkpt>
      <trkpt lat="48.36752" lon="2.75227">
        <ele>136</ele>
        <time>2022-02-09T14:22:08.821Z</time>
      </trkpt>
      <trkpt lat="48.36752" lon="2.75216">
        <ele>136</ele>
        <time>2022-02-09T14:22:13.807Z</time>
      </trkpt>
      <trkpt lat="48.36751" lon="2.75207">
        <ele>136</ele>
        <time>2022-02-09T14:22:17.811Z</time>
      </trkpt>
      <trkpt lat="48.3675" lon="2.75197">
        <ele>136</ele>
        <time>2022-02-09T14:22:22.817Z</time>
      </trkpt>
      <trkpt lat="48.36748" lon="2.75186">
        <ele>136</ele>
        <time>2022-02-09T14:22:27.815Z</time>
      </trkpt>
      <trkpt lat="48.36746" lon="2.75178">
        <ele>136</ele>
        <time>2022-02-09T14:22:31.866Z</time>
      </trkpt>
      <trkpt lat="48.36744" lon="2.75168">
        <ele>136</ele>
        <time>2022-02-09T14:22:36.818Z</time>
      </trkpt>
      <trkpt lat="48.36743" lon="2.75158">
        <ele>136</ele>
        <time>2022-02-09T14:22:41.859Z</time>
      </trkpt>
      <trkpt lat="48.36741" lon="2.75148">
        <ele>136</ele>
        <time>2022-02-09T14:22:46.849Z</time>
      </trkpt>
      <trkpt lat="48.36739" lon="2.75138">
        <ele>136</ele>
        <time>2022-02-09T14:22:51.850Z</time>
      </trkpt>
      <trkpt lat="48.36736" lon="2.75128">
        <ele>135</ele>
        <time>2022-02-09T14:22:56.865Z</time>
      </trkpt>
      <trkpt lat="48.36735" lon="2.75116">
        <ele>135</ele>
        <time>2022-02-09T14:23:01.854Z</time>
      </trkpt>
      <trkpt lat="48.36732" lon="2.75106">
        <ele>135</ele>
        <time>2022-02-09T14:23:06.844Z</time>
      </trkpt>
      <trkpt lat="48.3673" lon="2.75095">
        <ele>136</ele>
        <time>2022-02-09T14:23:11.828Z</time>
      </trkpt>
      <trkpt lat="48.36727" lon="2.75085">
        <ele>136</ele>
        <time>2022-02-09T14:23:16.814Z</time>
      </trkpt>
      <trkpt lat="48.36724" lon="2.7508">
        <ele>136</ele>
        <time>2022-02-09T14:23:20.819Z</time>
      </trkpt>
      <trkpt lat="48.36719" lon="2.7507">
        <ele>136</ele>
        <time>2022-02-09T14:23:25.815Z</time>
      </trkpt>
      <trkpt lat="48.3672" lon="2.7506">
        <ele>136</ele>
        <time>2022-02-09T14:23:30.819Z</time>
      </trkpt>
      <trkpt lat="48.3672" lon="2.75053">
        <ele>136</ele>
        <time>2022-02-09T14:23:34.829Z</time>
      </trkpt>
      <trkpt lat="48.3672" lon="2.75046">
        <ele>136</ele>
        <time>2022-02-09T14:23:38.857Z</time>
      </trkpt>
      <trkpt lat="48.36719" lon="2.75036">
        <ele>136</ele>
        <time>2022-02-09T14:23:43.824Z</time>
      </trkpt>
      <trkpt lat="48.36719" lon="2.75027">
        <ele>136</ele>
        <time>2022-02-09T14:23:48.811Z</time>
      </trkpt>
      <trkpt lat="48.3672" lon="2.75019">
        <ele>136</ele>
        <time>2022-02-09T14:23:52.818Z</time>
      </trkpt>
      <trkpt lat="48.36723" lon="2.7501">
        <ele>136</ele>
        <time>2022-02-09T14:23:57.821Z</time>
      </trkpt>
      <trkpt lat="48.36725" lon="2.75">
        <ele>136</ele>
        <time>2022-02-09T14:24:02.822Z</time>
      </trkpt>
      <trkpt lat="48.36728" lon="2.74994">
        <ele>136</ele>
        <time>2022-02-09T14:24:06.832Z</time>
      </trkpt>
      <trkpt lat="48.36733" lon="2.74988">
        <ele>136</ele>
        <time>2022-02-09T14:24:11.826Z</time>
      </trkpt>
      <trkpt lat="48.36739" lon="2.74983">
        <ele>137</ele>
        <time>2022-02-09T14:24:16.832Z</time>
      </trkpt>
      <trkpt lat="48.36744" lon="2.74979">
        <ele>137</ele>
        <time>2022-02-09T14:24:21.824Z</time>
      </trkpt>
      <trkpt lat="48.3675" lon="2.74975">
        <ele>137</ele>
        <time>2022-02-09T14:24:26.818Z</time>
      </trkpt>
      <trkpt lat="48.36755" lon="2.74969">
        <ele>137</ele>
        <time>2022-02-09T14:24:31.814Z</time>
      </trkpt>
      <trkpt lat="48.3676" lon="2.74962">
        <ele>137</ele>
        <time>2022-02-09T14:24:36.824Z</time>
      </trkpt>
      <trkpt lat="48.36764" lon="2.74953">
        <ele>138</ele>
        <time>2022-02-09T14:24:41.816Z</time>
      </trkpt>
      <trkpt lat="48.36768" lon="2.74947">
        <ele>138</ele>
        <time>2022-02-09T14:24:45.825Z</time>
      </trkpt>
      <trkpt lat="48.36772" lon="2.74937">
        <ele>138</ele>
        <time>2022-02-09T14:24:50.820Z</time>
      </trkpt>
      <trkpt lat="48.36774" lon="2.74926">
        <ele>138</ele>
        <time>2022-02-09T14:24:55.815Z</time>
      </trkpt>
      <trkpt lat="48.36776" lon="2.74915">
        <ele>138</ele>
        <time>2022-02-09T14:25:00.830Z</time>
      </trkpt>
      <trkpt lat="48.36775" lon="2.74904">
        <ele>138</ele>
        <time>2022-02-09T14:25:05.816Z</time>
      </trkpt>
      <trkpt lat="48.36774" lon="2.74894">
        <ele>135</ele>
        <time>2022-02-09T14:25:10.816Z</time>
      </trkpt>
      <trkpt lat="48.36774" lon="2.74886">
        <ele>135</ele>
        <time>2022-02-09T14:25:14.819Z</time>
      </trkpt>
      <trkpt lat="48.36776" lon="2.74876">
        <ele>135</ele>
        <time>2022-02-09T14:25:19.815Z</time>
      </trkpt>
      <trkpt lat="48.3678" lon="2.74868">
        <ele>132</ele>
        <time>2022-02-09T14:25:24.815Z</time>
      </trkpt>
      <trkpt lat="48.36783" lon="2.74859">
        <ele>132</ele>
        <time>2022-02-09T14:25:29.810Z</time>
      </trkpt>
      <trkpt lat="48.36787" lon="2.74851">
        <ele>132</ele>
        <time>2022-02-09T14:25:34.816Z</time>
      </trkpt>
      <trkpt lat="48.3679" lon="2.74842">
        <ele>129</ele>
        <time>2022-02-09T14:25:39.816Z</time>
      </trkpt>
      <trkpt lat="48.36794" lon="2.74835">
        <ele>132</ele>
        <time>2022-02-09T14:25:43.820Z</time>
      </trkpt>
      <trkpt lat="48.36799" lon="2.74826">
        <ele>132</ele>
        <time>2022-02-09T14:25:48.816Z</time>
      </trkpt>
      <trkpt lat="48.36802" lon="2.74817">
        <ele>132</ele>
        <time>2022-02-09T14:25:53.819Z</time>
      </trkpt>
      <trkpt lat="48.36806" lon="2.74808">
        <ele>132</ele>
        <time>2022-02-09T14:25:58.821Z</time>
      </trkpt>
      <trkpt lat="48.36809" lon="2.74799">
        <ele>132</ele>
        <time>2022-02-09T14:26:03.808Z</time>
      </trkpt>
      <trkpt lat="48.36811" lon="2.74791">
        <ele>132</ele>
        <time>2022-02-09T14:26:07.820Z</time>
      </trkpt>
      <trkpt lat="48.36815" lon="2.74782">
        <ele>132</ele>
        <time>2022-02-09T14:26:12.853Z</time>
      </trkpt>
      <trkpt lat="48.36818" lon="2.74773">
        <ele>132</ele>
        <time>2022-02-09T14:26:17.831Z</time>
      </trkpt>
      <trkpt lat="48.3682" lon="2.74765">
        <ele>132</ele>
        <time>2022-02-09T14:26:21.866Z</time>
      </trkpt>
      <trkpt lat="48.36822" lon="2.74755">
        <ele>133</ele>
        <time>2022-02-09T14:26:26.857Z</time>
      </trkpt>
      <trkpt lat="48.36825" lon="2.74745">
        <ele>133</ele>
        <time>2022-02-09T14:26:31.824Z</time>
      </trkpt>
      <trkpt lat="48.36826" lon="2.74735">
        <ele>133</ele>
        <time>2022-02-09T14:26:36.815Z</time>
      </trkpt>
      <trkpt lat="48.36829" lon="2.74724">
        <ele>133</ele>
        <time>2022-02-09T14:26:41.821Z</time>
      </trkpt>
      <trkpt lat="48.3683" lon="2.74714">
        <ele>133</ele>
        <time>2022-02-09T14:26:46.809Z</time>
      </trkpt>
      <trkpt lat="48.36831" lon="2.74704">
        <ele>132</ele>
        <time>2022-02-09T14:26:51.825Z</time>
      </trkpt>
      <trkpt lat="48.36833" lon="2.74696">
        <ele>132</ele>
        <time>2022-02-09T14:26:55.822Z</time>
      </trkpt>
      <trkpt lat="48.36835" lon="2.74686">
        <ele>132</ele>
        <time>2022-02-09T14:27:00.815Z</time>
      </trkpt>
      <trkpt lat="48.36837" lon="2.74679">
        <ele>129</ele>
        <time>2022-02-09T14:27:04.865Z</time>
      </trkpt>
      <trkpt lat="48.36839" lon="2.74667">
        <ele>129</ele>
        <time>2022-02-09T14:27:09.823Z</time>
      </trkpt>
      <trkpt lat="48.36842" lon="2.74658">
        <ele>129</ele>
        <time>2022-02-09T14:27:14.821Z</time>
      </trkpt>
      <trkpt lat="48.36844" lon="2.7465">
        <ele>128</ele>
        <time>2022-02-09T14:27:18.862Z</time>
      </trkpt>
      <trkpt lat="48.36845" lon="2.7464">
        <ele>128</ele>
        <time>2022-02-09T14:27:23.811Z</time>
      </trkpt>
      <trkpt lat="48.36847" lon="2.74632">
        <ele>128</ele>
        <time>2022-02-09T14:27:27.870Z</time>
      </trkpt>
      <trkpt lat="48.36849" lon="2.74621">
        <ele>132</ele>
        <time>2022-02-09T14:27:32.863Z</time>
      </trkpt>
      <trkpt lat="48.36851" lon="2.74611">
        <ele>132</ele>
        <time>2022-02-09T14:27:37.818Z</time>
      </trkpt>
      <trkpt lat="48.36852" lon="2.74603">
        <ele>132</ele>
        <time>2022-02-09T14:27:41.819Z</time>
      </trkpt>
      <trkpt lat="48.36854" lon="2.74595">
        <ele>131</ele>
        <time>2022-02-09T14:27:45.850Z</time>
      </trkpt>
      <trkpt lat="48.36857" lon="2.74586">
        <ele>131</ele>
        <time>2022-02-09T14:27:50.826Z</time>
      </trkpt>
      <trkpt lat="48.36859" lon="2.74578">
        <ele>131</ele>
        <time>2022-02-09T14:27:54.861Z</time>
      </trkpt>
      <trkpt lat="48.3686" lon="2.74568">
        <ele>130</ele>
        <time>2022-02-09T14:27:59.820Z</time>
      </trkpt>
      <trkpt lat="48.36863" lon="2.74558">
        <ele>130</ele>
        <time>2022-02-09T14:28:04.822Z</time>
      </trkpt>
      <trkpt lat="48.36864" lon="2.74549">
        <ele>130</ele>
        <time>2022-02-09T14:28:09.817Z</time>
      </trkpt>
      <trkpt lat="48.36865" lon="2.74539">
        <ele>129</ele>
        <time>2022-02-09T14:28:14.817Z</time>
      </trkpt>
      <trkpt lat="48.36867" lon="2.74532">
        <ele>129</ele>
        <time>2022-02-09T14:28:18.826Z</time>
      </trkpt>
      <trkpt lat="48.36869" lon="2.74525">
        <ele>129</ele>
        <time>2022-02-09T14:28:22.852Z</time>
      </trkpt>
      <trkpt lat="48.3687" lon="2.74517">
        <ele>129</ele>
        <time>2022-02-09T14:28:26.855Z</time>
      </trkpt>
      <trkpt lat="48.36872" lon="2.74507">
        <ele>130</ele>
        <time>2022-02-09T14:28:31.856Z</time>
      </trkpt>
      <trkpt lat="48.36874" lon="2.74496">
        <ele>130</ele>
        <time>2022-02-09T14:28:36.810Z</time>
      </trkpt>
      <trkpt lat="48.36876" lon="2.74487">
        <ele>131</ele>
        <time>2022-02-09T14:28:41.832Z</time>
      </trkpt>
      <trkpt lat="48.36876" lon="2.74476">
        <ele>132</ele>
        <time>2022-02-09T14:28:46.809Z</time>
      </trkpt>
      <trkpt lat="48.36878" lon="2.74466">
        <ele>132</ele>
        <time>2022-02-09T14:28:51.813Z</time>
      </trkpt>
      <trkpt lat="48.36877" lon="2.74455">
        <ele>134</ele>
        <time>2022-02-09T14:28:56.821Z</time>
      </trkpt>
      <trkpt lat="48.36882" lon="2.74448">
        <ele>134</ele>
        <time>2022-02-09T14:29:01.823Z</time>
      </trkpt>
      <trkpt lat="48.36889" lon="2.74451">
        <ele>134</ele>
        <time>2022-02-09T14:29:06.806Z</time>
      </trkpt>
      <trkpt lat="48.36893" lon="2.74455">
        <ele>134</ele>
        <time>2022-02-09T14:29:10.817Z</time>
      </trkpt>
      <trkpt lat="48.36897" lon="2.7446">
        <ele>132</ele>
        <time>2022-02-09T14:29:15.816Z</time>
      </trkpt>
      <trkpt lat="48.36903" lon="2.74464">
        <ele>132</ele>
        <time>2022-02-09T14:29:20.813Z</time>
      </trkpt>
      <trkpt lat="48.36907" lon="2.74464">
        <ele>134</ele>
        <time>2022-02-09T14:29:24.819Z</time>
      </trkpt>
      <trkpt lat="48.3691" lon="2.74457">
        <ele>135</ele>
        <time>2022-02-09T14:29:28.828Z</time>
      </trkpt>
      <trkpt lat="48.36911" lon="2.74448">
        <ele>135</ele>
        <time>2022-02-09T14:29:33.813Z</time>
      </trkpt>
      <trkpt lat="48.36905" lon="2.74438">
        <ele>135</ele>
        <time>2022-02-09T14:33:16.816Z</time>
      </trkpt>
      <trkpt lat="48.36904" lon="2.74445">
        <ele>135</ele>
        <time>2022-02-09T14:33:21.815Z</time>
      </trkpt>
      <trkpt lat="48.36904" lon="2.74448">
        <ele>135</ele>
        <time>2022-02-09T14:33:25.817Z</time>
      </trkpt>
      <trkpt lat="48.36905" lon="2.74454">
        <ele>135</ele>
        <time>2022-02-09T14:33:30.811Z</time>
      </trkpt>
      <trkpt lat="48.36908" lon="2.74459">
        <ele>134</ele>
        <time>2022-02-09T14:33:34.820Z</time>
      </trkpt>
      <trkpt lat="48.36912" lon="2.74462">
        <ele>134</ele>
        <time>2022-02-09T14:33:39.808Z</time>
      </trkpt>
      <trkpt lat="48.36915" lon="2.74466">
        <ele>134</ele>
        <time>2022-02-09T14:33:43.822Z</time>
      </trkpt>
      <trkpt lat="48.36919" lon="2.74468">
        <ele>134</ele>
        <time>2022-02-09T14:33:47.825Z</time>
      </trkpt>
      <trkpt lat="48.36923" lon="2.74471">
        <ele>134</ele>
        <time>2022-02-09T14:33:52.834Z</time>
      </trkpt>
      <trkpt lat="48.36929" lon="2.74472">
        <ele>134</ele>
        <time>2022-02-09T14:33:57.830Z</time>
      </trkpt>
      <trkpt lat="48.36936" lon="2.74469">
        <ele>134</ele>
        <time>2022-02-09T14:34:02.821Z</time>
      </trkpt>
      <trkpt lat="48.3694" lon="2.74467">
        <ele>134</ele>
        <time>2022-02-09T14:34:07.813Z</time>
      </trkpt>
      <trkpt lat="48.36945" lon="2.74466">
        <ele>134</ele>
        <time>2022-02-09T14:34:11.822Z</time>
      </trkpt>
      <trkpt lat="48.3695" lon="2.74466">
        <ele>134</ele>
        <time>2022-02-09T14:34:16.825Z</time>
      </trkpt>
      <trkpt lat="48.36955" lon="2.74466">
        <ele>134</ele>
        <time>2022-02-09T14:34:21.808Z</time>
      </trkpt>
      <trkpt lat="48.36961" lon="2.74465">
        <ele>133</ele>
        <time>2022-02-09T14:34:26.817Z</time>
      </trkpt>
      <trkpt lat="48.36967" lon="2.74463">
        <ele>133</ele>
        <time>2022-02-09T14:34:31.808Z</time>
      </trkpt>
      <trkpt lat="48.36971" lon="2.74463">
        <ele>133</ele>
        <time>2022-02-09T14:34:35.810Z</time>
      </trkpt>
      <trkpt lat="48.36978" lon="2.74465">
        <ele>133</ele>
        <time>2022-02-09T14:34:40.808Z</time>
      </trkpt>
      <trkpt lat="48.36983" lon="2.74465">
        <ele>133</ele>
        <time>2022-02-09T14:34:44.813Z</time>
      </trkpt>
      <trkpt lat="48.36988" lon="2.74465">
        <ele>132</ele>
        <time>2022-02-09T14:34:49.801Z</time>
      </trkpt>
      <trkpt lat="48.36992" lon="2.74464">
        <ele>132</ele>
        <time>2022-02-09T14:34:53.814Z</time>
      </trkpt>
      <trkpt lat="48.36996" lon="2.74463">
        <ele>132</ele>
        <time>2022-02-09T14:34:58.818Z</time>
      </trkpt>
      <trkpt lat="48.37002" lon="2.74458">
        <ele>132</ele>
        <time>2022-02-09T14:35:03.809Z</time>
      </trkpt>
      <trkpt lat="48.37006" lon="2.74453">
        <ele>132</ele>
        <time>2022-02-09T14:35:07.818Z</time>
      </trkpt>
      <trkpt lat="48.3701" lon="2.74446">
        <ele>132</ele>
        <time>2022-02-09T14:35:15.820Z</time>
      </trkpt>
      <trkpt lat="48.3701" lon="2.74441">
        <ele>132</ele>
        <time>2022-02-09T14:35:20.817Z</time>
      </trkpt>
      <trkpt lat="48.37011" lon="2.7444">
        <ele>132</ele>
        <time>2022-02-09T14:35:24.820Z</time>
      </trkpt>
      <trkpt lat="48.37012" lon="2.74438">
        <ele>132</ele>
        <time>2022-02-09T14:35:28.828Z</time>
      </trkpt>
      <trkpt lat="48.37012" lon="2.74434">
        <ele>132</ele>
        <time>2022-02-09T14:35:33.823Z</time>
      </trkpt>
      <trkpt lat="48.37017" lon="2.74432">
        <ele>127</ele>
        <time>2022-02-09T14:35:47.823Z</time>
      </trkpt>
      <trkpt lat="48.37018" lon="2.74434">
        <ele>127</ele>
        <time>2022-02-09T14:35:52.812Z</time>
      </trkpt>
      <trkpt lat="48.3702" lon="2.74437">
        <ele>127</ele>
        <time>2022-02-09T14:35:57.810Z</time>
      </trkpt>
      <trkpt lat="48.37021" lon="2.74439">
        <ele>127</ele>
        <time>2022-02-09T14:36:01.823Z</time>
      </trkpt>
      <trkpt lat="48.37023" lon="2.7444">
        <ele>127</ele>
        <time>2022-02-09T14:36:06.811Z</time>
      </trkpt>
      <trkpt lat="48.37025" lon="2.7444">
        <ele>127</ele>
        <time>2022-02-09T14:36:10.814Z</time>
      </trkpt>
      <trkpt lat="48.37028" lon="2.74441">
        <ele>127</ele>
        <time>2022-02-09T14:36:15.817Z</time>
      </trkpt>
      <trkpt lat="48.37032" lon="2.74441">
        <ele>127</ele>
        <time>2022-02-09T14:36:20.815Z</time>
      </trkpt>
      <trkpt lat="48.37036" lon="2.74442">
        <ele>127</ele>
        <time>2022-02-09T14:36:25.818Z</time>
      </trkpt>
      <trkpt lat="48.3704" lon="2.74444">
        <ele>127</ele>
        <time>2022-02-09T14:36:30.824Z</time>
      </trkpt>
      <trkpt lat="48.37045" lon="2.74444">
        <ele>121</ele>
        <time>2022-02-09T14:36:34.833Z</time>
      </trkpt>
      <trkpt lat="48.3705" lon="2.74445">
        <ele>121</ele>
        <time>2022-02-09T14:36:39.812Z</time>
      </trkpt>
      <trkpt lat="48.37054" lon="2.74447">
        <ele>121</ele>
        <time>2022-02-09T14:36:43.816Z</time>
      </trkpt>
      <trkpt lat="48.37061" lon="2.74449">
        <ele>121</ele>
        <time>2022-02-09T14:36:48.820Z</time>
      </trkpt>
      <trkpt lat="48.37065" lon="2.74448">
        <ele>121</ele>
        <time>2022-02-09T14:36:52.825Z</time>
      </trkpt>
      <trkpt lat="48.37071" lon="2.74447">
        <ele>114</ele>
        <time>2022-02-09T14:36:57.812Z</time>
      </trkpt>
      <trkpt lat="48.37077" lon="2.74445">
        <ele>114</ele>
        <time>2022-02-09T14:37:02.817Z</time>
      </trkpt>
      <trkpt lat="48.37084" lon="2.74444">
        <ele>114</ele>
        <time>2022-02-09T14:37:07.825Z</time>
      </trkpt>
      <trkpt lat="48.37091" lon="2.74444">
        <ele>114</ele>
        <time>2022-02-09T14:37:12.817Z</time>
      </trkpt>
      <trkpt lat="48.37096" lon="2.74444">
        <ele>114</ele>
        <time>2022-02-09T14:37:17.817Z</time>
      </trkpt>
      <trkpt lat="48.37101" lon="2.74446">
        <ele>111</ele>
        <time>2022-02-09T14:37:22.827Z</time>
      </trkpt>
      <trkpt lat="48.37108" lon="2.74451">
        <ele>111</ele>
        <time>2022-02-09T14:37:27.820Z</time>
      </trkpt>
      <trkpt lat="48.37113" lon="2.74454">
        <ele>111</ele>
        <time>2022-02-09T14:37:31.819Z</time>
      </trkpt>
      <trkpt lat="48.37119" lon="2.74458">
        <ele>111</ele>
        <time>2022-02-09T14:37:36.819Z</time>
      </trkpt>
      <trkpt lat="48.37124" lon="2.7446">
        <ele>111</ele>
        <time>2022-02-09T14:37:41.824Z</time>
      </trkpt>
      <trkpt lat="48.37131" lon="2.74458">
        <ele>107</ele>
        <time>2022-02-09T14:37:45.829Z</time>
      </trkpt>
      <trkpt lat="48.37138" lon="2.74457">
        <ele>107</ele>
        <time>2022-02-09T14:37:50.811Z</time>
      </trkpt>
      <trkpt lat="48.37142" lon="2.74458">
        <ele>107</ele>
        <time>2022-02-09T14:37:54.821Z</time>
      </trkpt>
      <trkpt lat="48.37148" lon="2.74458">
        <ele>107</ele>
        <time>2022-02-09T14:37:58.819Z</time>
      </trkpt>
      <trkpt lat="48.37154" lon="2.74454">
        <ele>104</ele>
        <time>2022-02-09T14:38:03.828Z</time>
      </trkpt>
      <trkpt lat="48.37159" lon="2.74448">
        <ele>104</ele>
        <time>2022-02-09T14:38:08.809Z</time>
      </trkpt>
      <trkpt lat="48.37163" lon="2.74446">
        <ele>104</ele>
        <time>2022-02-09T14:38:12.821Z</time>
      </trkpt>
      <trkpt lat="48.37169" lon="2.74443">
        <ele>104</ele>
        <time>2022-02-09T14:38:17.818Z</time>
      </trkpt>
      <trkpt lat="48.37174" lon="2.74442">
        <ele>104</ele>
        <time>2022-02-09T14:38:22.825Z</time>
      </trkpt>
      <trkpt lat="48.37178" lon="2.74446">
        <ele>104</ele>
        <time>2022-02-09T14:38:27.808Z</time>
      </trkpt>
      <trkpt lat="48.37182" lon="2.7445">
        <ele>98</ele>
        <time>2022-02-09T14:38:32.821Z</time>
      </trkpt>
      <trkpt lat="48.37185" lon="2.74454">
        <ele>98</ele>
        <time>2022-02-09T14:38:36.825Z</time>
      </trkpt>
      <trkpt lat="48.37189" lon="2.74459">
        <ele>100</ele>
        <time>2022-02-09T14:38:41.820Z</time>
      </trkpt>
      <trkpt lat="48.37192" lon="2.74463">
        <ele>100</ele>
        <time>2022-02-09T14:38:45.821Z</time>
      </trkpt>
      <trkpt lat="48.37196" lon="2.74469">
        <ele>100</ele>
        <time>2022-02-09T14:38:50.810Z</time>
      </trkpt>
      <trkpt lat="48.372" lon="2.74475">
        <ele>100</ele>
        <time>2022-02-09T14:38:55.805Z</time>
      </trkpt>
      <trkpt lat="48.37204" lon="2.74478">
        <ele>100</ele>
        <time>2022-02-09T14:38:59.827Z</time>
      </trkpt>
      <trkpt lat="48.37209" lon="2.74482">
        <ele>96</ele>
        <time>2022-02-09T14:39:04.813Z</time>
      </trkpt>
      <trkpt lat="48.37212" lon="2.74487">
        <ele>96</ele>
        <time>2022-02-09T14:39:09.819Z</time>
      </trkpt>
      <trkpt lat="48.37213" lon="2.74489">
        <ele>96</ele>
        <time>2022-02-09T14:39:13.825Z</time>
      </trkpt>
      <trkpt lat="48.37213" lon="2.74489">
        <ele>96</ele>
        <time>2022-02-09T14:39:17.827Z</time>
      </trkpt>
      <trkpt lat="48.37212" lon="2.7449">
        <ele>96</ele>
        <time>2022-02-09T14:39:22.806Z</time>
      </trkpt>
      <trkpt lat="48.3721" lon="2.74496">
        <ele>96</ele>
        <time>2022-02-09T14:39:27.810Z</time>
      </trkpt>
      <trkpt lat="48.37211" lon="2.745">
        <ele>96</ele>
        <time>2022-02-09T14:39:31.820Z</time>
      </trkpt>
      <trkpt lat="48.37211" lon="2.74509">
        <ele>96</ele>
        <time>2022-02-09T14:39:36.818Z</time>
      </trkpt>
      <trkpt lat="48.37208" lon="2.74515">
        <ele>104</ele>
        <time>2022-02-09T14:39:41.810Z</time>
      </trkpt>
      <trkpt lat="48.37209" lon="2.7452">
        <ele>96</ele>
        <time>2022-02-09T14:39:46.817Z</time>
      </trkpt>
      <trkpt lat="48.37211" lon="2.74523">
        <ele>96</ele>
        <time>2022-02-09T14:39:50.821Z</time>
      </trkpt>
      <trkpt lat="48.3721" lon="2.74525">
        <ele>96</ele>
        <time>2022-02-09T14:39:54.830Z</time>
      </trkpt>
      <trkpt lat="48.37209" lon="2.74529">
        <ele>96</ele>
        <time>2022-02-09T14:39:59.816Z</time>
      </trkpt>
      <trkpt lat="48.37208" lon="2.74533">
        <ele>104</ele>
        <time>2022-02-09T14:40:04.823Z</time>
      </trkpt>
      <trkpt lat="48.37206" lon="2.74536">
        <ele>104</ele>
        <time>2022-02-09T14:40:09.805Z</time>
      </trkpt>
      <trkpt lat="48.37205" lon="2.74539">
        <ele>104</ele>
        <time>2022-02-09T14:40:13.825Z</time>
      </trkpt>
      <trkpt lat="48.37206" lon="2.74544">
        <ele>104</ele>
        <time>2022-02-09T14:40:18.819Z</time>
      </trkpt>
      <trkpt lat="48.37205" lon="2.74549">
        <ele>104</ele>
        <time>2022-02-09T14:40:23.813Z</time>
      </trkpt>
      <trkpt lat="48.37203" lon="2.74549">
        <ele>104</ele>
        <time>2022-02-09T14:40:28.810Z</time>
      </trkpt>
      <trkpt lat="48.37202" lon="2.74549">
        <ele>104</ele>
        <time>2022-02-09T14:40:32.827Z</time>
      </trkpt>
      <trkpt lat="48.37199" lon="2.74548">
        <ele>104</ele>
        <time>2022-02-09T14:40:37.810Z</time>
      </trkpt>
      <trkpt lat="48.37196" lon="2.74546">
        <ele>104</ele>
        <time>2022-02-09T14:40:41.821Z</time>
      </trkpt>
      <trkpt lat="48.37191" lon="2.74545">
        <ele>104</ele>
        <time>2022-02-09T14:40:45.822Z</time>
      </trkpt>
      <trkpt lat="48.37186" lon="2.74544">
        <ele>104</ele>
        <time>2022-02-09T14:40:49.819Z</time>
      </trkpt>
      <trkpt lat="48.37181" lon="2.74546">
        <ele>104</ele>
        <time>2022-02-09T14:40:54.816Z</time>
      </trkpt>
      <trkpt lat="48.37177" lon="2.74547">
        <ele>108</ele>
        <time>2022-02-09T14:40:59.815Z</time>
      </trkpt>
      <trkpt lat="48.37174" lon="2.7455">
        <ele>108</ele>
        <time>2022-02-09T14:41:03.816Z</time>
      </trkpt>
      <trkpt lat="48.37172" lon="2.74552">
        <ele>108</ele>
        <time>2022-02-09T14:41:08.818Z</time>
      </trkpt>
      <trkpt lat="48.37169" lon="2.74553">
        <ele>108</ele>
        <time>2022-02-09T14:41:12.823Z</time>
      </trkpt>
      <trkpt lat="48.37166" lon="2.74555">
        <ele>108</ele>
        <time>2022-02-09T14:41:16.829Z</time>
      </trkpt>
      <trkpt lat="48.37165" lon="2.74562">
        <ele>108</ele>
        <time>2022-02-09T14:41:21.824Z</time>
      </trkpt>
      <trkpt lat="48.3716" lon="2.74565">
        <ele>108</ele>
        <time>2022-02-09T14:41:26.826Z</time>
      </trkpt>
      <trkpt lat="48.37158" lon="2.74569">
        <ele>108</ele>
        <time>2022-02-09T14:41:31.817Z</time>
      </trkpt>
      <trkpt lat="48.37157" lon="2.74571">
        <ele>106</ele>
        <time>2022-02-09T14:41:35.826Z</time>
      </trkpt>
      <trkpt lat="48.37155" lon="2.74574">
        <ele>106</ele>
        <time>2022-02-09T14:41:39.822Z</time>
      </trkpt>
      <trkpt lat="48.37156" lon="2.7458">
        <ele>106</ele>
        <time>2022-02-09T14:41:44.825Z</time>
      </trkpt>
      <trkpt lat="48.37158" lon="2.74588">
        <ele>106</ele>
        <time>2022-02-09T14:41:49.823Z</time>
      </trkpt>
      <trkpt lat="48.37158" lon="2.74597">
        <ele>106</ele>
        <time>2022-02-09T14:41:53.828Z</time>
      </trkpt>
      <trkpt lat="48.37164" lon="2.74599">
        <ele>104</ele>
        <time>2022-02-09T14:41:58.812Z</time>
      </trkpt>
      <trkpt lat="48.37165" lon="2.74599">
        <ele>104</ele>
        <time>2022-02-09T14:42:02.819Z</time>
      </trkpt>
      <trkpt lat="48.37165" lon="2.74613">
        <ele>104</ele>
        <time>2022-02-09T14:42:25.814Z</time>
      </trkpt>
      <trkpt lat="48.37169" lon="2.74614">
        <ele>104</ele>
        <time>2022-02-09T14:42:30.820Z</time>
      </trkpt>
      <trkpt lat="48.37173" lon="2.7461">
        <ele>104</ele>
        <time>2022-02-09T14:42:35.821Z</time>
      </trkpt>
      <trkpt lat="48.37177" lon="2.74611">
        <ele>104</ele>
        <time>2022-02-09T14:42:40.837Z</time>
      </trkpt>
      <trkpt lat="48.37178" lon="2.74617">
        <ele>104</ele>
        <time>2022-02-09T14:42:45.819Z</time>
      </trkpt>
      <trkpt lat="48.37181" lon="2.7462">
        <ele>101</ele>
        <time>2022-02-09T14:42:59.823Z</time>
      </trkpt>
      <trkpt lat="48.37181" lon="2.74622">
        <ele>101</ele>
        <time>2022-02-09T14:43:04.820Z</time>
      </trkpt>
      <trkpt lat="48.37181" lon="2.74622">
        <ele>101</ele>
        <time>2022-02-09T14:43:09.821Z</time>
      </trkpt>
      <trkpt lat="48.37184" lon="2.74624">
        <ele>101</ele>
        <time>2022-02-09T14:43:13.834Z</time>
      </trkpt>
      <trkpt lat="48.37188" lon="2.74625">
        <ele>101</ele>
        <time>2022-02-09T14:43:18.819Z</time>
      </trkpt>
      <trkpt lat="48.37192" lon="2.7463">
        <ele>98</ele>
        <time>2022-02-09T14:43:32.830Z</time>
      </trkpt>
      <trkpt lat="48.37193" lon="2.7463">
        <ele>98</ele>
        <time>2022-02-09T14:43:37.833Z</time>
      </trkpt>
      <trkpt lat="48.37198" lon="2.74631">
        <ele>98</ele>
        <time>2022-02-09T14:43:42.810Z</time>
      </trkpt>
      <trkpt lat="48.372" lon="2.74631">
        <ele>98</ele>
        <time>2022-02-09T14:43:46.813Z</time>
      </trkpt>
      <trkpt lat="48.37201" lon="2.74634">
        <ele>98</ele>
        <time>2022-02-09T14:43:51.834Z</time>
      </trkpt>
      <trkpt lat="48.37199" lon="2.74639">
        <ele>98</ele>
        <time>2022-02-09T14:43:56.831Z</time>
      </trkpt>
      <trkpt lat="48.37203" lon="2.74645">
        <ele>98</ele>
        <time>2022-02-09T14:44:01.810Z</time>
      </trkpt>
      <trkpt lat="48.37205" lon="2.74652">
        <ele>98</ele>
        <time>2022-02-09T14:44:05.816Z</time>
      </trkpt>
      <trkpt lat="48.37208" lon="2.74659">
        <ele>99</ele>
        <time>2022-02-09T14:44:09.824Z</time>
      </trkpt>
      <trkpt lat="48.37213" lon="2.74663">
        <ele>95</ele>
        <time>2022-02-09T14:44:14.818Z</time>
      </trkpt>
      <trkpt lat="48.37216" lon="2.74665">
        <ele>95</ele>
        <time>2022-02-09T14:44:18.822Z</time>
      </trkpt>
      <trkpt lat="48.37219" lon="2.74667">
        <ele>95</ele>
        <time>2022-02-09T14:44:22.831Z</time>
      </trkpt>
      <trkpt lat="48.37225" lon="2.74667">
        <ele>95</ele>
        <time>2022-02-09T14:44:27.809Z</time>
      </trkpt>
      <trkpt lat="48.37229" lon="2.74668">
        <ele>95</ele>
        <time>2022-02-09T14:44:31.814Z</time>
      </trkpt>
      <trkpt lat="48.37235" lon="2.74669">
        <ele>95</ele>
        <time>2022-02-09T14:44:35.828Z</time>
      </trkpt>
      <trkpt lat="48.3724" lon="2.7467">
        <ele>92</ele>
        <time>2022-02-09T14:44:40.826Z</time>
      </trkpt>
      <trkpt lat="48.37246" lon="2.74671">
        <ele>92</ele>
        <time>2022-02-09T14:44:45.825Z</time>
      </trkpt>
      <trkpt lat="48.37252" lon="2.74672">
        <ele>92</ele>
        <time>2022-02-09T14:44:50.822Z</time>
      </trkpt>
      <trkpt lat="48.37257" lon="2.74672">
        <ele>92</ele>
        <time>2022-02-09T14:44:54.830Z</time>
      </trkpt>
      <trkpt lat="48.37262" lon="2.74674">
        <ele>92</ele>
        <time>2022-02-09T14:44:59.823Z</time>
      </trkpt>
      <trkpt lat="48.37268" lon="2.74675">
        <ele>92</ele>
        <time>2022-02-09T14:45:04.822Z</time>
      </trkpt>
      <trkpt lat="48.37273" lon="2.74677">
        <ele>92</ele>
        <time>2022-02-09T14:45:08.818Z</time>
      </trkpt>
      <trkpt lat="48.37276" lon="2.7468">
        <ele>92</ele>
        <time>2022-02-09T14:45:12.830Z</time>
      </trkpt>
      <trkpt lat="48.37278" lon="2.74687">
        <ele>91</ele>
        <time>2022-02-09T14:45:17.829Z</time>
      </trkpt>
      <trkpt lat="48.37279" lon="2.74693">
        <ele>91</ele>
        <time>2022-02-09T14:45:22.827Z</time>
      </trkpt>
      <trkpt lat="48.3728" lon="2.747">
        <ele>91</ele>
        <time>2022-02-09T14:45:26.828Z</time>
      </trkpt>
      <trkpt lat="48.3728" lon="2.74709">
        <ele>90</ele>
        <time>2022-02-09T14:45:31.872Z</time>
      </trkpt>
      <trkpt lat="48.37281" lon="2.74718">
        <ele>90</ele>
        <time>2022-02-09T14:45:36.837Z</time>
      </trkpt>
      <trkpt lat="48.37281" lon="2.74727">
        <ele>90</ele>
        <time>2022-02-09T14:45:41.819Z</time>
      </trkpt>
      <trkpt lat="48.37282" lon="2.74738">
        <ele>91</ele>
        <time>2022-02-09T14:45:46.820Z</time>
      </trkpt>
      <trkpt lat="48.37283" lon="2.74747">
        <ele>91</ele>
        <time>2022-02-09T14:45:51.825Z</time>
      </trkpt>
      <trkpt lat="48.37284" lon="2.74756">
        <ele>91</ele>
        <time>2022-02-09T14:45:56.823Z</time>
      </trkpt>
      <trkpt lat="48.37283" lon="2.74765">
        <ele>92</ele>
        <time>2022-02-09T14:46:01.843Z</time>
      </trkpt>
      <trkpt lat="48.37284" lon="2.74774">
        <ele>92</ele>
        <time>2022-02-09T14:46:06.824Z</time>
      </trkpt>
      <trkpt lat="48.37285" lon="2.74784">
        <ele>92</ele>
        <time>2022-02-09T14:46:11.831Z</time>
      </trkpt>
      <trkpt lat="48.37286" lon="2.74795">
        <ele>94</ele>
        <time>2022-02-09T14:46:16.824Z</time>
      </trkpt>
      <trkpt lat="48.37285" lon="2.74805">
        <ele>94</ele>
        <time>2022-02-09T14:46:21.822Z</time>
      </trkpt>
      <trkpt lat="48.37284" lon="2.74814">
        <ele>94</ele>
        <time>2022-02-09T14:46:26.827Z</time>
      </trkpt>
      <trkpt lat="48.37283" lon="2.74824">
        <ele>94</ele>
        <time>2022-02-09T14:46:31.823Z</time>
      </trkpt>
      <trkpt lat="48.37283" lon="2.74835">
        <ele>94</ele>
        <time>2022-02-09T14:46:36.819Z</time>
      </trkpt>
      <trkpt lat="48.37282" lon="2.74848">
        <ele>94</ele>
        <time>2022-02-09T14:46:41.821Z</time>
      </trkpt>
      <trkpt lat="48.37282" lon="2.74858">
        <ele>94</ele>
        <time>2022-02-09T14:46:46.819Z</time>
      </trkpt>
      <trkpt lat="48.37282" lon="2.74868">
        <ele>94</ele>
        <time>2022-02-09T14:46:51.818Z</time>
      </trkpt>
      <trkpt lat="48.37282" lon="2.74877">
        <ele>94</ele>
        <time>2022-02-09T14:46:56.821Z</time>
      </trkpt>
      <trkpt lat="48.37282" lon="2.74887">
        <ele>94</ele>
        <time>2022-02-09T14:47:01.816Z</time>
      </trkpt>
      <trkpt lat="48.37282" lon="2.74911">
        <ele>94</ele>
        <time>2022-02-09T14:47:19.822Z</time>
      </trkpt>
      <trkpt lat="48.37282" lon="2.74911">
        <ele>94</ele>
        <time>2022-02-09T14:47:23.826Z</time>
      </trkpt>
      <trkpt lat="48.37282" lon="2.74911">
        <ele>94</ele>
        <time>2022-02-09T14:47:28.823Z</time>
      </trkpt>
      <trkpt lat="48.37283" lon="2.74912">
        <ele>94</ele>
        <time>2022-02-09T14:47:32.823Z</time>
      </trkpt>
      <trkpt lat="48.3729" lon="2.74918">
        <ele>94</ele>
        <time>2022-02-09T14:47:37.822Z</time>
      </trkpt>
      <trkpt lat="48.37296" lon="2.74919">
        <ele>90</ele>
        <time>2022-02-09T14:47:42.815Z</time>
      </trkpt>
      <trkpt lat="48.373" lon="2.74919">
        <ele>90</ele>
        <time>2022-02-09T14:47:46.816Z</time>
      </trkpt>
      <trkpt lat="48.37305" lon="2.74917">
        <ele>90</ele>
        <time>2022-02-09T14:47:51.808Z</time>
      </trkpt>
      <trkpt lat="48.37307" lon="2.74913">
        <ele>90</ele>
        <time>2022-02-09T14:47:55.812Z</time>
      </trkpt>
      <trkpt lat="48.3731" lon="2.74908">
        <ele>90</ele>
        <time>2022-02-09T14:48:00.806Z</time>
      </trkpt>
      <trkpt lat="48.37314" lon="2.74904">
        <ele>90</ele>
        <time>2022-02-09T14:48:04.825Z</time>
      </trkpt>
      <trkpt lat="48.37318" lon="2.749">
        <ele>90</ele>
        <time>2022-02-09T14:48:09.820Z</time>
      </trkpt>
      <trkpt lat="48.3732" lon="2.74899">
        <ele>91</ele>
        <time>2022-02-09T14:48:14.823Z</time>
      </trkpt>
      <trkpt lat="48.37323" lon="2.749">
        <ele>91</ele>
        <time>2022-02-09T14:48:19.818Z</time>
      </trkpt>
      <trkpt lat="48.37325" lon="2.74901">
        <ele>91</ele>
        <time>2022-02-09T14:48:23.825Z</time>
      </trkpt>
      <trkpt lat="48.37328" lon="2.74898">
        <ele>91</ele>
        <time>2022-02-09T14:48:27.847Z</time>
      </trkpt>
      <trkpt lat="48.37329" lon="2.74893">
        <ele>91</ele>
        <time>2022-02-09T14:48:31.865Z</time>
      </trkpt>
      <trkpt lat="48.37333" lon="2.74889">
        <ele>91</ele>
        <time>2022-02-09T14:48:36.845Z</time>
      </trkpt>
      <trkpt lat="48.37335" lon="2.7489">
        <ele>91</ele>
        <time>2022-02-09T14:48:40.862Z</time>
      </trkpt>
      <trkpt lat="48.37337" lon="2.7489">
        <ele>91</ele>
        <time>2022-02-09T14:48:45.842Z</time>
      </trkpt>
      <trkpt lat="48.37339" lon="2.74889">
        <ele>91</ele>
        <time>2022-02-09T14:48:50.811Z</time>
      </trkpt>
      <trkpt lat="48.37342" lon="2.74883">
        <ele>91</ele>
        <time>2022-02-09T14:48:55.810Z</time>
      </trkpt>
      <trkpt lat="48.37346" lon="2.74877">
        <ele>91</ele>
        <time>2022-02-09T14:48:59.812Z</time>
      </trkpt>
      <trkpt lat="48.37351" lon="2.74871">
        <ele>92</ele>
        <time>2022-02-09T14:49:04.822Z</time>
      </trkpt>
      <trkpt lat="48.37355" lon="2.74866">
        <ele>92</ele>
        <time>2022-02-09T14:49:09.813Z</time>
      </trkpt>
      <trkpt lat="48.37359" lon="2.74863">
        <ele>92</ele>
        <time>2022-02-09T14:49:13.827Z</time>
      </trkpt>
      <trkpt lat="48.37364" lon="2.7486">
        <ele>92</ele>
        <time>2022-02-09T14:49:17.862Z</time>
      </trkpt>
      <trkpt lat="48.37369" lon="2.74856">
        <ele>92</ele>
        <time>2022-02-09T14:49:22.839Z</time>
      </trkpt>
      <trkpt lat="48.37374" lon="2.74852">
        <ele>92</ele>
        <time>2022-02-09T14:49:27.830Z</time>
      </trkpt>
      <trkpt lat="48.37378" lon="2.74848">
        <ele>92</ele>
        <time>2022-02-09T14:49:31.853Z</time>
      </trkpt>
      <trkpt lat="48.37384" lon="2.74844">
        <ele>92</ele>
        <time>2022-02-09T14:49:36.827Z</time>
      </trkpt>
      <trkpt lat="48.37389" lon="2.74838">
        <ele>92</ele>
        <time>2022-02-09T14:49:41.814Z</time>
      </trkpt>
      <trkpt lat="48.37393" lon="2.74835">
        <ele>92</ele>
        <time>2022-02-09T14:49:45.831Z</time>
      </trkpt>
      <trkpt lat="48.37397" lon="2.74831">
        <ele>92</ele>
        <time>2022-02-09T14:49:49.822Z</time>
      </trkpt>
      <trkpt lat="48.37403" lon="2.74825">
        <ele>93</ele>
        <time>2022-02-09T14:49:54.821Z</time>
      </trkpt>
      <trkpt lat="48.37409" lon="2.74821">
        <ele>93</ele>
        <time>2022-02-09T14:49:59.834Z</time>
      </trkpt>
      <trkpt lat="48.37415" lon="2.74816">
        <ele>93</ele>
        <time>2022-02-09T14:50:04.821Z</time>
      </trkpt>
      <trkpt lat="48.3742" lon="2.74812">
        <ele>93</ele>
        <time>2022-02-09T14:50:09.817Z</time>
      </trkpt>
      <trkpt lat="48.37425" lon="2.74807">
        <ele>93</ele>
        <time>2022-02-09T14:50:14.827Z</time>
      </trkpt>
      <trkpt lat="48.3743" lon="2.74803">
        <ele>93</ele>
        <time>2022-02-09T14:50:19.831Z</time>
      </trkpt>
      <trkpt lat="48.37435" lon="2.74798">
        <ele>92</ele>
        <time>2022-02-09T14:50:24.819Z</time>
      </trkpt>
      <trkpt lat="48.37439" lon="2.74792">
        <ele>92</ele>
        <time>2022-02-09T14:50:28.820Z</time>
      </trkpt>
      <trkpt lat="48.37443" lon="2.74789">
        <ele>92</ele>
        <time>2022-02-09T14:50:32.869Z</time>
      </trkpt>
      <trkpt lat="48.37449" lon="2.74783">
        <ele>92</ele>
        <time>2022-02-09T14:50:37.860Z</time>
      </trkpt>
      <trkpt lat="48.37455" lon="2.74778">
        <ele>92</ele>
        <time>2022-02-09T14:50:42.857Z</time>
      </trkpt>
      <trkpt lat="48.3746" lon="2.74774">
        <ele>90</ele>
        <time>2022-02-09T14:50:47.862Z</time>
      </trkpt>
      <trkpt lat="48.37466" lon="2.74769">
        <ele>90</ele>
        <time>2022-02-09T14:50:52.810Z</time>
      </trkpt>
      <trkpt lat="48.37471" lon="2.74764">
        <ele>90</ele>
        <time>2022-02-09T14:50:56.818Z</time>
      </trkpt>
      <trkpt lat="48.37476" lon="2.74757">
        <ele>90</ele>
        <time>2022-02-09T14:51:01.813Z</time>
      </trkpt>
      <trkpt lat="48.37483" lon="2.74751">
        <ele>90</ele>
        <time>2022-02-09T14:51:06.820Z</time>
      </trkpt>
      <trkpt lat="48.37487" lon="2.74747">
        <ele>89</ele>
        <time>2022-02-09T14:51:11.813Z</time>
      </trkpt>
      <trkpt lat="48.37492" lon="2.74742">
        <ele>89</ele>
        <time>2022-02-09T14:51:16.832Z</time>
      </trkpt>
      <trkpt lat="48.37496" lon="2.74738">
        <ele>89</ele>
        <time>2022-02-09T14:51:20.856Z</time>
      </trkpt>
      <trkpt lat="48.37502" lon="2.74733">
        <ele>90</ele>
        <time>2022-02-09T14:51:25.838Z</time>
      </trkpt>
      <trkpt lat="48.37507" lon="2.74729">
        <ele>90</ele>
        <time>2022-02-09T14:51:30.820Z</time>
      </trkpt>
      <trkpt lat="48.37511" lon="2.74725">
        <ele>90</ele>
        <time>2022-02-09T14:51:34.826Z</time>
      </trkpt>
      <trkpt lat="48.37516" lon="2.74721">
        <ele>90</ele>
        <time>2022-02-09T14:51:39.814Z</time>
      </trkpt>
      <trkpt lat="48.37522" lon="2.74716">
        <ele>90</ele>
        <time>2022-02-09T14:51:44.817Z</time>
      </trkpt>
      <trkpt lat="48.37527" lon="2.74713">
        <ele>90</ele>
        <time>2022-02-09T14:51:48.828Z</time>
      </trkpt>
      <trkpt lat="48.37531" lon="2.74709">
        <ele>90</ele>
        <time>2022-02-09T14:51:52.865Z</time>
      </trkpt>
      <trkpt lat="48.37538" lon="2.74703">
        <ele>90</ele>
        <time>2022-02-09T14:51:57.815Z</time>
      </trkpt>
      <trkpt lat="48.37544" lon="2.74697">
        <ele>91</ele>
        <time>2022-02-09T14:52:01.852Z</time>
      </trkpt>
      <trkpt lat="48.37551" lon="2.7469">
        <ele>91</ele>
        <time>2022-02-09T14:52:06.855Z</time>
      </trkpt>
      <trkpt lat="48.37558" lon="2.74686">
        <ele>91</ele>
        <time>2022-02-09T14:52:11.864Z</time>
      </trkpt>
      <trkpt lat="48.37562" lon="2.7468">
        <ele>91</ele>
        <time>2022-02-09T14:52:16.820Z</time>
      </trkpt>
      <trkpt lat="48.37567" lon="2.74675">
        <ele>91</ele>
        <time>2022-02-09T14:52:20.852Z</time>
      </trkpt>
      <trkpt lat="48.37572" lon="2.74668">
        <ele>92</ele>
        <time>2022-02-09T14:52:25.854Z</time>
      </trkpt>
      <trkpt lat="48.37577" lon="2.74663">
        <ele>92</ele>
        <time>2022-02-09T14:52:30.823Z</time>
      </trkpt>
      <trkpt lat="48.37582" lon="2.74658">
        <ele>92</ele>
        <time>2022-02-09T14:52:35.822Z</time>
      </trkpt>
      <trkpt lat="48.37588" lon="2.74655">
        <ele>92</ele>
        <time>2022-02-09T14:52:40.823Z</time>
      </trkpt>
      <trkpt lat="48.37593" lon="2.74651">
        <ele>91</ele>
        <time>2022-02-09T14:52:45.818Z</time>
      </trkpt>
      <trkpt lat="48.376" lon="2.74647">
        <ele>92</ele>
        <time>2022-02-09T14:52:50.809Z</time>
      </trkpt>
      <trkpt lat="48.37606" lon="2.74643">
        <ele>92</ele>
        <time>2022-02-09T14:52:55.810Z</time>
      </trkpt>
      <trkpt lat="48.3761" lon="2.74638">
        <ele>92</ele>
        <time>2022-02-09T14:52:59.819Z</time>
      </trkpt>
      <trkpt lat="48.37616" lon="2.74634">
        <ele>92</ele>
        <time>2022-02-09T14:53:03.824Z</time>
      </trkpt>
      <trkpt lat="48.3762" lon="2.7463">
        <ele>92</ele>
        <time>2022-02-09T14:53:07.831Z</time>
      </trkpt>
      <trkpt lat="48.37625" lon="2.74626">
        <ele>93</ele>
        <time>2022-02-09T14:53:12.831Z</time>
      </trkpt>
      <trkpt lat="48.37631" lon="2.74621">
        <ele>93</ele>
        <time>2022-02-09T14:53:17.820Z</time>
      </trkpt>
      <trkpt lat="48.37637" lon="2.74614">
        <ele>93</ele>
        <time>2022-02-09T14:53:22.824Z</time>
      </trkpt>
      <trkpt lat="48.37643" lon="2.7461">
        <ele>93</ele>
        <time>2022-02-09T14:53:27.828Z</time>
      </trkpt>
      <trkpt lat="48.37647" lon="2.74606">
        <ele>93</ele>
        <time>2022-02-09T14:53:31.849Z</time>
      </trkpt>
      <trkpt lat="48.37653" lon="2.74601">
        <ele>93</ele>
        <time>2022-02-09T14:53:36.829Z</time>
      </trkpt>
      <trkpt lat="48.37658" lon="2.74594">
        <ele>92</ele>
        <time>2022-02-09T14:53:41.811Z</time>
      </trkpt>
      <trkpt lat="48.37662" lon="2.7459">
        <ele>92</ele>
        <time>2022-02-09T14:53:45.815Z</time>
      </trkpt>
      <trkpt lat="48.37668" lon="2.74586">
        <ele>92</ele>
        <time>2022-02-09T14:53:50.814Z</time>
      </trkpt>
      <trkpt lat="48.37674" lon="2.74582">
        <ele>92</ele>
        <time>2022-02-09T14:53:54.823Z</time>
      </trkpt>
      <trkpt lat="48.37679" lon="2.74576">
        <ele>92</ele>
        <time>2022-02-09T14:53:59.820Z</time>
      </trkpt>
      <trkpt lat="48.37683" lon="2.74572">
        <ele>92</ele>
        <time>2022-02-09T14:54:03.826Z</time>
      </trkpt>
      <trkpt lat="48.37689" lon="2.74568">
        <ele>91</ele>
        <time>2022-02-09T14:54:08.824Z</time>
      </trkpt>
      <trkpt lat="48.37695" lon="2.74561">
        <ele>91</ele>
        <time>2022-02-09T14:54:13.824Z</time>
      </trkpt>
      <trkpt lat="48.37701" lon="2.74556">
        <ele>91</ele>
        <time>2022-02-09T14:54:18.812Z</time>
      </trkpt>
      <trkpt lat="48.37706" lon="2.74552">
        <ele>91</ele>
        <time>2022-02-09T14:54:22.830Z</time>
      </trkpt>
      <trkpt lat="48.37712" lon="2.74548">
        <ele>93</ele>
        <time>2022-02-09T14:54:27.828Z</time>
      </trkpt>
      <trkpt lat="48.37717" lon="2.74544">
        <ele>93</ele>
        <time>2022-02-09T14:54:31.829Z</time>
      </trkpt>
      <trkpt lat="48.37724" lon="2.74539">
        <ele>93</ele>
        <time>2022-02-09T14:54:36.823Z</time>
      </trkpt>
      <trkpt lat="48.37729" lon="2.74534">
        <ele>93</ele>
        <time>2022-02-09T14:54:40.837Z</time>
      </trkpt>
      <trkpt lat="48.37734" lon="2.74528">
        <ele>93</ele>
        <time>2022-02-09T14:54:45.811Z</time>
      </trkpt>
      <trkpt lat="48.37738" lon="2.74524">
        <ele>93</ele>
        <time>2022-02-09T14:54:49.826Z</time>
      </trkpt>
      <trkpt lat="48.37743" lon="2.7452">
        <ele>93</ele>
        <time>2022-02-09T14:54:53.827Z</time>
      </trkpt>
      <trkpt lat="48.37748" lon="2.74515">
        <ele>93</ele>
        <time>2022-02-09T14:54:58.815Z</time>
      </trkpt>
      <trkpt lat="48.37751" lon="2.7451">
        <ele>93</ele>
        <time>2022-02-09T14:55:02.826Z</time>
      </trkpt>
      <trkpt lat="48.37757" lon="2.74506">
        <ele>93</ele>
        <time>2022-02-09T14:55:07.826Z</time>
      </trkpt>
      <trkpt lat="48.37761" lon="2.74502">
        <ele>93</ele>
        <time>2022-02-09T14:55:11.831Z</time>
      </trkpt>
      <trkpt lat="48.37766" lon="2.74496">
        <ele>93</ele>
        <time>2022-02-09T14:55:16.823Z</time>
      </trkpt>
      <trkpt lat="48.37771" lon="2.74492">
        <ele>93</ele>
        <time>2022-02-09T14:55:20.836Z</time>
      </trkpt>
      <trkpt lat="48.37776" lon="2.74486">
        <ele>91</ele>
        <time>2022-02-09T14:55:25.822Z</time>
      </trkpt>
      <trkpt lat="48.37781" lon="2.74481">
        <ele>91</ele>
        <time>2022-02-09T14:55:30.827Z</time>
      </trkpt>
      <trkpt lat="48.37786" lon="2.74477">
        <ele>91</ele>
        <time>2022-02-09T14:55:35.852Z</time>
      </trkpt>
      <trkpt lat="48.37792" lon="2.74472">
        <ele>91</ele>
        <time>2022-02-09T14:55:40.852Z</time>
      </trkpt>
      <trkpt lat="48.37799" lon="2.74466">
        <ele>91</ele>
        <time>2022-02-09T14:55:45.827Z</time>
      </trkpt>
      <trkpt lat="48.37805" lon="2.7446">
        <ele>91</ele>
        <time>2022-02-09T14:55:50.851Z</time>
      </trkpt>
      <trkpt lat="48.3781" lon="2.74456">
        <ele>90</ele>
        <time>2022-02-09T14:55:55.820Z</time>
      </trkpt>
      <trkpt lat="48.37818" lon="2.7445">
        <ele>90</ele>
        <time>2022-02-09T14:56:00.830Z</time>
      </trkpt>
      <trkpt lat="48.37823" lon="2.74446">
        <ele>89</ele>
        <time>2022-02-09T14:56:05.823Z</time>
      </trkpt>
      <trkpt lat="48.3783" lon="2.74441">
        <ele>89</ele>
        <time>2022-02-09T14:56:10.822Z</time>
      </trkpt>
      <trkpt lat="48.37834" lon="2.74439">
        <ele>89</ele>
        <time>2022-02-09T14:56:15.831Z</time>
      </trkpt>
      <trkpt lat="48.37839" lon="2.74434">
        <ele>89</ele>
        <time>2022-02-09T14:56:20.864Z</time>
      </trkpt>
      <trkpt lat="48.37844" lon="2.7443">
        <ele>89</ele>
        <time>2022-02-09T14:56:25.823Z</time>
      </trkpt>
      <trkpt lat="48.37849" lon="2.74425">
        <ele>88</ele>
        <time>2022-02-09T14:56:30.817Z</time>
      </trkpt>
      <trkpt lat="48.37855" lon="2.74421">
        <ele>88</ele>
        <time>2022-02-09T14:56:35.829Z</time>
      </trkpt>
      <trkpt lat="48.3786" lon="2.74415">
        <ele>88</ele>
        <time>2022-02-09T14:56:40.823Z</time>
      </trkpt>
      <trkpt lat="48.37863" lon="2.74411">
        <ele>88</ele>
        <time>2022-02-09T14:56:44.831Z</time>
      </trkpt>
      <trkpt lat="48.37868" lon="2.74407">
        <ele>88</ele>
        <time>2022-02-09T14:56:49.839Z</time>
      </trkpt>
      <trkpt lat="48.37873" lon="2.74401">
        <ele>88</ele>
        <time>2022-02-09T14:56:54.824Z</time>
      </trkpt>
      <trkpt lat="48.37877" lon="2.74392">
        <ele>89</ele>
        <time>2022-02-09T14:56:59.818Z</time>
      </trkpt>
      <trkpt lat="48.37884" lon="2.74388">
        <ele>89</ele>
        <time>2022-02-09T14:57:04.820Z</time>
      </trkpt>
      <trkpt lat="48.37889" lon="2.74383">
        <ele>89</ele>
        <time>2022-02-09T14:57:09.818Z</time>
      </trkpt>
      <trkpt lat="48.37896" lon="2.74378">
        <ele>89</ele>
        <time>2022-02-09T14:57:14.814Z</time>
      </trkpt>
      <trkpt lat="48.37903" lon="2.74371">
        <ele>89</ele>
        <time>2022-02-09T14:57:19.817Z</time>
      </trkpt>
      <trkpt lat="48.37905" lon="2.74366">
        <ele>89</ele>
        <time>2022-02-09T14:57:24.817Z</time>
      </trkpt>
      <trkpt lat="48.37909" lon="2.74363">
        <ele>89</ele>
        <time>2022-02-09T14:57:29.822Z</time>
      </trkpt>
      <trkpt lat="48.37915" lon="2.7436">
        <ele>89</ele>
        <time>2022-02-09T14:57:34.819Z</time>
      </trkpt>
      <trkpt lat="48.37922" lon="2.74357">
        <ele>89</ele>
        <time>2022-02-09T14:57:39.820Z</time>
      </trkpt>
      <trkpt lat="48.37925" lon="2.74354">
        <ele>89</ele>
        <time>2022-02-09T14:57:43.822Z</time>
      </trkpt>
      <trkpt lat="48.37928" lon="2.74349">
        <ele>89</ele>
        <time>2022-02-09T14:57:48.818Z</time>
      </trkpt>
      <trkpt lat="48.37929" lon="2.74346">
        <ele>89</ele>
        <time>2022-02-09T14:57:58.822Z</time>
      </trkpt>
      <trkpt lat="48.37932" lon="2.74343">
        <ele>89</ele>
        <time>2022-02-09T14:58:02.825Z</time>
      </trkpt>
      <trkpt lat="48.37935" lon="2.7434">
        <ele>89</ele>
        <time>2022-02-09T14:58:07.809Z</time>
      </trkpt>
      <trkpt lat="48.37938" lon="2.7434">
        <ele>89</ele>
        <time>2022-02-09T14:58:11.821Z</time>
      </trkpt>
      <trkpt lat="48.37944" lon="2.74337">
        <ele>89</ele>
        <time>2022-02-09T14:58:16.812Z</time>
      </trkpt>
      <trkpt lat="48.3795" lon="2.74339">
        <ele>89</ele>
        <time>2022-02-09T14:58:21.812Z</time>
      </trkpt>
      <trkpt lat="48.37955" lon="2.7434">
        <ele>89</ele>
        <time>2022-02-09T14:58:26.817Z</time>
      </trkpt>
      <trkpt lat="48.37957" lon="2.74342">
        <ele>89</ele>
        <time>2022-02-09T14:58:30.820Z</time>
      </trkpt>
      <trkpt lat="48.37959" lon="2.74338">
        <ele>88</ele>
        <time>2022-02-09T14:58:34.824Z</time>
      </trkpt>
      <trkpt lat="48.37963" lon="2.74338">
        <ele>88</ele>
        <time>2022-02-09T14:58:39.811Z</time>
      </trkpt>
      <trkpt lat="48.37967" lon="2.74338">
        <ele>88</ele>
        <time>2022-02-09T14:58:43.823Z</time>
      </trkpt>
      <trkpt lat="48.37971" lon="2.74339">
        <ele>88</ele>
        <time>2022-02-09T14:58:47.816Z</time>
      </trkpt>
      <trkpt lat="48.37975" lon="2.74339">
        <ele>88</ele>
        <time>2022-02-09T14:58:52.816Z</time>
      </trkpt>
      <trkpt lat="48.3798" lon="2.7434">
        <ele>88</ele>
        <time>2022-02-09T14:58:57.812Z</time>
      </trkpt>
      <trkpt lat="48.37983" lon="2.74342">
        <ele>88</ele>
        <time>2022-02-09T14:59:01.825Z</time>
      </trkpt>
      <trkpt lat="48.37988" lon="2.74342">
        <ele>87</ele>
        <time>2022-02-09T14:59:06.824Z</time>
      </trkpt>
      <trkpt lat="48.37994" lon="2.74342">
        <ele>87</ele>
        <time>2022-02-09T14:59:11.815Z</time>
      </trkpt>
      <trkpt lat="48.37997" lon="2.74342">
        <ele>87</ele>
        <time>2022-02-09T14:59:15.817Z</time>
      </trkpt>
      <trkpt lat="48.38002" lon="2.74343">
        <ele>87</ele>
        <time>2022-02-09T14:59:20.823Z</time>
      </trkpt>
      <trkpt lat="48.38007" lon="2.74342">
        <ele>87</ele>
        <time>2022-02-09T14:59:25.821Z</time>
      </trkpt>
      <trkpt lat="48.38012" lon="2.74341">
        <ele>87</ele>
        <time>2022-02-09T14:59:29.827Z</time>
      </trkpt>
      <trkpt lat="48.38019" lon="2.74342">
        <ele>84</ele>
        <time>2022-02-09T14:59:34.826Z</time>
      </trkpt>
      <trkpt lat="48.38025" lon="2.74343">
        <ele>84</ele>
        <time>2022-02-09T14:59:39.813Z</time>
      </trkpt>
      <trkpt lat="48.3803" lon="2.74342">
        <ele>84</ele>
        <time>2022-02-09T14:59:43.818Z</time>
      </trkpt>
      <trkpt lat="48.38037" lon="2.74344">
        <ele>84</ele>
        <time>2022-02-09T14:59:48.816Z</time>
      </trkpt>
      <trkpt lat="48.38043" lon="2.74342">
        <ele>82</ele>
        <time>2022-02-09T14:59:52.821Z</time>
      </trkpt>
      <trkpt lat="48.38049" lon="2.74341">
        <ele>82</ele>
        <time>2022-02-09T14:59:56.824Z</time>
      </trkpt>
      <trkpt lat="48.38055" lon="2.74341">
        <ele>82</ele>
        <time>2022-02-09T15:00:01.826Z</time>
      </trkpt>
      <trkpt lat="48.38062" lon="2.74342">
        <ele>82</ele>
        <time>2022-02-09T15:00:06.836Z</time>
      </trkpt>
      <trkpt lat="48.38068" lon="2.74342">
        <ele>82</ele>
        <time>2022-02-09T15:00:11.815Z</time>
      </trkpt>
      <trkpt lat="48.38073" lon="2.74344">
        <ele>81</ele>
        <time>2022-02-09T15:00:15.826Z</time>
      </trkpt>
      <trkpt lat="48.38079" lon="2.74345">
        <ele>81</ele>
        <time>2022-02-09T15:00:20.817Z</time>
      </trkpt>
      <trkpt lat="48.38083" lon="2.74344">
        <ele>81</ele>
        <time>2022-02-09T15:00:24.828Z</time>
      </trkpt>
      <trkpt lat="48.38089" lon="2.74344">
        <ele>81</ele>
        <time>2022-02-09T15:00:29.811Z</time>
      </trkpt>
      <trkpt lat="48.38094" lon="2.74346">
        <ele>81</ele>
        <time>2022-02-09T15:00:33.812Z</time>
      </trkpt>
      <trkpt lat="48.38099" lon="2.74346">
        <ele>81</ele>
        <time>2022-02-09T15:00:37.830Z</time>
      </trkpt>
      <trkpt lat="48.38105" lon="2.74346">
        <ele>81</ele>
        <time>2022-02-09T15:00:42.816Z</time>
      </trkpt>
      <trkpt lat="48.38111" lon="2.74347">
        <ele>81</ele>
        <time>2022-02-09T15:00:47.826Z</time>
      </trkpt>
      <trkpt lat="48.38117" lon="2.74348">
        <ele>83</ele>
        <time>2022-02-09T15:00:52.826Z</time>
      </trkpt>
      <trkpt lat="48.38124" lon="2.74348">
        <ele>83</ele>
        <time>2022-02-09T15:00:57.820Z</time>
      </trkpt>
      <trkpt lat="48.38132" lon="2.74348">
        <ele>83</ele>
        <time>2022-02-09T15:01:02.815Z</time>
      </trkpt>
      <trkpt lat="48.38137" lon="2.74347">
        <ele>81</ele>
        <time>2022-02-09T15:01:06.821Z</time>
      </trkpt>
      <trkpt lat="48.38143" lon="2.74347">
        <ele>81</ele>
        <time>2022-02-09T15:01:11.823Z</time>
      </trkpt>
      <trkpt lat="48.38148" lon="2.74347">
        <ele>81</ele>
        <time>2022-02-09T15:01:16.820Z</time>
      </trkpt>
      <trkpt lat="48.38155" lon="2.74346">
        <ele>82</ele>
        <time>2022-02-09T15:01:21.812Z</time>
      </trkpt>
      <trkpt lat="48.3816" lon="2.74346">
        <ele>82</ele>
        <time>2022-02-09T15:01:26.808Z</time>
      </trkpt>
      <trkpt lat="48.38165" lon="2.74346">
        <ele>82</ele>
        <time>2022-02-09T15:01:30.822Z</time>
      </trkpt>
      <trkpt lat="48.38171" lon="2.74346">
        <ele>82</ele>
        <time>2022-02-09T15:01:34.823Z</time>
      </trkpt>
      <trkpt lat="48.38177" lon="2.74346">
        <ele>82</ele>
        <time>2022-02-09T15:01:39.835Z</time>
      </trkpt>
      <trkpt lat="48.38183" lon="2.74345">
        <ele>83</ele>
        <time>2022-02-09T15:01:44.839Z</time>
      </trkpt>
      <trkpt lat="48.3819" lon="2.74345">
        <ele>83</ele>
        <time>2022-02-09T15:01:49.825Z</time>
      </trkpt>
      <trkpt lat="48.38197" lon="2.7434">
        <ele>83</ele>
        <time>2022-02-09T15:01:54.822Z</time>
      </trkpt>
      <trkpt lat="48.382" lon="2.74337">
        <ele>83</ele>
        <time>2022-02-09T15:01:57.819Z</time>
      </trkpt>
      <trkpt lat="48.38206" lon="2.74327">
        <ele>83</ele>
        <time>2022-02-09T15:02:04.812Z</time>
      </trkpt>
      <trkpt lat="48.38212" lon="2.7432">
        <ele>86</ele>
        <time>2022-02-09T15:02:09.808Z</time>
      </trkpt>
      <trkpt lat="48.38216" lon="2.74315">
        <ele>86</ele>
        <time>2022-02-09T15:02:13.811Z</time>
      </trkpt>
      <trkpt lat="48.38222" lon="2.74307">
        <ele>86</ele>
        <time>2022-02-09T15:02:18.813Z</time>
      </trkpt>
      <trkpt lat="48.38227" lon="2.74301">
        <ele>86</ele>
        <time>2022-02-09T15:02:22.825Z</time>
      </trkpt>
      <trkpt lat="48.38232" lon="2.74295">
        <ele>86</ele>
        <time>2022-02-09T15:02:27.812Z</time>
      </trkpt>
      <trkpt lat="48.38236" lon="2.7429">
        <ele>89</ele>
        <time>2022-02-09T15:02:31.824Z</time>
      </trkpt>
      <trkpt lat="48.3824" lon="2.74283">
        <ele>89</ele>
        <time>2022-02-09T15:02:36.818Z</time>
      </trkpt>
      <trkpt lat="48.38245" lon="2.74279">
        <ele>89</ele>
        <time>2022-02-09T15:02:40.825Z</time>
      </trkpt>
      <trkpt lat="48.38251" lon="2.74274">
        <ele>89</ele>
        <time>2022-02-09T15:02:45.822Z</time>
      </trkpt>
      <trkpt lat="48.38255" lon="2.74267">
        <ele>89</ele>
        <time>2022-02-09T15:02:49.823Z</time>
      </trkpt>
      <trkpt lat="48.38261" lon="2.74261">
        <ele>90</ele>
        <time>2022-02-09T15:02:54.817Z</time>
      </trkpt>
      <trkpt lat="48.38265" lon="2.74255">
        <ele>90</ele>
        <time>2022-02-09T15:02:59.823Z</time>
      </trkpt>
      <trkpt lat="48.3827" lon="2.74249">
        <ele>90</ele>
        <time>2022-02-09T15:03:04.809Z</time>
      </trkpt>
      <trkpt lat="48.38274" lon="2.74244">
        <ele>90</ele>
        <time>2022-02-09T15:03:08.821Z</time>
      </trkpt>
      <trkpt lat="48.38279" lon="2.74237">
        <ele>90</ele>
        <time>2022-02-09T15:03:13.823Z</time>
      </trkpt>
      <trkpt lat="48.38285" lon="2.74231">
        <ele>90</ele>
        <time>2022-02-09T15:03:18.819Z</time>
      </trkpt>
      <trkpt lat="48.38289" lon="2.74226">
        <ele>90</ele>
        <time>2022-02-09T15:03:22.825Z</time>
      </trkpt>
      <trkpt lat="48.38293" lon="2.74221">
        <ele>90</ele>
        <time>2022-02-09T15:03:26.835Z</time>
      </trkpt>
      <trkpt lat="48.38298" lon="2.74213">
        <ele>90</ele>
        <time>2022-02-09T15:03:31.809Z</time>
      </trkpt>
      <trkpt lat="48.38302" lon="2.74208">
        <ele>89</ele>
        <time>2022-02-09T15:03:35.813Z</time>
      </trkpt>
      <trkpt lat="48.38307" lon="2.74201">
        <ele>89</ele>
        <time>2022-02-09T15:03:40.809Z</time>
      </trkpt>
      <trkpt lat="48.38311" lon="2.74197">
        <ele>89</ele>
        <time>2022-02-09T15:03:44.817Z</time>
      </trkpt>
      <trkpt lat="48.38315" lon="2.7419">
        <ele>89</ele>
        <time>2022-02-09T15:03:49.818Z</time>
      </trkpt>
      <trkpt lat="48.3832" lon="2.74186">
        <ele>89</ele>
        <time>2022-02-09T15:03:53.820Z</time>
      </trkpt>
      <trkpt lat="48.38325" lon="2.74179">
        <ele>88</ele>
        <time>2022-02-09T15:03:58.814Z</time>
      </trkpt>
      <trkpt lat="48.38329" lon="2.74171">
        <ele>88</ele>
        <time>2022-02-09T15:04:03.805Z</time>
      </trkpt>
      <trkpt lat="48.38333" lon="2.74165">
        <ele>88</ele>
        <time>2022-02-09T15:04:07.822Z</time>
      </trkpt>
      <trkpt lat="48.38338" lon="2.74159">
        <ele>88</ele>
        <time>2022-02-09T15:04:12.819Z</time>
      </trkpt>
      <trkpt lat="48.38343" lon="2.74153">
        <ele>88</ele>
        <time>2022-02-09T15:04:17.816Z</time>
      </trkpt>
      <trkpt lat="48.38347" lon="2.74148">
        <ele>88</ele>
        <time>2022-02-09T15:04:21.819Z</time>
      </trkpt>
      <trkpt lat="48.38351" lon="2.74143">
        <ele>88</ele>
        <time>2022-02-09T15:04:25.832Z</time>
      </trkpt>
      <trkpt lat="48.38357" lon="2.74138">
        <ele>88</ele>
        <time>2022-02-09T15:04:30.809Z</time>
      </trkpt>
      <trkpt lat="48.38358" lon="2.74133">
        <ele>88</ele>
        <time>2022-02-09T15:04:34.815Z</time>
      </trkpt>
      <trkpt lat="48.38362" lon="2.74127">
        <ele>88</ele>
        <time>2022-02-09T15:04:39.823Z</time>
      </trkpt>
      <trkpt lat="48.38367" lon="2.74121">
        <ele>88</ele>
        <time>2022-02-09T15:04:44.824Z</time>
      </trkpt>
      <trkpt lat="48.38371" lon="2.74118">
        <ele>88</ele>
        <time>2022-02-09T15:04:48.833Z</time>
      </trkpt>
      <trkpt lat="48.38376" lon="2.74114">
        <ele>87</ele>
        <time>2022-02-09T15:04:53.827Z</time>
      </trkpt>
      <trkpt lat="48.3838" lon="2.74107">
        <ele>87</ele>
        <time>2022-02-09T15:04:58.822Z</time>
      </trkpt>
      <trkpt lat="48.38385" lon="2.74101">
        <ele>87</ele>
        <time>2022-02-09T15:05:02.823Z</time>
      </trkpt>
      <trkpt lat="48.38388" lon="2.74097">
        <ele>87</ele>
        <time>2022-02-09T15:05:06.821Z</time>
      </trkpt>
      <trkpt lat="48.38393" lon="2.74092">
        <ele>87</ele>
        <time>2022-02-09T15:05:11.817Z</time>
      </trkpt>
      <trkpt lat="48.38399" lon="2.74086">
        <ele>87</ele>
        <time>2022-02-09T15:05:16.818Z</time>
      </trkpt>
      <trkpt lat="48.38404" lon="2.74082">
        <ele>86</ele>
        <time>2022-02-09T15:05:21.827Z</time>
      </trkpt>
      <trkpt lat="48.38409" lon="2.74077">
        <ele>86</ele>
        <time>2022-02-09T15:05:26.832Z</time>
      </trkpt>
      <trkpt lat="48.38413" lon="2.7407">
        <ele>86</ele>
        <time>2022-02-09T15:05:31.816Z</time>
      </trkpt>
      <trkpt lat="48.38416" lon="2.74064">
        <ele>86</ele>
        <time>2022-02-09T15:05:35.821Z</time>
      </trkpt>
      <trkpt lat="48.38421" lon="2.74058">
        <ele>86</ele>
        <time>2022-02-09T15:05:40.809Z</time>
      </trkpt>
      <trkpt lat="48.38426" lon="2.74052">
        <ele>86</ele>
        <time>2022-02-09T15:05:45.827Z</time>
      </trkpt>
      <trkpt lat="48.3843" lon="2.74047">
        <ele>86</ele>
        <time>2022-02-09T15:05:49.834Z</time>
      </trkpt>
      <trkpt lat="48.38435" lon="2.74041">
        <ele>83</ele>
        <time>2022-02-09T15:05:54.821Z</time>
      </trkpt>
      <trkpt lat="48.3844" lon="2.74035">
        <ele>83</ele>
        <time>2022-02-09T15:05:59.823Z</time>
      </trkpt>
      <trkpt lat="48.38447" lon="2.74026">
        <ele>83</ele>
        <time>2022-02-09T15:06:04.825Z</time>
      </trkpt>
      <trkpt lat="48.38451" lon="2.7402">
        <ele>83</ele>
        <time>2022-02-09T15:06:09.817Z</time>
      </trkpt>
      <trkpt lat="48.38455" lon="2.74013">
        <ele>82</ele>
        <time>2022-02-09T15:06:14.822Z</time>
      </trkpt>
      <trkpt lat="48.38459" lon="2.7401">
        <ele>80</ele>
        <time>2022-02-09T15:06:18.825Z</time>
      </trkpt>
      <trkpt lat="48.38463" lon="2.74006">
        <ele>80</ele>
        <time>2022-02-09T15:06:23.818Z</time>
      </trkpt>
      <trkpt lat="48.38467" lon="2.73999">
        <ele>80</ele>
        <time>2022-02-09T15:06:28.833Z</time>
      </trkpt>
      <trkpt lat="48.38473" lon="2.7399">
        <ele>80</ele>
        <time>2022-02-09T15:06:33.818Z</time>
      </trkpt>
      <trkpt lat="48.38478" lon="2.73984">
        <ele>80</ele>
        <time>2022-02-09T15:06:38.813Z</time>
      </trkpt>
      <trkpt lat="48.38482" lon="2.73979">
        <ele>80</ele>
        <time>2022-02-09T15:06:42.813Z</time>
      </trkpt>
      <trkpt lat="48.38486" lon="2.73971">
        <ele>79</ele>
        <time>2022-02-09T15:06:47.814Z</time>
      </trkpt>
      <trkpt lat="48.38492" lon="2.73966">
        <ele>79</ele>
        <time>2022-02-09T15:06:52.818Z</time>
      </trkpt>
      <trkpt lat="48.38496" lon="2.73961">
        <ele>79</ele>
        <time>2022-02-09T15:06:57.821Z</time>
      </trkpt>
      <trkpt lat="48.38501" lon="2.73953">
        <ele>80</ele>
        <time>2022-02-09T15:07:02.813Z</time>
      </trkpt>
      <trkpt lat="48.38507" lon="2.73947">
        <ele>80</ele>
        <time>2022-02-09T15:07:07.816Z</time>
      </trkpt>
      <trkpt lat="48.38513" lon="2.73939">
        <ele>80</ele>
        <time>2022-02-09T15:07:12.815Z</time>
      </trkpt>
      <trkpt lat="48.38518" lon="2.73933">
        <ele>78</ele>
        <time>2022-02-09T15:07:17.814Z</time>
      </trkpt>
      <trkpt lat="48.38523" lon="2.73926">
        <ele>79</ele>
        <time>2022-02-09T15:07:22.818Z</time>
      </trkpt>
      <trkpt lat="48.38528" lon="2.73921">
        <ele>79</ele>
        <time>2022-02-09T15:07:26.814Z</time>
      </trkpt>
      <trkpt lat="48.38532" lon="2.73914">
        <ele>79</ele>
        <time>2022-02-09T15:07:31.813Z</time>
      </trkpt>
      <trkpt lat="48.38537" lon="2.73907">
        <ele>79</ele>
        <time>2022-02-09T15:07:36.814Z</time>
      </trkpt>
      <trkpt lat="48.38542" lon="2.739">
        <ele>80</ele>
        <time>2022-02-09T15:07:41.813Z</time>
      </trkpt>
      <trkpt lat="48.38545" lon="2.73895">
        <ele>80</ele>
        <time>2022-02-09T15:07:45.821Z</time>
      </trkpt>
      <trkpt lat="48.38548" lon="2.73888">
        <ele>80</ele>
        <time>2022-02-09T15:07:50.813Z</time>
      </trkpt>
      <trkpt lat="48.38552" lon="2.73882">
        <ele>80</ele>
        <time>2022-02-09T15:07:55.816Z</time>
      </trkpt>
      <trkpt lat="48.38558" lon="2.73875">
        <ele>81</ele>
        <time>2022-02-09T15:08:00.811Z</time>
      </trkpt>
      <trkpt lat="48.38563" lon="2.73869">
        <ele>81</ele>
        <time>2022-02-09T15:08:04.824Z</time>
      </trkpt>
      <trkpt lat="48.38569" lon="2.73864">
        <ele>81</ele>
        <time>2022-02-09T15:08:09.815Z</time>
      </trkpt>
      <trkpt lat="48.38574" lon="2.73858">
        <ele>82</ele>
        <time>2022-02-09T15:08:14.818Z</time>
      </trkpt>
      <trkpt lat="48.38578" lon="2.73852">
        <ele>82</ele>
        <time>2022-02-09T15:08:19.823Z</time>
      </trkpt>
      <trkpt lat="48.38582" lon="2.73844">
        <ele>83</ele>
        <time>2022-02-09T15:08:24.824Z</time>
      </trkpt>
      <trkpt lat="48.38587" lon="2.73837">
        <ele>83</ele>
        <time>2022-02-09T15:08:28.827Z</time>
      </trkpt>
      <trkpt lat="48.38594" lon="2.7383">
        <ele>83</ele>
        <time>2022-02-09T15:08:33.821Z</time>
      </trkpt>
      <trkpt lat="48.38599" lon="2.73823">
        <ele>86</ele>
        <time>2022-02-09T15:08:38.821Z</time>
      </trkpt>
      <trkpt lat="48.38603" lon="2.73818">
        <ele>87</ele>
        <time>2022-02-09T15:08:43.817Z</time>
      </trkpt>
      <trkpt lat="48.38606" lon="2.73813">
        <ele>87</ele>
        <time>2022-02-09T15:08:47.836Z</time>
      </trkpt>
      <trkpt lat="48.38606" lon="2.73804">
        <ele>87</ele>
        <time>2022-02-09T15:08:52.813Z</time>
      </trkpt>
      <trkpt lat="48.38608" lon="2.73798">
        <ele>87</ele>
        <time>2022-02-09T15:08:56.819Z</time>
      </trkpt>
      <trkpt lat="48.38606" lon="2.73792">
        <ele>87</ele>
        <time>2022-02-09T15:09:00.817Z</time>
      </trkpt>
      <trkpt lat="48.38606" lon="2.73789">
        <ele>87</ele>
        <time>2022-02-09T15:09:04.830Z</time>
      </trkpt>
      <trkpt lat="48.38608" lon="2.73784">
        <ele>87</ele>
        <time>2022-02-09T15:09:09.834Z</time>
      </trkpt>
      <trkpt lat="48.38608" lon="2.73778">
        <ele>87</ele>
        <time>2022-02-09T15:09:14.827Z</time>
      </trkpt>
      <trkpt lat="48.38607" lon="2.73772">
        <ele>87</ele>
        <time>2022-02-09T15:09:19.825Z</time>
      </trkpt>
      <trkpt lat="48.38606" lon="2.73765">
        <ele>87</ele>
        <time>2022-02-09T15:09:24.818Z</time>
      </trkpt>
      <trkpt lat="48.38605" lon="2.73759">
        <ele>87</ele>
        <time>2022-02-09T15:09:28.820Z</time>
      </trkpt>
      <trkpt lat="48.38604" lon="2.73751">
        <ele>87</ele>
        <time>2022-02-09T15:09:33.824Z</time>
      </trkpt>
      <trkpt lat="48.38603" lon="2.73742">
        <ele>87</ele>
        <time>2022-02-09T15:09:38.820Z</time>
      </trkpt>
      <trkpt lat="48.38602" lon="2.73735">
        <ele>87</ele>
        <time>2022-02-09T15:09:42.824Z</time>
      </trkpt>
      <trkpt lat="48.38601" lon="2.73727">
        <ele>87</ele>
        <time>2022-02-09T15:09:47.816Z</time>
      </trkpt>
      <trkpt lat="48.38601" lon="2.7372">
        <ele>87</ele>
        <time>2022-02-09T15:09:51.817Z</time>
      </trkpt>
      <trkpt lat="48.38598" lon="2.73712">
        <ele>87</ele>
        <time>2022-02-09T15:09:55.816Z</time>
      </trkpt>
      <trkpt lat="48.38595" lon="2.73704">
        <ele>86</ele>
        <time>2022-02-09T15:10:00.815Z</time>
      </trkpt>
      <trkpt lat="48.38594" lon="2.73696">
        <ele>86</ele>
        <time>2022-02-09T15:10:04.820Z</time>
      </trkpt>
      <trkpt lat="48.38592" lon="2.73688">
        <ele>86</ele>
        <time>2022-02-09T15:10:09.823Z</time>
      </trkpt>
      <trkpt lat="48.38592" lon="2.73679">
        <ele>85</ele>
        <time>2022-02-09T15:10:14.821Z</time>
      </trkpt>
      <trkpt lat="48.38591" lon="2.73671">
        <ele>85</ele>
        <time>2022-02-09T15:10:18.829Z</time>
      </trkpt>
      <trkpt lat="48.3859" lon="2.73662">
        <ele>85</ele>
        <time>2022-02-09T15:10:23.815Z</time>
      </trkpt>
      <trkpt lat="48.38588" lon="2.73656">
        <ele>85</ele>
        <time>2022-02-09T15:10:27.820Z</time>
      </trkpt>
      <trkpt lat="48.38587" lon="2.73649">
        <ele>86</ele>
        <time>2022-02-09T15:10:31.827Z</time>
      </trkpt>
      <trkpt lat="48.38585" lon="2.73641">
        <ele>86</ele>
        <time>2022-02-09T15:10:36.825Z</time>
      </trkpt>
      <trkpt lat="48.38585" lon="2.73632">
        <ele>86</ele>
        <time>2022-02-09T15:10:41.821Z</time>
      </trkpt>
      <trkpt lat="48.38584" lon="2.73625">
        <ele>86</ele>
        <time>2022-02-09T15:10:45.822Z</time>
      </trkpt>
      <trkpt lat="48.38584" lon="2.73615">
        <ele>86</ele>
        <time>2022-02-09T15:10:50.829Z</time>
      </trkpt>
      <trkpt lat="48.38581" lon="2.73604">
        <ele>86</ele>
        <time>2022-02-09T15:10:55.829Z</time>
      </trkpt>
      <trkpt lat="48.3858" lon="2.73597">
        <ele>86</ele>
        <time>2022-02-09T15:10:59.837Z</time>
      </trkpt>
      <trkpt lat="48.38578" lon="2.73588">
        <ele>86</ele>
        <time>2022-02-09T15:11:04.819Z</time>
      </trkpt>
      <trkpt lat="48.38577" lon="2.7358">
        <ele>86</ele>
        <time>2022-02-09T15:11:08.828Z</time>
      </trkpt>
      <trkpt lat="48.38575" lon="2.73571">
        <ele>86</ele>
        <time>2022-02-09T15:11:13.816Z</time>
      </trkpt>
      <trkpt lat="48.38573" lon="2.73562">
        <ele>86</ele>
        <time>2022-02-09T15:11:18.817Z</time>
      </trkpt>
      <trkpt lat="48.38571" lon="2.73553">
        <ele>86</ele>
        <time>2022-02-09T15:11:23.827Z</time>
      </trkpt>
      <trkpt lat="48.38568" lon="2.73544">
        <ele>86</ele>
        <time>2022-02-09T15:11:28.819Z</time>
      </trkpt>
      <trkpt lat="48.38566" lon="2.73537">
        <ele>86</ele>
        <time>2022-02-09T15:11:32.832Z</time>
      </trkpt>
      <trkpt lat="48.38566" lon="2.73527">
        <ele>86</ele>
        <time>2022-02-09T15:11:37.822Z</time>
      </trkpt>
      <trkpt lat="48.38564" lon="2.73517">
        <ele>86</ele>
        <time>2022-02-09T15:11:42.830Z</time>
      </trkpt>
      <trkpt lat="48.38562" lon="2.73506">
        <ele>86</ele>
        <time>2022-02-09T15:11:47.826Z</time>
      </trkpt>
      <trkpt lat="48.38561" lon="2.73498">
        <ele>86</ele>
        <time>2022-02-09T15:11:51.830Z</time>
      </trkpt>
      <trkpt lat="48.3856" lon="2.73488">
        <ele>86</ele>
        <time>2022-02-09T15:11:56.822Z</time>
      </trkpt>
      <trkpt lat="48.38559" lon="2.73479">
        <ele>85</ele>
        <time>2022-02-09T15:12:01.818Z</time>
      </trkpt>
      <trkpt lat="48.38557" lon="2.7347">
        <ele>85</ele>
        <time>2022-02-09T15:12:06.827Z</time>
      </trkpt>
      <trkpt lat="48.38554" lon="2.73461">
        <ele>85</ele>
        <time>2022-02-09T15:12:11.824Z</time>
      </trkpt>
      <trkpt lat="48.38553" lon="2.73451">
        <ele>85</ele>
        <time>2022-02-09T15:12:16.823Z</time>
      </trkpt>
      <trkpt lat="48.38554" lon="2.73441">
        <ele>85</ele>
        <time>2022-02-09T15:12:21.833Z</time>
      </trkpt>
      <trkpt lat="48.38555" lon="2.73432">
        <ele>85</ele>
        <time>2022-02-09T15:12:26.822Z</time>
      </trkpt>
      <trkpt lat="48.38555" lon="2.73425">
        <ele>87</ele>
        <time>2022-02-09T15:12:30.824Z</time>
      </trkpt>
      <trkpt lat="48.38553" lon="2.73415">
        <ele>87</ele>
        <time>2022-02-09T15:12:35.823Z</time>
      </trkpt>
      <trkpt lat="48.3855" lon="2.73402">
        <ele>88</ele>
        <time>2022-02-09T15:12:40.822Z</time>
      </trkpt>
      <trkpt lat="48.38547" lon="2.73394">
        <ele>88</ele>
        <time>2022-02-09T15:12:44.824Z</time>
      </trkpt>
      <trkpt lat="48.38545" lon="2.73385">
        <ele>88</ele>
        <time>2022-02-09T15:12:48.826Z</time>
      </trkpt>
      <trkpt lat="48.38545" lon="2.73375">
        <ele>90</ele>
        <time>2022-02-09T15:12:53.824Z</time>
      </trkpt>
      <trkpt lat="48.38545" lon="2.73364">
        <ele>90</ele>
        <time>2022-02-09T15:12:58.821Z</time>
      </trkpt>
      <trkpt lat="48.38544" lon="2.73355">
        <ele>90</ele>
        <time>2022-02-09T15:13:02.833Z</time>
      </trkpt>
      <trkpt lat="48.38542" lon="2.73345">
        <ele>91</ele>
        <time>2022-02-09T15:13:07.819Z</time>
      </trkpt>
      <trkpt lat="48.38539" lon="2.73337">
        <ele>86</ele>
        <time>2022-02-09T15:13:11.822Z</time>
      </trkpt>
      <trkpt lat="48.38537" lon="2.73329">
        <ele>86</ele>
        <time>2022-02-09T15:13:16.822Z</time>
      </trkpt>
      <trkpt lat="48.38535" lon="2.7332">
        <ele>86</ele>
        <time>2022-02-09T15:13:21.819Z</time>
      </trkpt>
      <trkpt lat="48.38534" lon="2.73312">
        <ele>87</ele>
        <time>2022-02-09T15:13:25.825Z</time>
      </trkpt>
      <trkpt lat="48.38531" lon="2.73303">
        <ele>87</ele>
        <time>2022-02-09T15:13:30.821Z</time>
      </trkpt>
      <trkpt lat="48.3853" lon="2.73295">
        <ele>87</ele>
        <time>2022-02-09T15:13:34.826Z</time>
      </trkpt>
      <trkpt lat="48.38527" lon="2.73286">
        <ele>86</ele>
        <time>2022-02-09T15:13:39.818Z</time>
      </trkpt>
      <trkpt lat="48.38525" lon="2.73278">
        <ele>86</ele>
        <time>2022-02-09T15:13:43.820Z</time>
      </trkpt>
      <trkpt lat="48.38523" lon="2.73269">
        <ele>86</ele>
        <time>2022-02-09T15:13:48.829Z</time>
      </trkpt>
      <trkpt lat="48.38521" lon="2.7326">
        <ele>87</ele>
        <time>2022-02-09T15:13:53.818Z</time>
      </trkpt>
      <trkpt lat="48.38518" lon="2.7325">
        <ele>87</ele>
        <time>2022-02-09T15:13:58.824Z</time>
      </trkpt>
      <trkpt lat="48.38516" lon="2.73238">
        <ele>87</ele>
        <time>2022-02-09T15:14:03.813Z</time>
      </trkpt>
      <trkpt lat="48.38513" lon="2.73228">
        <ele>87</ele>
        <time>2022-02-09T15:14:08.824Z</time>
      </trkpt>
      <trkpt lat="48.38511" lon="2.73219">
        <ele>87</ele>
        <time>2022-02-09T15:14:13.822Z</time>
      </trkpt>
      <trkpt lat="48.38511" lon="2.73211">
        <ele>87</ele>
        <time>2022-02-09T15:14:17.828Z</time>
      </trkpt>
      <trkpt lat="48.3851" lon="2.73201">
        <ele>87</ele>
        <time>2022-02-09T15:14:22.816Z</time>
      </trkpt>
      <trkpt lat="48.38508" lon="2.73194">
        <ele>87</ele>
        <time>2022-02-09T15:14:26.817Z</time>
      </trkpt>
      <trkpt lat="48.38506" lon="2.73184">
        <ele>87</ele>
        <time>2022-02-09T15:14:31.825Z</time>
      </trkpt>
      <trkpt lat="48.38503" lon="2.73174">
        <ele>88</ele>
        <time>2022-02-09T15:14:36.822Z</time>
      </trkpt>
      <trkpt lat="48.38502" lon="2.73166">
        <ele>88</ele>
        <time>2022-02-09T15:14:40.836Z</time>
      </trkpt>
      <trkpt lat="48.38501" lon="2.73156">
        <ele>88</ele>
        <time>2022-02-09T15:14:45.823Z</time>
      </trkpt>
      <trkpt lat="48.38499" lon="2.73145">
        <ele>89</ele>
        <time>2022-02-09T15:14:50.830Z</time>
      </trkpt>
      <trkpt lat="48.38498" lon="2.73135">
        <ele>89</ele>
        <time>2022-02-09T15:14:55.834Z</time>
      </trkpt>
      <trkpt lat="48.38496" lon="2.73126">
        <ele>89</ele>
        <time>2022-02-09T15:15:00.818Z</time>
      </trkpt>
      <trkpt lat="48.38495" lon="2.73119">
        <ele>89</ele>
        <time>2022-02-09T15:15:04.827Z</time>
      </trkpt>
      <trkpt lat="48.38492" lon="2.73105">
        <ele>89</ele>
        <time>2022-02-09T15:15:09.860Z</time>
      </trkpt>
      <trkpt lat="48.38491" lon="2.73096">
        <ele>90</ele>
        <time>2022-02-09T15:15:14.821Z</time>
      </trkpt>
      <trkpt lat="48.38489" lon="2.73086">
        <ele>90</ele>
        <time>2022-02-09T15:15:19.825Z</time>
      </trkpt>
      <trkpt lat="48.38487" lon="2.73077">
        <ele>90</ele>
        <time>2022-02-09T15:15:24.856Z</time>
      </trkpt>
      <trkpt lat="48.38487" lon="2.73067">
        <ele>91</ele>
        <time>2022-02-09T15:15:29.828Z</time>
      </trkpt>
      <trkpt lat="48.38485" lon="2.73058">
        <ele>90</ele>
        <time>2022-02-09T15:15:34.830Z</time>
      </trkpt>
      <trkpt lat="48.38483" lon="2.73049">
        <ele>90</ele>
        <time>2022-02-09T15:15:39.832Z</time>
      </trkpt>
      <trkpt lat="48.38483" lon="2.73039">
        <ele>91</ele>
        <time>2022-02-09T15:15:44.849Z</time>
      </trkpt>
      <trkpt lat="48.38483" lon="2.73029">
        <ele>91</ele>
        <time>2022-02-09T15:15:49.824Z</time>
      </trkpt>
      <trkpt lat="48.38481" lon="2.73017">
        <ele>91</ele>
        <time>2022-02-09T15:15:54.819Z</time>
      </trkpt>
      <trkpt lat="48.38479" lon="2.73008">
        <ele>90</ele>
        <time>2022-02-09T15:15:59.821Z</time>
      </trkpt>
      <trkpt lat="48.38476" lon="2.73001">
        <ele>90</ele>
        <time>2022-02-09T15:16:03.839Z</time>
      </trkpt>
      <trkpt lat="48.38475" lon="2.72993">
        <ele>90</ele>
        <time>2022-02-09T15:16:07.859Z</time>
      </trkpt>
      <trkpt lat="48.38473" lon="2.72984">
        <ele>89</ele>
        <time>2022-02-09T15:16:12.858Z</time>
      </trkpt>
      <trkpt lat="48.38472" lon="2.72975">
        <ele>89</ele>
        <time>2022-02-09T15:16:16.867Z</time>
      </trkpt>
      <trkpt lat="48.38472" lon="2.72966">
        <ele>89</ele>
        <time>2022-02-09T15:16:21.861Z</time>
      </trkpt>
      <trkpt lat="48.38469" lon="2.72955">
        <ele>88</ele>
        <time>2022-02-09T15:16:26.856Z</time>
      </trkpt>
      <trkpt lat="48.38467" lon="2.72944">
        <ele>88</ele>
        <time>2022-02-09T15:16:31.859Z</time>
      </trkpt>
      <trkpt lat="48.38465" lon="2.72934">
        <ele>88</ele>
        <time>2022-02-09T15:16:36.846Z</time>
      </trkpt>
      <trkpt lat="48.38463" lon="2.72923">
        <ele>88</ele>
        <time>2022-02-09T15:16:41.830Z</time>
      </trkpt>
      <trkpt lat="48.38462" lon="2.72914">
        <ele>88</ele>
        <time>2022-02-09T15:16:45.860Z</time>
      </trkpt>
      <trkpt lat="48.3846" lon="2.72905">
        <ele>88</ele>
        <time>2022-02-09T15:16:50.823Z</time>
      </trkpt>
      <trkpt lat="48.38459" lon="2.72898">
        <ele>88</ele>
        <time>2022-02-09T15:16:54.851Z</time>
      </trkpt>
      <trkpt lat="48.38457" lon="2.7289">
        <ele>86</ele>
        <time>2022-02-09T15:16:59.821Z</time>
      </trkpt>
      <trkpt lat="48.38455" lon="2.72883">
        <ele>86</ele>
        <time>2022-02-09T15:17:03.836Z</time>
      </trkpt>
      <trkpt lat="48.38454" lon="2.72875">
        <ele>85</ele>
        <time>2022-02-09T15:17:07.869Z</time>
      </trkpt>
      <trkpt lat="48.38452" lon="2.72866">
        <ele>85</ele>
        <time>2022-02-09T15:17:12.870Z</time>
      </trkpt>
      <trkpt lat="48.38451" lon="2.72858">
        <ele>85</ele>
        <time>2022-02-09T15:17:16.871Z</time>
      </trkpt>
      <trkpt lat="48.38449" lon="2.72848">
        <ele>85</ele>
        <time>2022-02-09T15:17:21.817Z</time>
      </trkpt>
      <trkpt lat="48.38448" lon="2.72838">
        <ele>85</ele>
        <time>2022-02-09T15:17:25.817Z</time>
      </trkpt>
      <trkpt lat="48.38446" lon="2.72828">
        <ele>85</ele>
        <time>2022-02-09T15:17:30.813Z</time>
      </trkpt>
      <trkpt lat="48.38444" lon="2.72818">
        <ele>84</ele>
        <time>2022-02-09T15:17:35.820Z</time>
      </trkpt>
      <trkpt lat="48.38441" lon="2.7281">
        <ele>84</ele>
        <time>2022-02-09T15:17:39.820Z</time>
      </trkpt>
      <trkpt lat="48.38439" lon="2.72801">
        <ele>84</ele>
        <time>2022-02-09T15:17:43.823Z</time>
      </trkpt>
      <trkpt lat="48.38436" lon="2.72793">
        <ele>84</ele>
        <time>2022-02-09T15:17:47.857Z</time>
      </trkpt>
      <trkpt lat="48.38435" lon="2.72782">
        <ele>84</ele>
        <time>2022-02-09T15:17:52.854Z</time>
      </trkpt>
      <trkpt lat="48.38432" lon="2.72773">
        <ele>84</ele>
        <time>2022-02-09T15:17:57.824Z</time>
      </trkpt>
      <trkpt lat="48.38432" lon="2.72764">
        <ele>85</ele>
        <time>2022-02-09T15:18:02.833Z</time>
      </trkpt>
      <trkpt lat="48.3843" lon="2.72755">
        <ele>85</ele>
        <time>2022-02-09T15:18:06.863Z</time>
      </trkpt>
      <trkpt lat="48.38428" lon="2.72745">
        <ele>85</ele>
        <time>2022-02-09T15:18:11.864Z</time>
      </trkpt>
      <trkpt lat="48.38425" lon="2.72737">
        <ele>85</ele>
        <time>2022-02-09T15:18:16.857Z</time>
      </trkpt>
      <trkpt lat="48.38424" lon="2.72728">
        <ele>86</ele>
        <time>2022-02-09T15:18:21.852Z</time>
      </trkpt>
      <trkpt lat="48.38423" lon="2.72718">
        <ele>86</ele>
        <time>2022-02-09T15:18:26.852Z</time>
      </trkpt>
      <trkpt lat="48.38422" lon="2.72709">
        <ele>86</ele>
        <time>2022-02-09T15:18:31.854Z</time>
      </trkpt>
      <trkpt lat="48.3842" lon="2.72698">
        <ele>85</ele>
        <time>2022-02-09T15:18:36.849Z</time>
      </trkpt>
      <trkpt lat="48.38418" lon="2.72689">
        <ele>85</ele>
        <time>2022-02-09T15:18:40.859Z</time>
      </trkpt>
      <trkpt lat="48.38416" lon="2.72679">
        <ele>85</ele>
        <time>2022-02-09T15:18:45.827Z</time>
      </trkpt>
      <trkpt lat="48.38413" lon="2.72669">
        <ele>85</ele>
        <time>2022-02-09T15:18:50.820Z</time>
      </trkpt>
      <trkpt lat="48.38412" lon="2.72661">
        <ele>85</ele>
        <time>2022-02-09T15:18:54.852Z</time>
      </trkpt>
      <trkpt lat="48.38412" lon="2.72649">
        <ele>84</ele>
        <time>2022-02-09T15:18:59.836Z</time>
      </trkpt>
      <trkpt lat="48.38409" lon="2.72637">
        <ele>84</ele>
        <time>2022-02-09T15:19:04.817Z</time>
      </trkpt>
      <trkpt lat="48.38407" lon="2.72629">
        <ele>84</ele>
        <time>2022-02-09T15:19:08.825Z</time>
      </trkpt>
      <trkpt lat="48.38406" lon="2.72619">
        <ele>84</ele>
        <time>2022-02-09T15:19:13.819Z</time>
      </trkpt>
      <trkpt lat="48.38403" lon="2.7261">
        <ele>84</ele>
        <time>2022-02-09T15:19:17.861Z</time>
      </trkpt>
      <trkpt lat="48.384" lon="2.72601">
        <ele>83</ele>
        <time>2022-02-09T15:19:22.854Z</time>
      </trkpt>
      <trkpt lat="48.38398" lon="2.72591">
        <ele>83</ele>
        <time>2022-02-09T15:19:27.814Z</time>
      </trkpt>
      <trkpt lat="48.38397" lon="2.72583">
        <ele>83</ele>
        <time>2022-02-09T15:19:32.823Z</time>
      </trkpt>
      <trkpt lat="48.38396" lon="2.72575">
        <ele>83</ele>
        <time>2022-02-09T15:19:37.863Z</time>
      </trkpt>
      <trkpt lat="48.38392" lon="2.72565">
        <ele>84</ele>
        <time>2022-02-09T15:19:42.826Z</time>
      </trkpt>
      <trkpt lat="48.38391" lon="2.72554">
        <ele>84</ele>
        <time>2022-02-09T15:19:47.825Z</time>
      </trkpt>
      <trkpt lat="48.3839" lon="2.72545">
        <ele>84</ele>
        <time>2022-02-09T15:19:52.818Z</time>
      </trkpt>
      <trkpt lat="48.38387" lon="2.72537">
        <ele>84</ele>
        <time>2022-02-09T15:19:56.820Z</time>
      </trkpt>
      <trkpt lat="48.38385" lon="2.72527">
        <ele>84</ele>
        <time>2022-02-09T15:20:01.822Z</time>
      </trkpt>
      <trkpt lat="48.38384" lon="2.72517">
        <ele>84</ele>
        <time>2022-02-09T15:20:06.819Z</time>
      </trkpt>
      <trkpt lat="48.38382" lon="2.72508">
        <ele>83</ele>
        <time>2022-02-09T15:20:11.819Z</time>
      </trkpt>
      <trkpt lat="48.38381" lon="2.725">
        <ele>83</ele>
        <time>2022-02-09T15:20:15.821Z</time>
      </trkpt>
      <trkpt lat="48.38381" lon="2.72491">
        <ele>83</ele>
        <time>2022-02-09T15:20:20.817Z</time>
      </trkpt>
      <trkpt lat="48.3838" lon="2.72482">
        <ele>83</ele>
        <time>2022-02-09T15:20:25.823Z</time>
      </trkpt>
      <trkpt lat="48.38379" lon="2.72471">
        <ele>83</ele>
        <time>2022-02-09T15:20:30.814Z</time>
      </trkpt>
      <trkpt lat="48.38378" lon="2.72464">
        <ele>83</ele>
        <time>2022-02-09T15:20:34.828Z</time>
      </trkpt>
      <trkpt lat="48.38374" lon="2.72456">
        <ele>85</ele>
        <time>2022-02-09T15:20:39.822Z</time>
      </trkpt>
      <trkpt lat="48.38375" lon="2.72451">
        <ele>85</ele>
        <time>2022-02-09T15:20:43.831Z</time>
      </trkpt>
      <trkpt lat="48.38373" lon="2.72452">
        <ele>85</ele>
        <time>2022-02-09T15:23:39.817Z</time>
      </trkpt>
      <trkpt lat="48.38373" lon="2.72453">
        <ele>85</ele>
        <time>2022-02-09T15:23:43.828Z</time>
      </trkpt>
      <trkpt lat="48.38369" lon="2.72454">
        <ele>85</ele>
        <time>2022-02-09T15:23:47.832Z</time>
      </trkpt>
      <trkpt lat="48.38369" lon="2.72446">
        <ele>85</ele>
        <time>2022-02-09T15:23:52.834Z</time>
      </trkpt>
      <trkpt lat="48.38368" lon="2.72439">
        <ele>85</ele>
        <time>2022-02-09T15:23:56.825Z</time>
      </trkpt>
      <trkpt lat="48.38367" lon="2.7243">
        <ele>85</ele>
        <time>2022-02-09T15:24:01.823Z</time>
      </trkpt>
      <trkpt lat="48.38368" lon="2.72423">
        <ele>85</ele>
        <time>2022-02-09T15:24:05.837Z</time>
      </trkpt>
      <trkpt lat="48.38369" lon="2.72416">
        <ele>85</ele>
        <time>2022-02-09T15:24:10.826Z</time>
      </trkpt>
      <trkpt lat="48.3837" lon="2.72408">
        <ele>85</ele>
        <time>2022-02-09T15:24:15.823Z</time>
      </trkpt>
      <trkpt lat="48.3837" lon="2.72401">
        <ele>85</ele>
        <time>2022-02-09T15:24:19.835Z</time>
      </trkpt>
      <trkpt lat="48.3837" lon="2.72394">
        <ele>85</ele>
        <time>2022-02-09T15:24:24.821Z</time>
      </trkpt>
      <trkpt lat="48.3837" lon="2.72386">
        <ele>85</ele>
        <time>2022-02-09T15:24:28.828Z</time>
      </trkpt>
      <trkpt lat="48.38371" lon="2.72377">
        <ele>85</ele>
        <time>2022-02-09T15:24:32.938Z</time>
      </trkpt>
      <trkpt lat="48.38371" lon="2.72366">
        <ele>84</ele>
        <time>2022-02-09T15:24:37.821Z</time>
      </trkpt>
      <trkpt lat="48.38371" lon="2.72357">
        <ele>84</ele>
        <time>2022-02-09T15:24:41.829Z</time>
      </trkpt>
      <trkpt lat="48.3837" lon="2.72346">
        <ele>84</ele>
        <time>2022-02-09T15:24:46.827Z</time>
      </trkpt>
      <trkpt lat="48.3837" lon="2.72335">
        <ele>84</ele>
        <time>2022-02-09T15:24:51.827Z</time>
      </trkpt>
      <trkpt lat="48.38368" lon="2.72324">
        <ele>84</ele>
        <time>2022-02-09T15:24:56.828Z</time>
      </trkpt>
      <trkpt lat="48.38367" lon="2.72316">
        <ele>85</ele>
        <time>2022-02-09T15:25:00.831Z</time>
      </trkpt>
      <trkpt lat="48.38367" lon="2.72306">
        <ele>85</ele>
        <time>2022-02-09T15:25:05.818Z</time>
      </trkpt>
      <trkpt lat="48.38367" lon="2.72296">
        <ele>85</ele>
        <time>2022-02-09T15:25:10.828Z</time>
      </trkpt>
      <trkpt lat="48.38367" lon="2.72286">
        <ele>85</ele>
        <time>2022-02-09T15:25:15.826Z</time>
      </trkpt>
      <trkpt lat="48.38366" lon="2.72277">
        <ele>85</ele>
        <time>2022-02-09T15:25:20.829Z</time>
      </trkpt>
      <trkpt lat="48.38365" lon="2.72267">
        <ele>85</ele>
        <time>2022-02-09T15:25:25.826Z</time>
      </trkpt>
      <trkpt lat="48.38364" lon="2.72258">
        <ele>85</ele>
        <time>2022-02-09T15:25:30.828Z</time>
      </trkpt>
      <trkpt lat="48.38365" lon="2.72247">
        <ele>85</ele>
        <time>2022-02-09T15:25:35.832Z</time>
      </trkpt>
      <trkpt lat="48.38364" lon="2.72237">
        <ele>85</ele>
        <time>2022-02-09T15:25:40.823Z</time>
      </trkpt>
      <trkpt lat="48.38364" lon="2.72228">
        <ele>85</ele>
        <time>2022-02-09T15:25:45.833Z</time>
      </trkpt>
      <trkpt lat="48.38364" lon="2.72217">
        <ele>85</ele>
        <time>2022-02-09T15:25:50.833Z</time>
      </trkpt>
      <trkpt lat="48.38363" lon="2.72207">
        <ele>85</ele>
        <time>2022-02-09T15:25:55.836Z</time>
      </trkpt>
      <trkpt lat="48.38364" lon="2.72196">
        <ele>85</ele>
        <time>2022-02-09T15:26:00.838Z</time>
      </trkpt>
      <trkpt lat="48.38363" lon="2.72188">
        <ele>85</ele>
        <time>2022-02-09T15:26:05.826Z</time>
      </trkpt>
      <trkpt lat="48.38362" lon="2.72178">
        <ele>86</ele>
        <time>2022-02-09T15:26:09.829Z</time>
      </trkpt>
      <trkpt lat="48.38359" lon="2.72161">
        <ele>86</ele>
        <time>2022-02-09T15:26:41.840Z</time>
      </trkpt>
      <trkpt lat="48.38359" lon="2.72157">
        <ele>86</ele>
        <time>2022-02-09T15:26:46.827Z</time>
      </trkpt>
      <trkpt lat="48.3836" lon="2.72148">
        <ele>86</ele>
        <time>2022-02-09T15:26:51.823Z</time>
      </trkpt>
      <trkpt lat="48.3836" lon="2.72143">
        <ele>86</ele>
        <time>2022-02-09T15:26:55.822Z</time>
      </trkpt>
      <trkpt lat="48.38358" lon="2.72137">
        <ele>86</ele>
        <time>2022-02-09T15:27:00.822Z</time>
      </trkpt>
      <trkpt lat="48.38357" lon="2.72133">
        <ele>86</ele>
        <time>2022-02-09T15:27:04.825Z</time>
      </trkpt>
      <trkpt lat="48.38359" lon="2.72125">
        <ele>86</ele>
        <time>2022-02-09T15:27:09.825Z</time>
      </trkpt>
      <trkpt lat="48.3836" lon="2.72118">
        <ele>87</ele>
        <time>2022-02-09T15:27:13.823Z</time>
      </trkpt>
      <trkpt lat="48.3836" lon="2.72111">
        <ele>87</ele>
        <time>2022-02-09T15:27:17.836Z</time>
      </trkpt>
      <trkpt lat="48.38361" lon="2.72102">
        <ele>87</ele>
        <time>2022-02-09T15:27:22.832Z</time>
      </trkpt>
      <trkpt lat="48.38361" lon="2.72092">
        <ele>88</ele>
        <time>2022-02-09T15:27:27.837Z</time>
      </trkpt>
      <trkpt lat="48.38362" lon="2.72083">
        <ele>88</ele>
        <time>2022-02-09T15:27:32.831Z</time>
      </trkpt>
      <trkpt lat="48.38363" lon="2.72074">
        <ele>88</ele>
        <time>2022-02-09T15:27:37.827Z</time>
      </trkpt>
      <trkpt lat="48.38364" lon="2.72066">
        <ele>89</ele>
        <time>2022-02-09T15:27:41.838Z</time>
      </trkpt>
      <trkpt lat="48.38365" lon="2.72056">
        <ele>89</ele>
        <time>2022-02-09T15:27:46.838Z</time>
      </trkpt>
      <trkpt lat="48.38367" lon="2.72047">
        <ele>89</ele>
        <time>2022-02-09T15:27:51.829Z</time>
      </trkpt>
      <trkpt lat="48.38369" lon="2.72037">
        <ele>91</ele>
        <time>2022-02-09T15:27:56.830Z</time>
      </trkpt>
      <trkpt lat="48.38371" lon="2.72027">
        <ele>91</ele>
        <time>2022-02-09T15:28:01.823Z</time>
      </trkpt>
      <trkpt lat="48.38372" lon="2.72017">
        <ele>91</ele>
        <time>2022-02-09T15:28:06.831Z</time>
      </trkpt>
      <trkpt lat="48.38374" lon="2.72006">
        <ele>91</ele>
        <time>2022-02-09T15:28:11.828Z</time>
      </trkpt>
      <trkpt lat="48.38375" lon="2.71998">
        <ele>89</ele>
        <time>2022-02-09T15:28:15.843Z</time>
      </trkpt>
      <trkpt lat="48.38376" lon="2.71988">
        <ele>89</ele>
        <time>2022-02-09T15:28:20.827Z</time>
      </trkpt>
      <trkpt lat="48.38377" lon="2.71978">
        <ele>90</ele>
        <time>2022-02-09T15:28:25.829Z</time>
      </trkpt>
      <trkpt lat="48.38378" lon="2.71967">
        <ele>90</ele>
        <time>2022-02-09T15:28:30.822Z</time>
      </trkpt>
      <trkpt lat="48.38381" lon="2.71957">
        <ele>90</ele>
        <time>2022-02-09T15:28:35.824Z</time>
      </trkpt>
      <trkpt lat="48.38381" lon="2.7195">
        <ele>90</ele>
        <time>2022-02-09T15:28:39.835Z</time>
      </trkpt>
      <trkpt lat="48.38382" lon="2.71941">
        <ele>90</ele>
        <time>2022-02-09T15:28:44.826Z</time>
      </trkpt>
      <trkpt lat="48.38383" lon="2.7193">
        <ele>90</ele>
        <time>2022-02-09T15:28:49.822Z</time>
      </trkpt>
      <trkpt lat="48.38385" lon="2.7192">
        <ele>90</ele>
        <time>2022-02-09T15:28:54.832Z</time>
      </trkpt>
      <trkpt lat="48.38385" lon="2.71911">
        <ele>90</ele>
        <time>2022-02-09T15:28:59.821Z</time>
      </trkpt>
      <trkpt lat="48.38385" lon="2.71902">
        <ele>90</ele>
        <time>2022-02-09T15:29:03.827Z</time>
      </trkpt>
      <trkpt lat="48.38386" lon="2.71889">
        <ele>90</ele>
        <time>2022-02-09T15:29:08.831Z</time>
      </trkpt>
      <trkpt lat="48.38388" lon="2.7188">
        <ele>90</ele>
        <time>2022-02-09T15:29:12.832Z</time>
      </trkpt>
      <trkpt lat="48.38389" lon="2.7187">
        <ele>89</ele>
        <time>2022-02-09T15:29:17.842Z</time>
      </trkpt>
      <trkpt lat="48.38392" lon="2.71861">
        <ele>89</ele>
        <time>2022-02-09T15:29:22.834Z</time>
      </trkpt>
      <trkpt lat="48.38394" lon="2.71851">
        <ele>89</ele>
        <time>2022-02-09T15:29:27.821Z</time>
      </trkpt>
      <trkpt lat="48.38395" lon="2.71842">
        <ele>87</ele>
        <time>2022-02-09T15:29:32.837Z</time>
      </trkpt>
      <trkpt lat="48.38395" lon="2.71832">
        <ele>87</ele>
        <time>2022-02-09T15:29:37.819Z</time>
      </trkpt>
      <trkpt lat="48.38397" lon="2.71825">
        <ele>87</ele>
        <time>2022-02-09T15:29:41.833Z</time>
      </trkpt>
      <trkpt lat="48.38398" lon="2.71814">
        <ele>86</ele>
        <time>2022-02-09T15:29:46.827Z</time>
      </trkpt>
      <trkpt lat="48.384" lon="2.71807">
        <ele>86</ele>
        <time>2022-02-09T15:29:50.834Z</time>
      </trkpt>
      <trkpt lat="48.38401" lon="2.71797">
        <ele>86</ele>
        <time>2022-02-09T15:29:55.823Z</time>
      </trkpt>
      <trkpt lat="48.38401" lon="2.71789">
        <ele>86</ele>
        <time>2022-02-09T15:29:59.832Z</time>
      </trkpt>
      <trkpt lat="48.38402" lon="2.71781">
        <ele>86</ele>
        <time>2022-02-09T15:30:04.834Z</time>
      </trkpt>
      <trkpt lat="48.38404" lon="2.71771">
        <ele>84</ele>
        <time>2022-02-09T15:30:09.833Z</time>
      </trkpt>
      <trkpt lat="48.38405" lon="2.71761">
        <ele>85</ele>
        <time>2022-02-09T15:30:14.824Z</time>
      </trkpt>
      <trkpt lat="48.38407" lon="2.71752">
        <ele>85</ele>
        <time>2022-02-09T15:30:18.827Z</time>
      </trkpt>
      <trkpt lat="48.38408" lon="2.71743">
        <ele>85</ele>
        <time>2022-02-09T15:30:23.836Z</time>
      </trkpt>
      <trkpt lat="48.38409" lon="2.71733">
        <ele>86</ele>
        <time>2022-02-09T15:30:28.837Z</time>
      </trkpt>
      <trkpt lat="48.3841" lon="2.71723">
        <ele>86</ele>
        <time>2022-02-09T15:30:33.827Z</time>
      </trkpt>
      <trkpt lat="48.38412" lon="2.71712">
        <ele>86</ele>
        <time>2022-02-09T15:30:38.825Z</time>
      </trkpt>
      <trkpt lat="48.38414" lon="2.71703">
        <ele>87</ele>
        <time>2022-02-09T15:30:43.824Z</time>
      </trkpt>
      <trkpt lat="48.38415" lon="2.71693">
        <ele>87</ele>
        <time>2022-02-09T15:30:48.821Z</time>
      </trkpt>
      <trkpt lat="48.38416" lon="2.71685">
        <ele>87</ele>
        <time>2022-02-09T15:30:52.834Z</time>
      </trkpt>
      <trkpt lat="48.38418" lon="2.71678">
        <ele>87</ele>
        <time>2022-02-09T15:30:56.830Z</time>
      </trkpt>
      <trkpt lat="48.3842" lon="2.71668">
        <ele>87</ele>
        <time>2022-02-09T15:31:01.833Z</time>
      </trkpt>
      <trkpt lat="48.38421" lon="2.71658">
        <ele>87</ele>
        <time>2022-02-09T15:31:06.823Z</time>
      </trkpt>
      <trkpt lat="48.38421" lon="2.71651">
        <ele>88</ele>
        <time>2022-02-09T15:31:10.833Z</time>
      </trkpt>
      <trkpt lat="48.38421" lon="2.71641">
        <ele>88</ele>
        <time>2022-02-09T15:31:15.817Z</time>
      </trkpt>
      <trkpt lat="48.38423" lon="2.71631">
        <ele>88</ele>
        <time>2022-02-09T15:31:20.817Z</time>
      </trkpt>
      <trkpt lat="48.38423" lon="2.71621">
        <ele>88</ele>
        <time>2022-02-09T15:31:25.818Z</time>
      </trkpt>
      <trkpt lat="48.38425" lon="2.71613">
        <ele>88</ele>
        <time>2022-02-09T15:31:29.823Z</time>
      </trkpt>
      <trkpt lat="48.38426" lon="2.71605">
        <ele>88</ele>
        <time>2022-02-09T15:31:33.821Z</time>
      </trkpt>
      <trkpt lat="48.38428" lon="2.71598">
        <ele>88</ele>
        <time>2022-02-09T15:31:37.825Z</time>
      </trkpt>
      <trkpt lat="48.3843" lon="2.71588">
        <ele>90</ele>
        <time>2022-02-09T15:31:42.832Z</time>
      </trkpt>
      <trkpt lat="48.38432" lon="2.71573">
        <ele>89</ele>
        <time>2022-02-09T15:31:47.820Z</time>
      </trkpt>
      <trkpt lat="48.38432" lon="2.71567">
        <ele>90</ele>
        <time>2022-02-09T15:31:51.837Z</time>
      </trkpt>
      <trkpt lat="48.38434" lon="2.71559">
        <ele>90</ele>
        <time>2022-02-09T15:31:56.838Z</time>
      </trkpt>
      <trkpt lat="48.38435" lon="2.7155">
        <ele>90</ele>
        <time>2022-02-09T15:32:01.837Z</time>
      </trkpt>
      <trkpt lat="48.38436" lon="2.71542">
        <ele>90</ele>
        <time>2022-02-09T15:32:05.839Z</time>
      </trkpt>
      <trkpt lat="48.38438" lon="2.71532">
        <ele>93</ele>
        <time>2022-02-09T15:32:10.836Z</time>
      </trkpt>
      <trkpt lat="48.3844" lon="2.71523">
        <ele>93</ele>
        <time>2022-02-09T15:32:15.824Z</time>
      </trkpt>
      <trkpt lat="48.38442" lon="2.71517">
        <ele>93</ele>
        <time>2022-02-09T15:32:19.821Z</time>
      </trkpt>
      <trkpt lat="48.38444" lon="2.71509">
        <ele>94</ele>
        <time>2022-02-09T15:32:23.835Z</time>
      </trkpt>
      <trkpt lat="48.38446" lon="2.715">
        <ele>94</ele>
        <time>2022-02-09T15:32:28.821Z</time>
      </trkpt>
      <trkpt lat="48.38448" lon="2.71491">
        <ele>94</ele>
        <time>2022-02-09T15:32:33.817Z</time>
      </trkpt>
      <trkpt lat="48.38449" lon="2.71483">
        <ele>96</ele>
        <time>2022-02-09T15:32:37.820Z</time>
      </trkpt>
      <trkpt lat="48.38451" lon="2.71476">
        <ele>96</ele>
        <time>2022-02-09T15:32:41.823Z</time>
      </trkpt>
      <trkpt lat="48.38452" lon="2.71468">
        <ele>96</ele>
        <time>2022-02-09T15:32:46.830Z</time>
      </trkpt>
      <trkpt lat="48.38453" lon="2.71459">
        <ele>96</ele>
        <time>2022-02-09T15:32:51.829Z</time>
      </trkpt>
      <trkpt lat="48.38453" lon="2.71449">
        <ele>97</ele>
        <time>2022-02-09T15:32:56.830Z</time>
      </trkpt>
      <trkpt lat="48.38454" lon="2.71439">
        <ele>97</ele>
        <time>2022-02-09T15:33:01.816Z</time>
      </trkpt>
      <trkpt lat="48.38456" lon="2.7143">
        <ele>98</ele>
        <time>2022-02-09T15:33:05.838Z</time>
      </trkpt>
      <trkpt lat="48.38456" lon="2.71421">
        <ele>98</ele>
        <time>2022-02-09T15:33:10.837Z</time>
      </trkpt>
      <trkpt lat="48.38458" lon="2.71413">
        <ele>96</ele>
        <time>2022-02-09T15:33:15.817Z</time>
      </trkpt>
      <trkpt lat="48.38458" lon="2.71405">
        <ele>98</ele>
        <time>2022-02-09T15:33:19.823Z</time>
      </trkpt>
      <trkpt lat="48.38459" lon="2.71396">
        <ele>97</ele>
        <time>2022-02-09T15:33:23.829Z</time>
      </trkpt>
      <trkpt lat="48.38461" lon="2.71386">
        <ele>97</ele>
        <time>2022-02-09T15:33:28.833Z</time>
      </trkpt>
      <trkpt lat="48.38463" lon="2.71377">
        <ele>97</ele>
        <time>2022-02-09T15:33:33.822Z</time>
      </trkpt>
      <trkpt lat="48.38463" lon="2.71369">
        <ele>99</ele>
        <time>2022-02-09T15:33:37.832Z</time>
      </trkpt>
      <trkpt lat="48.38464" lon="2.7136">
        <ele>99</ele>
        <time>2022-02-09T15:33:42.831Z</time>
      </trkpt>
      <trkpt lat="48.38468" lon="2.71351">
        <ele>99</ele>
        <time>2022-02-09T15:33:47.823Z</time>
      </trkpt>
      <trkpt lat="48.38469" lon="2.71342">
        <ele>100</ele>
        <time>2022-02-09T15:33:52.826Z</time>
      </trkpt>
      <trkpt lat="48.3847" lon="2.71334">
        <ele>100</ele>
        <time>2022-02-09T15:33:56.826Z</time>
      </trkpt>
      <trkpt lat="48.38471" lon="2.71326">
        <ele>100</ele>
        <time>2022-02-09T15:34:00.825Z</time>
      </trkpt>
      <trkpt lat="48.38473" lon="2.71317">
        <ele>100</ele>
        <time>2022-02-09T15:34:05.830Z</time>
      </trkpt>
      <trkpt lat="48.38475" lon="2.71308">
        <ele>100</ele>
        <time>2022-02-09T15:34:10.829Z</time>
      </trkpt>
      <trkpt lat="48.38476" lon="2.71298">
        <ele>100</ele>
        <time>2022-02-09T15:34:15.831Z</time>
      </trkpt>
      <trkpt lat="48.38477" lon="2.71288">
        <ele>100</ele>
        <time>2022-02-09T15:34:20.827Z</time>
      </trkpt>
      <trkpt lat="48.38478" lon="2.7128">
        <ele>100</ele>
        <time>2022-02-09T15:34:24.861Z</time>
      </trkpt>
      <trkpt lat="48.38479" lon="2.71271">
        <ele>100</ele>
        <time>2022-02-09T15:34:29.827Z</time>
      </trkpt>
      <trkpt lat="48.38479" lon="2.71263">
        <ele>100</ele>
        <time>2022-02-09T15:34:33.837Z</time>
      </trkpt>
      <trkpt lat="48.3848" lon="2.71254">
        <ele>100</ele>
        <time>2022-02-09T15:34:38.834Z</time>
      </trkpt>
      <trkpt lat="48.38482" lon="2.71244">
        <ele>100</ele>
        <time>2022-02-09T15:34:43.820Z</time>
      </trkpt>
      <trkpt lat="48.38483" lon="2.71238">
        <ele>100</ele>
        <time>2022-02-09T15:34:47.828Z</time>
      </trkpt>
      <trkpt lat="48.38484" lon="2.71228">
        <ele>100</ele>
        <time>2022-02-09T15:34:52.831Z</time>
      </trkpt>
      <trkpt lat="48.38485" lon="2.71217">
        <ele>100</ele>
        <time>2022-02-09T15:34:57.819Z</time>
      </trkpt>
      <trkpt lat="48.38487" lon="2.71207">
        <ele>100</ele>
        <time>2022-02-09T15:35:02.819Z</time>
      </trkpt>
      <trkpt lat="48.38489" lon="2.71197">
        <ele>100</ele>
        <time>2022-02-09T15:35:07.825Z</time>
      </trkpt>
      <trkpt lat="48.3849" lon="2.71187">
        <ele>100</ele>
        <time>2022-02-09T15:35:12.826Z</time>
      </trkpt>
      <trkpt lat="48.38491" lon="2.71178">
        <ele>100</ele>
        <time>2022-02-09T15:35:17.825Z</time>
      </trkpt>
      <trkpt lat="48.38492" lon="2.71169">
        <ele>100</ele>
        <time>2022-02-09T15:35:22.824Z</time>
      </trkpt>
      <trkpt lat="48.38492" lon="2.71161">
        <ele>100</ele>
        <time>2022-02-09T15:35:26.834Z</time>
      </trkpt>
      <trkpt lat="48.38492" lon="2.71151">
        <ele>99</ele>
        <time>2022-02-09T15:35:31.820Z</time>
      </trkpt>
      <trkpt lat="48.38494" lon="2.71141">
        <ele>99</ele>
        <time>2022-02-09T15:35:36.830Z</time>
      </trkpt>
      <trkpt lat="48.38496" lon="2.71131">
        <ele>99</ele>
        <time>2022-02-09T15:35:41.829Z</time>
      </trkpt>
      <trkpt lat="48.38498" lon="2.71119">
        <ele>98</ele>
        <time>2022-02-09T15:35:46.824Z</time>
      </trkpt>
      <trkpt lat="48.385" lon="2.71111">
        <ele>98</ele>
        <time>2022-02-09T15:35:50.841Z</time>
      </trkpt>
      <trkpt lat="48.38502" lon="2.71102">
        <ele>98</ele>
        <time>2022-02-09T15:35:55.825Z</time>
      </trkpt>
      <trkpt lat="48.38502" lon="2.71095">
        <ele>100</ele>
        <time>2022-02-09T15:35:59.830Z</time>
      </trkpt>
      <trkpt lat="48.38503" lon="2.71085">
        <ele>100</ele>
        <time>2022-02-09T15:36:04.835Z</time>
      </trkpt>
      <trkpt lat="48.38504" lon="2.71075">
        <ele>100</ele>
        <time>2022-02-09T15:36:09.823Z</time>
      </trkpt>
      <trkpt lat="48.38505" lon="2.71067">
        <ele>102</ele>
        <time>2022-02-09T15:36:13.828Z</time>
      </trkpt>
      <trkpt lat="48.38506" lon="2.71058">
        <ele>102</ele>
        <time>2022-02-09T15:36:18.822Z</time>
      </trkpt>
      <trkpt lat="48.38507" lon="2.7105">
        <ele>102</ele>
        <time>2022-02-09T15:36:22.831Z</time>
      </trkpt>
      <trkpt lat="48.38508" lon="2.7104">
        <ele>103</ele>
        <time>2022-02-09T15:36:27.866Z</time>
      </trkpt>
      <trkpt lat="48.38511" lon="2.71028">
        <ele>103</ele>
        <time>2022-02-09T15:36:32.820Z</time>
      </trkpt>
      <trkpt lat="48.38513" lon="2.71019">
        <ele>103</ele>
        <time>2022-02-09T15:36:36.851Z</time>
      </trkpt>
      <trkpt lat="48.38514" lon="2.71011">
        <ele>103</ele>
        <time>2022-02-09T15:36:40.853Z</time>
      </trkpt>
      <trkpt lat="48.38514" lon="2.71002">
        <ele>103</ele>
        <time>2022-02-09T15:36:45.817Z</time>
      </trkpt>
      <trkpt lat="48.38515" lon="2.70994">
        <ele>103</ele>
        <time>2022-02-09T15:36:49.829Z</time>
      </trkpt>
      <trkpt lat="48.38516" lon="2.70985">
        <ele>103</ele>
        <time>2022-02-09T15:36:54.832Z</time>
      </trkpt>
      <trkpt lat="48.38517" lon="2.70979">
        <ele>103</ele>
        <time>2022-02-09T15:36:58.888Z</time>
      </trkpt>
      <trkpt lat="48.38517" lon="2.7097">
        <ele>103</ele>
        <time>2022-02-09T15:37:03.827Z</time>
      </trkpt>
      <trkpt lat="48.38519" lon="2.70963">
        <ele>103</ele>
        <time>2022-02-09T15:37:07.867Z</time>
      </trkpt>
      <trkpt lat="48.38519" lon="2.70952">
        <ele>104</ele>
        <time>2022-02-09T15:37:12.871Z</time>
      </trkpt>
      <trkpt lat="48.38521" lon="2.70943">
        <ele>104</ele>
        <time>2022-02-09T15:37:17.825Z</time>
      </trkpt>
      <trkpt lat="48.38522" lon="2.70934">
        <ele>104</ele>
        <time>2022-02-09T15:37:21.835Z</time>
      </trkpt>
      <trkpt lat="48.38524" lon="2.70927">
        <ele>105</ele>
        <time>2022-02-09T15:37:25.883Z</time>
      </trkpt>
      <trkpt lat="48.38526" lon="2.70918">
        <ele>105</ele>
        <time>2022-02-09T15:37:30.818Z</time>
      </trkpt>
      <trkpt lat="48.38526" lon="2.70911">
        <ele>105</ele>
        <time>2022-02-09T15:37:34.825Z</time>
      </trkpt>
      <trkpt lat="48.38529" lon="2.70903">
        <ele>105</ele>
        <time>2022-02-09T15:37:38.829Z</time>
      </trkpt>
      <trkpt lat="48.38531" lon="2.70894">
        <ele>105</ele>
        <time>2022-02-09T15:37:42.873Z</time>
      </trkpt>
      <trkpt lat="48.38532" lon="2.70886">
        <ele>105</ele>
        <time>2022-02-09T15:37:46.912Z</time>
      </trkpt>
      <trkpt lat="48.38533" lon="2.70875">
        <ele>105</ele>
        <time>2022-02-09T15:37:51.822Z</time>
      </trkpt>
      <trkpt lat="48.38534" lon="2.70866">
        <ele>108</ele>
        <time>2022-02-09T15:37:56.830Z</time>
      </trkpt>
      <trkpt lat="48.38536" lon="2.70856">
        <ele>108</ele>
        <time>2022-02-09T15:38:01.824Z</time>
      </trkpt>
      <trkpt lat="48.38538" lon="2.70846">
        <ele>111</ele>
        <time>2022-02-09T15:38:06.819Z</time>
      </trkpt>
      <trkpt lat="48.38539" lon="2.70839">
        <ele>111</ele>
        <time>2022-02-09T15:38:10.821Z</time>
      </trkpt>
      <trkpt lat="48.38539" lon="2.7083">
        <ele>111</ele>
        <time>2022-02-09T15:38:15.822Z</time>
      </trkpt>
      <trkpt lat="48.38541" lon="2.70821">
        <ele>111</ele>
        <time>2022-02-09T15:38:20.819Z</time>
      </trkpt>
      <trkpt lat="48.38544" lon="2.70814">
        <ele>116</ele>
        <time>2022-02-09T15:38:25.869Z</time>
      </trkpt>
      <trkpt lat="48.38546" lon="2.70805">
        <ele>116</ele>
        <time>2022-02-09T15:38:30.830Z</time>
      </trkpt>
      <trkpt lat="48.38547" lon="2.70797">
        <ele>116</ele>
        <time>2022-02-09T15:38:34.828Z</time>
      </trkpt>
      <trkpt lat="48.38549" lon="2.7079">
        <ele>116</ele>
        <time>2022-02-09T15:38:38.828Z</time>
      </trkpt>
      <trkpt lat="48.38551" lon="2.70783">
        <ele>116</ele>
        <time>2022-02-09T15:38:43.831Z</time>
      </trkpt>
      <trkpt lat="48.38553" lon="2.70774">
        <ele>116</ele>
        <time>2022-02-09T15:38:48.826Z</time>
      </trkpt>
      <trkpt lat="48.38554" lon="2.70765">
        <ele>116</ele>
        <time>2022-02-09T15:38:53.827Z</time>
      </trkpt>
      <trkpt lat="48.38553" lon="2.70756">
        <ele>116</ele>
        <time>2022-02-09T15:38:58.820Z</time>
      </trkpt>
      <trkpt lat="48.38554" lon="2.70747">
        <ele>116</ele>
        <time>2022-02-09T15:39:03.819Z</time>
      </trkpt>
      <trkpt lat="48.38556" lon="2.70741">
        <ele>116</ele>
        <time>2022-02-09T15:39:07.853Z</time>
      </trkpt>
      <trkpt lat="48.38557" lon="2.70731">
        <ele>116</ele>
        <time>2022-02-09T15:39:12.823Z</time>
      </trkpt>
      <trkpt lat="48.38558" lon="2.70721">
        <ele>116</ele>
        <time>2022-02-09T15:39:17.835Z</time>
      </trkpt>
      <trkpt lat="48.38558" lon="2.70712">
        <ele>116</ele>
        <time>2022-02-09T15:39:22.827Z</time>
      </trkpt>
      <trkpt lat="48.38559" lon="2.70702">
        <ele>117</ele>
        <time>2022-02-09T15:39:27.821Z</time>
      </trkpt>
      <trkpt lat="48.38561" lon="2.70694">
        <ele>117</ele>
        <time>2022-02-09T15:39:31.845Z</time>
      </trkpt>
      <trkpt lat="48.38561" lon="2.70684">
        <ele>117</ele>
        <time>2022-02-09T15:39:36.864Z</time>
      </trkpt>
      <trkpt lat="48.38561" lon="2.70675">
        <ele>117</ele>
        <time>2022-02-09T15:39:41.864Z</time>
      </trkpt>
      <trkpt lat="48.38561" lon="2.70664">
        <ele>117</ele>
        <time>2022-02-09T15:39:46.860Z</time>
      </trkpt>
      <trkpt lat="48.38564" lon="2.70654">
        <ele>117</ele>
        <time>2022-02-09T15:39:51.833Z</time>
      </trkpt>
      <trkpt lat="48.38565" lon="2.70643">
        <ele>117</ele>
        <time>2022-02-09T15:39:56.832Z</time>
      </trkpt>
      <trkpt lat="48.38568" lon="2.70633">
        <ele>117</ele>
        <time>2022-02-09T15:40:01.824Z</time>
      </trkpt>
      <trkpt lat="48.3857" lon="2.70622">
        <ele>120</ele>
        <time>2022-02-09T15:40:06.871Z</time>
      </trkpt>
      <trkpt lat="48.38571" lon="2.70612">
        <ele>120</ele>
        <time>2022-02-09T15:40:11.827Z</time>
      </trkpt>
      <trkpt lat="48.38571" lon="2.70603">
        <ele>120</ele>
        <time>2022-02-09T15:40:16.818Z</time>
      </trkpt>
      <trkpt lat="48.38572" lon="2.70593">
        <ele>117</ele>
        <time>2022-02-09T15:40:21.822Z</time>
      </trkpt>
      <trkpt lat="48.38573" lon="2.70584">
        <ele>117</ele>
        <time>2022-02-09T15:40:26.827Z</time>
      </trkpt>
      <trkpt lat="48.38576" lon="2.70577">
        <ele>117</ele>
        <time>2022-02-09T15:40:31.821Z</time>
      </trkpt>
      <trkpt lat="48.38581" lon="2.70574">
        <ele>117</ele>
        <time>2022-02-09T15:40:35.827Z</time>
      </trkpt>
      <trkpt lat="48.38586" lon="2.70569">
        <ele>115</ele>
        <time>2022-02-09T15:40:40.835Z</time>
      </trkpt>
      <trkpt lat="48.38591" lon="2.70569">
        <ele>115</ele>
        <time>2022-02-09T15:40:45.838Z</time>
      </trkpt>
      <trkpt lat="48.38595" lon="2.70569">
        <ele>115</ele>
        <time>2022-02-09T15:40:50.828Z</time>
      </trkpt>
      <trkpt lat="48.38599" lon="2.70568">
        <ele>120</ele>
        <time>2022-02-09T15:40:54.832Z</time>
      </trkpt>
      <trkpt lat="48.38605" lon="2.70568">
        <ele>120</ele>
        <time>2022-02-09T15:40:59.824Z</time>
      </trkpt>
      <trkpt lat="48.38609" lon="2.70567">
        <ele>120</ele>
        <time>2022-02-09T15:41:03.825Z</time>
      </trkpt>
      <trkpt lat="48.38613" lon="2.70566">
        <ele>120</ele>
        <time>2022-02-09T15:41:07.831Z</time>
      </trkpt>
      <trkpt lat="48.38619" lon="2.70563">
        <ele>120</ele>
        <time>2022-02-09T15:41:12.828Z</time>
      </trkpt>
      <trkpt lat="48.38623" lon="2.70562">
        <ele>120</ele>
        <time>2022-02-09T15:41:16.850Z</time>
      </trkpt>
      <trkpt lat="48.38629" lon="2.70561">
        <ele>126</ele>
        <time>2022-02-09T15:41:21.827Z</time>
      </trkpt>
      <trkpt lat="48.38632" lon="2.7056">
        <ele>126</ele>
        <time>2022-02-09T15:41:25.834Z</time>
      </trkpt>
      <trkpt lat="48.38636" lon="2.70558">
        <ele>126</ele>
        <time>2022-02-09T15:41:30.826Z</time>
      </trkpt>
      <trkpt lat="48.38639" lon="2.70558">
        <ele>126</ele>
        <time>2022-02-09T15:41:34.841Z</time>
      </trkpt>
      <trkpt lat="48.38644" lon="2.70557">
        <ele>126</ele>
        <time>2022-02-09T15:41:39.841Z</time>
      </trkpt>
      <trkpt lat="48.3865" lon="2.70554">
        <ele>126</ele>
        <time>2022-02-09T15:41:44.832Z</time>
      </trkpt>
      <trkpt lat="48.38655" lon="2.70553">
        <ele>131</ele>
        <time>2022-02-09T15:41:49.837Z</time>
      </trkpt>
      <trkpt lat="48.3866" lon="2.70551">
        <ele>131</ele>
        <time>2022-02-09T15:41:54.833Z</time>
      </trkpt>
      <trkpt lat="48.38666" lon="2.7055">
        <ele>131</ele>
        <time>2022-02-09T15:41:59.829Z</time>
      </trkpt>
      <trkpt lat="48.38671" lon="2.70548">
        <ele>131</ele>
        <time>2022-02-09T15:42:04.825Z</time>
      </trkpt>
      <trkpt lat="48.38677" lon="2.70546">
        <ele>131</ele>
        <time>2022-02-09T15:42:09.831Z</time>
      </trkpt>
      <trkpt lat="48.38682" lon="2.70543">
        <ele>132</ele>
        <time>2022-02-09T15:42:13.836Z</time>
      </trkpt>
      <trkpt lat="48.38689" lon="2.7054">
        <ele>131</ele>
        <time>2022-02-09T15:42:18.825Z</time>
      </trkpt>
      <trkpt lat="48.38693" lon="2.70539">
        <ele>131</ele>
        <time>2022-02-09T15:42:22.829Z</time>
      </trkpt>
      <trkpt lat="48.38699" lon="2.70538">
        <ele>131</ele>
        <time>2022-02-09T15:42:27.825Z</time>
      </trkpt>
      <trkpt lat="48.38704" lon="2.70537">
        <ele>131</ele>
        <time>2022-02-09T15:42:31.829Z</time>
      </trkpt>
      <trkpt lat="48.38709" lon="2.70536">
        <ele>131</ele>
        <time>2022-02-09T15:42:35.839Z</time>
      </trkpt>
      <trkpt lat="48.38711" lon="2.70529">
        <ele>131</ele>
        <time>2022-02-09T15:42:39.846Z</time>
      </trkpt>
      <trkpt lat="48.38717" lon="2.70531">
        <ele>131</ele>
        <time>2022-02-09T15:42:44.826Z</time>
      </trkpt>
      <trkpt lat="48.38722" lon="2.7053">
        <ele>131</ele>
        <time>2022-02-09T15:42:49.819Z</time>
      </trkpt>
      <trkpt lat="48.38725" lon="2.70528">
        <ele>131</ele>
        <time>2022-02-09T15:42:53.951Z</time>
      </trkpt>
      <trkpt lat="48.38738" lon="2.70522">
        <ele>129</ele>
        <time>2022-02-09T15:45:40.824Z</time>
      </trkpt>
      <trkpt lat="48.38739" lon="2.70523">
        <ele>129</ele>
        <time>2022-02-09T15:45:45.820Z</time>
      </trkpt>
      <trkpt lat="48.38744" lon="2.70524">
        <ele>129</ele>
        <time>2022-02-09T15:45:50.823Z</time>
      </trkpt>
      <trkpt lat="48.38749" lon="2.70524">
        <ele>129</ele>
        <time>2022-02-09T15:45:55.826Z</time>
      </trkpt>
      <trkpt lat="48.38754" lon="2.70522">
        <ele>129</ele>
        <time>2022-02-09T15:45:59.839Z</time>
      </trkpt>
      <trkpt lat="48.38759" lon="2.70518">
        <ele>129</ele>
        <time>2022-02-09T15:46:04.827Z</time>
      </trkpt>
      <trkpt lat="48.38765" lon="2.70516">
        <ele>125</ele>
        <time>2022-02-09T15:46:09.820Z</time>
      </trkpt>
      <trkpt lat="48.38769" lon="2.70514">
        <ele>125</ele>
        <time>2022-02-09T15:46:13.826Z</time>
      </trkpt>
      <trkpt lat="48.38775" lon="2.70512">
        <ele>125</ele>
        <time>2022-02-09T15:46:18.826Z</time>
      </trkpt>
      <trkpt lat="48.38781" lon="2.70509">
        <ele>125</ele>
        <time>2022-02-09T15:46:23.830Z</time>
      </trkpt>
      <trkpt lat="48.38786" lon="2.70509">
        <ele>125</ele>
        <time>2022-02-09T15:46:28.818Z</time>
      </trkpt>
      <trkpt lat="48.38791" lon="2.7051">
        <ele>125</ele>
        <time>2022-02-09T15:46:32.828Z</time>
      </trkpt>
      <trkpt lat="48.38797" lon="2.70509">
        <ele>118</ele>
        <time>2022-02-09T15:46:36.834Z</time>
      </trkpt>
      <trkpt lat="48.38803" lon="2.70508">
        <ele>118</ele>
        <time>2022-02-09T15:46:41.833Z</time>
      </trkpt>
      <trkpt lat="48.3881" lon="2.70506">
        <ele>118</ele>
        <time>2022-02-09T15:46:46.829Z</time>
      </trkpt>
      <trkpt lat="48.38815" lon="2.70505">
        <ele>118</ele>
        <time>2022-02-09T15:46:50.832Z</time>
      </trkpt>
      <trkpt lat="48.38821" lon="2.70503">
        <ele>112</ele>
        <time>2022-02-09T15:46:55.831Z</time>
      </trkpt>
      <trkpt lat="48.38827" lon="2.705">
        <ele>112</ele>
        <time>2022-02-09T15:47:00.829Z</time>
      </trkpt>
      <trkpt lat="48.38833" lon="2.70499">
        <ele>112</ele>
        <time>2022-02-09T15:47:05.840Z</time>
      </trkpt>
      <trkpt lat="48.38839" lon="2.70497">
        <ele>112</ele>
        <time>2022-02-09T15:47:10.827Z</time>
      </trkpt>
      <trkpt lat="48.38844" lon="2.70494">
        <ele>112</ele>
        <time>2022-02-09T15:47:14.843Z</time>
      </trkpt>
      <trkpt lat="48.38851" lon="2.70493">
        <ele>106</ele>
        <time>2022-02-09T15:47:19.838Z</time>
      </trkpt>
      <trkpt lat="48.38857" lon="2.70491">
        <ele>106</ele>
        <time>2022-02-09T15:47:24.827Z</time>
      </trkpt>
      <trkpt lat="48.38862" lon="2.70489">
        <ele>106</ele>
        <time>2022-02-09T15:47:28.831Z</time>
      </trkpt>
      <trkpt lat="48.38869" lon="2.70485">
        <ele>107</ele>
        <time>2022-02-09T15:47:33.837Z</time>
      </trkpt>
      <trkpt lat="48.38875" lon="2.70483">
        <ele>101</ele>
        <time>2022-02-09T15:47:38.826Z</time>
      </trkpt>
      <trkpt lat="48.38881" lon="2.70481">
        <ele>101</ele>
        <time>2022-02-09T15:47:42.834Z</time>
      </trkpt>
      <trkpt lat="48.38888" lon="2.70477">
        <ele>101</ele>
        <time>2022-02-09T15:47:47.824Z</time>
      </trkpt>
      <trkpt lat="48.38892" lon="2.70476">
        <ele>101</ele>
        <time>2022-02-09T15:47:51.827Z</time>
      </trkpt>
      <trkpt lat="48.38899" lon="2.70474">
        <ele>101</ele>
        <time>2022-02-09T15:47:56.823Z</time>
      </trkpt>
      <trkpt lat="48.38906" lon="2.70472">
        <ele>99</ele>
        <time>2022-02-09T15:48:01.817Z</time>
      </trkpt>
      <trkpt lat="48.38912" lon="2.70467">
        <ele>99</ele>
        <time>2022-02-09T15:48:06.822Z</time>
      </trkpt>
      <trkpt lat="48.38919" lon="2.70466">
        <ele>99</ele>
        <time>2022-02-09T15:48:11.826Z</time>
      </trkpt>
      <trkpt lat="48.38926" lon="2.70465">
        <ele>99</ele>
        <time>2022-02-09T15:48:16.836Z</time>
      </trkpt>
      <trkpt lat="48.38934" lon="2.70462">
        <ele>98</ele>
        <time>2022-02-09T15:48:21.827Z</time>
      </trkpt>
      <trkpt lat="48.38941" lon="2.7046">
        <ele>98</ele>
        <time>2022-02-09T15:48:26.824Z</time>
      </trkpt>
      <trkpt lat="48.38946" lon="2.7046">
        <ele>98</ele>
        <time>2022-02-09T15:48:30.832Z</time>
      </trkpt>
      <trkpt lat="48.38952" lon="2.70458">
        <ele>98</ele>
        <time>2022-02-09T15:48:35.829Z</time>
      </trkpt>
      <trkpt lat="48.38957" lon="2.70456">
        <ele>98</ele>
        <time>2022-02-09T15:48:39.833Z</time>
      </trkpt>
      <trkpt lat="48.38964" lon="2.70455">
        <ele>97</ele>
        <time>2022-02-09T15:48:44.829Z</time>
      </trkpt>
      <trkpt lat="48.3897" lon="2.70454">
        <ele>97</ele>
        <time>2022-02-09T15:48:49.823Z</time>
      </trkpt>
      <trkpt lat="48.38976" lon="2.70453">
        <ele>97</ele>
        <time>2022-02-09T15:48:54.827Z</time>
      </trkpt>
      <trkpt lat="48.38981" lon="2.7045">
        <ele>97</ele>
        <time>2022-02-09T15:48:58.834Z</time>
      </trkpt>
      <trkpt lat="48.38986" lon="2.70449">
        <ele>97</ele>
        <time>2022-02-09T15:49:02.836Z</time>
      </trkpt>
      <trkpt lat="48.38993" lon="2.70444">
        <ele>97</ele>
        <time>2022-02-09T15:49:07.829Z</time>
      </trkpt>
      <trkpt lat="48.38999" lon="2.70442">
        <ele>97</ele>
        <time>2022-02-09T15:49:11.825Z</time>
      </trkpt>
      <trkpt lat="48.39005" lon="2.70443">
        <ele>97</ele>
        <time>2022-02-09T15:49:15.835Z</time>
      </trkpt>
      <trkpt lat="48.39012" lon="2.70441">
        <ele>97</ele>
        <time>2022-02-09T15:49:20.832Z</time>
      </trkpt>
      <trkpt lat="48.39017" lon="2.70439">
        <ele>96</ele>
        <time>2022-02-09T15:49:24.842Z</time>
      </trkpt>
      <trkpt lat="48.39024" lon="2.70437">
        <ele>96</ele>
        <time>2022-02-09T15:49:29.834Z</time>
      </trkpt>
      <trkpt lat="48.39032" lon="2.70436">
        <ele>96</ele>
        <time>2022-02-09T15:49:34.828Z</time>
      </trkpt>
      <trkpt lat="48.39039" lon="2.70432">
        <ele>96</ele>
        <time>2022-02-09T15:49:39.816Z</time>
      </trkpt>
      <trkpt lat="48.39044" lon="2.70431">
        <ele>97</ele>
        <time>2022-02-09T15:49:43.840Z</time>
      </trkpt>
      <trkpt lat="48.3905" lon="2.70431">
        <ele>97</ele>
        <time>2022-02-09T15:49:48.819Z</time>
      </trkpt>
      <trkpt lat="48.39055" lon="2.70429">
        <ele>97</ele>
        <time>2022-02-09T15:49:52.828Z</time>
      </trkpt>
      <trkpt lat="48.39062" lon="2.70426">
        <ele>97</ele>
        <time>2022-02-09T15:49:57.825Z</time>
      </trkpt>
      <trkpt lat="48.39067" lon="2.70424">
        <ele>97</ele>
        <time>2022-02-09T15:50:01.829Z</time>
      </trkpt>
      <trkpt lat="48.39074" lon="2.70422">
        <ele>98</ele>
        <time>2022-02-09T15:50:06.826Z</time>
      </trkpt>
      <trkpt lat="48.39081" lon="2.7042">
        <ele>98</ele>
        <time>2022-02-09T15:50:11.836Z</time>
      </trkpt>
      <trkpt lat="48.39088" lon="2.70419">
        <ele>98</ele>
        <time>2022-02-09T15:50:16.828Z</time>
      </trkpt>
      <trkpt lat="48.39095" lon="2.70416">
        <ele>98</ele>
        <time>2022-02-09T15:50:21.818Z</time>
      </trkpt>
      <trkpt lat="48.391" lon="2.70415">
        <ele>97</ele>
        <time>2022-02-09T15:50:25.836Z</time>
      </trkpt>
      <trkpt lat="48.39107" lon="2.70414">
        <ele>97</ele>
        <time>2022-02-09T15:50:29.844Z</time>
      </trkpt>
      <trkpt lat="48.39113" lon="2.7041">
        <ele>97</ele>
        <time>2022-02-09T15:50:34.823Z</time>
      </trkpt>
      <trkpt lat="48.39119" lon="2.70407">
        <ele>97</ele>
        <time>2022-02-09T15:50:39.825Z</time>
      </trkpt>
      <trkpt lat="48.39124" lon="2.70404">
        <ele>97</ele>
        <time>2022-02-09T15:50:43.827Z</time>
      </trkpt>
      <trkpt lat="48.39131" lon="2.70401">
        <ele>94</ele>
        <time>2022-02-09T15:50:48.824Z</time>
      </trkpt>
      <trkpt lat="48.39136" lon="2.70399">
        <ele>94</ele>
        <time>2022-02-09T15:50:52.830Z</time>
      </trkpt>
      <trkpt lat="48.39141" lon="2.70398">
        <ele>94</ele>
        <time>2022-02-09T15:50:57.825Z</time>
      </trkpt>
      <trkpt lat="48.39146" lon="2.70398">
        <ele>94</ele>
        <time>2022-02-09T15:51:01.824Z</time>
      </trkpt>
      <trkpt lat="48.39152" lon="2.70399">
        <ele>94</ele>
        <time>2022-02-09T15:51:06.831Z</time>
      </trkpt>
      <trkpt lat="48.39159" lon="2.70399">
        <ele>94</ele>
        <time>2022-02-09T15:51:11.832Z</time>
      </trkpt>
      <trkpt lat="48.39164" lon="2.70397">
        <ele>94</ele>
        <time>2022-02-09T15:51:15.828Z</time>
      </trkpt>
      <trkpt lat="48.3917" lon="2.7039">
        <ele>94</ele>
        <time>2022-02-09T15:51:20.829Z</time>
      </trkpt>
      <trkpt lat="48.39177" lon="2.70387">
        <ele>94</ele>
        <time>2022-02-09T15:51:25.824Z</time>
      </trkpt>
      <trkpt lat="48.39182" lon="2.70384">
        <ele>95</ele>
        <time>2022-02-09T15:51:29.829Z</time>
      </trkpt>
      <trkpt lat="48.39188" lon="2.70382">
        <ele>95</ele>
        <time>2022-02-09T15:51:34.831Z</time>
      </trkpt>
      <trkpt lat="48.39194" lon="2.7038">
        <ele>95</ele>
        <time>2022-02-09T15:51:39.837Z</time>
      </trkpt>
      <trkpt lat="48.39198" lon="2.70376">
        <ele>95</ele>
        <time>2022-02-09T15:51:44.829Z</time>
      </trkpt>
      <trkpt lat="48.39203" lon="2.70373">
        <ele>93</ele>
        <time>2022-02-09T15:51:48.843Z</time>
      </trkpt>
      <trkpt lat="48.39203" lon="2.70368">
        <ele>93</ele>
        <time>2022-02-09T15:51:53.821Z</time>
      </trkpt>
    </trkseg>
  </trk>
</gpx>